# Wetter Temperatur Luftdruck Luftfeuchtigkeit Sichtweite Windgeschwindigkeit Windrichtung Zeit
1 Clouds 12 1026 58 10000 4.12 150 13:40 22.04.2021
2 Clouds 12 1026 58 10000 4.12 150 13:20 22.04.2021
3 Clouds 13 1026 62 10000 4.63 140 12:45 22.04.2021
4 Clouds 12 1026 66 10000 4.63 130 12:22 22.04.2021
5 Clouds 12 1026 66 10000 4.12 130 11:47 22.04.2021
6 Clouds 11 1026 71 10000 4.63 130 11:23 22.04.2021
7 Clouds 11 1026 71 10000 3.6 140 10:46 22.04.2021
8 Clouds 10 1026 81 10000 4.12 140 10:24 22.04.2021
9 Clouds 10 1026 81 10000 4.63 140 09:47 22.04.2021
10 Clouds 8 1025 93 10000 2.57 130 09:24 22.04.2021
11 Clouds 6 1025 100 10000 3.09 100 08:39 22.04.2021
12 Clouds 5 1025 100 10000 3.09 100 08:21 22.04.2021
13 Clouds 5 1025 87 8000 2.06 130 07:45 22.04.2021
14 Clouds 5 1025 87 8000 2.06 130 07:24 22.04.2021
15 Clouds 6 1024 93 8000 2.06 150 06:32 22.04.2021
16 Mist 5 1024 100 4000 2.57 110 05:26 22.04.2021
17 Mist 5 1024 93 4000 2.57 90 04:56 22.04.2021
18 Clouds 6 1024 93 7000 1.54 70 01:23 22.04.2021
19 Clouds 6 1023 93 10000 3.09 90 23:53 21.04.2021
20 Clouds 6 1023 93 10000 2.06 110 23:32 21.04.2021
21 Clouds 7 1023 93 10000 2.57 100 22:44 21.04.2021
22 Clouds 8 1023 87 10000 3.09 100 22:24 21.04.2021
23 Clouds 8 1023 87 10000 3.6 90 21:50 21.04.2021
24 Clouds 9 1023 81 10000 3.6 90 21:25 21.04.2021
25 Clouds 10 1023 76 10000 4.63 90 20:59 21.04.2021
26 Clouds 11 1022 76 10000 5.14 90 20:21 21.04.2021
27 Clouds 11 1022 76 10000 5.14 90 19:45 21.04.2021
28 Clouds 12 1022 71 10000 6.17 90 19:25 21.04.2021
29 Clouds 12 1022 71 10000 6.17 90 19:25 21.04.2021
30 Clouds 12 1022 71 10000 6.17 90 18:46 21.04.2021
31 Clouds 12 1022 71 10000 6.17 90 18:28 21.04.2021
32 Clouds 12 1022 71 10000 5.66 90 17:49 21.04.2021
33 Clouds 12 1022 76 10000 5.66 80 17:25 21.04.2021
34 Clouds 13 1022 71 10000 5.66 90 16:55 21.04.2021
35 Clouds 12 1022 71 10000 5.14 90 16:23 21.04.2021
36 Clouds 12 1022 71 10000 5.66 90 15:42 21.04.2021
37 Clouds 12 1022 71 10000 5.66 90 15:42 21.04.2021
38 Clouds 12 1022 71 10000 5.66 90 15:42 21.04.2021
39 Clouds 12 1022 71 10000 6.69 80 15:18 21.04.2021
40 Clouds 11 1022 76 10000 6.69 90 14:42 21.04.2021
41 Clouds 11 1022 81 10000 7.2 90 14:22 21.04.2021
42 Clouds 11 1022 81 10000 7.2 90 13:44 21.04.2021
43 Clouds 10 1022 76 10000 6.69 90 13:21 21.04.2021
44 Clouds 10 1021 81 10000 7.72 90 12:32 21.04.2021
45 Clouds 9 1021 87 10000 6.17 90 11:50 21.04.2021
46 Clouds 10 1021 87 10000 6.69 90 11:32 21.04.2021
47 Clouds 9 1021 87 10000 5.66 80 10:57 21.04.2021
48 Clouds 9 1021 87 10000 4.12 60 10:36 21.04.2021
49 Clouds 8 1021 93 10000 3.6 60 09:54 21.04.2021
50 Clouds 8 1020 87 10000 2.57 350 09:19 21.04.2021
51 Clouds 7 1020 93 10000 2.57 320 08:41 21.04.2021
52 Clouds 7 1020 81 10000 1.54 0 08:20 21.04.2021
53 Clouds 6 1020 93 10000 2.06 290 07:32 21.04.2021
54 Clouds 6 1020 93 10000 3.09 310 06:57 21.04.2021
55 Clouds 6 1020 93 10000 3.09 310 06:57 21.04.2021
56 Clouds 6 1020 87 10000 2.57 310 05:22 21.04.2021
57 Clouds 8 1020 81 10000 3.09 360 01:33 21.04.2021
58 Clouds 9 1020 87 10000 4.63 10 23:51 20.04.2021
59 Clouds 9 1020 81 10000 4.63 20 23:31 20.04.2021
60 Clouds 9 1020 87 10000 4.63 10 22:41 20.04.2021
61 Clouds 9 1020 87 10000 4.63 10 22:22 20.04.2021
62 Clouds 9 1020 87 10000 3.6 20 21:47 20.04.2021
63 Clouds 9 1020 81 10000 4.12 20 21:26 20.04.2021
64 Clouds 10 1019 76 10000 2.06 40 20:45 20.04.2021
65 Clouds 10 1019 76 10000 4.12 20 20:24 20.04.2021
66 Clouds 11 1019 76 10000 1.54 0 19:57 20.04.2021
67 Clouds 11 1019 76 10000 2.06 100 19:39 20.04.2021
68 Clouds 11 1019 76 10000 2.06 100 19:39 20.04.2021
69 Clouds 11 1019 76 10000 2.06 100 19:39 20.04.2021
70 Clouds 10 1019 76 10000 2.06 100 19:21 20.04.2021
71 Clouds 11 1019 71 10000 2.57 90 18:36 20.04.2021
72 Clouds 11 1019 71 10000 1.54 0 17:46 20.04.2021
73 Clouds 11 1019 71 10000 1.54 0 17:28 20.04.2021
74 Clouds 11 1019 66 10000 1.54 0 16:49 20.04.2021
75 Clouds 11 1019 71 10000 2.57 110 15:53 20.04.2021
76 Clouds 11 1019 71 10000 2.57 110 15:29 20.04.2021
77 Clouds 11 1019 66 10000 2.06 70 14:58 20.04.2021
78 Clouds 11 1019 66 10000 2.06 50 14:33 20.04.2021
79 Clouds 11 1019 71 10000 1.54 0 13:48 20.04.2021
80 Clouds 11 1019 71 10000 2.06 50 13:22 20.04.2021
81 Clouds 11 1019 71 10000 1.54 0 12:41 20.04.2021
82 Clouds 10 1019 71 10000 1.54 0 12:20 20.04.2021
83 Clouds 10 1019 76 10000 1.54 0 11:44 20.04.2021
84 Clouds 10 1019 76 10000 1.54 0 11:44 20.04.2021
85 Clouds 9 1019 71 10000 1.54 0 11:21 20.04.2021
86 Clouds 9 1019 76 10000 2.06 90 10:43 20.04.2021
87 Clouds 9 1019 76 10000 2.06 90 10:43 20.04.2021
88 Clouds 8 1019 87 10000 1.54 0 10:23 20.04.2021
89 Clouds 8 1018 93 10000 1.54 90 09:28 20.04.2021
90 Clouds 8 1018 100 10000 1.54 100 08:55 20.04.2021
91 Rain 7 1018 93 10000 2.06 100 08:21 20.04.2021
92 Rain 7 1018 93 10000 0.51 0 07:40 20.04.2021
93 Rain 7 1018 93 10000 0.51 0 07:40 20.04.2021
94 Clouds 7 1018 93 10000 1.54 0 06:45 20.04.2021
95 Clouds 7 1018 93 10000 1.03 0 05:38 20.04.2021
96 Clouds 7 1018 93 10000 0.91 280 04:41 20.04.2021
97 Rain 8 1018 87 10000 1.54 240 01:26 20.04.2021
98 Rain 9 1018 76 10000 0.51 360 00:34 20.04.2021
99 Rain 10 1018 62 10000 1.54 0 23:36 19.04.2021
100 Rain 10 1018 62 10000 1.03 0 22:56 19.04.2021
101 Rain 10 1018 62 10000 1.03 0 22:56 19.04.2021
102 Rain 10 1018 62 10000 0.51 0 22:32 19.04.2021
103 Clouds 11 1018 58 10000 1.54 0 21:48 19.04.2021
104 Rain 11 1018 58 10000 1.03 0 21:28 19.04.2021
105 Clouds 11 1018 58 10000 2.57 140 20:46 19.04.2021
106 Rain 11 1018 62 10000 3.6 160 20:24 19.04.2021
107 Clouds 12 1018 62 10000 4.12 150 19:58 19.04.2021
108 Clouds 12 1018 66 10000 4.12 140 19:39 19.04.2021
109 Clouds 12 1018 62 10000 4.63 150 19:18 19.04.2021
110 Clouds 13 1018 62 10000 4.63 150 18:44 19.04.2021
111 Clouds 13 1018 58 10000 4.12 150 18:21 19.04.2021
112 Clouds 13 1018 50 10000 4.63 150 18:21 19.04.2021
113 Clouds 13 1018 58 10000 4.12 150 17:50 19.04.2021
114 Clouds 13 1018 58 10000 3.6 150 17:26 19.04.2021
115 Clouds 13 1019 58 10000 4.12 140 16:49 19.04.2021
116 Clouds 13 1019 58 10000 4.12 140 16:31 19.04.2021
117 Clouds 13 1019 54 10000 3.09 140 15:44 19.04.2021
118 Clouds 12 1019 62 10000 2.06 180 15:24 19.04.2021
119 Clouds 13 1019 62 10000 4.12 130 14:52 19.04.2021
120 Clouds 12 1019 66 10000 4.63 140 14:33 19.04.2021
121 Clouds 12 1019 62 10000 5.14 130 13:53 19.04.2021
122 Clouds 13 1019 66 10000 4.12 140 13:29 19.04.2021
123 Clouds 13 1020 54 10000 5.14 140 12:49 19.04.2021
124 Clouds 12 1020 62 10000 4.63 150 12:29 19.04.2021
125 Clouds 12 1020 66 10000 4.12 140 11:59 19.04.2021
126 Clouds 11 1020 71 10000 4.12 150 11:39 19.04.2021
127 Clouds 11 1020 76 10000 4.12 150 11:19 19.04.2021
128 Clouds 10 1020 76 10000 4.12 150 10:43 19.04.2021
129 Clouds 9 1020 81 10000 3.09 160 10:19 19.04.2021
130 Clouds 8 1020 81 10000 2.57 170 09:42 19.04.2021
131 Clouds 8 1020 81 10000 2.57 170 09:23 19.04.2021
132 Clouds 7 1020 93 10000 2.06 170 08:34 19.04.2021
133 Clouds 7 1020 75 10000 0.51 190 07:50 19.04.2021
134 Clear 6 1020 75 10000 1.54 200 07:21 19.04.2021
135 Clouds 6 1020 93 10000 2.06 140 06:47 19.04.2021
136 Clouds 6 1021 87 10000 1.03 0 04:40 19.04.2021
137 Clouds 6 1022 81 10000 1.03 130 01:49 19.04.2021
138 Clouds 7 1022 76 10000 2.06 170 00:34 19.04.2021
139 Clouds 8 1023 76 10000 1.03 0 23:21 18.04.2021
140 Clouds 9 1022 76 10000 1.54 200 22:57 18.04.2021
141 Clouds 9 1023 81 10000 2.06 220 22:31 18.04.2021
142 Clouds 9 1023 81 10000 2.57 210 21:51 18.04.2021
143 Clouds 10 1023 76 10000 2.06 230 21:28 18.04.2021
144 Clouds 10 1023 76 10000 2.57 220 20:43 18.04.2021
145 Clouds 10 1022 76 10000 2.57 220 20:24 18.04.2021
146 Clouds 10 1022 76 10000 3.6 220 19:56 18.04.2021
147 Clouds 10 1022 71 10000 3.6 220 19:37 18.04.2021
148 Clouds 11 1022 71 10000 3.09 200 19:18 18.04.2021
149 Clouds 10 1022 71 10000 3.09 210 18:39 18.04.2021
150 Clouds 11 1022 71 10000 3.6 210 18:21 18.04.2021
151 Clouds 10 1022 71 10000 3.6 210 17:45 18.04.2021
152 Clouds 11 1022 71 10000 3.09 170 17:26 18.04.2021
153 Clouds 11 1023 71 10000 2.57 210 16:45 18.04.2021
154 Clouds 11 1023 71 10000 3.09 170 16:23 18.04.2021
155 Clouds 11 1023 71 10000 3.09 180 15:43 18.04.2021
156 Clouds 11 1023 71 10000 3.6 210 15:24 18.04.2021
157 Clouds 11 1023 71 10000 3.6 220 14:45 18.04.2021
158 Clouds 10 1023 71 10000 3.09 210 14:20 18.04.2021
159 Clouds 10 1023 76 10000 2.06 140 13:54 18.04.2021
160 Clouds 10 1023 76 10000 1.54 0 13:32 18.04.2021
161 Clouds 10 1023 76 10000 2.57 150 12:49 18.04.2021
162 Clouds 9 1023 81 10000 2.57 130 12:24 18.04.2021
163 Rain 9 1023 87 10000 2.57 140 11:41 18.04.2021
164 Rain 9 1023 87 10000 2.57 140 11:20 18.04.2021
165 Rain 9 1023 87 10000 2.06 150 10:46 18.04.2021
166 Drizzle 8 1023 87 10000 2.57 210 10:21 18.04.2021
167 Clouds 8 1023 87 10000 1.03 0 09:47 18.04.2021
168 Rain 8 1023 87 10000 1.03 0 09:28 18.04.2021
169 Clouds 8 1023 87 10000 1.03 130 08:56 18.04.2021
170 Clouds 7 1023 87 10000 1.03 0 08:34 18.04.2021
171 Clouds 7 1023 87 10000 1.54 150 07:55 18.04.2021
172 Clouds 7 1023 87 10000 1.54 150 07:55 18.04.2021
173 Rain 7 1023 87 10000 2.06 170 07:36 18.04.2021
174 Rain 7 1024 87 10000 2.06 200 05:41 18.04.2021
175 Rain 7 1024 87 10000 2.06 200 05:22 18.04.2021
176 Clear 8 1025 66 10000 3.09 210 02:27 18.04.2021
177 Clear 8 1025 66 10000 3.09 200 01:48 18.04.2021
178 Clear 8 1025 66 10000 3.6 210 00:36 18.04.2021
179 Clear 8 1025 61 10000 3.6 220 23:31 17.04.2021
180 Clear 9 1025 57 10000 3.6 200 22:50 17.04.2021
181 Clear 9 1025 61 10000 4.12 210 22:30 17.04.2021
182 Clear 9 1025 61 10000 4.12 210 22:30 17.04.2021
183 Clear 8 1025 61 10000 3.6 200 21:46 17.04.2021
184 Clear 9 1025 61 10000 3.6 200 21:28 17.04.2021
185 Clear 10 1025 57 10000 4.12 220 20:43 17.04.2021
186 Clear 11 1025 57 10000 3.6 200 20:24 17.04.2021
187 Clouds 11 1025 54 10000 3.09 220 19:43 17.04.2021
188 Clouds 12 1025 50 10000 4.63 140 19:20 17.04.2021
189 Clouds 12 1025 50 10000 4.63 140 19:20 17.04.2021
190 Clouds 12 1026 58 10000 6.17 140 18:53 17.04.2021
191 Clouds 12 1026 54 10000 7.2 140 18:25 17.04.2021
192 Clouds 13 1026 54 10000 7.2 140 17:48 17.04.2021
193 Clouds 13 1026 54 10000 7.2 140 17:29 17.04.2021
194 Clouds 13 1026 50 10000 7.2 140 16:41 17.04.2021
195 Clouds 13 1026 50 10000 7.2 140 16:23 17.04.2021
196 Clouds 11 1027 54 10000 7.2 140 15:23 17.04.2021
197 Clouds 12 1027 58 10000 7.2 140 14:44 17.04.2021
198 Clouds 12 1027 58 10000 6.17 140 14:20 17.04.2021
199 Clouds 12 1028 62 10000 6.69 140 13:44 17.04.2021
200 Clouds 11 1028 58 10000 5.14 130 12:55 17.04.2021
201 Clouds 11 1028 40 10000 4.12 130 12:33 17.04.2021
202 Clouds 11 1029 50 10000 3.6 140 11:51 17.04.2021
203 Clear 11 1029 53 10000 3.09 140 11:33 17.04.2021
204 Clear 10 1029 49 10000 3.09 140 10:56 17.04.2021
205 Clear 9 1029 61 10000 2.57 160 10:38 17.04.2021
206 Clear 7 1029 81 10000 2.06 130 09:51 17.04.2021
207 Clear 4 1029 86 10000 1.03 0 08:54 17.04.2021
208 Clouds 3 1029 93 10000 1.03 160 08:33 17.04.2021
209 Clouds 2 1029 93 10000 1.03 180 07:46 17.04.2021
210 Clouds 2 1029 86 10000 2.57 170 05:43 17.04.2021
211 Clear 4 1029 65 10000 2.57 180 03:46 17.04.2021
212 Clear 5 1030 75 10000 1.54 220 00:56 17.04.2021
213 Clear 5 1030 75 10000 2.57 210 00:30 17.04.2021
214 Clear 5 1030 75 10000 2.57 210 00:30 17.04.2021
215 Clear 6 1030 70 10000 2.06 200 23:59 16.04.2021
216 Clear 6 1030 65 10000 2.06 170 23:34 16.04.2021
217 Clear 7 1029 61 10000 2.06 170 22:51 16.04.2021
218 Clear 7 1029 57 10000 2.57 170 22:24 16.04.2021
219 Clear 8 1029 57 10000 2.57 160 21:57 16.04.2021
220 Clear 8 1029 53 10000 2.57 180 21:39 16.04.2021
221 Clear 9 1029 50 10000 3.6 170 20:56 16.04.2021
222 Clear 10 1028 50 10000 4.12 160 20:37 16.04.2021
223 Clear 10 1029 50 10000 5.66 150 19:58 16.04.2021
224 Clear 10 1029 50 10000 5.14 150 19:40 16.04.2021
225 Clouds 11 1029 53 10000 6.69 150 19:18 16.04.2021
226 Clouds 11 1028 50 10000 7.2 150 18:25 16.04.2021
227 Clouds 11 1029 54 10000 5.14 140 17:48 16.04.2021
228 Clouds 11 1029 57 10000 5.66 140 17:19 16.04.2021
229 Clouds 11 1029 62 10000 5.66 140 16:44 16.04.2021
230 Clouds 11 1029 66 10000 5.14 140 16:26 16.04.2021
231 Clouds 11 1029 66 10000 6.17 150 15:54 16.04.2021
232 Clouds 11 1029 66 10000 5.66 130 15:29 16.04.2021
233 Clouds 11 1029 58 10000 6.17 140 14:43 16.04.2021
234 Clouds 11 1030 62 10000 5.66 140 14:20 16.04.2021
235 Clouds 11 1030 62 10000 5.66 140 13:54 16.04.2021
236 Clouds 11 1030 54 10000 5.14 130 13:22 16.04.2021
237 Clouds 11 1030 58 10000 5.66 140 12:53 16.04.2021
238 Clouds 11 1030 46 10000 4.12 150 12:33 16.04.2021
239 Clouds 11 1030 50 10000 3.09 160 11:58 16.04.2021
240 Clouds 10 1030 53 10000 2.57 130 11:38 16.04.2021
241 Clouds 10 1030 53 10000 2.57 130 11:19 16.04.2021
242 Clear 9 1031 57 10000 2.57 160 10:40 16.04.2021
243 Clear 8 1031 57 10000 2.57 160 10:19 16.04.2021
244 Clear 7 1030 70 10000 1.54 0 09:43 16.04.2021
245 Clouds 5 1030 93 10000 1.54 160 09:20 16.04.2021
246 Clouds 4 1030 93 10000 0.51 0 08:42 16.04.2021
247 Clouds 3 1030 93 10000 0.51 0 08:18 16.04.2021
248 Clouds 2 1030 93 10000 0.51 0 07:37 16.04.2021
249 Clouds 2 1030 93 10000 1.03 0 06:59 16.04.2021
250 Clouds 2 1030 93 10000 1.03 0 06:28 16.04.2021
251 Clouds 2 1030 93 10000 0.51 270 04:23 16.04.2021
252 Clouds 4 1031 80 10000 1.03 120 01:38 16.04.2021
253 Clouds 5 1031 75 10000 1.54 150 00:42 16.04.2021
254 Clouds 5 1031 75 10000 1.54 150 00:20 16.04.2021
255 Clouds 6 1031 65 10000 2.06 180 23:42 15.04.2021
256 Clouds 6 1031 65 10000 2.06 180 23:42 15.04.2021
257 Clouds 6 1031 65 10000 2.06 180 23:42 15.04.2021
258 Clouds 7 1031 57 10000 2.57 160 23:23 15.04.2021
259 Clouds 7 1031 61 10000 3.6 150 22:46 15.04.2021
260 Clouds 8 1031 61 10000 4.12 150 22:23 15.04.2021
261 Clouds 9 1031 61 10000 4.12 140 21:43 15.04.2021
262 Clouds 9 1031 57 10000 4.63 140 21:24 15.04.2021
263 Clouds 9 1031 57 10000 4.63 140 20:45 15.04.2021
264 Clouds 10 1031 53 10000 4.63 140 20:25 15.04.2021
265 Clouds 11 1031 57 10000 5.14 140 19:47 15.04.2021
266 Clouds 11 1031 54 10000 4.63 130 19:27 15.04.2021
267 Clouds 11 1032 58 10000 4.63 140 18:45 15.04.2021
268 Clouds 11 1032 54 10000 5.66 130 18:21 15.04.2021
269 Clouds 11 1032 54 10000 5.66 130 17:55 15.04.2021
270 Clouds 11 1032 54 10000 5.14 130 17:37 15.04.2021
271 Clouds 11 1032 54 10000 5.66 140 17:18 15.04.2021
272 Clouds 11 1032 54 10000 5.66 140 16:42 15.04.2021
273 Clouds 11 1032 50 10000 5.14 140 16:22 15.04.2021
274 Clouds 11 1032 58 10000 4.63 130 15:45 15.04.2021
275 Clouds 11 1033 54 10000 5.66 130 15:26 15.04.2021
276 Clouds 12 1033 62 10000 5.66 140 14:41 15.04.2021
277 Clouds 11 1033 62 10000 5.66 140 14:23 15.04.2021
278 Clouds 11 1033 66 10000 5.66 130 13:46 15.04.2021
279 Clouds 11 1033 71 10000 5.14 140 13:19 15.04.2021
280 Clouds 11 1033 66 10000 4.63 100 12:42 15.04.2021
281 Clouds 11 1033 66 10000 4.63 100 12:21 15.04.2021
282 Clouds 11 1033 66 10000 3.6 110 11:47 15.04.2021
283 Clouds 10 1033 71 10000 3.09 120 11:24 15.04.2021
284 Clouds 10 1033 76 10000 3.09 110 10:55 15.04.2021
285 Clouds 8 1033 93 10000 3.6 100 10:28 15.04.2021
286 Clouds 7 1033 100 10000 2.57 100 09:50 15.04.2021
287 Fog 6 1033 100 10000 2.06 100 09:28 15.04.2021
288 Fog 4 1033 100 10000 1.54 100 08:49 15.04.2021
289 Fog 3 1033 100 10000 2.06 110 08:24 15.04.2021
290 Fog 3 1033 100 10000 3.09 90 07:26 15.04.2021
291 Fog 3 1033 93 10000 2.57 100 06:50 15.04.2021
292 Fog 2 1033 100 10000 2.57 80 06:32 15.04.2021
293 Fog 3 1033 93 10000 0.51 360 04:52 15.04.2021
294 Clouds 3 1033 100 10000 2.06 100 02:51 15.04.2021
295 Clouds 4 1033 93 10000 2.06 90 23:44 14.04.2021
296 Clouds 4 1033 93 10000 2.06 100 23:25 14.04.2021
297 Clouds 5 1033 93 10000 2.06 90 22:47 14.04.2021
298 Clouds 5 1033 93 10000 3.09 90 22:27 14.04.2021
299 Clouds 6 1033 93 10000 3.09 90 21:53 14.04.2021
300 Clouds 7 1033 76 10000 3.09 90 21:32 14.04.2021
301 Clouds 8 1033 76 10000 3.09 90 20:58 14.04.2021
302 Clouds 9 1033 66 10000 3.6 80 20:35 14.04.2021
303 Clouds 10 1033 62 10000 4.12 90 19:55 14.04.2021
304 Clouds 10 1033 62 10000 4.12 90 19:55 14.04.2021
305 Clouds 10 1033 62 10000 4.63 90 19:36 14.04.2021
306 Clouds 10 1033 62 10000 4.12 90 19:18 14.04.2021
307 Clouds 11 1033 62 10000 4.12 90 18:46 14.04.2021
308 Clouds 11 1033 58 10000 4.12 100 18:18 14.04.2021
309 Clouds 11 1033 58 10000 4.12 100 17:46 14.04.2021
310 Clouds 11 1033 62 10000 4.12 100 17:23 14.04.2021
311 Clouds 11 1034 58 10000 5.14 90 16:39 14.04.2021
312 Clouds 11 1034 58 10000 4.63 90 16:19 14.04.2021
313 Clouds 11 1034 54 10000 4.63 100 15:39 14.04.2021
314 Clouds 11 1034 54 10000 4.63 100 15:18 14.04.2021
315 Clouds 11 1034 58 10000 4.12 80 14:40 14.04.2021
316 Clouds 11 1034 58 10000 4.12 80 14:20 14.04.2021
317 Clouds 11 1034 62 10000 3.09 100 13:46 14.04.2021
318 Clouds 11 1034 62 10000 2.57 100 12:43 14.04.2021
319 Clouds 10 1034 66 10000 2.57 90 12:18 14.04.2021
320 Clouds 10 1034 81 10000 2.06 70 11:41 14.04.2021
321 Clouds 10 1034 81 10000 2.06 70 11:22 14.04.2021
322 Clouds 9 1034 87 10000 2.06 60 10:34 14.04.2021
323 Clouds 7 1034 93 10000 1.54 0 09:43 14.04.2021
324 Clouds 6 1034 100 10000 2.06 360 09:25 14.04.2021
325 Clouds 4 1033 100 10000 1.54 0 08:56 14.04.2021
326 Clouds 3 1033 93 10000 1.54 0 08:30 14.04.2021
327 Clouds 4 1033 93 10000 1.03 0 07:41 14.04.2021
328 Clouds 4 1033 93 10000 1.03 0 06:35 14.04.2021
329 Clouds 4 1033 93 10000 1.03 310 05:36 14.04.2021
330 Clouds 4 1033 93 10000 1.54 360 02:31 14.04.2021
331 Clouds 4 1033 100 10000 1.03 0 00:57 14.04.2021
332 Clear 4 1033 93 10000 1.54 170 00:32 14.04.2021
333 Clouds 5 1033 81 10000 1.54 140 23:34 13.04.2021
334 Clouds 6 1032 75 10000 1.54 150 22:45 13.04.2021
335 Clouds 7 1032 70 10000 2.06 140 22:22 13.04.2021
336 Clouds 8 1032 71 10000 2.06 140 21:49 13.04.2021
337 Clouds 8 1032 71 10000 2.06 130 21:31 13.04.2021
338 Clouds 9 1032 61 10000 2.57 140 20:52 13.04.2021
339 Clouds 9 1032 61 10000 3.09 150 20:25 13.04.2021
340 Clouds 10 1032 61 10000 3.09 150 19:58 13.04.2021
341 Clouds 10 1032 62 10000 2.57 160 19:26 13.04.2021
342 Clouds 10 1032 62 10000 2.57 150 18:57 13.04.2021
343 Clouds 9 1032 66 10000 3.09 160 18:31 13.04.2021
344 Clouds 9 1032 71 10000 3.09 110 17:41 13.04.2021
345 Clouds 9 1032 71 10000 3.09 110 17:21 13.04.2021
346 Clouds 9 1032 66 10000 3.09 100 16:49 13.04.2021
347 Clouds 9 1033 71 10000 3.09 100 16:31 13.04.2021
348 Clouds 10 1033 66 10000 4.12 90 15:56 13.04.2021
349 Clouds 9 1033 62 10000 1.54 0 15:38 13.04.2021
350 Clouds 10 1033 71 10000 3.09 330 14:58 13.04.2021
351 Clouds 10 1033 62 10000 2.57 310 14:25 13.04.2021
352 Clouds 10 1033 62 10000 2.57 310 14:25 13.04.2021
353 Clouds 10 1033 66 10000 3.09 310 13:57 13.04.2021
354 Clouds 10 1032 66 10000 3.6 340 13:38 13.04.2021
355 Clouds 10 1032 66 10000 3.6 340 13:20 13.04.2021
356 Clouds 10 1033 71 10000 3.09 330 12:46 13.04.2021
357 Clouds 9 1033 71 10000 3.09 300 12:22 13.04.2021
358 Clouds 9 1032 81 10000 3.09 280 11:37 13.04.2021
359 Clouds 8 1032 87 10000 3.6 270 10:58 13.04.2021
360 Clouds 8 1032 87 10000 3.6 280 10:40 13.04.2021
361 Clouds 7 1032 87 10000 3.6 280 10:19 13.04.2021
362 Clouds 7 1032 93 10000 3.09 270 09:49 13.04.2021
363 Clouds 5 1032 93 10000 2.06 260 09:23 13.04.2021
364 Clouds 3 1032 93 10000 2.06 250 08:43 13.04.2021
365 Clouds 2 1031 100 10000 1.54 260 08:21 13.04.2021
366 Clouds 2 1031 100 10000 2.06 250 07:43 13.04.2021
367 Clouds 3 1031 100 10000 2.06 250 07:23 13.04.2021
368 Clouds 4 1031 93 10000 2.06 260 06:22 13.04.2021
369 Clouds 5 1031 93 10000 3.09 260 03:41 13.04.2021
370 Clouds 6 1031 87 10000 3.09 260 01:31 13.04.2021
371 Clouds 5 1030 87 10000 1.03 0 23:51 12.04.2021
372 Clouds 5 1030 93 10000 1.54 0 23:32 12.04.2021
373 Clouds 6 1030 87 10000 1.03 240 22:50 12.04.2021
374 Clouds 6 1030 93 10000 1.54 210 22:31 12.04.2021
375 Rain 7 1030 87 10000 1.03 200 21:48 12.04.2021
376 Rain 7 1030 87 10000 1.03 0 21:25 12.04.2021
377 Clouds 7 1030 87 10000 1.54 0 20:46 12.04.2021
378 Clouds 8 1029 87 10000 3.09 140 20:26 12.04.2021
379 Clouds 8 1029 87 10000 3.6 150 19:59 12.04.2021
380 Clouds 8 1029 87 10000 4.12 150 19:39 12.04.2021
381 Rain 7 1029 87 10000 3.6 130 19:20 12.04.2021
382 Rain 7 1029 87 10000 3.6 130 18:48 12.04.2021
383 Rain 7 1029 87 10000 4.63 130 18:30 12.04.2021
384 Rain 8 1029 81 10000 4.63 140 17:46 12.04.2021
385 Clouds 7 1029 81 10000 4.63 150 17:25 12.04.2021
386 Rain 8 1029 76 10000 3.6 140 16:49 12.04.2021
387 Clouds 8 1029 87 10000 4.12 160 16:29 12.04.2021
388 Clouds 8 1029 81 10000 4.63 100 15:56 12.04.2021
389 Rain 8 1029 61 10000 4.63 70 15:33 12.04.2021
390 Clouds 9 1029 71 10000 3.09 300 14:55 12.04.2021
391 Clouds 9 1029 66 10000 3.09 270 14:37 12.04.2021
392 Clouds 7 1029 71 10000 3.6 290 13:59 12.04.2021
393 Clouds 7 1029 76 10000 3.6 290 13:39 12.04.2021
394 Clouds 7 1029 76 10000 3.6 260 13:18 12.04.2021
395 Clouds 6 1029 87 10000 3.6 290 12:38 12.04.2021
396 Clouds 6 1029 87 10000 3.6 290 12:20 12.04.2021
397 Clouds 6 1028 87 10000 3.6 280 11:27 12.04.2021
398 Clouds 6 1028 87 10000 2.57 290 10:51 12.04.2021
399 Clouds 5 1028 87 10000 3.09 280 10:28 12.04.2021
400 Clouds 5 1028 93 10000 3.09 280 09:51 12.04.2021
401 Clouds 4 1028 93 10000 2.57 280 09:23 12.04.2021
402 Clouds 4 1027 93 10000 3.09 280 08:49 12.04.2021
403 Clouds 3 1027 93 10000 2.57 300 07:53 12.04.2021
404 Clouds 3 1026 93 10000 2.57 290 07:29 12.04.2021
405 Clouds 3 1026 93 10000 3.09 270 06:29 12.04.2021
406 Clouds 3 1026 93 10000 2.57 270 05:47 12.04.2021
407 Clouds 4 1025 93 10000 3.6 330 02:26 12.04.2021
408 Clouds 4 1024 93 10000 4.12 260 00:27 12.04.2021
409 Clouds 4 1024 93 10000 4.63 260 23:54 11.04.2021
410 Clouds 4 1025 87 10000 6.17 260 23:32 11.04.2021
411 Rain 4 1024 87 10000 3.6 260 22:50 11.04.2021
412 Rain 4 1024 87 10000 3.09 280 22:28 11.04.2021
413 Clouds 4 1024 87 8000 2.06 280 21:59 11.04.2021
414 Clouds 4 1024 87 10000 2.06 310 21:39 11.04.2021
415 Rain 5 1024 87 10000 2.06 310 21:20 11.04.2021
416 Clouds 5 1023 65 10000 1.54 0 20:39 11.04.2021
417 Rain 6 1023 65 10000 1.54 0 20:20 11.04.2021
418 Clouds 6 1023 65 10000 6.17 300 19:41 11.04.2021
419 Rain 6 1023 65 10000 6.17 300 19:20 11.04.2021
420 Rain 7 1023 53 10000 4.63 340 18:55 11.04.2021
421 Rain 7 1023 53 10000 4.63 340 18:55 11.04.2021
422 Rain 7 1023 49 10000 6.17 300 18:37 11.04.2021
423 Rain 7 1023 49 10000 6.17 300 18:18 11.04.2021
424 Rain 8 1023 49 10000 5.66 320 17:37 11.04.2021
425 Rain 8 1023 53 10000 4.63 290 17:18 11.04.2021
426 Clouds 8 1023 42 10000 4.63 330 16:40 11.04.2021
427 Clouds 8 1023 42 10000 4.63 330 16:40 11.04.2021
428 Rain 8 1023 49 10000 4.63 340 16:20 11.04.2021
429 Clouds 7 1023 49 10000 4.63 340 15:43 11.04.2021
430 Clouds 7 1023 45 10000 6.69 300 15:22 11.04.2021
431 Clouds 7 1023 46 10000 5.66 330 14:51 11.04.2021
432 Clouds 7 1023 56 10000 6.17 340 14:21 11.04.2021
433 Clouds 7 1022 61 10000 5.66 310 13:42 11.04.2021
434 Clouds 6 1022 61 10000 5.66 310 13:23 11.04.2021
435 Clouds 5 1022 65 10000 7.2 330 12:26 11.04.2021
436 Clouds 5 1022 70 10000 5.14 320 11:57 11.04.2021
437 Clouds 4 1022 75 10000 5.14 320 11:38 11.04.2021
438 Clouds 4 1022 75 10000 5.14 320 11:19 11.04.2021
439 Clouds 3 1022 75 10000 5.14 320 10:44 11.04.2021
440 Clouds 2 1022 80 10000 4.63 310 10:22 11.04.2021
441 Clouds 1 1022 86 10000 5.14 300 09:49 11.04.2021
442 Clouds 1 1021 86 10000 4.63 300 09:26 11.04.2021
443 Clouds -1 1021 86 10000 4.63 310 08:39 11.04.2021
444 Clouds -1 1020 86 10000 5.14 300 07:41 11.04.2021
445 Clouds -1 1020 86 10000 5.14 300 07:19 11.04.2021
446 Clear -1 1020 86 10000 4.63 300 05:47 11.04.2021
447 Clear -1 1019 86 10000 4.63 300 05:23 11.04.2021
448 Clear -1 1019 93 10000 4.12 310 04:36 11.04.2021
449 Clear -1 1019 93 10000 4.12 310 03:35 11.04.2021
450 Clouds 1 1019 93 10000 2.57 30 00:55 11.04.2021
451 Clouds 1 1019 86 10000 4.12 310 00:32 11.04.2021
452 Clouds 1 1018 93 10000 4.12 300 23:45 10.04.2021
453 Clouds 1 1018 93 10000 3.6 290 22:55 10.04.2021
454 Clouds 2 1018 93 10000 3.09 290 22:28 10.04.2021
455 Clouds 3 1018 86 10000 2.57 300 21:53 10.04.2021
456 Clouds 3 1017 86 10000 2.57 290 21:25 10.04.2021
457 Clouds 4 1017 81 10000 3.09 340 20:56 10.04.2021
458 Clouds 4 1017 75 10000 3.6 330 20:34 10.04.2021
459 Clouds 5 1017 75 10000 4.63 350 19:59 10.04.2021
460 Clouds 5 1017 60 10000 4.63 10 19:41 10.04.2021
461 Clouds 5 1017 60 10000 4.63 10 19:23 10.04.2021
462 Rain 6 1016 53 10000 4.63 70 18:41 10.04.2021
463 Clouds 6 1016 53 10000 4.63 70 18:23 10.04.2021
464 Clouds 6 1016 53 10000 4.63 70 18:23 10.04.2021
465 Clouds 7 1016 49 10000 3.6 80 17:35 10.04.2021
466 Clouds 6 1016 57 10000 3.09 30 16:42 10.04.2021
467 Clouds 7 1017 60 10000 2.57 340 16:21 10.04.2021
468 Clouds 7 1017 57 10000 3.6 20 15:44 10.04.2021
469 Clouds 7 1017 56 10000 3.6 350 14:54 10.04.2021
470 Clouds 6 1017 56 10000 2.57 10 14:33 10.04.2021
471 Clouds 6 1017 60 10000 2.57 360 13:56 10.04.2021
472 Clouds 6 1017 61 10000 4.12 340 13:36 10.04.2021
473 Clouds 5 1017 65 10000 4.63 330 12:43 10.04.2021
474 Clouds 5 1018 70 10000 4.63 330 12:20 10.04.2021
475 Clouds 4 1018 75 10000 4.63 340 11:45 10.04.2021
476 Clouds 4 1018 75 10000 4.63 340 11:45 10.04.2021
477 Clouds 4 1018 75 10000 3.6 340 11:21 10.04.2021
478 Clouds 3 1018 80 10000 3.6 330 10:50 10.04.2021
479 Clouds 2 1018 86 10000 3.6 320 10:30 10.04.2021
480 Clouds 1 1017 86 10000 3.6 310 09:37 10.04.2021
481 Clouds 0 1017 86 10000 3.6 310 09:18 10.04.2021
482 Clouds -1 1017 93 10000 4.12 290 08:34 10.04.2021
483 Clouds -2 1017 93 10000 3.6 300 07:56 10.04.2021
484 Clouds -2 1017 86 10000 3.6 300 07:26 10.04.2021
485 Clear -2 1017 93 10000 3.6 300 06:27 10.04.2021
486 Clear -2 1017 86 10000 3.6 300 05:28 10.04.2021
487 Clear -1 1017 86 10000 3.09 310 03:36 10.04.2021
488 Clear 0 1017 80 10000 3.09 320 02:42 10.04.2021
489 Clear 1 1017 80 10000 3.6 330 01:27 10.04.2021
490 Clouds 2 1017 80 10000 4.12 340 00:31 10.04.2021
491 Clouds 2 1017 75 10000 3.09 360 23:51 09.04.2021
492 Clouds 2 1016 86 10000 3.09 340 23:27 09.04.2021
493 Clouds 3 1016 87 10000 2.57 350 22:47 09.04.2021
494 Clouds 3 1016 87 10000 2.57 360 22:28 09.04.2021
495 Clouds 3 1015 81 10000 2.57 80 21:40 09.04.2021
496 Clouds 4 1015 81 10000 2.57 80 21:21 09.04.2021
497 Clouds 5 1015 81 10000 2.57 60 20:46 09.04.2021
498 Clouds 5 1015 75 10000 3.09 60 20:23 09.04.2021
499 Clouds 6 1015 75 10000 3.09 340 19:58 09.04.2021
500 Clouds 6 1015 70 10000 2.57 360 19:40 09.04.2021
501 Rain 5 1015 70 10000 2.57 360 19:22 09.04.2021
502 Clouds 6 1014 70 10000 3.6 20 18:42 09.04.2021
503 Clouds 6 1014 70 10000 3.6 20 18:23 09.04.2021
504 Rain 6 1014 87 10000 2.57 350 17:47 09.04.2021
505 Rain 7 1014 65 10000 2.57 50 17:29 09.04.2021
506 Clouds 7 1014 61 10000 3.09 90 16:44 09.04.2021
507 Clouds 7 1014 61 10000 3.6 70 16:23 09.04.2021
508 Clouds 6 1014 65 10000 3.09 80 15:43 09.04.2021
509 Rain 6 1014 70 10000 4.63 80 15:23 09.04.2021
510 Clouds 6 1014 65 10000 3.6 90 14:46 09.04.2021
511 Rain 7 1014 65 10000 3.09 10 14:21 09.04.2021
512 Rain 6 1014 65 10000 3.09 10 13:43 09.04.2021
513 Clouds 7 1013 70 10000 3.09 340 13:22 09.04.2021
514 Clouds 7 1013 70 10000 3.09 340 12:47 09.04.2021
515 Clouds 6 1013 75 10000 3.6 300 11:59 09.04.2021
516 Clouds 6 1013 81 10000 3.6 320 11:28 09.04.2021
517 Clouds 6 1013 87 10000 3.6 350 10:56 09.04.2021
518 Clouds 5 1013 87 10000 4.63 320 10:37 09.04.2021
519 Clouds 5 1012 93 10000 3.6 290 09:55 09.04.2021
520 Clouds 5 1012 93 10000 3.09 290 09:27 09.04.2021
521 Clouds 4 1012 93 10000 3.09 290 08:55 09.04.2021
522 Clouds 4 1012 93 10000 4.12 270 08:28 09.04.2021
523 Clouds 4 1012 93 10000 3.6 260 07:21 09.04.2021
524 Clouds 4 1012 87 7000 4.12 270 06:26 09.04.2021
525 Clouds 5 1012 93 7000 2.06 230 03:56 09.04.2021
526 Clouds 5 1012 93 7000 2.06 260 03:38 09.04.2021
527 Clouds 8 1012 76 10000 4.12 240 00:38 09.04.2021
528 Clouds 8 1012 76 10000 4.12 240 00:20 09.04.2021
529 Clouds 8 1012 76 10000 4.63 240 23:31 08.04.2021
530 Clouds 8 1012 76 10000 5.66 240 22:51 08.04.2021
531 Clouds 8 1012 71 10000 4.63 240 22:27 08.04.2021
532 Clouds 8 1012 71 10000 5.66 250 21:58 08.04.2021
533 Clouds 9 1012 66 10000 6.17 250 21:40 08.04.2021
534 Clouds 9 1012 66 10000 6.17 250 21:40 08.04.2021
535 Clouds 9 1012 66 10000 6.17 250 21:21 08.04.2021
536 Clouds 9 1012 66 10000 5.14 250 20:54 08.04.2021
537 Clouds 9 1013 61 10000 6.69 240 20:34 08.04.2021
538 Clouds 10 1013 57 10000 5.66 240 19:57 08.04.2021
539 Clouds 10 1013 57 10000 6.17 250 19:25 08.04.2021
540 Clouds 11 1013 57 10000 6.69 250 18:57 08.04.2021
541 Clouds 11 1013 58 10000 6.69 250 18:24 08.04.2021
542 Clouds 10 1014 62 10000 6.69 240 17:55 08.04.2021
543 Clouds 11 1014 54 10000 7.2 250 17:27 08.04.2021
544 Clouds 10 1015 66 10000 8.23 250 16:57 08.04.2021
545 Clouds 10 1015 66 10000 6.17 240 16:36 08.04.2021
546 Clouds 9 1015 62 10000 6.17 240 15:56 08.04.2021
547 Clouds 10 1016 66 10000 6.17 240 15:37 08.04.2021
548 Clouds 10 1016 66 10000 6.17 240 15:19 08.04.2021
549 Clouds 10 1016 66 10000 5.66 250 14:40 08.04.2021
550 Clouds 10 1016 66 10000 5.66 250 14:40 08.04.2021
551 Clouds 10 1016 66 10000 5.66 250 14:20 08.04.2021
552 Clouds 9 1017 66 10000 6.17 240 13:44 08.04.2021
553 Clouds 9 1017 71 10000 5.66 240 13:23 08.04.2021
554 Clouds 8 1017 71 10000 9.77 240 12:53 08.04.2021
555 Clouds 8 1017 76 10000 5.66 250 12:32 08.04.2021
556 Clouds 8 1018 81 10000 5.66 250 11:56 08.04.2021
557 Clouds 7 1018 76 10000 5.14 240 11:21 08.04.2021
558 Clouds 7 1018 76 10000 5.14 250 10:49 08.04.2021
559 Clouds 7 1019 81 10000 5.14 240 10:24 08.04.2021
560 Clouds 6 1019 81 10000 4.12 240 09:43 08.04.2021
561 Clouds 6 1019 87 10000 4.12 240 08:54 08.04.2021
562 Clouds 5 1019 93 10000 3.6 240 08:36 08.04.2021
563 Clouds 5 1019 93 10000 3.6 240 08:18 08.04.2021
564 Clouds 6 1020 87 10000 3.6 240 07:42 08.04.2021
565 Clouds 6 1021 87 10000 4.63 250 04:56 08.04.2021
566 Clouds 7 1022 87 10000 6.17 270 01:25 08.04.2021
567 Clouds 7 1022 93 10000 4.63 270 00:30 08.04.2021
568 Clouds 8 1022 93 10000 4.12 270 23:47 07.04.2021
569 Clouds 7 1022 93 10000 2.06 210 23:24 07.04.2021
570 Clouds 7 1022 93 10000 2.06 160 22:55 07.04.2021
571 Clouds 7 1022 87 10000 3.6 150 22:36 07.04.2021
572 Clouds 7 1022 81 10000 2.57 150 21:58 07.04.2021
573 Clouds 7 1022 81 10000 2.06 140 21:34 07.04.2021
574 Clouds 7 1023 81 10000 1.03 0 20:51 07.04.2021
575 Clouds 8 1023 81 10000 0.51 360 20:28 07.04.2021
576 Clouds 8 1023 81 10000 2.57 260 19:50 07.04.2021
577 Clouds 8 1023 71 10000 2.57 260 19:31 07.04.2021
578 Clouds 8 1023 71 10000 2.57 240 18:56 07.04.2021
579 Clouds 8 1024 76 10000 3.6 280 18:23 07.04.2021
580 Clouds 8 1024 76 10000 4.63 270 17:59 07.04.2021
581 Clouds 7 1024 66 10000 4.63 280 17:41 07.04.2021
582 Clouds 8 1024 66 10000 4.63 290 16:59 07.04.2021
583 Clouds 8 1024 66 10000 5.66 280 16:40 07.04.2021
584 Clouds 8 1024 66 10000 5.66 280 16:21 07.04.2021
585 Clouds 8 1025 65 10000 6.69 280 15:51 07.04.2021
586 Clouds 7 1025 65 10000 6.17 290 15:25 07.04.2021
587 Clouds 7 1025 61 10000 5.14 290 14:37 07.04.2021
588 Clouds 7 1025 61 10000 5.14 290 14:18 07.04.2021
589 Clouds 7 1025 70 10000 6.17 290 13:37 07.04.2021
590 Clouds 6 1025 70 10000 6.17 290 13:19 07.04.2021
591 Clouds 5 1025 81 10000 5.14 280 12:39 07.04.2021
592 Clouds 5 1025 81 10000 5.14 280 12:18 07.04.2021
593 Clouds 4 1025 81 10000 5.14 280 11:39 07.04.2021
594 Clouds 4 1025 81 10000 5.14 280 11:20 07.04.2021
595 Clouds 4 1026 87 10000 5.14 290 10:46 07.04.2021
596 Clouds 3 1025 93 10000 4.63 280 09:47 07.04.2021
597 Clouds 2 1025 87 10000 5.14 280 09:28 07.04.2021
598 Clouds 2 1025 93 10000 4.63 280 08:51 07.04.2021
599 Clouds 1 1025 93 10000 5.14 280 08:26 07.04.2021
600 Clouds 1 1025 93 10000 4.63 280 07:48 07.04.2021
601 Clouds 1 1025 93 10000 4.12 270 07:28 07.04.2021
602 Clouds 1 1025 93 10000 4.12 270 06:39 07.04.2021
603 Clouds 0 1025 93 10000 4.12 290 04:37 07.04.2021
604 Clouds 3 1025 93 9000 3.6 330 01:21 07.04.2021
605 Clouds 4 1025 87 10000 4.12 340 23:47 06.04.2021
606 Clouds 4 1025 87 10000 3.09 350 23:22 06.04.2021
607 Clouds 4 1025 75 10000 4.12 350 22:50 06.04.2021
608 Clouds 4 1025 75 10000 5.14 320 22:21 06.04.2021
609 Clouds 5 1025 75 10000 5.14 320 21:44 06.04.2021
610 Clouds 5 1025 70 10000 6.69 330 21:23 06.04.2021
611 Clouds 5 1025 65 10000 6.17 320 20:57 06.04.2021
612 Rain 5 1025 60 10000 8.75 330 20:36 06.04.2021
613 Rain 6 1025 60 10000 8.75 330 20:18 06.04.2021
614 Rain 7 1024 52 10000 7.72 340 19:41 06.04.2021
615 Rain 7 1024 52 10000 7.72 340 19:23 06.04.2021
616 Rain 7 1024 45 10000 9.26 350 18:43 06.04.2021
617 Rain 7 1024 39 10000 10.29 340 18:20 06.04.2021
618 Clouds 7 1024 45 10000 10.29 330 17:45 06.04.2021
619 Clouds 7 1025 45 10000 9.77 350 17:19 06.04.2021
620 Clouds 7 1025 53 10000 9.26 320 16:46 06.04.2021
621 Clouds 6 1025 70 10000 10.8 320 16:27 06.04.2021
622 Clouds 6 1025 53 10000 10.29 320 15:27 06.04.2021
623 Clouds 6 1025 60 10000 9.77 320 14:47 06.04.2021
624 Clouds 6 1025 52 10000 9.26 320 14:28 06.04.2021
625 Clouds 6 1025 56 10000 7.72 330 13:47 06.04.2021
626 Clouds 6 1025 52 10000 8.23 320 13:27 06.04.2021
627 Clouds 5 1025 60 10000 8.23 330 12:58 06.04.2021
628 Clouds 5 1026 60 10000 7.2 330 12:37 06.04.2021
629 Clouds 5 1026 60 10000 7.2 330 12:18 06.04.2021
630 Clouds 4 1025 65 10000 7.72 310 11:43 06.04.2021
631 Clouds 4 1026 75 10000 6.69 300 11:20 06.04.2021
632 Clouds 3 1025 75 10000 7.72 300 10:44 06.04.2021
633 Clouds 2 1026 87 10000 6.69 290 10:22 06.04.2021
634 Snow 1 1026 93 10000 5.66 280 09:45 06.04.2021
635 Clouds 0 1026 93 10000 5.66 280 09:25 06.04.2021
636 Clouds 0 1026 93 10000 5.66 290 08:34 06.04.2021
637 Clear 0 1026 93 10000 5.66 280 07:32 06.04.2021
638 Clear 0 1026 93 10000 6.69 280 06:54 06.04.2021
639 Clear -1 1027 93 10000 5.66 290 04:52 06.04.2021
640 Clear 0 1028 74 10000 4.12 290 00:59 06.04.2021
641 Clear 0 1028 80 10000 3.6 300 00:38 06.04.2021
642 Clear 0 1028 80 10000 3.6 300 00:20 06.04.2021
643 Clouds 1 1027 74 10000 4.12 300 23:41 05.04.2021
644 Clouds 2 1028 74 10000 3.09 310 23:18 05.04.2021
645 Clouds 2 1027 69 10000 4.12 330 22:41 05.04.2021
646 Clouds 3 1027 64 10000 5.66 320 22:20 05.04.2021
647 Clouds 4 1027 60 10000 6.69 330 21:38 05.04.2021
648 Clouds 4 1027 65 10000 6.69 330 21:19 05.04.2021
649 Clouds 4 1027 60 10000 6.69 350 20:42 05.04.2021
650 Clouds 4 1027 60 10000 6.69 350 20:42 05.04.2021
651 Clouds 4 1027 60 10000 6.69 350 20:42 05.04.2021
652 Clouds 5 1027 60 10000 6.69 350 20:22 05.04.2021
653 Clouds 4 1027 70 10000 7.72 320 19:38 05.04.2021
654 Clouds 4 1027 70 10000 7.72 320 19:19 05.04.2021
655 Rain 5 1026 60 10000 6.69 330 18:42 05.04.2021
656 Clouds 6 1026 60 10000 6.69 330 18:20 05.04.2021
657 Clouds 5 1026 56 10000 7.72 330 17:47 05.04.2021
658 Clouds 5 1026 48 10000 7.2 340 17:24 05.04.2021
659 Clouds 6 1026 42 10000 8.75 340 16:47 05.04.2021
660 Clouds 6 1026 42 10000 8.75 340 16:23 05.04.2021
661 Clouds 6 1026 42 10000 8.75 340 16:23 05.04.2021
662 Clouds 6 1026 45 10000 7.72 340 15:58 05.04.2021
663 Clouds 6 1026 45 10000 8.23 330 15:38 05.04.2021
664 Clouds 6 1026 45 10000 8.23 330 15:20 05.04.2021
665 Clouds 5 1026 48 10000 7.2 350 14:36 05.04.2021
666 Clouds 5 1026 56 10000 8.75 340 13:52 05.04.2021
667 Clouds 5 1026 52 10000 9.26 350 13:27 05.04.2021
668 Clouds 4 1026 56 10000 7.72 360 12:47 05.04.2021
669 Clouds 4 1025 52 10000 8.23 350 12:25 05.04.2021
670 Clouds 4 1025 60 10000 7.72 10 11:48 05.04.2021
671 Clouds 4 1025 60 10000 7.72 10 11:30 05.04.2021
672 Clouds 4 1024 65 10000 7.72 360 10:55 05.04.2021
673 Clouds 3 1024 75 10000 6.69 350 10:35 05.04.2021
674 Clouds 3 1022 70 10000 5.14 350 09:48 05.04.2021
675 Clouds 3 1023 80 10000 6.17 350 09:26 05.04.2021
676 Clouds 4 1022 70 10000 6.17 320 08:47 05.04.2021
677 Clouds 4 1022 70 10000 8.23 320 08:27 05.04.2021
678 Clouds 4 1021 70 10000 6.69 320 07:57 05.04.2021
679 Clouds 5 1021 75 10000 7.72 320 07:29 05.04.2021
680 Clouds 7 1020 75 10000 9.77 320 03:42 05.04.2021
681 Clouds 8 1021 76 10000 7.72 280 00:54 05.04.2021
682 Clouds 9 1021 76 10000 8.23 290 23:53 04.04.2021
683 Clouds 9 1021 76 10000 8.75 280 23:31 04.04.2021
684 Clouds 9 1022 76 10000 8.75 290 22:57 04.04.2021
685 Clouds 9 1022 76 10000 9.26 300 22:34 04.04.2021
686 Clouds 10 1022 71 10000 8.23 300 21:56 04.04.2021
687 Clouds 10 1022 71 10000 7.72 300 21:21 04.04.2021
688 Clouds 11 1023 66 10000 8.23 290 20:43 04.04.2021
689 Clouds 11 1022 66 10000 9.26 280 20:21 04.04.2021
690 Clouds 12 1023 66 10000 8.75 280 19:40 04.04.2021
691 Clouds 12 1023 62 10000 8.75 270 19:19 04.04.2021
692 Clouds 12 1023 62 10000 8.75 270 18:51 04.04.2021
693 Clouds 13 1023 62 10000 8.23 270 18:25 04.04.2021
694 Clouds 13 1023 58 10000 8.75 270 17:58 04.04.2021
695 Clouds 13 1023 58 10000 7.2 270 17:25 04.04.2021
696 Clouds 13 1024 58 10000 9.26 290 16:57 04.04.2021
697 Clouds 13 1025 62 10000 8.23 290 16:38 04.04.2021
698 Clouds 13 1025 62 10000 7.2 270 15:54 04.04.2021
699 Clouds 13 1026 62 10000 8.23 290 15:31 04.04.2021
700 Clouds 12 1027 71 10000 7.2 290 14:40 04.04.2021
701 Clouds 12 1027 71 10000 7.2 290 14:20 04.04.2021
702 Clouds 12 1027 66 10000 7.2 280 13:27 04.04.2021
703 Clouds 12 1027 66 10000 4.63 250 12:52 04.04.2021
704 Clouds 11 1027 71 10000 4.12 250 12:28 04.04.2021
705 Clear 10 1028 76 10000 5.66 270 11:50 04.04.2021
706 Clear 10 1028 76 10000 5.14 260 11:30 04.04.2021
707 Clear 9 1028 81 10000 4.63 260 10:49 04.04.2021
708 Clear 8 1029 81 10000 4.63 260 10:29 04.04.2021
709 Clear 6 1029 81 10000 4.12 250 09:48 04.04.2021
710 Clear 4 1029 81 10000 3.6 260 09:23 04.04.2021
711 Clouds 3 1029 81 10000 3.09 260 08:48 04.04.2021
712 Clouds 3 1029 87 10000 1.54 0 08:30 04.04.2021
713 Clouds 2 1030 93 10000 2.06 260 06:40 04.04.2021
714 Clouds 2 1030 100 10000 2.57 250 05:44 04.04.2021
715 Clouds 2 1030 100 10000 2.57 250 05:44 04.04.2021
716 Clouds 3 1032 93 10000 1.03 250 02:59 04.04.2021
717 Clouds 3 1032 93 10000 0.51 200 01:18 04.04.2021
718 Clouds 4 1033 86 10000 0.51 360 00:19 04.04.2021
719 Clouds 4 1033 87 10000 1.54 120 23:42 03.04.2021
720 Clouds 4 1033 87 10000 1.54 120 22:59 03.04.2021
721 Clouds 5 1033 87 10000 2.06 110 22:40 03.04.2021
722 Clouds 5 1033 75 10000 1.54 110 22:19 03.04.2021
723 Clouds 6 1033 75 10000 1.54 110 21:46 03.04.2021
724 Clouds 7 1033 65 10000 2.06 90 21:23 03.04.2021
725 Clouds 8 1033 66 10000 2.06 80 20:48 03.04.2021
726 Clouds 9 1033 57 10000 2.57 90 20:26 03.04.2021
727 Clouds 10 1033 62 10000 2.57 100 19:48 03.04.2021
728 Clouds 10 1034 62 10000 2.57 110 19:24 03.04.2021
729 Clouds 10 1034 58 10000 3.09 90 18:46 03.04.2021
730 Clouds 11 1034 62 10000 2.06 100 18:23 03.04.2021
731 Clouds 11 1034 62 10000 3.09 90 17:50 03.04.2021
732 Clouds 11 1034 62 10000 2.57 70 17:21 03.04.2021
733 Clouds 11 1035 62 10000 4.12 70 16:45 03.04.2021
734 Clouds 11 1035 62 10000 3.09 60 16:21 03.04.2021
735 Clouds 11 1035 62 10000 3.09 60 15:46 03.04.2021
736 Clouds 11 1036 62 10000 3.09 60 15:22 03.04.2021
737 Clouds 11 1036 66 10000 3.09 60 14:44 03.04.2021
738 Clouds 10 1036 66 10000 3.09 60 14:22 03.04.2021
739 Clouds 10 1036 66 10000 3.09 90 13:49 03.04.2021
740 Clouds 10 1036 71 10000 3.09 50 13:24 03.04.2021
741 Clouds 10 1036 71 10000 3.6 80 12:52 03.04.2021
742 Clouds 10 1036 76 10000 4.12 80 12:31 03.04.2021
743 Clouds 9 1036 87 10000 4.12 50 11:39 03.04.2021
744 Clouds 8 1036 93 10000 4.12 30 10:56 03.04.2021
745 Clouds 7 1036 100 10000 3.6 30 10:36 03.04.2021
746 Clouds 7 1036 100 10000 3.6 30 10:18 03.04.2021
747 Clouds 4 1035 100 10000 2.06 350 09:28 03.04.2021
748 Clouds 1 1035 100 10000 2.06 350 08:57 03.04.2021
749 Clouds 2 1035 93 10000 2.06 350 08:30 03.04.2021
750 Clouds 2 1035 100 10000 1.54 0 07:29 03.04.2021
751 Clouds 2 1035 100 10000 1.54 350 06:44 03.04.2021
752 Clear 3 1035 100 10000 3.09 20 03:53 03.04.2021
753 Clear 3 1035 93 10000 3.09 30 02:52 03.04.2021
754 Clear 2 1035 100 10000 2.57 20 02:26 03.04.2021
755 Clear 3 1035 93 10000 1.54 0 00:29 03.04.2021
756 Clouds 3 1035 93 10000 2.57 360 23:50 02.04.2021
757 Clouds 3 1035 86 10000 2.06 350 23:26 02.04.2021
758 Clouds 3 1035 93 10000 1.54 0 22:55 02.04.2021
759 Clouds 3 1035 80 10000 2.57 30 22:36 02.04.2021
760 Clouds 5 1035 81 10000 2.57 40 21:46 02.04.2021
761 Clouds 5 1034 75 10000 2.57 60 21:26 02.04.2021
762 Clouds 7 1034 76 10000 2.06 40 20:54 02.04.2021
763 Clouds 7 1034 76 10000 3.09 60 20:35 02.04.2021
764 Clouds 8 1034 71 10000 3.09 70 19:59 02.04.2021
765 Clouds 8 1034 66 10000 4.12 60 19:39 02.04.2021
766 Clouds 8 1034 61 10000 4.63 70 19:21 02.04.2021
767 Clouds 9 1034 61 10000 5.66 60 18:41 02.04.2021
768 Clouds 9 1034 61 10000 5.66 60 18:21 02.04.2021
769 Clouds 9 1034 61 10000 5.66 60 17:40 02.04.2021
770 Clouds 9 1034 61 10000 5.14 50 17:18 02.04.2021
771 Clouds 9 1034 61 10000 5.14 40 16:23 02.04.2021
772 Clouds 8 1034 66 10000 4.63 60 15:42 02.04.2021
773 Clouds 9 1034 76 10000 4.63 60 14:57 02.04.2021
774 Clouds 8 1034 71 10000 5.14 50 14:33 02.04.2021
775 Clouds 8 1034 71 10000 6.17 50 13:46 02.04.2021
776 Clouds 7 1034 71 10000 5.66 40 13:26 02.04.2021
777 Clouds 7 1034 70 10000 6.17 70 12:42 02.04.2021
778 Clouds 7 1034 70 10000 6.17 70 12:20 02.04.2021
779 Clouds 7 1033 75 10000 6.69 70 11:57 02.04.2021
780 Clouds 7 1033 76 10000 6.69 70 11:21 02.04.2021
781 Clouds 6 1033 81 10000 6.17 60 10:51 02.04.2021
782 Clouds 6 1033 81 10000 5.66 70 10:32 02.04.2021
783 Clouds 6 1032 81 10000 5.14 70 09:53 02.04.2021
784 Clouds 6 1032 81 10000 4.63 70 09:27 02.04.2021
785 Clouds 6 1032 81 10000 5.14 60 08:59 02.04.2021
786 Clouds 5 1031 93 10000 4.63 70 08:34 02.04.2021
787 Clouds 5 1031 87 10000 4.12 70 07:31 02.04.2021
788 Clouds 5 1031 87 10000 4.63 80 06:53 02.04.2021
789 Clouds 5 1030 93 10000 4.63 80 05:59 02.04.2021
790 Clouds 7 1030 87 10000 5.66 70 02:47 02.04.2021
791 Clear 7 1030 87 10000 5.14 60 00:53 02.04.2021
792 Clear 7 1030 87 10000 5.14 60 00:23 02.04.2021
793 Clear 7 1029 87 10000 6.17 50 23:41 01.04.2021
794 Clear 7 1029 87 10000 6.17 50 23:18 01.04.2021
795 Clear 7 1029 87 10000 5.14 50 22:21 01.04.2021
796 Clouds 7 1029 81 10000 6.17 60 21:51 01.04.2021
797 Clouds 7 1028 81 10000 6.69 60 21:29 01.04.2021
798 Clouds 7 1028 81 10000 6.17 60 20:54 01.04.2021
799 Clouds 8 1028 81 10000 7.2 60 20:28 01.04.2021
800 Clouds 8 1028 81 10000 7.2 60 19:56 01.04.2021
801 Clouds 8 1028 81 10000 7.2 60 19:36 01.04.2021
802 Clouds 9 1028 81 10000 7.2 60 18:47 01.04.2021
803 Clouds 9 1027 87 10000 8.75 70 18:19 01.04.2021
804 Clouds 8 1027 87 10000 8.75 70 17:54 01.04.2021
805 Clouds 8 1027 87 10000 9.26 70 17:33 01.04.2021
806 Clouds 8 1027 87 10000 8.75 70 16:53 01.04.2021
807 Clouds 8 1027 87 10000 8.23 70 16:34 01.04.2021
808 Clouds 8 1027 87 10000 7.2 60 15:48 01.04.2021
809 Clouds 8 1027 87 10000 7.72 60 15:20 01.04.2021
810 Clouds 8 1027 87 10000 8.23 80 14:47 01.04.2021
811 Clouds 8 1027 87 10000 7.72 80 14:26 01.04.2021
812 Clouds 8 1026 93 10000 8.23 70 13:56 01.04.2021
813 Clouds 9 1026 87 10000 8.23 60 13:31 01.04.2021
814 Clouds 8 1026 87 10000 8.23 60 12:54 01.04.2021
815 Clouds 8 1026 93 10000 8.23 70 12:33 01.04.2021
816 Clouds 8 1026 93 10000 8.23 70 11:55 01.04.2021
817 Clouds 8 1026 93 10000 6.69 70 11:37 01.04.2021
818 Clouds 8 1026 93 10000 6.69 70 11:18 01.04.2021
819 Clouds 8 1026 93 10000 6.69 70 11:18 01.04.2021
820 Clouds 8 1025 93 10000 6.69 60 10:42 01.04.2021
821 Clouds 8 1025 93 10000 6.69 60 10:22 01.04.2021
822 Clouds 8 1024 87 10000 6.17 60 09:31 01.04.2021
823 Clouds 8 1024 87 10000 6.69 60 08:42 01.04.2021
824 Clouds 8 1024 87 10000 7.2 60 08:24 01.04.2021
825 Clouds 8 1023 93 10000 6.69 50 07:21 01.04.2021
826 Clouds 8 1023 93 10000 6.17 60 06:55 01.04.2021
827 Clouds 8 1023 93 10000 7.72 60 05:32 01.04.2021
828 Clouds 8 1022 100 10000 4.63 30 02:58 01.04.2021
829 Clouds 9 1020 93 9000 3.09 80 23:52 31.03.2021
830 Clouds 8 1020 93 9000 3.09 100 23:34 31.03.2021
831 Clouds 9 1020 93 10000 2.06 90 22:43 31.03.2021
832 Clouds 9 1020 93 10000 2.06 100 22:22 31.03.2021
833 Clouds 10 1019 87 10000 2.06 100 21:48 31.03.2021
834 Clouds 10 1019 93 10000 3.09 100 21:24 31.03.2021
835 Clouds 11 1019 93 10000 3.09 90 20:58 31.03.2021
836 Clouds 12 1019 82 10000 3.6 90 20:40 31.03.2021
837 Clouds 12 1019 82 10000 3.6 90 20:19 31.03.2021
838 Clouds 12 1019 82 10000 3.09 100 19:42 31.03.2021
839 Clouds 12 1019 82 10000 3.09 100 19:42 31.03.2021
840 Clouds 13 1018 76 10000 3.6 90 19:19 31.03.2021
841 Clouds 13 1018 76 10000 3.6 90 18:52 31.03.2021
842 Clouds 14 1018 77 10000 4.63 80 18:26 31.03.2021
843 Clouds 14 1018 72 10000 2.57 100 17:38 31.03.2021
844 Clouds 14 1018 72 10000 3.09 100 17:19 31.03.2021
845 Clouds 14 1018 72 10000 3.09 100 16:50 31.03.2021
846 Clouds 14 1018 72 10000 3.09 90 16:30 31.03.2021
847 Clouds 14 1018 76 10000 3.09 120 15:52 31.03.2021
848 Clouds 14 1018 77 10000 1.54 0 15:20 31.03.2021
849 Clouds 14 1018 77 10000 1.54 0 14:49 31.03.2021
850 Clouds 14 1018 72 10000 2.06 290 14:24 31.03.2021
851 Clouds 14 1018 72 10000 2.06 290 14:24 31.03.2021
852 Clouds 14 1018 72 10000 2.06 290 14:24 31.03.2021
853 Clouds 14 1019 77 10000 2.06 260 13:53 31.03.2021
854 Clouds 14 1019 72 10000 2.06 260 13:19 31.03.2021
855 Clouds 13 1019 82 10000 2.57 240 12:37 31.03.2021
856 Clouds 13 1019 82 10000 2.57 240 12:18 31.03.2021
857 Clouds 13 1019 82 10000 2.57 240 12:18 31.03.2021
858 Clouds 12 1019 87 10000 2.57 250 11:22 31.03.2021
859 Clouds 12 1019 87 10000 3.09 280 10:48 31.03.2021
860 Clouds 11 1019 93 10000 3.6 270 10:27 31.03.2021
861 Clouds 9 1019 93 10000 2.06 250 09:46 31.03.2021
862 Clouds 9 1019 93 10000 2.57 270 09:27 31.03.2021
863 Clouds 8 1019 93 10000 2.06 270 08:43 31.03.2021
864 Clouds 8 1019 93 8000 3.09 280 08:25 31.03.2021
865 Clouds 8 1019 93 10000 2.57 260 07:33 31.03.2021
866 Clouds 9 1019 93 10000 3.09 260 04:34 31.03.2021
867 Clouds 10 1020 93 8000 4.63 260 02:37 31.03.2021
868 Clouds 10 1021 76 10000 3.09 230 00:54 31.03.2021
869 Clouds 9 1021 93 8000 1.03 290 00:22 31.03.2021
870 Clouds 9 1021 93 8000 1.03 0 23:55 30.03.2021
871 Clouds 9 1021 100 8000 0.51 0 23:24 30.03.2021
872 Clear 10 1021 87 10000 1.54 0 22:49 30.03.2021
873 Clouds 10 1021 93 10000 1.54 180 22:30 30.03.2021
874 Clouds 10 1021 93 9000 1.54 0 21:56 30.03.2021
875 Clouds 10 1022 87 8000 2.57 160 21:29 30.03.2021
876 Clouds 10 1022 87 9000 2.57 140 20:59 30.03.2021
877 Clouds 13 1022 82 10000 2.57 140 20:31 30.03.2021
878 Clouds 13 1022 76 10000 3.09 140 19:56 30.03.2021
879 Clouds 14 1022 71 10000 4.12 150 19:37 30.03.2021
880 Clouds 15 1022 76 10000 3.09 140 18:55 30.03.2021
881 Clouds 16 1023 72 10000 3.09 140 18:26 30.03.2021
882 Clouds 15 1023 72 10000 3.09 130 17:45 30.03.2021
883 Clouds 16 1023 72 10000 3.6 130 17:26 30.03.2021
884 Clouds 16 1024 72 10000 3.09 140 16:47 30.03.2021
885 Clouds 16 1024 67 10000 4.12 150 16:27 30.03.2021
886 Clouds 15 1024 62 10000 4.12 140 15:37 30.03.2021
887 Clouds 16 1024 62 10000 4.12 140 15:18 30.03.2021
888 Clouds 15 1025 67 10000 3.6 140 14:45 30.03.2021
889 Clouds 15 1025 63 10000 3.6 140 14:20 30.03.2021
890 Clouds 13 1025 62 10000 3.09 210 13:47 30.03.2021
891 Clouds 14 1025 62 10000 3.09 210 13:24 30.03.2021
892 Clouds 11 1025 71 10000 3.09 220 12:41 30.03.2021
893 Clouds 12 1025 71 10000 3.09 220 12:20 30.03.2021
894 Clouds 10 1025 81 10000 4.63 210 11:41 30.03.2021
895 Clouds 11 1025 81 10000 4.63 210 11:18 30.03.2021
896 Clouds 10 1025 76 10000 5.14 210 10:41 30.03.2021
897 Clouds 10 1025 76 10000 5.14 210 10:19 30.03.2021
898 Clouds 9 1025 87 10000 4.12 190 09:40 30.03.2021
899 Clouds 10 1025 87 10000 4.12 190 09:20 30.03.2021
900 Clouds 9 1024 81 10000 4.63 200 08:41 30.03.2021
901 Clouds 9 1024 81 10000 4.12 210 07:55 30.03.2021
902 Clouds 9 1024 81 10000 4.12 220 07:28 30.03.2021
903 Clouds 10 1024 81 10000 4.63 220 06:23 30.03.2021
904 Clouds 10 1023 82 10000 5.66 210 05:24 30.03.2021
905 Clouds 12 1023 82 10000 6.17 210 01:44 30.03.2021
906 Clouds 12 1022 82 10000 6.17 220 23:53 29.03.2021
907 Clouds 12 1022 82 10000 6.17 220 23:21 29.03.2021
908 Clouds 12 1022 76 10000 4.63 220 22:37 29.03.2021
909 Clouds 12 1021 76 10000 5.66 200 21:55 29.03.2021
910 Clouds 12 1021 82 10000 5.66 200 21:33 29.03.2021
911 Clouds 13 1020 76 10000 5.66 210 20:51 29.03.2021
912 Clouds 13 1020 77 10000 6.69 220 20:29 29.03.2021
913 Clouds 14 1019 77 10000 6.69 220 19:53 29.03.2021
914 Clouds 15 1019 72 10000 7.2 230 19:27 29.03.2021
915 Clouds 16 1019 67 10000 8.75 220 18:51 29.03.2021
916 Clouds 16 1019 67 10000 7.2 240 18:27 29.03.2021
917 Clouds 16 1019 67 10000 7.2 240 17:55 29.03.2021
918 Clouds 17 1018 72 10000 8.23 220 17:35 29.03.2021
919 Clouds 17 1018 67 10000 8.23 230 16:52 29.03.2021
920 Clouds 16 1018 72 10000 9.26 230 16:25 29.03.2021
921 Clouds 16 1018 72 10000 7.72 230 15:40 29.03.2021
922 Clouds 16 1018 72 10000 7.72 230 15:22 29.03.2021
923 Clouds 16 1017 72 10000 9.26 230 14:47 29.03.2021
924 Clouds 16 1017 72 10000 8.23 230 13:56 29.03.2021
925 Clouds 16 1017 77 10000 8.23 220 13:37 29.03.2021
926 Clouds 15 1017 77 10000 8.23 220 13:18 29.03.2021
927 Clouds 15 1017 77 10000 8.23 220 12:48 29.03.2021
928 Clouds 15 1017 77 10000 8.23 220 11:46 29.03.2021
929 Clouds 14 1016 82 10000 8.23 210 11:28 29.03.2021
930 Clouds 14 1016 82 10000 7.2 210 10:46 29.03.2021
931 Clouds 13 1015 82 10000 8.23 220 10:21 29.03.2021
932 Clouds 13 1014 82 10000 7.72 220 09:32 29.03.2021
933 Clouds 13 1014 82 10000 7.72 220 08:37 29.03.2021
934 Clouds 13 1013 82 10000 7.72 220 07:54 29.03.2021
935 Clouds 13 1013 82 10000 7.2 220 07:20 29.03.2021
936 Clouds 13 1013 82 10000 7.72 220 06:25 29.03.2021
937 Clouds 13 1012 82 10000 8.23 220 02:34 29.03.2021
938 Clouds 13 1011 82 10000 8.23 220 00:45 29.03.2021
939 Clouds 13 1010 82 10000 8.75 220 00:18 29.03.2021
940 Clouds 13 1010 82 10000 8.75 220 23:25 28.03.2021
941 Clouds 13 1009 82 10000 8.23 220 22:48 28.03.2021
942 Clouds 13 1009 82 10000 7.72 220 22:30 28.03.2021
943 Clouds 13 1009 82 10000 7.72 220 21:48 28.03.2021
944 Clouds 13 1009 82 10000 8.23 220 21:26 28.03.2021
945 Clouds 13 1009 82 10000 7.72 220 20:58 28.03.2021
946 Rain 13 1009 82 10000 7.72 220 20:40 28.03.2021
947 Clouds 13 1009 82 10000 7.72 220 20:19 28.03.2021
948 Clouds 13 1008 82 10000 8.75 220 19:42 28.03.2021
949 Clouds 13 1008 82 10000 8.75 220 19:21 28.03.2021
950 Clouds 13 1008 88 10000 7.72 220 18:51 28.03.2021
951 Rain 13 1008 82 10000 9.26 220 18:24 28.03.2021
952 Clouds 13 1008 88 7000 9.26 210 17:42 28.03.2021
953 Clouds 14 1008 88 7000 9.26 210 17:20 28.03.2021
954 Rain 15 1008 72 10000 9.77 200 16:41 28.03.2021
955 Clouds 15 1008 72 10000 9.77 200 16:21 28.03.2021
956 Clouds 15 1009 77 10000 9.77 210 15:25 28.03.2021
957 Clouds 15 1009 67 10000 9.26 220 14:50 28.03.2021
958 Clouds 15 1010 72 10000 8.23 220 14:27 28.03.2021
959 Clouds 15 1010 67 10000 7.2 220 13:38 28.03.2021
960 Clouds 14 1010 76 10000 7.2 220 12:59 28.03.2021
961 Clouds 14 1010 71 10000 6.69 230 12:37 28.03.2021
962 Clouds 14 1010 71 10000 6.69 230 12:18 28.03.2021
963 Clouds 13 1010 76 10000 7.72 230 11:39 28.03.2021
964 Clouds 12 1010 87 10000 6.69 230 10:56 28.03.2021
965 Clouds 12 1010 87 10000 7.2 220 10:37 28.03.2021
966 Clouds 12 1010 87 10000 7.2 220 10:18 28.03.2021
967 Clouds 12 1009 82 10000 7.2 230 09:43 28.03.2021
968 Clouds 12 1009 82 10000 6.69 230 09:23 28.03.2021
969 Clouds 12 1008 82 10000 10.29 220 08:38 28.03.2021
970 Clouds 11 1008 87 10000 5.66 230 07:44 28.03.2021
971 Clouds 11 1007 82 10000 7.2 230 06:22 28.03.2021
972 Clouds 11 1007 87 10000 8.23 220 03:51 28.03.2021
973 Clouds 10 1008 87 10000 8.75 210 00:48 28.03.2021
974 Clouds 10 1008 87 10000 9.26 210 00:18 28.03.2021
975 Clouds 10 1008 87 10000 9.77 210 23:37 27.03.2021
976 Clouds 10 1008 87 10000 10.29 210 22:50 27.03.2021
977 Clouds 10 1008 81 10000 9.77 210 22:31 27.03.2021
978 Clouds 10 1009 81 10000 9.26 210 21:46 27.03.2021
979 Rain 9 1009 81 10000 9.26 210 21:21 27.03.2021
980 Rain 9 1010 76 10000 9.26 200 20:59 27.03.2021
981 Clouds 9 1010 76 10000 8.75 210 20:37 27.03.2021
982 Clouds 9 1010 76 10000 8.75 210 20:19 27.03.2021
983 Clouds 9 1011 76 10000 8.75 200 19:41 27.03.2021
984 Clouds 9 1011 76 10000 8.75 200 19:22 27.03.2021
985 Rain 10 1011 71 10000 8.75 200 18:47 27.03.2021
986 Clouds 10 1012 66 10000 8.75 200 18:22 27.03.2021
987 Rain 10 1012 66 10000 8.23 210 17:37 27.03.2021
988 Rain 10 1012 66 10000 8.23 210 17:18 27.03.2021
989 Clouds 10 1013 66 10000 7.2 200 16:47 27.03.2021
990 Clouds 10 1014 76 10000 7.72 200 16:26 27.03.2021
991 Clouds 10 1014 66 10000 8.23 200 15:45 27.03.2021
992 Clouds 10 1014 62 10000 6.69 210 15:19 27.03.2021
993 Clouds 10 1015 62 10000 7.72 220 14:42 27.03.2021
994 Clouds 10 1016 66 10000 7.72 220 13:40 27.03.2021
995 Clouds 9 1016 61 10000 6.17 220 13:20 27.03.2021
996 Clouds 9 1016 61 10000 6.17 220 12:47 27.03.2021
997 Clouds 8 1017 71 10000 6.17 230 11:53 27.03.2021
998 Clouds 8 1017 76 10000 6.17 230 11:33 27.03.2021
999 Clouds 7 1017 75 10000 4.12 230 10:58 27.03.2021
1000 Clouds 7 1016 81 10000 4.63 240 10:39 27.03.2021
1001 Clouds 6 1016 75 10000 4.63 230 09:58 27.03.2021
1002 Clouds 5 1016 75 10000 4.12 230 09:21 27.03.2021
1003 Clouds 4 1016 81 10000 3.6 230 08:40 27.03.2021
1004 Clouds 3 1016 80 10000 3.6 240 07:54 27.03.2021
1005 Clouds 3 1015 80 10000 3.6 240 07:18 27.03.2021
1006 Clouds 3 1014 80 10000 4.12 250 06:42 27.03.2021
1007 Clouds 3 1012 80 10000 6.17 250 04:42 27.03.2021
1008 Clouds 3 1011 80 10000 5.66 250 02:58 27.03.2021
1009 Clouds 2 1009 80 10000 5.66 240 00:45 27.03.2021
1010 Clouds 2 1009 80 10000 5.14 240 00:25 27.03.2021
1011 Clouds 2 1008 80 10000 6.17 240 23:37 26.03.2021
1012 Clouds 3 1007 70 10000 6.17 270 22:40 26.03.2021
1013 Clouds 3 1007 70 10000 5.14 250 21:53 26.03.2021
1014 Clouds 4 1006 70 10000 6.69 250 21:24 26.03.2021
1015 Clouds 4 1005 70 10000 9.77 270 20:58 26.03.2021
1016 Clouds 4 1005 70 10000 9.77 270 20:58 26.03.2021
1017 Clouds 4 1004 70 10000 11.83 270 20:31 26.03.2021
1018 Rain 5 1003 70 10000 10.29 270 19:53 26.03.2021
1019 Clouds 5 1003 75 10000 10.8 270 19:34 26.03.2021
1020 Clouds 5 1002 81 10000 8.23 260 18:55 26.03.2021
1021 Clouds 5 1002 87 9000 7.2 250 18:36 26.03.2021
1022 Clouds 5 1002 87 9000 7.2 250 18:18 26.03.2021
1023 Rain 5 1001 75 10000 6.69 240 17:41 26.03.2021
1024 Clouds 6 1001 70 10000 7.72 220 16:50 26.03.2021
1025 Clouds 6 1001 75 10000 9.26 220 16:23 26.03.2021
1026 Clouds 6 1001 75 10000 9.26 220 16:23 26.03.2021
1027 Clouds 8 1001 57 10000 7.2 230 15:42 26.03.2021
1028 Clouds 7 1002 65 10000 6.17 220 14:54 26.03.2021
1029 Clouds 6 1003 75 10000 7.2 250 14:20 26.03.2021
1030 Clouds 6 1002 65 10000 6.69 250 13:33 26.03.2021
1031 Clouds 6 1002 61 10000 9.26 240 12:46 26.03.2021
1032 Clouds 7 1002 75 10000 8.75 230 11:50 26.03.2021
1033 Clouds 7 1002 70 10000 6.69 240 11:31 26.03.2021
1034 Clouds 6 1002 70 10000 5.66 230 10:45 26.03.2021
1035 Clouds 6 1002 81 10000 6.17 240 10:24 26.03.2021
1036 Clouds 5 1001 87 10000 5.14 240 09:41 26.03.2021
1037 Clouds 5 1000 87 10000 4.12 240 08:51 26.03.2021
1038 Clouds 4 1000 81 10000 3.6 230 08:31 26.03.2021
1039 Clouds 4 999 81 10000 4.12 240 07:58 26.03.2021
1040 Clouds 4 999 87 10000 3.6 240 07:22 26.03.2021
1041 Rain 4 999 81 10000 4.63 250 06:57 26.03.2021
1042 Clouds 7 997 76 10000 6.69 220 05:33 26.03.2021
1043 Clouds 9 997 76 10000 7.2 190 04:43 26.03.2021
1044 Clouds 9 1002 71 10000 7.2 210 01:36 26.03.2021
1045 Clouds 9 1003 81 10000 6.69 200 00:23 26.03.2021
1046 Clouds 9 1003 76 10000 6.69 200 23:42 25.03.2021
1047 Rain 9 1004 76 10000 6.69 200 22:50 25.03.2021
1048 Clouds 9 1004 76 10000 7.2 200 22:27 25.03.2021
1049 Clouds 9 1004 76 10000 6.69 200 21:49 25.03.2021
1050 Clouds 9 1005 76 10000 6.17 210 21:30 25.03.2021
1051 Clouds 9 1005 76 10000 7.2 200 20:42 25.03.2021
1052 Clouds 10 1005 76 10000 7.2 190 20:24 25.03.2021
1053 Clouds 10 1005 71 10000 6.17 210 19:43 25.03.2021
1054 Clouds 11 1006 66 10000 7.72 200 19:25 25.03.2021
1055 Clouds 11 1006 66 10000 8.23 210 18:46 25.03.2021
1056 Clouds 11 1006 71 10000 7.2 210 18:26 25.03.2021
1057 Clouds 12 1006 71 10000 7.2 210 17:43 25.03.2021
1058 Clouds 12 1006 71 10000 7.2 210 17:43 25.03.2021
1059 Clouds 12 1007 76 10000 7.72 210 17:24 25.03.2021
1060 Clouds 12 1007 66 10000 8.75 200 16:47 25.03.2021
1061 Clouds 12 1008 71 10000 7.72 200 16:28 25.03.2021
1062 Clouds 12 1008 76 10000 10.29 200 15:43 25.03.2021
1063 Clouds 12 1009 71 10000 7.2 210 15:19 25.03.2021
1064 Clouds 11 1010 81 10000 7.2 210 14:43 25.03.2021
1065 Clouds 11 1010 71 10000 7.72 210 13:48 25.03.2021
1066 Clouds 11 1011 71 10000 7.72 210 13:23 25.03.2021
1067 Rain 11 1011 76 10000 7.2 220 12:42 25.03.2021
1068 Rain 11 1011 76 10000 7.2 220 12:20 25.03.2021
1069 Rain 10 1012 71 10000 7.2 210 11:52 25.03.2021
1070 Rain 10 1012 76 10000 5.14 220 11:30 25.03.2021
1071 Clouds 10 1012 76 10000 6.17 220 10:54 25.03.2021
1072 Clouds 10 1012 76 10000 6.17 220 10:25 25.03.2021
1073 Clouds 9 1012 81 10000 5.66 210 09:57 25.03.2021
1074 Rain 9 1013 76 10000 5.66 210 09:38 25.03.2021
1075 Rain 8 1013 81 10000 4.63 220 08:57 25.03.2021
1076 Rain 8 1013 81 10000 5.14 220 08:28 25.03.2021
1077 Clear 8 1013 81 10000 4.63 210 07:19 25.03.2021
1078 Clear 8 1013 81 10000 4.63 220 06:26 25.03.2021
1079 Clear 7 1013 81 10000 4.12 220 05:49 25.03.2021
1080 Clear 7 1014 81 10000 3.09 230 03:55 25.03.2021
1081 Clear 7 1015 87 10000 3.6 240 00:34 25.03.2021
1082 Clouds 8 1015 87 10000 3.6 240 23:53 24.03.2021
1083 Clouds 8 1015 87 10000 4.12 240 23:30 24.03.2021
1084 Clouds 8 1015 81 10000 3.09 240 22:50 24.03.2021
1085 Clouds 8 1015 81 10000 3.09 240 22:28 24.03.2021
1086 Clouds 9 1015 76 10000 4.12 230 21:46 24.03.2021
1087 Clouds 9 1015 76 10000 4.63 230 21:24 24.03.2021
1088 Clouds 10 1015 71 10000 4.63 230 20:45 24.03.2021
1089 Clouds 10 1014 71 10000 3.6 230 20:20 24.03.2021
1090 Clouds 10 1014 71 10000 3.6 230 19:49 24.03.2021
1091 Clouds 10 1014 71 10000 5.66 220 19:29 24.03.2021
1092 Clouds 10 1014 71 10000 5.66 220 19:29 24.03.2021
1093 Clouds 11 1014 62 10000 5.14 230 18:51 24.03.2021
1094 Clouds 11 1014 62 10000 6.69 230 18:24 24.03.2021
1095 Rain 11 1014 62 10000 6.17 230 17:52 24.03.2021
1096 Clouds 12 1014 66 10000 8.23 220 17:32 24.03.2021
1097 Clouds 12 1014 66 10000 6.69 220 16:53 24.03.2021
1098 Rain 12 1015 62 10000 7.2 230 16:31 24.03.2021
1099 Clouds 13 1015 58 10000 6.69 220 15:50 24.03.2021
1100 Rain 13 1015 62 10000 9.77 220 15:32 24.03.2021
1101 Rain 12 1015 58 10000 6.69 220 14:48 24.03.2021
1102 Rain 12 1016 58 10000 5.66 220 14:26 24.03.2021
1103 Clouds 12 1016 62 10000 6.17 220 13:55 24.03.2021
1104 Clouds 12 1016 58 10000 6.69 220 13:28 24.03.2021
1105 Clouds 11 1016 66 10000 5.14 220 12:44 24.03.2021
1106 Clouds 11 1016 66 10000 5.66 230 12:23 24.03.2021
1107 Clouds 10 1017 62 10000 4.63 230 11:49 24.03.2021
1108 Clouds 9 1017 71 10000 5.14 230 10:59 24.03.2021
1109 Clouds 9 1017 71 10000 4.63 230 10:40 24.03.2021
1110 Clouds 8 1016 76 10000 4.12 230 10:21 24.03.2021
1111 Clouds 8 1016 76 10000 4.12 230 09:52 24.03.2021
1112 Clouds 7 1016 75 10000 3.6 230 09:22 24.03.2021
1113 Clouds 6 1016 81 10000 3.6 230 08:51 24.03.2021
1114 Clouds 6 1016 81 10000 3.6 220 08:26 24.03.2021
1115 Clouds 6 1016 81 10000 3.09 220 07:40 24.03.2021
1116 Clouds 6 1016 81 10000 3.6 240 06:54 24.03.2021
1117 Clouds 6 1016 81 10000 3.6 240 06:54 24.03.2021
1118 Clouds 6 1016 81 10000 3.6 220 05:30 24.03.2021
1119 Clouds 6 1016 87 10000 3.09 220 00:55 24.03.2021
1120 Clouds 6 1016 87 10000 3.09 230 00:25 24.03.2021
1121 Clouds 7 1016 93 10000 3.6 240 23:22 23.03.2021
1122 Clouds 8 1015 87 10000 3.09 240 22:55 23.03.2021
1123 Clouds 8 1015 93 10000 3.09 240 22:36 23.03.2021
1124 Clouds 8 1015 87 10000 3.09 220 21:54 23.03.2021
1125 Clouds 8 1015 87 10000 3.6 240 21:34 23.03.2021
1126 Clouds 8 1015 87 10000 3.6 240 20:57 23.03.2021
1127 Clouds 8 1014 87 10000 6.17 230 20:39 23.03.2021
1128 Clouds 9 1014 87 10000 6.17 230 20:21 23.03.2021
1129 Clouds 10 1014 71 10000 7.2 210 19:44 23.03.2021
1130 Clouds 11 1013 71 10000 8.23 210 19:23 23.03.2021
1131 Clouds 11 1013 71 10000 7.2 210 18:41 23.03.2021
1132 Clouds 11 1013 71 10000 7.2 210 18:20 23.03.2021
1133 Clouds 12 1013 71 10000 9.26 210 17:44 23.03.2021
1134 Clouds 12 1014 66 10000 8.75 210 17:21 23.03.2021
1135 Clouds 12 1014 66 10000 7.72 200 16:26 23.03.2021
1136 Clouds 12 1014 66 10000 6.69 210 15:52 23.03.2021
1137 Clouds 12 1014 66 10000 8.23 200 15:25 23.03.2021
1138 Clouds 12 1015 62 10000 7.72 200 14:49 23.03.2021
1139 Clouds 11 1015 62 10000 7.2 210 14:20 23.03.2021
1140 Clouds 12 1016 62 10000 6.17 220 13:48 23.03.2021
1141 Clouds 12 1016 62 10000 7.72 190 13:25 23.03.2021
1142 Clouds 10 1016 76 10000 6.17 180 12:46 23.03.2021
1143 Drizzle 9 1017 71 10000 5.66 210 12:26 23.03.2021
1144 Clouds 9 1017 66 10000 6.17 200 11:49 23.03.2021
1145 Clouds 9 1017 66 10000 6.17 210 11:26 23.03.2021
1146 Clouds 8 1018 66 10000 6.17 200 10:43 23.03.2021
1147 Clouds 8 1018 66 10000 5.14 200 10:21 23.03.2021
1148 Clouds 8 1018 66 10000 5.66 200 09:54 23.03.2021
1149 Clouds 8 1018 66 10000 3.6 200 09:24 23.03.2021
1150 Clouds 8 1018 66 10000 4.63 200 08:56 23.03.2021
1151 Clouds 8 1018 66 10000 4.12 200 08:38 23.03.2021
1152 Clouds 8 1018 66 10000 4.12 200 08:19 23.03.2021
1153 Clouds 8 1019 66 10000 4.12 200 07:28 23.03.2021
1154 Clouds 8 1019 66 10000 5.14 200 06:54 23.03.2021
1155 Clouds 8 1020 71 10000 3.6 200 04:58 23.03.2021
1156 Clouds 8 1021 76 10000 3.6 200 03:19 23.03.2021
1157 Clouds 8 1023 76 10000 3.09 200 23:57 22.03.2021
1158 Clouds 8 1023 76 10000 2.57 190 23:21 22.03.2021
1159 Clouds 8 1023 76 10000 2.57 190 22:44 22.03.2021
1160 Clouds 9 1023 71 10000 2.57 180 22:21 22.03.2021
1161 Clouds 9 1023 71 10000 3.09 200 21:50 22.03.2021
1162 Clouds 8 1024 76 10000 2.57 200 21:27 22.03.2021
1163 Clouds 9 1024 76 10000 2.57 200 20:49 22.03.2021
1164 Clouds 8 1024 76 10000 2.57 190 20:29 22.03.2021
1165 Clouds 9 1024 71 10000 3.09 210 19:58 22.03.2021
1166 Clouds 9 1024 66 10000 2.06 220 19:40 22.03.2021
1167 Clouds 9 1024 66 10000 2.06 220 19:21 22.03.2021
1168 Clouds 9 1024 71 10000 3.6 230 18:42 22.03.2021
1169 Clouds 9 1024 71 10000 3.6 230 18:22 22.03.2021
1170 Clouds 9 1024 71 10000 2.57 240 17:50 22.03.2021
1171 Clouds 9 1024 71 10000 3.6 210 17:22 22.03.2021
1172 Clouds 9 1024 66 10000 3.6 210 16:57 22.03.2021
1173 Clouds 9 1024 66 10000 3.09 220 16:39 22.03.2021
1174 Clouds 9 1024 71 10000 4.12 200 15:43 22.03.2021
1175 Clouds 9 1025 66 10000 5.14 190 15:23 22.03.2021
1176 Clouds 9 1025 76 10000 3.09 240 14:58 22.03.2021
1177 Clouds 9 1025 76 10000 3.09 240 14:34 22.03.2021
1178 Clouds 9 1026 76 10000 4.12 250 13:52 22.03.2021
1179 Clouds 9 1026 76 10000 4.12 250 13:33 22.03.2021
1180 Clouds 9 1026 81 10000 3.09 260 12:59 22.03.2021
1181 Clouds 9 1026 81 10000 3.09 260 12:27 22.03.2021
1182 Clouds 9 1026 81 10000 4.12 280 11:57 22.03.2021
1183 Clouds 9 1026 81 10000 4.12 280 11:39 22.03.2021
1184 Clouds 9 1026 81 10000 4.12 280 11:20 22.03.2021
1185 Clouds 9 1026 76 10000 3.09 250 10:41 22.03.2021
1186 Clouds 9 1026 76 10000 3.09 250 10:18 22.03.2021
1187 Clouds 9 1026 71 10000 3.6 250 09:36 22.03.2021
1188 Clouds 8 1026 71 10000 2.06 230 08:57 22.03.2021
1189 Clouds 8 1026 71 10000 2.06 230 08:57 22.03.2021
1190 Clouds 8 1026 71 10000 3.09 240 08:39 22.03.2021
1191 Clouds 8 1026 71 10000 2.57 240 08:20 22.03.2021
1192 Clouds 8 1026 71 10000 3.6 250 07:42 22.03.2021
1193 Clouds 8 1026 81 10000 2.57 240 06:52 22.03.2021
1194 Clouds 8 1026 76 10000 3.09 250 05:19 22.03.2021
1195 Clouds 8 1028 81 10000 3.6 270 00:55 22.03.2021
1196 Clouds 8 1028 81 10000 2.57 260 00:21 22.03.2021
1197 Clouds 8 1028 81 10000 2.57 260 23:48 21.03.2021
1198 Clouds 8 1028 81 10000 3.09 280 23:19 21.03.2021
1199 Clouds 8 1028 81 10000 2.06 280 22:54 21.03.2021
1200 Clouds 8 1028 76 10000 2.06 170 21:45 21.03.2021
1201 Clouds 8 1029 76 10000 1.54 0 21:27 21.03.2021
1202 Clouds 8 1029 76 10000 2.06 160 20:57 21.03.2021
1203 Clouds 8 1029 71 10000 2.57 150 20:39 21.03.2021
1204 Clouds 8 1029 71 10000 2.57 150 20:21 21.03.2021
1205 Clouds 8 1029 71 10000 2.57 150 19:49 21.03.2021
1206 Clouds 9 1029 71 10000 2.57 150 19:20 21.03.2021
1207 Clouds 10 1029 66 10000 3.09 150 18:45 21.03.2021
1208 Clouds 10 1029 58 10000 2.57 110 18:26 21.03.2021
1209 Clouds 10 1029 62 10000 1.54 0 17:44 21.03.2021
1210 Clouds 11 1029 58 10000 3.09 110 17:19 21.03.2021
1211 Clouds 11 1030 62 10000 3.09 320 16:51 21.03.2021
1212 Clouds 12 1030 62 10000 3.09 350 16:27 21.03.2021
1213 Clouds 11 1030 62 10000 2.57 330 15:49 21.03.2021
1214 Clouds 11 1030 62 10000 3.6 330 15:23 21.03.2021
1215 Clouds 11 1031 62 10000 4.12 330 14:58 21.03.2021
1216 Clouds 11 1031 66 10000 3.09 300 14:39 21.03.2021
1217 Clouds 10 1031 66 10000 4.12 330 14:20 21.03.2021
1218 Clouds 10 1031 66 10000 4.12 330 13:51 21.03.2021
1219 Clouds 9 1032 71 10000 4.63 340 12:46 21.03.2021
1220 Clouds 9 1032 76 10000 4.63 340 12:25 21.03.2021
1221 Clouds 9 1032 71 10000 4.63 330 11:47 21.03.2021
1222 Clouds 9 1032 71 10000 5.14 340 11:27 21.03.2021
1223 Clouds 8 1032 76 10000 5.14 330 10:50 21.03.2021
1224 Clouds 8 1032 81 10000 4.12 330 10:32 21.03.2021
1225 Clouds 8 1032 81 10000 4.12 320 09:55 21.03.2021
1226 Clouds 8 1032 87 10000 3.09 320 09:37 21.03.2021
1227 Clouds 7 1032 87 10000 3.09 320 09:18 21.03.2021
1228 Clouds 7 1032 100 10000 3.6 320 08:37 21.03.2021
1229 Clouds 7 1032 100 10000 3.6 320 08:19 21.03.2021
1230 Clouds 7 1032 100 10000 3.09 290 07:29 21.03.2021
1231 Clouds 8 1032 93 10000 4.63 290 06:21 21.03.2021
1232 Clouds 8 1032 87 10000 4.12 280 04:56 21.03.2021
1233 Clouds 9 1033 87 10000 4.12 300 00:58 21.03.2021
1234 Clouds 9 1033 87 10000 4.12 300 00:39 21.03.2021
1235 Clouds 9 1033 87 10000 4.12 300 00:20 21.03.2021
1236 Clouds 9 1033 81 10000 4.12 290 23:45 20.03.2021
1237 Clouds 9 1033 81 10000 4.12 290 23:20 20.03.2021
1238 Clouds 9 1033 81 10000 3.6 310 22:25 20.03.2021
1239 Clouds 9 1033 76 10000 4.63 300 21:58 20.03.2021
1240 Clouds 10 1033 76 10000 4.63 300 21:40 20.03.2021
1241 Clouds 10 1033 76 10000 4.63 300 21:21 20.03.2021
1242 Clouds 10 1033 76 10000 3.6 310 20:41 20.03.2021
1243 Clouds 10 1033 76 10000 3.6 310 20:21 20.03.2021
1244 Clouds 10 1032 81 10000 6.17 330 19:41 20.03.2021
1245 Clouds 11 1032 81 10000 6.17 330 19:23 20.03.2021
1246 Clouds 11 1032 81 10000 6.17 330 18:46 20.03.2021
1247 Clouds 12 1032 82 10000 5.14 320 18:24 20.03.2021
1248 Clouds 12 1032 76 10000 6.17 310 17:48 20.03.2021
1249 Clouds 12 1032 76 10000 5.14 320 17:26 20.03.2021
1250 Clouds 12 1032 76 10000 5.66 290 16:44 20.03.2021
1251 Clouds 12 1032 76 10000 5.66 290 16:44 20.03.2021
1252 Clouds 12 1032 76 10000 6.17 290 16:20 20.03.2021
1253 Clouds 12 1032 76 10000 5.66 290 15:54 20.03.2021
1254 Clouds 11 1033 82 10000 5.14 300 15:33 20.03.2021
1255 Clouds 11 1033 82 10000 6.17 290 14:42 20.03.2021
1256 Clouds 11 1033 82 10000 6.17 300 14:22 20.03.2021
1257 Clouds 11 1033 87 10000 5.66 290 13:32 20.03.2021
1258 Clouds 10 1034 87 10000 5.66 290 12:44 20.03.2021
1259 Clouds 10 1034 87 10000 5.14 290 12:25 20.03.2021
1260 Clouds 9 1034 87 10000 4.63 290 11:44 20.03.2021
1261 Clouds 9 1034 93 8000 3.6 270 11:24 20.03.2021
1262 Clouds 9 1034 93 8000 3.6 270 10:47 20.03.2021
1263 Clouds 9 1034 93 6000 2.57 260 10:27 20.03.2021
1264 Clouds 9 1034 93 8000 2.06 260 09:54 20.03.2021
1265 Clouds 8 1034 100 8000 2.06 260 09:26 20.03.2021
1266 Clouds 8 1034 93 10000 2.06 270 08:55 20.03.2021
1267 Clouds 7 1034 93 8000 2.57 280 08:28 20.03.2021
1268 Clouds 7 1034 93 8000 1.54 270 07:49 20.03.2021
1269 Clouds 7 1033 100 10000 1.54 250 07:30 20.03.2021
1270 Clouds 7 1033 93 10000 2.57 290 06:46 20.03.2021
1271 Clouds 7 1033 93 10000 1.54 290 05:30 20.03.2021
1272 Clouds 7 1034 93 10000 1.03 0 03:46 20.03.2021
1273 Clouds 6 1034 100 10000 3.09 270 02:40 20.03.2021
1274 Clear 5 1034 100 10000 2.57 270 23:48 19.03.2021
1275 Clouds 5 1033 100 10000 1.54 220 23:22 19.03.2021
1276 Clouds 5 1034 100 10000 1.54 230 22:45 19.03.2021
1277 Clouds 5 1034 93 10000 1.03 0 22:25 19.03.2021
1278 Clouds 6 1034 87 10000 1.54 110 21:51 19.03.2021
1279 Clouds 6 1033 87 10000 2.06 110 21:21 19.03.2021
1280 Clouds 7 1034 87 10000 2.06 120 20:46 19.03.2021
1281 Clouds 7 1033 81 10000 2.57 110 20:27 19.03.2021
1282 Clouds 7 1033 81 10000 2.57 110 20:27 19.03.2021
1283 Clouds 8 1033 81 10000 2.06 90 19:52 19.03.2021
1284 Clouds 9 1033 76 10000 2.57 70 19:26 19.03.2021
1285 Clouds 10 1033 76 10000 2.06 50 18:58 19.03.2021
1286 Clouds 10 1033 76 10000 2.06 40 18:36 19.03.2021
1287 Clouds 11 1033 71 10000 2.57 30 18:18 19.03.2021
1288 Clouds 11 1033 71 10000 2.57 30 17:48 19.03.2021
1289 Clouds 11 1032 76 10000 2.57 10 17:23 19.03.2021
1290 Clouds 12 1032 76 10000 3.09 10 16:44 19.03.2021
1291 Clouds 11 1032 76 10000 2.57 30 16:26 19.03.2021
1292 Clouds 11 1032 76 10000 2.57 50 15:34 19.03.2021
1293 Clouds 11 1032 76 10000 3.09 90 14:56 19.03.2021
1294 Clouds 11 1032 71 10000 3.6 70 14:35 19.03.2021
1295 Clouds 11 1033 76 10000 3.09 50 13:59 19.03.2021
1296 Clouds 10 1033 87 10000 1.54 0 13:24 19.03.2021
1297 Clouds 10 1033 87 10000 2.06 10 12:48 19.03.2021
1298 Clouds 10 1033 81 10000 2.57 310 12:29 19.03.2021
1299 Clouds 9 1033 100 10000 2.06 280 11:36 19.03.2021
1300 Clouds 8 1032 93 10000 3.09 310 10:53 19.03.2021
1301 Clouds 7 1032 100 10000 3.09 290 10:26 19.03.2021
1302 Clouds 7 1032 100 10000 3.09 310 09:47 19.03.2021
1303 Clouds 6 1032 100 10000 3.6 320 09:27 19.03.2021
1304 Clouds 6 1032 100 10000 4.12 320 08:53 19.03.2021
1305 Clouds 6 1031 100 10000 2.57 270 08:30 19.03.2021
1306 Clouds 6 1031 100 10000 3.09 280 07:50 19.03.2021
1307 Clouds 6 1031 93 10000 2.57 290 07:32 19.03.2021
1308 Clouds 6 1031 93 10000 3.09 310 06:36 19.03.2021
1309 Clouds 9 1030 93 10000 5.14 330 02:37 19.03.2021
1310 Clouds 9 1031 93 10000 7.72 320 23:57 18.03.2021
1311 Clouds 9 1031 87 10000 7.2 330 23:30 18.03.2021
1312 Clouds 9 1031 87 10000 7.2 330 23:30 18.03.2021
1313 Clouds 10 1031 87 10000 5.66 320 22:58 18.03.2021
1314 Clouds 10 1031 82 10000 3.09 330 22:27 18.03.2021
1315 Clouds 11 1031 93 10000 4.12 280 21:56 18.03.2021
1316 Clouds 11 1031 87 10000 5.14 310 21:38 18.03.2021
1317 Clouds 11 1031 87 10000 3.6 310 20:43 18.03.2021
1318 Clouds 11 1031 82 10000 6.17 330 20:23 18.03.2021
1319 Clouds 12 1031 82 10000 5.14 310 19:45 18.03.2021
1320 Clouds 13 1031 82 10000 6.17 320 19:24 18.03.2021
1321 Clouds 13 1031 76 10000 7.72 320 18:54 18.03.2021
1322 Clouds 14 1031 76 10000 6.69 320 18:27 18.03.2021
1323 Clouds 14 1032 77 10000 7.2 320 17:47 18.03.2021
1324 Clouds 14 1032 77 10000 7.2 320 17:25 18.03.2021
1325 Clouds 15 1032 77 10000 6.69 330 16:44 18.03.2021
1326 Clouds 14 1032 72 10000 7.2 320 16:23 18.03.2021
1327 Clouds 14 1032 77 10000 7.2 320 15:43 18.03.2021
1328 Clouds 13 1033 77 10000 6.69 320 15:23 18.03.2021
1329 Clouds 13 1033 82 10000 6.69 300 14:53 18.03.2021
1330 Clouds 13 1033 82 10000 6.17 310 14:29 18.03.2021
1331 Clouds 12 1034 82 10000 6.69 310 13:49 18.03.2021
1332 Clouds 12 1034 82 10000 6.69 320 13:26 18.03.2021
1333 Clouds 11 1034 87 10000 5.14 310 12:42 18.03.2021
1334 Clouds 10 1034 93 10000 6.17 320 12:24 18.03.2021
1335 Clouds 10 1034 93 10000 6.17 300 11:51 18.03.2021
1336 Clouds 10 1034 93 10000 6.17 300 11:31 18.03.2021
1337 Clouds 9 1034 93 10000 6.69 300 10:44 18.03.2021
1338 Clouds 9 1034 93 10000 6.69 310 10:25 18.03.2021
1339 Clouds 9 1035 93 10000 6.17 290 09:54 18.03.2021
1340 Clouds 8 1035 93 10000 5.66 300 09:28 18.03.2021
1341 Clouds 8 1035 93 10000 5.66 300 08:47 18.03.2021
1342 Clouds 8 1035 93 10000 5.14 310 08:29 18.03.2021
1343 Clouds 9 1035 93 10000 4.63 320 07:51 18.03.2021
1344 Clouds 9 1035 93 10000 4.12 320 07:24 18.03.2021
1345 Clouds 9 1035 100 10000 3.6 320 06:27 18.03.2021
1346 Drizzle 9 1035 100 10000 4.12 330 05:42 18.03.2021
1347 Clouds 9 1036 87 10000 5.14 330 00:57 18.03.2021
1348 Clouds 10 1036 81 10000 3.6 310 23:58 17.03.2021
1349 Clouds 9 1036 81 10000 4.12 280 22:47 17.03.2021
1350 Clouds 9 1036 81 10000 3.6 270 22:25 17.03.2021
1351 Clouds 10 1036 76 10000 4.12 280 21:55 17.03.2021
1352 Clouds 10 1036 71 10000 4.12 300 21:33 17.03.2021
1353 Clouds 11 1036 71 10000 4.63 280 20:58 17.03.2021
1354 Clouds 11 1036 62 10000 5.14 320 20:40 17.03.2021
1355 Clouds 11 1036 62 10000 5.14 320 20:21 17.03.2021
1356 Clouds 12 1036 58 10000 4.63 300 19:44 17.03.2021
1357 Clouds 12 1036 54 10000 5.66 330 19:21 17.03.2021
1358 Clouds 12 1036 50 10000 6.17 340 18:52 17.03.2021
1359 Clouds 13 1036 50 10000 4.12 340 18:33 17.03.2021
1360 Clouds 13 1036 43 10000 5.66 330 17:46 17.03.2021
1361 Clouds 13 1035 50 10000 6.17 330 17:23 17.03.2021
1362 Clouds 13 1036 47 10000 4.12 330 16:45 17.03.2021
1363 Clouds 13 1035 50 10000 4.63 320 16:24 17.03.2021
1364 Clouds 13 1036 62 10000 4.63 300 15:53 17.03.2021
1365 Clouds 12 1036 58 10000 5.66 320 15:35 17.03.2021
1366 Clouds 12 1036 58 10000 6.69 310 14:45 17.03.2021
1367 Clouds 12 1036 62 10000 7.2 310 14:26 17.03.2021
1368 Clouds 12 1036 71 10000 5.14 300 13:55 17.03.2021
1369 Clouds 11 1036 71 10000 4.63 280 13:27 17.03.2021
1370 Clouds 11 1037 71 10000 4.63 270 12:51 17.03.2021
1371 Clouds 10 1037 81 10000 5.66 290 12:33 17.03.2021
1372 Clouds 9 1037 87 10000 6.69 280 11:51 17.03.2021
1373 Clouds 9 1037 81 10000 7.2 270 11:23 17.03.2021
1374 Clouds 9 1037 87 10000 7.2 280 10:55 17.03.2021
1375 Clouds 8 1036 87 10000 3.6 250 10:26 17.03.2021
1376 Clouds 8 1036 87 10000 3.6 250 10:26 17.03.2021
1377 Clouds 6 1036 87 10000 3.09 240 09:48 17.03.2021
1378 Clouds 7 1036 87 10000 3.09 240 09:48 17.03.2021
1379 Clear 6 1037 87 10000 3.09 250 09:25 17.03.2021
1380 Clear 5 1037 93 10000 3.09 250 08:58 17.03.2021
1381 Clear 5 1037 93 10000 3.09 240 08:38 17.03.2021
1382 Clear 4 1037 93 10000 2.57 260 07:49 17.03.2021
1383 Clear 4 1037 93 10000 3.6 260 07:30 17.03.2021
1384 Clear 4 1038 93 10000 3.6 260 06:42 17.03.2021
1385 Clear 5 1037 87 10000 3.09 250 04:23 17.03.2021
1386 Clear 5 1037 93 10000 2.06 250 03:24 17.03.2021
1387 Clear 6 1038 87 10000 5.66 300 00:40 17.03.2021
1388 Clear 7 1038 81 10000 4.12 280 23:33 16.03.2021
1389 Clear 8 1037 87 10000 4.63 310 22:51 16.03.2021
1390 Clear 8 1037 81 10000 5.14 300 22:33 16.03.2021
1391 Clear 7 1037 81 10000 2.57 270 21:51 16.03.2021
1392 Clear 7 1036 81 10000 3.6 280 21:32 16.03.2021
1393 Clear 9 1036 76 10000 3.6 300 20:59 16.03.2021
1394 Clear 9 1035 76 10000 5.66 320 20:38 16.03.2021
1395 Clear 9 1035 76 10000 5.66 320 20:18 16.03.2021
1396 Clear 11 1035 71 10000 4.12 300 19:42 16.03.2021
1397 Clear 12 1035 71 10000 4.12 300 19:23 16.03.2021
1398 Clear 13 1034 62 10000 3.6 320 18:44 16.03.2021
1399 Clear 13 1034 58 10000 7.2 320 18:26 16.03.2021
1400 Clear 14 1034 62 10000 6.17 330 17:48 16.03.2021
1401 Clear 14 1034 62 10000 7.2 320 17:30 16.03.2021
1402 Clear 14 1033 58 10000 6.69 330 16:53 16.03.2021
1403 Clear 14 1033 58 10000 6.69 310 16:30 16.03.2021
1404 Clouds 14 1033 62 10000 5.66 310 15:47 16.03.2021
1405 Clouds 14 1033 58 10000 6.69 320 15:21 16.03.2021
1406 Clouds 14 1033 62 10000 6.69 320 14:58 16.03.2021
1407 Clouds 14 1032 62 10000 5.66 330 14:40 16.03.2021
1408 Clouds 14 1032 62 10000 5.66 330 14:21 16.03.2021
1409 Clouds 14 1032 58 10000 4.63 300 13:54 16.03.2021
1410 Clouds 13 1032 62 10000 6.69 330 13:26 16.03.2021
1411 Clouds 13 1031 62 10000 8.23 330 12:53 16.03.2021
1412 Clouds 13 1031 76 10000 5.14 320 12:34 16.03.2021
1413 Clouds 12 1031 87 10000 4.63 320 11:54 16.03.2021
1414 Drizzle 11 1031 87 10000 7.2 310 11:27 16.03.2021
1415 Drizzle 11 1030 87 10000 4.63 300 10:44 16.03.2021
1416 Drizzle 11 1030 87 10000 5.66 310 10:20 16.03.2021
1417 Drizzle 11 1030 87 10000 5.66 310 10:20 16.03.2021
1418 Clouds 11 1029 100 10000 7.2 280 09:39 16.03.2021
1419 Clouds 11 1029 100 10000 7.2 280 09:18 16.03.2021
1420 Clouds 10 1029 93 10000 6.17 270 08:49 16.03.2021
1421 Drizzle 10 1028 93 8000 6.69 270 08:31 16.03.2021
1422 Drizzle 10 1028 93 6000 7.2 270 07:38 16.03.2021
1423 Drizzle 10 1027 93 6000 7.2 270 06:57 16.03.2021
1424 Drizzle 10 1027 93 10000 7.2 270 06:37 16.03.2021
1425 Clouds 10 1027 93 6000 7.2 270 05:35 16.03.2021
1426 Clouds 10 1027 93 10000 6.17 270 02:46 16.03.2021
1427 Clouds 10 1027 93 10000 7.2 270 02:25 16.03.2021
1428 Clouds 10 1026 87 10000 7.2 270 00:25 16.03.2021
1429 Clouds 10 1026 87 10000 7.2 270 00:25 16.03.2021
1430 Clouds 10 1026 87 10000 7.2 270 00:25 16.03.2021
1431 Clouds 11 1026 93 10000 4.63 250 23:29 15.03.2021
1432 Clouds 11 1026 87 10000 5.14 260 22:57 15.03.2021
1433 Drizzle 11 1026 93 10000 5.14 260 22:38 15.03.2021
1434 Clouds 11 1026 93 10000 5.66 260 22:20 15.03.2021
1435 Clouds 12 1026 87 10000 4.12 260 21:44 15.03.2021
1436 Clouds 12 1026 87 10000 4.12 260 21:26 15.03.2021
1437 Clouds 12 1026 87 10000 3.6 250 20:45 15.03.2021
1438 Clouds 12 1025 87 10000 2.57 260 20:26 15.03.2021
1439 Clouds 12 1025 87 10000 2.57 260 19:57 15.03.2021
1440 Clouds 12 1025 87 10000 1.54 0 19:38 15.03.2021
1441 Clouds 12 1025 87 10000 1.54 0 19:19 15.03.2021
1442 Clouds 13 1025 82 10000 4.12 280 18:40 15.03.2021
1443 Clouds 13 1025 82 10000 4.12 280 18:22 15.03.2021
1444 Clouds 13 1024 82 10000 4.63 290 17:43 15.03.2021
1445 Clouds 13 1024 87 10000 4.63 290 17:22 15.03.2021
1446 Clouds 12 1024 87 10000 4.12 280 16:43 15.03.2021
1447 Clouds 12 1024 93 10000 2.57 290 15:56 15.03.2021
1448 Clouds 12 1024 87 10000 4.12 280 15:28 15.03.2021
1449 Clouds 11 1024 87 10000 4.63 280 14:55 15.03.2021
1450 Clouds 11 1024 87 10000 4.63 270 14:36 15.03.2021
1451 Clouds 11 1024 87 10000 4.63 270 14:18 15.03.2021
1452 Clouds 11 1024 87 10000 5.14 270 13:41 15.03.2021
1453 Clouds 11 1024 87 10000 5.14 270 13:23 15.03.2021
1454 Clouds 11 1023 82 10000 5.14 280 12:45 15.03.2021
1455 Clouds 10 1023 81 10000 5.14 290 12:18 15.03.2021
1456 Clouds 10 1023 87 10000 6.17 280 11:41 15.03.2021
1457 Clouds 10 1023 87 10000 6.17 280 11:21 15.03.2021
1458 Clouds 9 1023 87 10000 4.63 280 10:41 15.03.2021
1459 Clouds 9 1023 87 10000 4.63 280 10:22 15.03.2021
1460 Clouds 8 1022 93 10000 5.66 270 09:41 15.03.2021
1461 Clouds 8 1022 93 10000 5.66 270 09:21 15.03.2021
1462 Clouds 7 1022 93 10000 4.63 280 08:45 15.03.2021
1463 Clouds 7 1021 93 10000 5.66 270 08:25 15.03.2021
1464 Clouds 7 1021 93 10000 6.17 280 07:40 15.03.2021
1465 Clouds 7 1021 93 10000 6.17 280 07:22 15.03.2021
1466 Clouds 8 1020 87 8000 6.69 270 05:37 15.03.2021
1467 Drizzle 8 1019 93 7000 8.75 290 03:20 15.03.2021
1468 Clouds 9 1018 87 7000 7.2 280 00:42 15.03.2021
1469 Clouds 9 1017 81 10000 8.23 280 23:24 14.03.2021
1470 Clouds 9 1017 81 10000 9.26 280 22:50 14.03.2021
1471 Clouds 9 1017 81 10000 8.75 280 22:28 14.03.2021
1472 Clouds 9 1016 81 10000 9.26 280 21:56 14.03.2021
1473 Clouds 9 1016 81 10000 9.26 280 21:24 14.03.2021
1474 Clouds 9 1016 81 10000 9.26 280 20:59 14.03.2021
1475 Clouds 9 1015 81 10000 9.77 280 20:40 14.03.2021
1476 Clouds 10 1015 81 10000 9.77 280 20:22 14.03.2021
1477 Clouds 10 1014 81 10000 11.32 280 19:41 14.03.2021
1478 Clouds 10 1014 81 10000 11.32 280 19:19 14.03.2021
1479 Clouds 10 1014 81 10000 10.29 270 18:37 14.03.2021
1480 Clouds 11 1014 81 10000 9.77 270 17:54 14.03.2021
1481 Clouds 11 1014 81 10000 9.26 260 17:36 14.03.2021
1482 Clouds 11 1014 81 10000 9.77 260 17:18 14.03.2021
1483 Clouds 10 1013 81 10000 9.26 260 16:40 14.03.2021
1484 Clouds 11 1013 81 10000 9.26 260 16:20 14.03.2021
1485 Clouds 10 1013 81 10000 8.23 260 15:45 14.03.2021
1486 Clouds 9 1014 87 10000 7.72 250 14:52 14.03.2021
1487 Clouds 9 1014 93 10000 8.75 250 14:31 14.03.2021
1488 Rain 8 1014 87 10000 7.2 250 13:55 14.03.2021
1489 Drizzle 8 1014 93 10000 7.2 250 13:36 14.03.2021
1490 Clouds 7 1014 87 10000 6.69 240 12:59 14.03.2021
1491 Rain 7 1014 87 8000 6.69 250 12:41 14.03.2021
1492 Rain 7 1014 87 8000 6.69 250 12:22 14.03.2021
1493 Rain 7 1015 76 10000 7.72 260 11:39 14.03.2021
1494 Rain 7 1015 76 10000 7.72 260 11:19 14.03.2021
1495 Clouds 7 1014 81 10000 6.17 250 10:38 14.03.2021
1496 Clouds 6 1014 81 10000 6.17 250 10:19 14.03.2021
1497 Clouds 6 1014 87 10000 5.66 250 09:56 14.03.2021
1498 Clouds 5 1014 87 10000 6.17 260 09:38 14.03.2021
1499 Clouds 5 1014 87 10000 6.17 260 09:20 14.03.2021
1500 Clouds 5 1013 87 10000 6.69 260 08:36 14.03.2021
1501 Clouds 5 1013 87 10000 6.17 260 07:56 14.03.2021
1502 Clouds 5 1013 93 10000 4.63 250 07:27 14.03.2021
1503 Clouds 4 1011 93 10000 6.17 260 05:34 14.03.2021
1504 Clouds 5 1007 87 10000 7.72 270 01:25 14.03.2021
1505 Clouds 5 1006 87 10000 7.72 270 00:20 14.03.2021
1506 Clouds 5 1006 87 10000 8.75 270 23:59 13.03.2021
1507 Rain 5 1005 87 10000 8.75 280 23:38 13.03.2021
1508 Rain 5 1005 87 10000 8.75 280 23:38 13.03.2021
1509 Rain 5 1005 87 10000 8.75 280 23:18 13.03.2021
1510 Rain 5 1004 87 10000 10.29 280 22:44 13.03.2021
1511 Rain 5 1003 87 10000 10.29 280 21:55 13.03.2021
1512 Rain 5 1003 87 10000 10.29 280 21:55 13.03.2021
1513 Clouds 5 1002 87 9000 12.35 280 21:35 13.03.2021
1514 Rain 5 1001 87 10000 10.8 270 20:57 13.03.2021
1515 Rain 6 1000 87 10000 9.77 270 20:37 13.03.2021
1516 Rain 6 1000 87 10000 9.77 270 20:18 13.03.2021
1517 Rain 5 999 87 9000 10.8 270 19:38 13.03.2021
1518 Clouds 5 999 87 9000 10.8 270 19:19 13.03.2021
1519 Clouds 6 998 75 10000 9.77 270 18:42 13.03.2021
1520 Clouds 6 998 75 10000 9.77 270 18:20 13.03.2021
1521 Clouds 7 998 75 10000 11.83 250 17:47 13.03.2021
1522 Clouds 7 997 65 10000 11.32 270 17:28 13.03.2021
1523 Clouds 7 997 65 10000 9.26 270 16:51 13.03.2021
1524 Clouds 7 996 65 10000 11.83 270 16:33 13.03.2021
1525 Clouds 7 996 65 10000 11.32 270 15:54 13.03.2021
1526 Clouds 7 995 61 10000 12.86 270 14:56 13.03.2021
1527 Clouds 7 995 61 10000 10.29 270 14:38 13.03.2021
1528 Clouds 7 995 61 10000 10.29 270 14:18 13.03.2021
1529 Clouds 7 994 70 10000 11.83 270 13:26 13.03.2021
1530 Clouds 6 994 70 10000 12.35 270 12:48 13.03.2021
1531 Clouds 6 994 75 10000 9.77 260 12:29 13.03.2021
1532 Clouds 5 994 70 10000 9.26 260 11:52 13.03.2021
1533 Clouds 5 994 75 10000 10.29 270 11:31 13.03.2021
1534 Clouds 5 993 70 10000 9.77 270 10:55 13.03.2021
1535 Clouds 5 992 81 10000 8.75 260 10:30 13.03.2021
1536 Clouds 4 992 81 10000 7.72 260 09:56 13.03.2021
1537 Clouds 4 991 87 10000 8.23 260 09:24 13.03.2021
1538 Clouds 3 991 87 10000 7.2 260 08:44 13.03.2021
1539 Clouds 3 990 87 10000 8.23 260 08:20 13.03.2021
1540 Clouds 3 989 87 10000 9.26 270 07:55 13.03.2021
1541 Clouds 4 989 87 10000 8.75 270 07:20 13.03.2021
1542 Clouds 4 983 87 10000 7.72 250 03:33 13.03.2021
1543 Clouds 4 982 81 10000 8.23 250 01:21 13.03.2021
1544 Clouds 4 982 87 10000 8.75 250 00:20 13.03.2021
1545 Clouds 4 983 87 10000 6.69 230 23:33 12.03.2021
1546 Rain 4 984 93 10000 9.26 230 22:50 12.03.2021
1547 Rain 5 984 87 9000 8.75 220 22:29 12.03.2021
1548 Rain 6 984 81 10000 8.23 220 21:46 12.03.2021
1549 Rain 6 986 81 10000 7.2 220 21:27 12.03.2021
1550 Clouds 6 987 81 10000 6.17 220 21:00 12.03.2021
1551 Clouds 6 988 87 10000 5.14 220 20:40 12.03.2021
1552 Clouds 7 988 87 10000 5.14 220 20:18 12.03.2021
1553 Clouds 6 989 87 10000 7.2 230 19:42 12.03.2021
1554 Clouds 6 989 81 9000 6.69 210 19:24 12.03.2021
1555 Rain 7 990 70 10000 6.17 230 18:36 12.03.2021
1556 Rain 7 990 70 10000 6.17 230 18:36 12.03.2021
1557 Rain 7 990 70 10000 6.17 230 18:18 12.03.2021
1558 Clouds 7 992 70 10000 7.2 230 17:40 12.03.2021
1559 Clouds 7 992 70 10000 7.2 230 17:22 12.03.2021
1560 Clouds 8 992 66 10000 7.2 230 16:42 12.03.2021
1561 Clouds 8 994 70 10000 7.72 230 15:55 12.03.2021
1562 Clouds 8 994 70 10000 7.72 230 15:35 12.03.2021
1563 Clouds 7 995 70 10000 7.72 230 14:49 12.03.2021
1564 Clouds 8 995 66 10000 8.75 240 14:21 12.03.2021
1565 Clouds 8 995 61 10000 7.72 240 13:45 12.03.2021
1566 Clouds 8 996 65 10000 8.75 250 13:24 12.03.2021
1567 Clouds 8 996 65 10000 8.75 250 12:59 12.03.2021
1568 Clouds 8 996 70 10000 7.2 250 12:41 12.03.2021
1569 Clouds 7 996 70 10000 7.2 250 12:20 12.03.2021
1570 Clouds 7 996 75 10000 7.2 250 11:51 12.03.2021
1571 Clouds 6 996 75 10000 6.69 250 11:23 12.03.2021
1572 Clouds 6 996 81 10000 6.69 250 10:54 12.03.2021
1573 Clouds 5 996 87 10000 6.17 240 10:26 12.03.2021
1574 Clouds 4 996 87 10000 6.69 250 09:56 12.03.2021
1575 Clouds 4 996 87 10000 5.66 240 09:25 12.03.2021
1576 Clouds 4 995 87 10000 6.17 240 08:45 12.03.2021
1577 Clouds 3 995 93 10000 5.66 240 07:58 12.03.2021
1578 Clouds 3 995 87 10000 5.66 240 07:33 12.03.2021
1579 Clouds 2 995 93 10000 4.63 230 06:51 12.03.2021
1580 Clouds 2 996 93 9000 6.17 260 06:28 12.03.2021
1581 Rain 4 998 93 10000 6.17 230 02:41 12.03.2021
1582 Clouds 5 998 81 10000 7.2 230 00:42 12.03.2021
1583 Clouds 5 998 81 10000 5.66 230 23:30 11.03.2021
1584 Clouds 5 999 81 10000 5.66 230 22:49 11.03.2021
1585 Clouds 5 999 81 10000 4.63 230 22:29 11.03.2021
1586 Clouds 5 999 81 10000 4.12 230 21:51 11.03.2021
1587 Clouds 5 999 87 10000 4.63 240 21:30 11.03.2021
1588 Clouds 4 998 87 10000 5.66 250 20:53 11.03.2021
1589 Clouds 4 998 87 10000 5.14 250 20:35 11.03.2021
1590 Rain 4 998 93 10000 5.66 270 19:59 11.03.2021
1591 Clouds 4 998 87 5000 10.29 310 19:41 11.03.2021
1592 Rain 6 997 75 10000 8.23 250 19:19 11.03.2021
1593 Clouds 7 996 65 10000 7.72 250 18:43 11.03.2021
1594 Clouds 7 996 65 10000 7.72 260 18:24 11.03.2021
1595 Clouds 7 995 65 10000 9.77 270 17:42 11.03.2021
1596 Clouds 6 994 81 10000 6.69 250 16:43 11.03.2021
1597 Clouds 6 994 81 10000 10.8 250 16:25 11.03.2021
1598 Rain 4 993 87 10000 15.43 260 15:45 11.03.2021
1599 Rain 7 993 75 10000 6.17 250 15:21 11.03.2021
1600 Rain 7 993 75 10000 6.17 250 15:21 11.03.2021
1601 Clouds 6 992 87 10000 6.17 250 14:46 11.03.2021
1602 Rain 5 992 87 10000 6.17 250 14:19 11.03.2021
1603 Rain 8 991 76 10000 6.69 240 13:46 11.03.2021
1604 Clouds 8 991 70 10000 6.69 240 13:24 11.03.2021
1605 Clouds 7 991 65 10000 7.2 250 12:57 11.03.2021
1606 Clouds 6 991 70 10000 7.72 250 12:36 11.03.2021
1607 Clouds 7 991 70 10000 7.2 250 12:18 11.03.2021
1608 Clouds 6 991 70 10000 7.2 250 11:42 11.03.2021
1609 Clouds 6 990 75 10000 6.17 240 11:20 11.03.2021
1610 Clouds 6 989 75 10000 7.72 250 10:28 11.03.2021
1611 Clouds 6 988 75 10000 6.69 250 09:54 11.03.2021
1612 Clouds 6 988 81 10000 6.17 250 09:34 11.03.2021
1613 Clouds 6 987 81 10000 7.2 250 08:59 11.03.2021
1614 Clouds 6 986 75 10000 6.17 250 08:41 11.03.2021
1615 Clouds 6 985 75 10000 9.26 270 08:18 11.03.2021
1616 Clouds 6 984 75 10000 10.8 270 07:22 11.03.2021
1617 Clouds 6 983 75 10000 11.83 280 06:49 11.03.2021
1618 Clouds 7 982 81 10000 14.4 280 06:23 11.03.2021
1619 Rain 9 973 87 10000 9.77 230 02:48 11.03.2021
1620 Clouds 9 975 76 10000 10.8 220 00:49 11.03.2021
1621 Clouds 9 975 76 10000 10.8 220 00:48 11.03.2021
1622 Clouds 9 978 76 10000 8.75 210 23:27 10.03.2021
1623 Clouds 9 979 76 10000 9.77 220 22:47 10.03.2021
1624 Clouds 9 979 76 10000 9.77 220 22:47 10.03.2021
1625 Clouds 10 979 76 10000 9.77 220 22:47 10.03.2021
1626 Clouds 10 980 66 10000 9.77 220 22:27 10.03.2021
1627 Clouds 10 980 81 10000 6.17 220 21:47 10.03.2021
1628 Clouds 10 981 81 7000 6.17 240 21:24 10.03.2021
1629 Clouds 11 982 76 7000 8.23 220 20:46 10.03.2021
1630 Clouds 11 982 76 10000 7.72 210 20:28 10.03.2021
1631 Clouds 11 982 87 10000 7.72 220 19:50 10.03.2021
1632 Clouds 11 982 87 10000 7.72 220 19:50 10.03.2021
1633 Clouds 11 983 82 10000 9.26 220 19:28 10.03.2021
1634 Clouds 12 983 82 6000 7.2 230 18:46 10.03.2021
1635 Clouds 12 983 82 6000 7.2 230 18:24 10.03.2021
1636 Clouds 12 984 82 8000 10.8 220 17:56 10.03.2021
1637 Clouds 13 984 76 10000 8.23 230 17:37 10.03.2021
1638 Clouds 13 984 76 10000 8.23 230 17:19 10.03.2021
1639 Clouds 13 986 87 10000 7.72 220 16:42 10.03.2021
1640 Clouds 13 986 87 10000 7.72 220 16:23 10.03.2021
1641 Clouds 13 987 87 10000 8.75 220 15:46 10.03.2021
1642 Clouds 12 987 87 10000 9.77 210 15:23 10.03.2021
1643 Rain 12 988 93 10000 7.72 210 14:56 10.03.2021
1644 Rain 12 990 87 8000 7.2 200 14:20 10.03.2021
1645 Rain 11 991 87 8000 6.17 200 13:52 10.03.2021
1646 Rain 11 992 93 8000 4.12 170 13:30 10.03.2021
1647 Clouds 9 993 100 8000 3.6 150 12:46 10.03.2021
1648 Rain 9 993 100 8000 3.6 150 12:46 10.03.2021
1649 Rain 9 995 93 5000 4.63 150 12:21 10.03.2021
1650 Rain 9 995 93 5000 4.63 150 11:44 10.03.2021
1651 Rain 8 996 87 10000 5.14 150 11:21 10.03.2021
1652 Clouds 8 997 87 10000 4.12 150 10:49 10.03.2021
1653 Clouds 8 997 87 10000 3.6 160 10:30 10.03.2021
1654 Clouds 8 998 93 10000 3.09 170 09:46 10.03.2021
1655 Clouds 7 999 93 10000 2.57 170 09:27 10.03.2021
1656 Clouds 7 999 93 10000 2.06 180 08:58 10.03.2021
1657 Clouds 7 1000 93 10000 2.57 200 08:40 10.03.2021
1658 Rain 7 1000 93 10000 2.57 200 08:21 10.03.2021
1659 Rain 7 1000 87 10000 2.06 230 07:40 10.03.2021
1660 Rain 7 1000 87 10000 2.06 230 07:18 10.03.2021
1661 Clouds 8 1000 93 10000 3.09 220 06:44 10.03.2021
1662 Clouds 10 1001 93 6000 7.72 260 02:42 10.03.2021
1663 Rain 10 1002 87 10000 10.29 210 23:52 09.03.2021
1664 Rain 9 1002 87 10000 11.83 210 23:25 09.03.2021
1665 Clouds 9 1003 81 10000 10.8 200 22:45 09.03.2021
1666 Rain 9 1003 81 10000 9.26 200 22:26 09.03.2021
1667 Rain 9 1004 81 10000 8.75 200 21:55 09.03.2021
1668 Rain 9 1005 81 10000 9.77 190 21:36 09.03.2021
1669 Rain 9 1005 81 10000 9.77 190 21:18 09.03.2021
1670 Rain 9 1005 81 10000 8.23 190 20:43 09.03.2021
1671 Rain 9 1006 87 10000 9.77 190 20:21 09.03.2021
1672 Rain 9 1006 76 10000 9.26 200 19:53 09.03.2021
1673 Clouds 9 1007 76 10000 8.23 200 19:27 09.03.2021
1674 Clouds 9 1007 76 10000 7.72 200 18:51 09.03.2021
1675 Rain 9 1008 76 10000 9.77 190 18:28 09.03.2021
1676 Rain 9 1009 76 10000 8.75 180 17:54 09.03.2021
1677 Rain 9 1009 76 10000 7.2 190 17:34 09.03.2021
1678 Rain 9 1010 71 10000 8.75 200 16:55 09.03.2021
1679 Rain 9 1011 76 10000 7.2 200 16:37 09.03.2021
1680 Rain 9 1011 71 10000 7.2 200 16:18 09.03.2021
1681 Rain 10 1012 71 10000 7.2 200 15:43 09.03.2021
1682 Clouds 10 1012 71 10000 7.2 200 15:21 09.03.2021
1683 Clouds 10 1013 71 10000 8.23 190 14:32 09.03.2021
1684 Clouds 10 1013 71 10000 8.75 190 13:59 09.03.2021
1685 Clouds 10 1014 76 10000 6.17 180 13:38 09.03.2021
1686 Clouds 10 1014 76 10000 6.17 190 13:19 09.03.2021
1687 Clouds 10 1015 76 10000 5.14 190 12:39 09.03.2021
1688 Clouds 10 1015 76 10000 5.14 190 12:19 09.03.2021
1689 Clouds 10 1015 81 10000 4.12 190 11:42 09.03.2021
1690 Clouds 9 1016 81 10000 3.09 170 11:21 09.03.2021
1691 Clouds 9 1016 81 10000 3.09 170 10:55 09.03.2021
1692 Clouds 9 1016 81 10000 3.09 170 10:55 09.03.2021
1693 Clouds 10 1016 81 10000 2.57 150 10:36 09.03.2021
1694 Clouds 9 1016 81 10000 2.57 150 10:18 09.03.2021
1695 Clouds 9 1016 87 10000 3.09 180 09:42 09.03.2021
1696 Clouds 8 1016 87 10000 3.09 180 09:23 09.03.2021
1697 Clouds 8 1017 87 10000 2.57 200 08:46 09.03.2021
1698 Clouds 7 1017 87 10000 2.06 190 08:21 09.03.2021
1699 Clouds 7 1017 93 10000 2.06 200 07:38 09.03.2021
1700 Clouds 7 1017 93 10000 2.06 200 07:20 09.03.2021
1701 Clouds 7 1018 87 10000 3.09 220 05:55 09.03.2021
1702 Clouds 7 1018 87 10000 3.6 230 05:37 09.03.2021
1703 Clouds 8 1019 87 10000 3.09 230 00:29 09.03.2021
1704 Clouds 8 1020 87 10000 4.12 230 23:42 08.03.2021
1705 Clouds 8 1020 81 10000 3.6 230 23:23 08.03.2021
1706 Clouds 8 1020 76 10000 2.57 230 22:45 08.03.2021
1707 Clouds 8 1020 76 10000 3.6 230 22:27 08.03.2021
1708 Clouds 8 1020 76 10000 2.57 210 21:55 08.03.2021
1709 Clouds 8 1020 76 10000 2.57 210 21:35 08.03.2021
1710 Clouds 8 1020 81 10000 2.57 210 20:47 08.03.2021
1711 Clouds 9 1020 81 10000 2.06 210 20:26 08.03.2021
1712 Clouds 9 1020 81 10000 2.57 230 19:59 08.03.2021
1713 Rain 9 1020 66 10000 3.09 240 19:28 08.03.2021
1714 Clouds 10 1020 62 10000 4.12 230 18:42 08.03.2021
1715 Clouds 10 1020 62 10000 4.12 230 18:21 08.03.2021
1716 Clouds 10 1020 62 10000 4.12 230 17:51 08.03.2021
1717 Clouds 10 1021 62 10000 4.12 230 17:26 08.03.2021
1718 Clouds 10 1021 62 10000 3.09 240 16:48 08.03.2021
1719 Clouds 10 1021 62 10000 3.6 220 16:29 08.03.2021
1720 Rain 11 1021 62 10000 4.12 230 15:51 08.03.2021
1721 Rain 11 1021 58 10000 4.12 230 15:29 08.03.2021
1722 Clouds 10 1022 58 10000 3.6 230 14:46 08.03.2021
1723 Clouds 10 1022 62 10000 4.63 240 14:20 08.03.2021
1724 Clouds 10 1023 71 10000 4.12 240 13:40 08.03.2021
1725 Clouds 10 1023 71 10000 4.12 240 13:19 08.03.2021
1726 Clouds 9 1023 71 10000 4.63 230 12:45 08.03.2021
1727 Clouds 9 1023 71 10000 4.63 230 12:26 08.03.2021
1728 Clouds 8 1023 87 10000 3.09 230 11:40 08.03.2021
1729 Clouds 8 1023 81 10000 6.69 230 11:19 08.03.2021
1730 Rain 8 1023 87 10000 6.17 220 10:43 08.03.2021
1731 Rain 7 1023 87 10000 2.57 230 10:24 08.03.2021
1732 Rain 6 1023 87 10000 2.57 230 09:41 08.03.2021
1733 Rain 6 1023 87 10000 2.57 230 09:22 08.03.2021
1734 Clouds 5 1023 87 10000 3.6 250 08:28 08.03.2021
1735 Rain 6 1024 87 10000 3.6 250 07:24 08.03.2021
1736 Rain 6 1024 87 10000 3.6 250 07:24 08.03.2021
1737 Clouds 5 1024 87 10000 3.6 250 06:44 08.03.2021
1738 Clouds 6 1024 81 10000 3.09 240 03:39 08.03.2021
1739 Clear 5 1025 75 10000 3.6 250 00:44 08.03.2021
1740 Clear 4 1026 81 10000 3.09 250 23:57 07.03.2021
1741 Clear 4 1025 70 10000 2.57 250 23:37 07.03.2021
1742 Clear 4 1025 70 10000 2.06 250 23:18 07.03.2021
1743 Clear 4 1025 70 10000 2.06 230 22:42 07.03.2021
1744 Clear 4 1025 70 10000 2.06 230 22:23 07.03.2021
1745 Clear 4 1025 70 10000 1.54 230 21:44 07.03.2021
1746 Clouds 4 1026 75 10000 1.03 0 21:25 07.03.2021
1747 Clouds 4 1026 70 10000 1.54 160 20:48 07.03.2021
1748 Clouds 4 1026 70 10000 2.06 150 20:30 07.03.2021
1749 Clouds 5 1025 65 10000 2.06 150 19:57 07.03.2021
1750 Clouds 6 1025 61 10000 2.06 140 19:38 07.03.2021
1751 Clouds 6 1025 61 10000 2.06 140 19:20 07.03.2021
1752 Clouds 6 1025 61 10000 2.06 140 19:20 07.03.2021
1753 Clouds 7 1025 61 10000 2.57 150 18:42 07.03.2021
1754 Clouds 8 1025 61 10000 3.09 140 18:19 07.03.2021
1755 Clouds 9 1026 50 10000 2.57 120 17:41 07.03.2021
1756 Clouds 9 1026 57 10000 2.57 260 17:20 07.03.2021
1757 Clouds 9 1026 57 10000 2.57 260 16:58 07.03.2021
1758 Clouds 9 1026 57 10000 2.57 260 16:38 07.03.2021
1759 Clouds 9 1026 57 10000 2.57 260 16:19 07.03.2021
1760 Clouds 9 1026 53 10000 3.6 290 15:43 07.03.2021
1761 Clouds 9 1026 53 10000 3.6 280 15:22 07.03.2021
1762 Clouds 9 1027 49 10000 1.54 0 14:30 07.03.2021
1763 Clouds 8 1028 53 10000 1.54 0 13:59 07.03.2021
1764 Clouds 8 1028 57 10000 2.06 220 13:40 07.03.2021
1765 Clouds 8 1028 57 10000 2.06 220 13:21 07.03.2021
1766 Clouds 7 1028 61 10000 2.57 270 12:45 07.03.2021
1767 Clouds 7 1028 61 10000 2.57 270 12:27 07.03.2021
1768 Clouds 7 1028 70 10000 4.12 270 11:45 07.03.2021
1769 Clouds 6 1028 65 10000 3.09 250 11:22 07.03.2021
1770 Clouds 5 1028 65 10000 2.57 250 10:43 07.03.2021
1771 Clouds 4 1028 75 10000 2.57 250 10:25 07.03.2021
1772 Clouds 2 1028 70 10000 3.6 250 09:43 07.03.2021
1773 Clouds 2 1028 75 10000 3.09 250 09:23 07.03.2021
1774 Clouds 1 1028 75 10000 2.57 250 08:45 07.03.2021
1775 Clouds 1 1028 75 10000 3.6 260 08:24 07.03.2021
1776 Clouds 1 1028 75 10000 3.09 250 07:25 07.03.2021
1777 Clouds 1 1030 75 10000 2.57 250 02:41 07.03.2021
1778 Clouds 1 1031 75 10000 1.54 230 00:51 07.03.2021
1779 Clouds 1 1031 75 10000 2.06 230 23:45 06.03.2021
1780 Clouds 1 1031 75 10000 1.54 240 23:24 06.03.2021
1781 Clear 2 1031 75 10000 1.03 0 22:48 06.03.2021
1782 Clouds 2 1031 69 10000 1.54 0 22:28 06.03.2021
1783 Clouds 2 1031 69 10000 1.54 0 21:58 06.03.2021
1784 Clouds 2 1031 75 10000 2.06 230 21:22 06.03.2021
1785 Clouds 3 1031 70 10000 1.54 0 20:52 06.03.2021
1786 Clouds 3 1031 65 10000 1.54 0 20:27 06.03.2021
1787 Clouds 5 1031 60 10000 3.09 250 19:49 06.03.2021
1788 Clouds 5 1031 60 10000 2.06 250 19:22 06.03.2021
1789 Clouds 6 1031 61 10000 1.54 0 18:54 06.03.2021
1790 Clouds 6 1031 61 10000 2.57 150 18:36 06.03.2021
1791 Clouds 6 1031 61 10000 2.57 150 18:18 06.03.2021
1792 Clouds 7 1031 57 10000 4.12 140 17:42 06.03.2021
1793 Clouds 7 1032 61 10000 3.6 130 17:21 06.03.2021
1794 Clouds 7 1032 61 10000 4.12 140 16:42 06.03.2021
1795 Clouds 7 1032 57 10000 4.63 140 16:24 06.03.2021
1796 Clouds 7 1032 53 10000 4.63 140 15:47 06.03.2021
1797 Clouds 8 1033 57 10000 4.12 150 15:29 06.03.2021
1798 Clouds 8 1033 53 10000 4.12 150 14:51 06.03.2021
1799 Clouds 8 1033 53 10000 3.6 140 14:28 06.03.2021
1800 Clouds 7 1034 57 10000 2.57 180 13:40 06.03.2021
1801 Clouds 7 1034 57 10000 2.57 180 13:20 06.03.2021
1802 Clouds 6 1034 56 10000 2.57 180 12:44 06.03.2021
1803 Clouds 6 1034 56 10000 3.6 160 12:20 06.03.2021
1804 Clouds 6 1034 60 10000 3.6 150 11:54 06.03.2021
1805 Clouds 6 1034 60 10000 2.57 170 11:21 06.03.2021
1806 Clouds 6 1034 60 10000 2.06 180 10:48 06.03.2021
1807 Clouds 4 1034 65 10000 1.03 0 10:19 06.03.2021
1808 Clouds 4 1034 65 10000 1.03 0 09:46 06.03.2021
1809 Clouds 3 1034 65 10000 0.51 0 09:20 06.03.2021
1810 Clouds 2 1034 70 10000 2.57 220 08:40 06.03.2021
1811 Clouds 3 1034 75 10000 2.06 230 07:57 06.03.2021
1812 Clouds 3 1034 86 10000 2.06 250 07:39 06.03.2021
1813 Clouds 3 1034 86 10000 2.06 250 07:19 06.03.2021
1814 Clouds 1 1034 86 10000 1.03 0 05:37 06.03.2021
1815 Clouds 0 1035 93 10000 3.09 300 02:38 06.03.2021
1816 Clouds 0 1035 93 10000 1.03 310 00:48 06.03.2021
1817 Clouds -1 1035 93 10000 2.06 260 23:53 05.03.2021
1818 Clouds -1 1035 86 10000 1.03 230 23:29 05.03.2021
1819 Clouds -1 1035 86 10000 0.51 0 22:49 05.03.2021
1820 Clouds -1 1035 86 10000 1.03 0 22:23 05.03.2021
1821 Clouds 0 1034 80 10000 1.03 0 21:54 05.03.2021
1822 Clouds 0 1034 86 10000 1.54 120 21:35 05.03.2021
1823 Clouds 1 1034 80 10000 2.57 90 20:58 05.03.2021
1824 Clouds 1 1034 75 10000 2.57 90 20:40 05.03.2021
1825 Clouds 2 1034 69 10000 3.09 90 20:21 05.03.2021
1826 Clouds 2 1034 65 10000 2.06 120 19:36 05.03.2021
1827 Clouds 3 1034 65 10000 2.06 120 19:18 05.03.2021
1828 Clouds 4 1034 65 10000 3.09 80 18:42 05.03.2021
1829 Clouds 4 1034 65 10000 3.09 80 18:42 05.03.2021
1830 Clouds 4 1034 65 10000 3.09 80 18:23 05.03.2021
1831 Clouds 5 1034 56 10000 2.57 160 17:37 05.03.2021
1832 Clouds 5 1034 56 10000 2.57 160 17:37 05.03.2021
1833 Clouds 5 1034 56 10000 3.6 100 16:58 05.03.2021
1834 Clouds 5 1034 60 10000 4.63 90 16:38 05.03.2021
1835 Clouds 5 1034 56 10000 3.6 140 16:20 05.03.2021
1836 Clouds 5 1034 56 10000 3.6 140 15:46 05.03.2021
1837 Clouds 5 1034 56 10000 4.63 110 15:23 05.03.2021
1838 Clouds 5 1034 65 10000 3.6 130 14:39 05.03.2021
1839 Clouds 5 1034 60 10000 3.6 110 13:59 05.03.2021
1840 Clouds 5 1034 56 10000 2.57 120 13:22 05.03.2021
1841 Clouds 5 1034 60 10000 4.12 90 12:59 05.03.2021
1842 Clouds 5 1034 56 10000 3.6 120 12:27 05.03.2021
1843 Clouds 5 1033 56 10000 4.63 110 11:37 05.03.2021
1844 Clouds 5 1033 65 10000 4.12 120 11:18 05.03.2021
1845 Clouds 4 1033 70 10000 5.66 100 10:41 05.03.2021
1846 Clouds 4 1033 70 10000 5.66 100 10:23 05.03.2021
1847 Clouds 4 1033 70 10000 4.12 110 09:49 05.03.2021
1848 Clouds 4 1033 70 10000 4.12 120 09:27 05.03.2021
1849 Clouds 4 1033 70 10000 3.09 120 08:45 05.03.2021
1850 Clouds 4 1032 70 10000 3.6 120 08:26 05.03.2021
1851 Clouds 4 1032 70 10000 4.12 110 07:44 05.03.2021
1852 Clouds 4 1032 75 10000 4.12 110 07:24 05.03.2021
1853 Clouds 5 1031 75 10000 4.63 110 06:32 05.03.2021
1854 Clouds 5 1031 81 10000 5.14 100 03:34 05.03.2021
1855 Clouds 5 1030 81 10000 5.14 100 00:49 05.03.2021
1856 Clouds 5 1030 93 10000 6.17 90 23:37 04.03.2021
1857 Clouds 6 1029 87 10000 5.66 90 22:47 04.03.2021
1858 Clouds 6 1029 87 10000 3.6 90 22:25 04.03.2021
1859 Clouds 6 1029 87 10000 3.09 90 21:47 04.03.2021
1860 Clouds 5 1029 87 10000 3.09 90 21:28 04.03.2021
1861 Clouds 6 1028 75 10000 4.63 70 20:42 04.03.2021
1862 Clouds 5 1028 81 10000 4.12 70 20:23 04.03.2021
1863 Clouds 5 1028 75 10000 5.14 70 19:57 04.03.2021
1864 Clouds 5 1028 75 10000 5.66 70 19:38 04.03.2021
1865 Clouds 5 1028 75 10000 5.66 70 19:18 04.03.2021
1866 Clouds 5 1028 75 10000 5.66 70 18:41 04.03.2021
1867 Clouds 5 1028 75 10000 5.66 70 18:20 04.03.2021
1868 Clouds 5 1028 75 10000 5.66 90 17:43 04.03.2021
1869 Clouds 5 1028 75 10000 5.66 90 17:22 04.03.2021
1870 Clouds 5 1028 70 10000 4.12 90 16:44 04.03.2021
1871 Clouds 5 1027 70 10000 5.14 70 16:24 04.03.2021
1872 Clouds 5 1027 70 10000 5.14 70 15:49 04.03.2021
1873 Clouds 5 1027 70 10000 4.63 60 15:31 04.03.2021
1874 Clouds 5 1027 70 10000 5.14 80 14:46 04.03.2021
1875 Clouds 5 1027 75 10000 5.66 80 14:25 04.03.2021
1876 Clouds 5 1027 75 10000 4.63 80 13:46 04.03.2021
1877 Clouds 5 1027 75 10000 4.63 90 13:25 04.03.2021
1878 Clouds 5 1027 75 10000 3.6 60 12:45 04.03.2021
1879 Clouds 5 1027 75 10000 5.14 40 12:25 04.03.2021
1880 Clouds 4 1027 81 10000 4.12 30 11:43 04.03.2021
1881 Clouds 4 1027 81 10000 4.12 20 11:22 04.03.2021
1882 Clouds 4 1027 87 10000 3.09 330 10:46 04.03.2021
1883 Clouds 4 1027 87 10000 3.09 310 10:25 04.03.2021
1884 Clouds 3 1027 87 10000 3.6 310 09:36 04.03.2021
1885 Clouds 3 1027 81 10000 3.6 320 08:56 04.03.2021
1886 Clouds 3 1026 81 10000 3.09 320 08:34 04.03.2021
1887 Clouds 3 1026 87 10000 2.57 310 07:51 04.03.2021
1888 Clouds 3 1026 81 10000 2.57 340 07:19 04.03.2021
1889 Clouds 3 1026 81 10000 3.6 40 06:24 04.03.2021
1890 Clouds 4 1027 81 10000 2.57 20 02:39 04.03.2021
1891 Clouds 4 1027 87 10000 2.06 350 01:24 04.03.2021
1892 Mist 4 1027 87 5000 2.57 40 22:43 03.03.2021
1893 Mist 4 1027 93 5000 2.06 20 22:25 03.03.2021
1894 Mist 4 1027 87 5000 3.6 20 21:43 03.03.2021
1895 Mist 4 1027 87 5000 3.6 30 21:24 03.03.2021
1896 Mist 4 1027 87 6000 3.09 20 20:56 03.03.2021
1897 Mist 4 1027 87 6000 3.09 20 20:38 03.03.2021
1898 Mist 4 1027 87 6000 2.57 340 19:57 03.03.2021
1899 Mist 4 1027 87 6000 3.09 360 19:39 03.03.2021
1900 Mist 4 1027 87 6000 3.09 360 19:19 03.03.2021
1901 Mist 5 1027 87 6000 3.6 20 18:45 03.03.2021
1902 Mist 5 1027 87 6000 3.6 20 18:45 03.03.2021
1903 Mist 5 1027 87 4500 3.09 30 17:59 03.03.2021
1904 Mist 5 1027 87 4500 3.6 30 17:39 03.03.2021
1905 Mist 5 1027 87 4500 3.6 30 17:18 03.03.2021
1906 Mist 5 1027 87 6000 3.6 40 16:39 03.03.2021
1907 Mist 5 1027 87 6000 3.6 50 16:21 03.03.2021
1908 Mist 5 1028 87 6000 4.12 50 15:33 03.03.2021
1909 Mist 6 1028 87 4500 3.6 20 14:52 03.03.2021
1910 Mist 6 1028 87 4500 3.6 20 14:29 03.03.2021
1911 Mist 5 1028 87 4500 3.6 40 13:52 03.03.2021
1912 Mist 5 1028 87 4500 3.6 40 13:52 03.03.2021
1913 Mist 6 1028 87 4500 4.12 30 13:31 03.03.2021
1914 Mist 6 1028 87 5000 4.12 20 12:44 03.03.2021
1915 Mist 5 1028 87 4000 3.09 30 12:26 03.03.2021
1916 Mist 6 1028 87 4000 3.6 30 11:47 03.03.2021
1917 Mist 5 1028 87 4000 3.6 30 11:28 03.03.2021
1918 Mist 5 1028 87 4000 3.6 40 10:48 03.03.2021
1919 Mist 5 1028 93 4000 3.09 20 10:26 03.03.2021
1920 Mist 5 1028 93 3000 2.57 10 09:48 03.03.2021
1921 Mist 5 1028 93 3000 3.09 20 09:24 03.03.2021
1922 Mist 5 1028 93 4000 2.57 10 08:39 03.03.2021
1923 Mist 5 1028 93 4000 2.57 10 08:20 03.03.2021
1924 Clouds 5 1028 93 6000 2.57 10 07:39 03.03.2021
1925 Clouds 5 1028 93 6000 2.57 350 06:50 03.03.2021
1926 Clouds 5 1028 87 7000 2.57 20 05:46 03.03.2021
1927 Clouds 5 1028 93 7000 3.09 40 04:57 03.03.2021
1928 Clouds 5 1028 93 7000 2.57 50 04:25 03.03.2021
1929 Clouds 5 1029 87 7000 2.57 40 01:54 03.03.2021
1930 Clouds 5 1029 93 7000 3.09 50 23:57 02.03.2021
1931 Clouds 4 1029 93 7000 2.06 50 23:22 02.03.2021
1932 Clouds 4 1029 87 7000 3.09 60 22:41 02.03.2021
1933 Clouds 4 1029 87 7000 3.09 60 22:18 02.03.2021
1934 Clouds 4 1029 87 6000 3.09 50 21:40 02.03.2021
1935 Clouds 4 1029 87 6000 3.09 60 21:21 02.03.2021
1936 Clouds 4 1029 87 6000 3.09 60 20:46 02.03.2021
1937 Clouds 4 1029 87 7000 2.57 50 20:22 02.03.2021
1938 Clouds 4 1029 93 6000 3.6 50 19:51 02.03.2021
1939 Mist 5 1029 93 4000 3.6 70 19:32 02.03.2021
1940 Mist 5 1029 93 6000 3.09 30 18:58 02.03.2021
1941 Mist 5 1028 87 6000 3.6 60 18:39 02.03.2021
1942 Mist 5 1028 87 6000 3.6 60 18:20 02.03.2021
1943 Mist 5 1028 87 6000 3.6 50 17:49 02.03.2021
1944 Mist 6 1028 87 6000 4.12 60 17:29 02.03.2021
1945 Mist 6 1029 87 6000 3.09 60 16:49 02.03.2021
1946 Mist 7 1029 81 6000 3.09 60 16:20 02.03.2021
1947 Mist 7 1029 81 8000 3.6 70 15:47 02.03.2021
1948 Mist 7 1029 87 6000 3.09 90 15:21 02.03.2021
1949 Mist 7 1029 87 6000 3.09 80 14:21 02.03.2021
1950 Mist 8 1029 87 6000 3.09 80 13:48 02.03.2021
1951 Mist 7 1029 93 6000 3.09 100 13:28 02.03.2021
1952 Mist 6 1029 93 4000 2.57 110 12:51 02.03.2021
1953 Mist 6 1029 93 4000 2.57 70 12:29 02.03.2021
1954 Mist 5 1029 100 4000 2.06 100 11:53 02.03.2021
1955 Mist 4 1029 100 3000 1.54 0 11:30 02.03.2021
1956 Mist 3 1029 100 3000 1.03 0 10:57 02.03.2021
1957 Mist 2 1029 100 4000 1.54 0 10:31 02.03.2021
1958 Fog 1 1029 100 3000 2.04 135 09:44 02.03.2021
1959 Fog 1 1029 100 4000 0.51 0 09:24 02.03.2021
1960 Fog 0 1029 100 900 1.54 300 08:56 02.03.2021
1961 Fog 0 1029 100 900 1.03 0 08:33 02.03.2021
1962 Fog 0 1028 100 900 1.54 330 07:51 02.03.2021
1963 Fog 0 1028 100 600 2.57 300 06:39 02.03.2021
1964 Fog 0 1028 100 600 1.54 310 05:52 02.03.2021
1965 Fog 1 1028 100 400 2.57 290 05:33 02.03.2021
1966 Fog 1 1028 100 200 2.06 290 04:38 02.03.2021
1967 Fog 2 1029 100 8000 2.06 90 01:43 02.03.2021
1968 Fog 2 1029 100 8000 1.54 340 01:21 02.03.2021
1969 Fog 3 1029 100 8000 1.54 20 23:37 01.03.2021
1970 Fog 3 1029 100 8000 1.54 20 23:19 01.03.2021
1971 Fog 3 1029 93 10000 1.54 310 22:38 01.03.2021
1972 Fog 3 1029 93 10000 1.54 310 22:19 01.03.2021
1973 Mist 4 1029 93 5000 0.51 0 21:41 01.03.2021
1974 Mist 5 1029 93 5000 0.51 0 21:23 01.03.2021
1975 Clouds 6 1029 93 7000 2.06 70 20:43 01.03.2021
1976 Clouds 6 1029 93 7000 2.06 70 20:43 01.03.2021
1977 Clouds 6 1029 93 7000 2.57 60 20:21 01.03.2021
1978 Clouds 6 1028 93 10000 4.63 90 19:43 01.03.2021
1979 Clouds 7 1029 87 6000 3.6 70 19:24 01.03.2021
1980 Clouds 7 1029 93 7000 4.63 80 18:43 01.03.2021
1981 Clouds 7 1029 87 10000 4.12 80 18:23 01.03.2021
1982 Clouds 7 1029 87 10000 5.14 90 17:47 01.03.2021
1983 Clouds 8 1029 81 10000 5.14 80 17:22 01.03.2021
1984 Clouds 8 1029 81 10000 6.17 70 16:47 01.03.2021
1985 Clouds 8 1029 81 10000 6.17 80 16:27 01.03.2021
1986 Clouds 9 1030 87 10000 5.14 80 15:49 01.03.2021
1987 Clouds 9 1030 87 10000 4.63 80 15:23 01.03.2021
1988 Clouds 9 1030 87 10000 4.12 60 14:58 01.03.2021
1989 Clouds 9 1030 81 8000 4.12 60 14:39 01.03.2021
1990 Clouds 9 1031 81 7000 3.6 40 13:56 01.03.2021
1991 Mist 7 1031 87 5000 3.6 30 13:37 01.03.2021
1992 Mist 8 1031 87 5000 3.6 30 13:18 01.03.2021
1993 Mist 8 1031 93 4000 4.12 60 12:42 01.03.2021
1994 Mist 8 1031 93 4000 4.12 60 12:22 01.03.2021
1995 Mist 7 1031 93 4000 3.6 40 11:47 01.03.2021
1996 Mist 7 1031 93 4000 3.6 40 11:47 01.03.2021
1997 Mist 7 1032 93 3000 3.6 40 11:18 01.03.2021
1998 Mist 7 1032 93 3000 3.09 50 10:37 01.03.2021
1999 Mist 7 1032 93 3000 3.09 50 10:37 01.03.2021
2000 Mist 6 1032 93 3000 3.09 50 10:18 01.03.2021
2001 Mist 6 1032 93 3000 3.09 50 09:48 01.03.2021
2002 Fog 6 1032 100 8000 2.57 70 09:25 01.03.2021
2003 Fog 5 1032 100 8000 2.57 70 08:55 01.03.2021
2004 Clouds 5 1032 93 8000 1.54 80 08:22 01.03.2021
2005 Fog 4 1032 93 10000 3.09 70 06:55 01.03.2021
2006 Fog 4 1032 100 8000 3.6 70 06:24 01.03.2021
2007 Fog 3 1034 93 10000 2.06 90 02:38 01.03.2021
2008 Mist 4 1035 93 7000 2.06 110 23:41 28.02.2021
2009 Clouds 3 1035 100 5000 3.09 100 22:56 28.02.2021
2010 Clouds 3 1035 100 5000 2.57 100 22:26 28.02.2021
2011 Clouds 4 1035 93 10000 2.57 90 21:58 28.02.2021
2012 Clouds 5 1035 87 10000 3.09 80 21:33 28.02.2021
2013 Clouds 6 1035 87 10000 3.09 80 20:59 28.02.2021
2014 Clouds 6 1035 87 10000 3.6 90 20:38 28.02.2021
2015 Clouds 6 1035 87 10000 3.6 90 20:18 28.02.2021
2016 Clouds 6 1035 87 10000 3.6 90 20:18 28.02.2021
2017 Clouds 6 1035 87 10000 3.6 70 19:45 28.02.2021
2018 Clouds 6 1035 87 10000 3.6 70 19:45 28.02.2021
2019 Clouds 6 1035 87 10000 3.6 70 19:24 28.02.2021
2020 Clouds 6 1035 87 10000 4.12 80 18:43 28.02.2021
2021 Clouds 7 1035 81 10000 4.12 70 18:25 28.02.2021
2022 Clouds 8 1035 71 10000 4.12 80 17:50 28.02.2021
2023 Clouds 8 1035 71 10000 4.12 90 17:28 28.02.2021
2024 Clouds 9 1035 66 10000 4.12 100 16:56 28.02.2021
2025 Clouds 9 1035 66 10000 3.09 70 16:38 28.02.2021
2026 Clouds 10 1036 71 10000 3.6 90 16:18 28.02.2021
2027 Clouds 10 1036 66 10000 3.6 80 15:40 28.02.2021
2028 Clouds 10 1036 66 10000 3.6 80 15:22 28.02.2021
2029 Clouds 10 1037 66 10000 3.6 80 14:52 28.02.2021
2030 Clouds 10 1037 66 10000 3.6 100 14:28 28.02.2021
2031 Clouds 10 1037 66 10000 3.6 80 13:52 28.02.2021
2032 Clouds 10 1038 66 10000 3.6 90 13:21 28.02.2021
2033 Clouds 9 1038 66 10000 3.09 80 12:56 28.02.2021
2034 Clouds 9 1038 71 10000 3.09 80 12:38 28.02.2021
2035 Clouds 9 1038 76 10000 1.54 0 12:19 28.02.2021
2036 Clouds 9 1038 76 10000 1.54 0 11:46 28.02.2021
2037 Clouds 9 1038 87 10000 0.51 0 11:26 28.02.2021
2038 Clouds 7 1038 93 10000 1.03 0 10:55 28.02.2021
2039 Mist 6 1038 93 5000 0.51 0 10:29 28.02.2021
2040 Fog 4 1038 100 900 1.54 160 09:54 28.02.2021
2041 Fog 4 1038 100 900 1.03 0 09:34 28.02.2021
2042 Fog 3 1038 93 900 1.54 210 08:52 28.02.2021
2043 Fog 3 1038 93 10000 0.51 360 08:32 28.02.2021
2044 Fog 3 1038 93 10000 0.51 0 07:57 28.02.2021
2045 Clouds 3 1038 93 10000 0.51 360 07:38 28.02.2021
2046 Clouds 4 1038 100 10000 1.03 190 06:55 28.02.2021
2047 Clouds 4 1038 93 10000 0.41 229 05:52 28.02.2021
2048 Clouds 6 1038 87 10000 1.03 0 03:45 28.02.2021
2049 Clouds 7 1039 87 10000 0.51 360 02:19 28.02.2021
2050 Clouds 8 1039 87 10000 2.06 280 00:58 28.02.2021
2051 Clouds 8 1039 87 10000 1.54 270 00:35 28.02.2021
2052 Clouds 8 1039 87 10000 1.03 260 23:48 27.02.2021
2053 Clouds 8 1039 81 10000 1.03 0 23:20 27.02.2021
2054 Clouds 8 1039 81 10000 1.03 0 22:49 27.02.2021
2055 Clouds 8 1039 87 10000 1.54 180 22:22 27.02.2021
2056 Clouds 8 1039 87 10000 1.03 0 21:50 27.02.2021
2057 Clouds 8 1039 87 10000 1.03 0 21:32 27.02.2021
2058 Clouds 7 1040 87 10000 1.03 160 20:52 27.02.2021
2059 Clouds 7 1040 87 10000 0.51 170 20:33 27.02.2021
2060 Clouds 8 1040 81 10000 1.03 0 19:48 27.02.2021
2061 Clouds 9 1039 76 10000 0.51 0 19:29 27.02.2021
2062 Clouds 9 1040 76 10000 1.03 0 18:56 27.02.2021
2063 Clouds 10 1039 71 10000 2.57 300 18:36 27.02.2021
2064 Clouds 10 1039 71 10000 2.57 300 18:18 27.02.2021
2065 Clouds 10 1040 66 10000 2.57 210 17:42 27.02.2021
2066 Clouds 11 1040 66 10000 2.57 210 17:19 27.02.2021
2067 Clouds 11 1040 66 10000 1.54 0 16:50 27.02.2021
2068 Clouds 11 1040 66 10000 1.54 0 16:28 27.02.2021
2069 Clouds 11 1040 71 10000 2.57 180 15:46 27.02.2021
2070 Clouds 11 1040 66 10000 2.06 190 15:20 27.02.2021
2071 Clouds 11 1040 66 10000 1.54 0 14:41 27.02.2021
2072 Clouds 11 1040 66 10000 1.54 0 14:21 27.02.2021
2073 Clouds 11 1041 66 10000 2.57 230 13:46 27.02.2021
2074 Clouds 10 1041 71 10000 2.57 220 13:21 27.02.2021
2075 Clouds 10 1040 66 10000 3.09 240 12:49 27.02.2021
2076 Clouds 10 1040 66 10000 3.09 240 12:25 27.02.2021
2077 Clouds 10 1040 71 10000 2.06 230 11:52 27.02.2021
2078 Clouds 10 1040 71 10000 2.57 230 11:31 27.02.2021
2079 Clouds 9 1040 76 10000 2.57 230 10:53 27.02.2021
2080 Clouds 8 1040 76 10000 2.06 230 10:34 27.02.2021
2081 Clouds 5 1040 87 10000 1.54 0 09:54 27.02.2021
2082 Clouds 6 1039 87 10000 1.54 220 09:32 27.02.2021
2083 Clouds 4 1039 87 10000 1.54 230 08:44 27.02.2021
2084 Clouds 5 1039 87 10000 2.06 230 08:24 27.02.2021
2085 Clouds 5 1039 87 10000 1.54 0 07:58 27.02.2021
2086 Clouds 5 1039 81 10000 2.06 230 06:55 27.02.2021
2087 Clouds 6 1038 81 10000 2.57 200 01:30 27.02.2021
2088 Clouds 7 1037 81 10000 2.57 180 00:31 27.02.2021
2089 Clouds 7 1037 81 10000 2.57 180 23:41 26.02.2021
2090 Clouds 7 1037 81 10000 2.57 180 23:22 26.02.2021
2091 Clouds 7 1037 81 10000 3.09 190 22:34 26.02.2021
2092 Clouds 7 1036 81 10000 2.57 190 21:54 26.02.2021
2093 Clouds 7 1036 81 10000 2.57 200 21:35 26.02.2021
2094 Clouds 8 1036 76 10000 2.06 200 20:55 26.02.2021
2095 Clouds 8 1036 76 10000 3.09 210 20:37 26.02.2021
2096 Clouds 9 1036 76 10000 3.09 210 20:18 26.02.2021
2097 Clouds 9 1035 71 10000 3.6 210 19:26 26.02.2021
2098 Clouds 10 1035 66 10000 4.63 210 18:55 26.02.2021
2099 Clouds 10 1035 66 10000 3.09 210 18:25 26.02.2021
2100 Clouds 11 1035 62 10000 5.14 210 17:58 26.02.2021
2101 Clouds 11 1035 62 10000 4.12 210 17:36 26.02.2021
2102 Clouds 11 1034 62 10000 4.12 200 16:59 26.02.2021
2103 Clouds 11 1035 62 10000 3.6 220 16:41 26.02.2021
2104 Clouds 11 1035 62 10000 3.6 220 16:22 26.02.2021
2105 Clouds 11 1035 62 10000 5.66 220 15:43 26.02.2021
2106 Clouds 11 1035 62 10000 4.63 230 15:23 26.02.2021
2107 Clouds 11 1035 66 10000 4.63 220 14:53 26.02.2021
2108 Clouds 11 1035 66 10000 4.63 220 14:53 26.02.2021
2109 Clouds 11 1035 62 10000 4.12 240 14:34 26.02.2021
2110 Clouds 11 1035 66 10000 3.6 230 13:52 26.02.2021
2111 Clouds 10 1035 66 10000 4.12 220 13:33 26.02.2021
2112 Clouds 10 1035 66 10000 4.63 220 12:50 26.02.2021
2113 Clouds 10 1035 71 10000 5.14 210 12:27 26.02.2021
2114 Clouds 10 1035 76 10000 4.12 220 11:42 26.02.2021
2115 Clouds 8 1035 81 10000 2.57 200 10:58 26.02.2021
2116 Clouds 7 1035 81 10000 2.06 200 10:25 26.02.2021
2117 Clouds 5 1034 87 10000 2.57 210 09:47 26.02.2021
2118 Clouds 4 1034 93 10000 2.57 210 09:27 26.02.2021
2119 Clouds 3 1034 87 10000 2.06 170 08:35 26.02.2021
2120 Clouds 5 1034 87 10000 2.06 220 07:57 26.02.2021
2121 Clouds 4 1034 87 10000 2.57 220 07:22 26.02.2021
2122 Clouds 5 1033 87 10000 2.57 240 06:32 26.02.2021
2123 Clouds 4 1033 87 10000 2.57 230 05:18 26.02.2021
2124 Clouds 4 1033 87 10000 2.57 220 02:38 26.02.2021
2125 Clouds 4 1032 87 10000 2.57 230 00:33 26.02.2021
2126 Clouds 5 1032 75 10000 2.06 240 23:39 25.02.2021
2127 Clouds 5 1032 81 10000 2.57 240 22:58 25.02.2021
2128 Clouds 5 1032 75 10000 2.06 230 22:38 25.02.2021
2129 Clouds 6 1031 75 10000 2.57 240 21:53 25.02.2021
2130 Clouds 6 1031 75 10000 2.57 250 21:33 25.02.2021
2131 Clouds 6 1031 75 10000 2.06 230 20:55 25.02.2021
2132 Clouds 6 1030 75 10000 2.57 230 20:36 25.02.2021
2133 Clouds 6 1030 75 10000 2.57 230 20:18 25.02.2021
2134 Clouds 7 1030 65 10000 2.57 230 19:46 25.02.2021
2135 Clouds 7 1029 65 10000 2.57 250 19:19 25.02.2021
2136 Clouds 8 1029 66 10000 3.09 240 18:40 25.02.2021
2137 Clouds 9 1028 76 10000 2.57 230 18:18 25.02.2021
2138 Clouds 9 1028 57 10000 6.17 280 17:33 25.02.2021
2139 Clouds 10 1028 57 10000 6.69 280 16:59 25.02.2021
2140 Clouds 10 1027 53 10000 5.66 270 16:33 25.02.2021
2141 Clouds 9 1027 61 10000 7.72 280 15:49 25.02.2021
2142 Clouds 10 1027 66 10000 6.69 270 15:28 25.02.2021
2143 Clouds 9 1027 66 10000 6.69 270 14:37 25.02.2021
2144 Clouds 9 1027 66 10000 6.69 270 14:18 25.02.2021
2145 Clouds 9 1026 71 10000 5.14 250 13:40 25.02.2021
2146 Clouds 9 1026 71 10000 5.14 250 13:20 25.02.2021
2147 Clouds 8 1025 76 10000 5.66 260 12:38 25.02.2021
2148 Clouds 8 1025 76 10000 5.66 260 12:38 25.02.2021
2149 Clouds 8 1025 76 10000 5.66 260 12:20 25.02.2021
2150 Clouds 7 1025 81 10000 4.63 250 11:42 25.02.2021
2151 Clouds 6 1024 87 10000 4.63 250 10:53 25.02.2021
2152 Clouds 6 1024 87 10000 5.14 250 10:35 25.02.2021
2153 Clouds 5 1023 87 10000 3.6 240 09:45 25.02.2021
2154 Clouds 5 1023 87 10000 3.09 230 09:26 25.02.2021
2155 Clouds 5 1021 81 10000 4.12 230 08:40 25.02.2021
2156 Clouds 5 1021 81 10000 4.12 230 08:21 25.02.2021
2157 Clouds 5 1021 81 10000 4.63 220 07:39 25.02.2021
2158 Clouds 6 1020 81 10000 4.63 230 06:57 25.02.2021
2159 Clouds 6 1020 81 10000 4.63 230 06:57 25.02.2021
2160 Clouds 6 1019 81 10000 4.12 230 05:28 25.02.2021
2161 Clouds 7 1018 81 10000 4.12 240 01:50 25.02.2021
2162 Clouds 7 1018 81 10000 4.12 240 01:50 25.02.2021
2163 Clouds 7 1017 81 10000 4.63 240 00:48 25.02.2021
2164 Clouds 8 1016 87 10000 5.14 240 00:19 25.02.2021
2165 Clouds 8 1015 81 10000 3.6 240 23:36 24.02.2021
2166 Clouds 8 1014 81 10000 3.6 240 22:50 24.02.2021
2167 Clouds 8 1014 81 10000 3.6 240 22:30 24.02.2021
2168 Clouds 8 1014 81 10000 3.6 240 21:49 24.02.2021
2169 Clouds 8 1014 87 10000 3.6 250 21:31 24.02.2021
2170 Clouds 8 1014 87 10000 3.09 240 20:50 24.02.2021
2171 Clouds 8 1013 87 10000 3.6 230 20:28 24.02.2021
2172 Clouds 8 1013 87 10000 4.12 220 19:43 24.02.2021
2173 Rain 8 1013 87 10000 3.09 230 19:20 24.02.2021
2174 Rain 9 1012 87 10000 3.6 220 18:53 24.02.2021
2175 Rain 9 1012 87 10000 5.66 260 18:30 24.02.2021
2176 Clouds 10 1011 76 10000 4.63 220 17:40 24.02.2021
2177 Clouds 10 1011 76 10000 6.17 220 17:22 24.02.2021
2178 Clouds 10 1011 76 10000 6.17 220 16:48 24.02.2021
2179 Clouds 11 1011 76 10000 5.14 220 16:21 24.02.2021
2180 Clouds 11 1011 76 10000 5.66 210 15:50 24.02.2021
2181 Clouds 11 1011 76 10000 5.66 220 15:31 24.02.2021
2182 Clouds 10 1011 76 10000 6.17 220 14:47 24.02.2021
2183 Clouds 10 1011 76 10000 5.66 210 14:27 24.02.2021
2184 Rain 10 1011 71 10000 7.2 210 13:42 24.02.2021
2185 Rain 10 1011 71 10000 7.2 210 13:23 24.02.2021
2186 Rain 10 1011 71 10000 5.66 210 12:55 24.02.2021
2187 Clouds 11 1011 71 10000 5.14 220 12:33 24.02.2021
2188 Clouds 10 1011 71 10000 5.66 200 11:53 24.02.2021
2189 Rain 10 1011 76 10000 5.14 210 11:30 24.02.2021
2190 Rain 10 1010 71 10000 6.69 190 10:41 24.02.2021
2191 Rain 10 1010 71 10000 6.69 190 10:22 24.02.2021
2192 Rain 10 1010 71 10000 7.2 200 09:26 24.02.2021
2193 Rain 10 1010 66 10000 5.14 200 08:45 24.02.2021
2194 Clouds 10 1009 66 10000 6.17 200 08:24 24.02.2021
2195 Clouds 10 1009 66 10000 6.17 200 08:24 24.02.2021
2196 Clouds 10 1009 66 10000 6.17 200 08:24 24.02.2021
2197 Rain 10 1008 66 10000 5.66 200 07:37 24.02.2021
2198 Rain 10 1008 66 10000 5.66 200 07:18 24.02.2021
2199 Clouds 10 1008 81 10000 6.17 190 05:25 24.02.2021
2200 Rain 11 1007 71 10000 8.75 200 01:25 24.02.2021
2201 Rain 10 1007 87 10000 7.2 190 23:38 23.02.2021
2202 Rain 10 1007 87 10000 7.2 200 22:45 23.02.2021
2203 Rain 10 1007 81 10000 7.2 200 22:22 23.02.2021
2204 Rain 11 1007 82 10000 8.23 200 21:47 23.02.2021
2205 Rain 11 1006 82 10000 8.75 210 21:24 23.02.2021
2206 Rain 11 1005 82 10000 9.26 200 20:56 23.02.2021
2207 Rain 11 1006 82 10000 8.23 220 20:37 23.02.2021
2208 Rain 12 1006 82 10000 8.23 220 20:18 23.02.2021
2209 Rain 12 1004 88 10000 8.75 210 19:41 23.02.2021
2210 Rain 13 1004 88 10000 8.75 210 19:22 23.02.2021
2211 Rain 13 1003 88 10000 8.75 200 18:44 23.02.2021
2212 Rain 13 1003 94 10000 7.72 200 18:24 23.02.2021
2213 Rain 13 1003 94 10000 6.69 200 17:49 23.02.2021
2214 Rain 13 1004 94 10000 6.69 210 17:26 23.02.2021
2215 Clouds 12 1004 94 9000 8.75 210 16:44 23.02.2021
2216 Clouds 13 1003 82 10000 7.2 200 16:21 23.02.2021
2217 Clouds 13 1003 82 10000 8.23 190 15:45 23.02.2021
2218 Clouds 13 1003 87 10000 7.72 190 15:27 23.02.2021
2219 Rain 13 1002 82 10000 9.26 190 14:46 23.02.2021
2220 Rain 13 1003 88 10000 9.77 200 14:28 23.02.2021
2221 Rain 13 1003 77 10000 12.86 200 13:59 23.02.2021
2222 Clouds 13 1002 88 10000 12.35 200 13:34 23.02.2021
2223 Clouds 14 1001 77 10000 14.4 200 12:57 23.02.2021
2224 Clouds 13 1001 77 10000 12.86 200 12:23 23.02.2021
2225 Clouds 14 1001 72 10000 12.86 190 11:52 23.02.2021
2226 Clouds 13 1001 76 10000 11.83 190 11:26 23.02.2021
2227 Clouds 12 1001 76 10000 11.32 180 10:54 23.02.2021
2228 Rain 12 1001 71 10000 11.32 180 10:36 23.02.2021
2229 Clouds 12 1002 76 10000 9.77 170 09:55 23.02.2021
2230 Clouds 11 1002 82 10000 10.8 170 09:36 23.02.2021
2231 Clouds 11 1003 82 10000 9.77 170 09:18 23.02.2021
2232 Clouds 11 1003 87 10000 8.23 170 08:40 23.02.2021
2233 Rain 11 1003 87 10000 8.23 170 08:20 23.02.2021
2234 Rain 10 1004 87 10000 11.32 150 06:50 23.02.2021
2235 Clouds 10 1006 87 10000 11.32 160 05:22 23.02.2021
2236 Rain 9 1009 76 10000 9.77 170 02:36 23.02.2021
2237 Rain 9 1009 76 10000 9.26 170 01:42 23.02.2021
2238 Clouds 9 1010 71 10000 9.26 170 00:18 23.02.2021
2239 Clouds 9 1011 71 10000 9.26 170 23:24 22.02.2021
2240 Clouds 9 1011 66 10000 6.17 160 22:41 22.02.2021
2241 Clouds 8 1011 66 10000 6.17 160 22:21 22.02.2021
2242 Clouds 8 1012 71 10000 7.72 160 21:47 22.02.2021
2243 Clouds 8 1012 76 10000 6.17 160 21:24 22.02.2021
2244 Clouds 8 1011 76 10000 7.72 160 20:55 22.02.2021
2245 Clouds 8 1012 71 10000 7.72 170 20:31 22.02.2021
2246 Clouds 8 1012 66 10000 7.72 170 19:58 22.02.2021
2247 Clouds 8 1012 66 10000 5.66 170 19:38 22.02.2021
2248 Clouds 8 1012 66 10000 5.66 170 19:18 22.02.2021
2249 Clouds 8 1013 57 10000 6.17 190 18:44 22.02.2021
2250 Clouds 9 1012 57 10000 6.17 170 18:21 22.02.2021
2251 Clouds 9 1012 53 10000 6.69 210 17:36 22.02.2021
2252 Clouds 10 1012 53 10000 6.69 210 17:18 22.02.2021
2253 Clouds 11 1012 54 10000 5.66 180 16:42 22.02.2021
2254 Clouds 12 1011 54 10000 5.14 200 15:56 22.02.2021
2255 Clouds 12 1011 58 10000 4.63 200 15:29 22.02.2021
2256 Clouds 12 1012 58 10000 5.14 200 14:48 22.02.2021
2257 Clouds 11 1012 62 10000 5.14 210 14:30 22.02.2021
2258 Clouds 11 1012 58 10000 5.14 200 13:48 22.02.2021
2259 Clouds 10 1012 57 10000 5.66 190 13:19 22.02.2021
2260 Clouds 10 1012 61 10000 4.63 210 12:41 22.02.2021
2261 Clouds 10 1012 66 10000 4.63 210 12:20 22.02.2021
2262 Clouds 10 1012 66 10000 4.63 210 11:44 22.02.2021
2263 Clouds 9 1012 71 10000 4.12 200 11:25 22.02.2021
2264 Clouds 8 1012 76 10000 3.09 200 10:47 22.02.2021
2265 Clouds 7 1011 75 10000 3.09 200 10:26 22.02.2021
2266 Clouds 6 1011 87 10000 3.6 190 09:45 22.02.2021
2267 Clear 5 1011 87 10000 3.09 180 09:25 22.02.2021
2268 Clear 5 1010 87 10000 2.57 180 08:51 22.02.2021
2269 Clear 5 1010 87 10000 2.06 190 08:29 22.02.2021
2270 Clear 5 1010 87 10000 2.57 210 07:57 22.02.2021
2271 Clear 5 1009 81 10000 2.57 220 07:26 22.02.2021
2272 Clear 5 1009 87 10000 1.54 220 06:44 22.02.2021
2273 Clear 5 1009 81 10000 2.06 190 05:42 22.02.2021
2274 Clear 7 1008 76 10000 2.06 230 03:29 22.02.2021
2275 Clear 7 1008 76 10000 2.57 230 02:49 22.02.2021
2276 Clear 7 1008 76 10000 2.06 230 00:45 22.02.2021
2277 Clear 8 1007 71 10000 3.09 220 00:22 22.02.2021
2278 Clear 8 1007 71 10000 2.57 200 23:30 21.02.2021
2279 Clear 7 1007 76 10000 1.54 0 22:51 21.02.2021
2280 Clouds 7 1006 76 10000 1.54 0 22:22 21.02.2021
2281 Clouds 7 1006 71 10000 3.6 160 21:43 21.02.2021
2282 Clouds 8 1006 71 10000 3.6 170 21:24 21.02.2021
2283 Clouds 8 1005 71 10000 3.09 160 20:43 21.02.2021
2284 Clouds 8 1005 71 10000 3.09 150 20:20 21.02.2021
2285 Clouds 8 1005 71 10000 2.57 150 19:51 21.02.2021
2286 Clouds 8 1004 76 10000 3.09 200 19:33 21.02.2021
2287 Clouds 9 1004 66 10000 4.12 190 18:49 21.02.2021
2288 Clouds 9 1004 62 10000 4.63 200 18:25 21.02.2021
2289 Clouds 11 1003 58 10000 5.14 200 17:30 21.02.2021
2290 Clouds 11 1003 58 10000 5.14 210 16:58 21.02.2021
2291 Clouds 11 1003 58 10000 5.66 210 16:35 21.02.2021
2292 Clouds 12 1003 58 10000 6.17 200 15:57 21.02.2021
2293 Clouds 12 1003 58 10000 6.69 200 15:23 21.02.2021
2294 Clouds 12 1002 58 10000 8.75 200 14:54 21.02.2021
2295 Clouds 11 1002 62 10000 6.17 210 14:35 21.02.2021
2296 Clouds 11 1003 62 10000 7.2 200 13:48 21.02.2021
2297 Clouds 11 1002 62 10000 7.2 210 13:25 21.02.2021
2298 Clouds 10 1003 66 10000 7.2 200 12:32 21.02.2021
2299 Clouds 10 1002 71 10000 5.14 200 11:58 21.02.2021
2300 Clouds 10 1002 71 10000 6.17 200 11:40 21.02.2021
2301 Clouds 8 1001 71 10000 7.2 200 10:40 21.02.2021
2302 Clouds 8 1001 71 10000 7.2 200 10:21 21.02.2021
2303 Clouds 7 1001 76 10000 6.69 200 09:42 21.02.2021
2304 Clouds 7 1001 76 10000 6.69 200 09:23 21.02.2021
2305 Clouds 7 1000 76 10000 4.63 170 08:33 21.02.2021
2306 Clouds 7 999 71 10000 4.63 190 07:44 21.02.2021
2307 Clouds 8 999 71 10000 4.63 190 07:21 21.02.2021
2308 Clouds 8 997 76 10000 7.2 220 05:28 21.02.2021
2309 Clouds 8 995 71 10000 9.26 200 02:40 21.02.2021
2310 Clouds 8 994 71 10000 7.2 200 00:55 21.02.2021
2311 Clouds 7 993 70 10000 7.72 210 00:20 21.02.2021
2312 Clouds 8 992 66 10000 8.23 220 23:31 20.02.2021
2313 Clouds 8 991 81 10000 6.69 220 22:54 20.02.2021
2314 Clouds 8 990 81 10000 8.23 220 22:31 20.02.2021
2315 Clouds 9 989 76 10000 8.75 210 21:47 20.02.2021
2316 Clouds 9 989 76 10000 7.72 210 21:27 20.02.2021
2317 Clouds 9 988 76 10000 7.72 210 20:54 20.02.2021
2318 Clouds 9 987 76 10000 7.2 220 20:35 20.02.2021
2319 Clouds 9 986 76 10000 6.69 210 19:59 20.02.2021
2320 Clouds 10 985 76 10000 7.72 210 19:36 20.02.2021
2321 Clouds 10 983 76 10000 9.77 200 18:47 20.02.2021
2322 Clouds 11 983 76 10000 9.77 200 18:27 20.02.2021
2323 Clouds 11 983 76 10000 10.29 190 17:43 20.02.2021
2324 Clouds 11 982 76 10000 9.77 190 17:25 20.02.2021
2325 Clouds 12 982 82 10000 7.2 180 16:44 20.02.2021
2326 Rain 12 982 82 10000 9.26 170 16:22 20.02.2021
2327 Clouds 12 982 82 10000 10.29 160 15:38 20.02.2021
2328 Rain 12 982 82 10000 10.8 170 14:50 20.02.2021
2329 Rain 12 982 82 10000 12.35 160 14:25 20.02.2021
2330 Clouds 12 983 82 10000 8.75 160 13:53 20.02.2021
2331 Rain 12 984 82 10000 9.77 150 13:28 20.02.2021
2332 Drizzle 12 985 87 10000 7.2 150 12:56 20.02.2021
2333 Rain 12 985 87 10000 8.23 150 12:33 20.02.2021
2334 Rain 10 986 93 8000 8.23 140 11:49 20.02.2021
2335 Clouds 10 986 93 8000 8.23 140 11:30 20.02.2021
2336 Rain 10 987 93 4000 7.2 140 10:50 20.02.2021
2337 Rain 9 988 100 1500 6.17 140 10:21 20.02.2021
2338 Rain 9 988 100 1500 6.17 140 09:45 20.02.2021
2339 Mist 8 990 100 1200 4.63 130 08:51 20.02.2021
2340 Clouds 8 990 93 5000 3.09 130 08:23 20.02.2021
2341 Clouds 8 992 87 10000 4.12 110 04:37 20.02.2021
2342 Clouds 8 992 81 10000 3.6 210 02:32 20.02.2021
2343 Clouds 9 992 81 10000 3.09 190 01:54 20.02.2021
2344 Clouds 10 991 81 10000 4.63 170 00:49 20.02.2021
2345 Clouds 10 992 81 10000 3.6 180 00:30 20.02.2021
2346 Clouds 10 991 81 10000 4.12 150 23:26 19.02.2021
2347 Clouds 10 991 81 10000 4.12 170 22:43 19.02.2021
2348 Clouds 11 991 81 10000 4.63 160 22:19 19.02.2021
2349 Clouds 11 990 76 10000 4.63 170 21:39 19.02.2021
2350 Clouds 11 990 76 10000 4.63 170 21:21 19.02.2021
2351 Clouds 11 990 76 10000 6.17 190 20:40 19.02.2021
2352 Clouds 11 990 76 10000 6.17 190 20:22 19.02.2021
2353 Clouds 11 989 76 10000 5.14 180 19:44 19.02.2021
2354 Clouds 11 989 82 10000 7.2 190 19:20 19.02.2021
2355 Clouds 11 989 82 10000 6.17 190 18:46 19.02.2021
2356 Clouds 11 988 87 10000 6.69 190 18:26 19.02.2021
2357 Drizzle 12 988 87 10000 5.14 210 17:35 19.02.2021
2358 Clouds 12 988 87 10000 8.23 190 16:41 19.02.2021
2359 Rain 12 988 87 10000 8.23 190 16:21 19.02.2021
2360 Rain 12 988 87 10000 8.23 190 15:53 19.02.2021
2361 Rain 12 987 82 10000 9.26 190 15:27 19.02.2021
2362 Rain 12 988 82 10000 8.75 190 14:46 19.02.2021
2363 Rain 12 988 82 10000 7.72 180 14:26 19.02.2021
2364 Rain 12 988 82 10000 6.17 190 13:53 19.02.2021
2365 Rain 11 989 76 10000 4.63 150 13:30 19.02.2021
2366 Clouds 11 989 82 10000 5.66 150 12:52 19.02.2021
2367 Clouds 10 989 87 10000 6.17 140 12:24 19.02.2021
2368 Clouds 11 989 87 10000 6.69 150 11:54 19.02.2021
2369 Rain 11 989 87 10000 7.72 150 11:26 19.02.2021
2370 Clouds 11 989 87 10000 7.72 150 10:54 19.02.2021
2371 Rain 10 989 87 10000 6.69 150 10:31 19.02.2021
2372 Rain 11 990 76 10000 7.2 150 09:51 19.02.2021
2373 Rain 11 990 76 10000 6.69 160 09:27 19.02.2021
2374 Clouds 10 990 81 10000 6.69 150 08:54 19.02.2021
2375 Rain 10 990 81 10000 7.72 150 08:25 19.02.2021
2376 Rain 10 990 87 10000 7.72 160 07:49 19.02.2021
2377 Rain 9 990 81 10000 7.72 160 07:31 19.02.2021
2378 Rain 9 990 81 10000 7.72 160 06:54 19.02.2021
2379 Rain 9 991 81 10000 9.77 160 05:41 19.02.2021
2380 Rain 8 992 76 10000 9.26 170 04:41 19.02.2021
2381 Clouds 7 996 70 10000 7.2 160 01:48 19.02.2021
2382 Rain 7 998 70 10000 6.17 170 00:37 19.02.2021
2383 Clouds 6 999 70 10000 4.63 170 23:56 18.02.2021
2384 Clouds 6 999 70 10000 4.63 170 23:56 18.02.2021
2385 Clouds 6 999 75 10000 5.14 170 23:35 18.02.2021
2386 Clouds 6 999 75 10000 4.12 190 22:50 18.02.2021
2387 Clouds 5 999 75 10000 6.17 190 22:30 18.02.2021
2388 Clouds 5 999 75 10000 6.17 190 22:30 18.02.2021
2389 Clouds 5 999 75 10000 6.17 200 21:55 18.02.2021
2390 Clouds 5 999 70 10000 4.63 200 21:27 18.02.2021
2391 Clouds 6 999 70 10000 4.63 200 20:44 18.02.2021
2392 Clouds 6 999 75 10000 3.6 200 20:24 18.02.2021
2393 Clouds 6 998 75 10000 5.66 250 19:56 18.02.2021
2394 Clouds 6 998 75 10000 7.2 250 19:37 18.02.2021
2395 Clouds 6 998 75 10000 7.2 250 19:18 18.02.2021
2396 Clouds 7 997 76 10000 6.17 240 18:42 18.02.2021
2397 Clouds 7 997 76 10000 4.63 250 18:24 18.02.2021
2398 Clouds 8 996 71 10000 6.17 240 17:42 18.02.2021
2399 Clouds 8 996 71 10000 6.17 250 17:23 18.02.2021
2400 Clouds 8 995 76 10000 7.72 250 16:41 18.02.2021
2401 Clouds 8 995 76 10000 7.72 250 16:22 18.02.2021
2402 Clouds 8 994 76 10000 7.2 240 15:39 18.02.2021
2403 Clouds 8 994 76 10000 7.2 240 15:21 18.02.2021
2404 Clouds 8 993 81 10000 7.72 250 14:49 18.02.2021
2405 Clouds 8 993 76 10000 8.75 250 14:29 18.02.2021
2406 Clouds 7 993 81 10000 7.72 250 13:46 18.02.2021
2407 Clouds 7 992 81 10000 8.23 250 13:20 18.02.2021
2408 Clouds 7 992 81 10000 5.66 240 12:53 18.02.2021
2409 Clouds 6 992 81 10000 6.69 240 12:23 18.02.2021
2410 Drizzle 6 991 81 10000 7.2 230 11:46 18.02.2021
2411 Clouds 6 991 81 10000 8.23 220 11:27 18.02.2021
2412 Clouds 5 991 81 10000 8.23 220 10:52 18.02.2021
2413 Clouds 5 990 81 10000 8.23 220 10:31 18.02.2021
2414 Clouds 5 990 81 10000 6.69 220 09:50 18.02.2021
2415 Clouds 5 990 81 10000 6.69 220 09:50 18.02.2021
2416 Clouds 5 991 81 10000 6.17 220 09:24 18.02.2021
2417 Clouds 4 990 81 10000 5.66 210 08:48 18.02.2021
2418 Clouds 4 990 87 10000 5.66 220 08:29 18.02.2021
2419 Clouds 4 989 87 10000 6.17 230 07:35 18.02.2021
2420 Clouds 3 989 93 10000 5.14 240 06:58 18.02.2021
2421 Rain 6 986 93 10000 4.63 240 03:52 18.02.2021
2422 Rain 6 986 93 10000 4.63 240 03:52 18.02.2021
2423 Clouds 9 990 93 10000 5.14 140 23:56 17.02.2021
2424 Clouds 9 991 93 10000 5.14 140 23:30 17.02.2021
2425 Rain 9 992 87 10000 6.17 140 22:54 17.02.2021
2426 Clouds 8 992 87 10000 6.69 160 22:27 17.02.2021
2427 Clouds 8 993 87 10000 4.63 160 21:57 17.02.2021
2428 Clouds 8 994 93 10000 4.63 140 21:23 17.02.2021
2429 Clouds 8 994 87 10000 5.14 150 20:53 17.02.2021
2430 Clouds 8 995 87 10000 4.12 150 20:33 17.02.2021
2431 Clouds 8 996 81 10000 4.12 150 19:52 17.02.2021
2432 Clouds 8 996 81 10000 5.66 160 19:34 17.02.2021
2433 Clouds 8 997 71 10000 5.14 150 18:49 17.02.2021
2434 Clouds 8 997 71 10000 5.14 150 18:30 17.02.2021
2435 Clouds 9 997 71 10000 4.63 210 17:42 17.02.2021
2436 Clouds 9 998 62 10000 5.66 200 17:21 17.02.2021
2437 Clouds 9 998 62 10000 5.66 200 16:49 17.02.2021
2438 Rain 9 998 62 10000 6.69 210 16:28 17.02.2021
2439 Clouds 10 999 57 10000 7.2 200 15:45 17.02.2021
2440 Clouds 10 999 62 10000 7.72 190 15:27 17.02.2021
2441 Clouds 10 999 62 10000 7.72 190 15:27 17.02.2021
2442 Clouds 10 999 62 10000 8.23 210 14:51 17.02.2021
2443 Clouds 10 999 61 10000 8.23 200 14:29 17.02.2021
2444 Clouds 9 999 61 10000 7.72 200 13:52 17.02.2021
2445 Clouds 9 1000 66 10000 8.23 200 13:33 17.02.2021
2446 Clouds 9 1000 66 10000 7.72 200 12:57 17.02.2021
2447 Clouds 9 1000 66 10000 6.69 200 12:26 17.02.2021
2448 Clouds 8 1000 66 10000 5.66 200 11:47 17.02.2021
2449 Clouds 8 1000 66 10000 5.14 190 11:29 17.02.2021
2450 Clouds 8 1000 70 10000 6.69 180 10:50 17.02.2021
2451 Clouds 7 1000 70 10000 5.14 190 10:31 17.02.2021
2452 Clouds 7 999 70 10000 4.63 200 09:58 17.02.2021
2453 Clouds 7 999 75 10000 4.63 210 09:37 17.02.2021
2454 Clouds 7 998 75 10000 6.17 220 08:49 17.02.2021
2455 Clouds 7 998 75 10000 5.66 220 08:23 17.02.2021
2456 Clouds 7 998 75 10000 6.17 220 07:55 17.02.2021
2457 Clouds 7 996 76 10000 7.72 230 06:37 17.02.2021
2458 Clouds 7 996 76 10000 7.72 230 06:37 17.02.2021
2459 Clouds 9 996 76 10000 6.17 200 03:52 17.02.2021
2460 Rain 9 996 76 10000 6.69 180 02:31 17.02.2021
2461 Rain 8 997 87 10000 8.23 160 01:35 17.02.2021
2462 Clouds 8 999 76 10000 5.66 160 00:28 17.02.2021
2463 Clouds 8 1000 81 10000 4.12 180 23:39 16.02.2021
2464 Clouds 7 1000 76 10000 5.66 180 22:47 16.02.2021
2465 Clouds 7 1001 81 10000 5.14 180 22:26 16.02.2021
2466 Clouds 7 1001 81 10000 5.14 180 22:26 16.02.2021
2467 Clouds 7 1001 76 10000 3.6 190 21:59 16.02.2021
2468 Clouds 7 1000 81 10000 6.17 210 21:39 16.02.2021
2469 Clouds 7 1001 76 10000 4.12 190 21:21 16.02.2021
2470 Clouds 8 1001 76 10000 4.12 190 20:55 16.02.2021
2471 Clouds 8 1001 81 10000 3.09 190 20:24 16.02.2021
2472 Clouds 8 1001 76 10000 3.6 200 19:50 16.02.2021
2473 Clouds 8 1001 76 10000 3.6 210 19:29 16.02.2021
2474 Clouds 8 1001 71 10000 4.12 220 18:53 16.02.2021
2475 Clouds 9 1001 71 10000 4.63 230 18:27 16.02.2021
2476 Clouds 10 1000 66 10000 4.12 220 17:58 16.02.2021
2477 Clouds 10 1000 66 10000 4.63 230 17:38 16.02.2021
2478 Clouds 10 1000 66 10000 4.63 230 17:20 16.02.2021
2479 Clouds 10 1000 66 10000 4.63 230 16:44 16.02.2021
2480 Clouds 10 1000 62 10000 5.14 240 16:21 16.02.2021
2481 Clouds 11 1000 58 10000 4.63 230 15:42 16.02.2021
2482 Clouds 10 1000 62 10000 5.66 230 15:24 16.02.2021
2483 Clouds 11 1000 62 10000 5.66 230 14:42 16.02.2021
2484 Clouds 10 1000 71 10000 5.14 230 14:24 16.02.2021
2485 Clouds 10 1000 71 10000 4.12 230 13:47 16.02.2021
2486 Clouds 10 1000 71 10000 5.66 230 13:22 16.02.2021
2487 Clouds 11 1000 71 10000 5.66 220 12:43 16.02.2021
2488 Clouds 10 1000 76 10000 5.14 210 12:20 16.02.2021
2489 Clouds 11 1000 76 10000 4.63 220 11:44 16.02.2021
2490 Clouds 10 999 76 10000 5.66 200 11:22 16.02.2021
2491 Clouds 10 999 76 10000 6.17 200 10:49 16.02.2021
2492 Clouds 9 999 76 10000 7.2 210 10:30 16.02.2021
2493 Clouds 9 999 81 10000 7.2 210 09:55 16.02.2021
2494 Clouds 9 998 81 10000 7.72 220 09:29 16.02.2021
2495 Clouds 9 998 81 10000 7.72 220 08:52 16.02.2021
2496 Clouds 9 998 81 10000 7.72 220 08:32 16.02.2021
2497 Clouds 9 998 76 10000 7.2 220 07:59 16.02.2021
2498 Clouds 9 998 76 10000 8.23 220 06:58 16.02.2021
2499 Clouds 10 999 76 10000 7.2 200 03:20 16.02.2021
2500 Rain 10 1001 87 10000 7.2 150 00:35 16.02.2021
2501 Clouds 10 1002 87 10000 10.29 160 23:30 15.02.2021
2502 Drizzle 9 1003 87 10000 7.72 160 22:51 15.02.2021
2503 Drizzle 9 1004 87 10000 7.2 160 22:30 15.02.2021
2504 Drizzle 9 1004 87 10000 7.2 160 22:30 15.02.2021
2505 Clouds 9 1005 93 5000 4.63 140 21:50 15.02.2021
2506 Clouds 9 1005 93 5000 6.17 140 21:26 15.02.2021
2507 Clouds 9 1006 93 5000 5.66 140 20:57 15.02.2021
2508 Clouds 10 1007 87 10000 5.66 140 20:39 15.02.2021
2509 Clouds 10 1007 87 10000 5.66 140 20:19 15.02.2021
2510 Clouds 10 1007 76 10000 4.12 130 19:42 15.02.2021
2511 Clouds 10 1008 71 10000 4.12 120 19:18 15.02.2021
2512 Clouds 10 1008 71 10000 3.09 160 18:42 15.02.2021
2513 Clouds 11 1009 71 10000 5.14 200 18:18 15.02.2021
2514 Clouds 11 1009 71 10000 6.69 190 17:41 15.02.2021
2515 Clouds 12 1009 66 10000 5.14 200 17:21 15.02.2021
2516 Clouds 12 1009 66 10000 5.14 200 16:47 15.02.2021
2517 Clouds 12 1009 66 10000 5.14 200 16:26 15.02.2021
2518 Clouds 13 1009 62 10000 5.14 190 15:46 15.02.2021
2519 Clouds 12 1009 66 10000 5.66 220 15:21 15.02.2021
2520 Clouds 12 1009 66 10000 4.63 220 14:49 15.02.2021
2521 Clouds 12 1010 76 10000 5.66 230 14:21 15.02.2021
2522 Clouds 12 1010 76 10000 5.66 230 13:50 15.02.2021
2523 Clouds 12 1009 76 10000 6.17 230 13:27 15.02.2021
2524 Clouds 12 1009 76 10000 5.66 220 12:52 15.02.2021
2525 Clouds 11 1009 76 10000 6.17 210 12:33 15.02.2021
2526 Clouds 11 1009 87 10000 7.2 200 11:54 15.02.2021
2527 Clouds 11 1009 81 10000 6.17 200 11:28 15.02.2021
2528 Clouds 10 1009 81 10000 4.63 200 10:58 15.02.2021
2529 Clouds 9 1008 81 10000 5.66 190 10:40 15.02.2021
2530 Clouds 9 1008 93 8000 5.14 170 10:21 15.02.2021
2531 Clouds 9 1008 93 8000 5.14 170 09:51 15.02.2021
2532 Rain 9 1008 87 8000 3.6 160 09:32 15.02.2021
2533 Rain 8 1008 93 10000 4.12 140 08:32 15.02.2021
2534 Clouds 8 1008 76 10000 2.57 120 07:32 15.02.2021
2535 Clouds 8 1008 81 10000 3.6 130 06:42 15.02.2021
2536 Clouds 8 1009 81 10000 4.63 180 04:58 15.02.2021
2537 Clouds 8 1009 76 10000 2.57 150 02:21 15.02.2021
2538 Clouds 8 1009 81 10000 3.09 180 00:24 15.02.2021
2539 Clouds 8 1008 81 10000 4.63 200 23:30 14.02.2021
2540 Clouds 8 1008 81 10000 5.66 210 22:51 14.02.2021
2541 Clouds 8 1007 76 10000 5.14 200 22:30 14.02.2021
2542 Clouds 9 1007 76 10000 5.14 200 21:55 14.02.2021
2543 Clouds 9 1007 81 10000 4.63 200 21:32 14.02.2021
2544 Clouds 9 1007 81 10000 5.14 200 20:56 14.02.2021
2545 Clouds 10 1007 76 10000 4.12 210 20:31 14.02.2021
2546 Clouds 10 1006 76 10000 5.66 220 19:57 14.02.2021
2547 Clouds 10 1006 71 10000 5.66 210 19:35 14.02.2021
2548 Clouds 11 1005 71 10000 5.14 200 18:43 14.02.2021
2549 Clouds 11 1004 76 10000 5.14 200 18:24 14.02.2021
2550 Clouds 12 1004 71 10000 5.66 200 17:45 14.02.2021
2551 Clouds 12 1003 76 10000 8.23 200 17:25 14.02.2021
2552 Clouds 12 1003 82 10000 7.72 200 16:40 14.02.2021
2553 Clouds 12 1003 82 10000 7.72 200 16:20 14.02.2021
2554 Clouds 11 1003 82 10000 5.66 160 15:44 14.02.2021
2555 Clouds 11 1003 100 7000 5.66 140 14:59 14.02.2021
2556 Clouds 12 1003 100 5000 7.2 140 14:32 14.02.2021
2557 Rain 11 1003 93 5000 8.75 140 13:57 14.02.2021
2558 Rain 11 1003 93 5000 8.75 140 13:32 14.02.2021
2559 Clouds 10 1004 93 6000 11.32 150 12:49 14.02.2021
2560 Clouds 10 1004 93 6000 12.86 150 12:22 14.02.2021
2561 Clouds 10 1003 93 6000 12.86 160 11:51 14.02.2021
2562 Clouds 9 1004 87 10000 11.32 160 11:25 14.02.2021
2563 Clouds 9 1005 87 10000 11.83 170 10:53 14.02.2021
2564 Clouds 8 1005 93 8000 12.86 170 09:58 14.02.2021
2565 Clouds 8 1006 87 8000 11.83 170 09:39 14.02.2021
2566 Clouds 8 1006 87 8000 11.83 170 09:21 14.02.2021
2567 Clouds 8 1007 93 10000 11.32 160 08:43 14.02.2021
2568 Clouds 7 1007 93 10000 11.32 160 07:57 14.02.2021
2569 Clouds 7 1009 87 10000 8.75 160 06:52 14.02.2021
2570 Clouds 7 1010 87 8000 9.26 150 05:43 14.02.2021
2571 Clouds 6 1013 93 6000 8.23 150 03:32 14.02.2021
2572 Rain 5 1014 100 6000 9.77 150 02:22 14.02.2021
2573 Rain 4 1015 93 8000 10.8 150 00:48 14.02.2021
2574 Rain 4 1015 93 8000 11.83 150 00:29 14.02.2021
2575 Rain 4 1016 93 6000 10.8 150 23:41 13.02.2021
2576 Rain 4 1016 93 6000 10.8 150 23:21 13.02.2021
2577 Clouds 4 1016 93 7000 12.35 150 22:43 13.02.2021
2578 Drizzle 4 1017 93 7000 10.8 150 22:20 13.02.2021
2579 Rain 4 1017 93 7000 10.8 150 21:42 13.02.2021
2580 Rain 4 1017 87 8000 9.77 150 21:21 13.02.2021
2581 Rain 4 1017 87 8000 8.75 150 20:30 13.02.2021
2582 Rain 4 1018 87 8000 8.23 170 19:56 13.02.2021
2583 Clouds 4 1017 87 8000 10.29 160 19:37 13.02.2021
2584 Clouds 4 1017 87 8000 10.29 160 19:18 13.02.2021
2585 Drizzle 4 1018 87 8000 10.29 160 18:40 13.02.2021
2586 Drizzle 4 1018 87 8000 10.8 160 18:20 13.02.2021
2587 Drizzle 4 1017 87 8000 9.77 150 17:42 13.02.2021
2588 Drizzle 4 1018 81 8000 12.35 160 17:22 13.02.2021
2589 Drizzle 4 1018 81 8000 12.35 160 16:42 13.02.2021
2590 Drizzle 4 1018 81 8000 10.29 160 16:20 13.02.2021
2591 Drizzle 3 1019 87 8000 10.29 150 15:34 13.02.2021
2592 Drizzle 3 1019 87 6000 11.32 150 14:51 13.02.2021
2593 Drizzle 3 1019 87 6000 11.83 160 14:31 13.02.2021
2594 Drizzle 3 1020 93 6000 10.8 150 13:48 13.02.2021
2595 Drizzle 3 1019 93 6000 11.32 150 13:24 13.02.2021
2596 Drizzle 2 1019 87 6000 13.89 150 12:45 13.02.2021
2597 Clouds 2 1020 87 6000 12.35 150 12:18 13.02.2021
2598 Clouds 1 1019 93 6000 10.29 150 11:43 13.02.2021
2599 Snow 1 1019 93 3000 9.77 140 11:19 13.02.2021
2600 Snow 1 1019 93 3000 9.77 140 10:45 13.02.2021
2601 Snow 1 1020 93 5000 10.8 140 10:24 13.02.2021
2602 Snow 1 1020 93 5000 11.32 140 09:53 13.02.2021
2603 Snow 1 1019 93 6000 9.77 140 09:30 13.02.2021
2604 Snow 1 1020 86 8000 11.32 140 08:54 13.02.2021
2605 Snow 1 1020 86 6000 11.32 140 08:34 13.02.2021
2606 Snow 0 1020 93 6000 11.32 140 07:50 13.02.2021
2607 Snow 0 1020 86 8000 9.77 140 06:37 13.02.2021
2608 Snow 1 1021 69 10000 10.29 140 05:20 13.02.2021
2609 Snow 1 1023 64 10000 9.77 140 03:58 13.02.2021
2610 Clouds 1 1024 69 10000 9.77 130 01:32 13.02.2021
2611 Clouds 1 1024 69 10000 10.29 140 00:36 13.02.2021
2612 Clouds 2 1024 69 10000 10.29 140 23:53 12.02.2021
2613 Clouds 2 1024 64 10000 9.26 140 23:20 12.02.2021
2614 Clouds 2 1024 64 10000 10.29 140 22:40 12.02.2021
2615 Clouds 2 1024 64 10000 10.29 140 22:19 12.02.2021
2616 Clouds 2 1024 69 10000 9.26 130 21:45 12.02.2021
2617 Clouds 2 1024 69 10000 9.77 130 21:25 12.02.2021
2618 Clouds 3 1024 60 10000 9.26 130 20:46 12.02.2021
2619 Clouds 3 1025 65 10000 9.26 130 20:27 12.02.2021
2620 Clouds 3 1024 60 10000 9.26 130 19:55 12.02.2021
2621 Clouds 3 1024 60 10000 8.23 130 19:30 12.02.2021
2622 Clouds 3 1024 56 10000 7.72 130 18:54 12.02.2021
2623 Clouds 3 1024 56 10000 8.75 130 18:28 12.02.2021
2624 Clouds 3 1024 60 10000 8.23 140 17:43 12.02.2021
2625 Clouds 4 1024 52 10000 9.26 130 16:56 12.02.2021
2626 Clouds 4 1024 56 10000 9.77 130 16:25 12.02.2021
2627 Clouds 4 1024 52 10000 9.26 130 15:46 12.02.2021
2628 Clouds 4 1024 48 10000 10.29 140 15:20 12.02.2021
2629 Clouds 4 1024 56 10000 9.77 130 14:40 12.02.2021
2630 Clouds 4 1024 48 10000 9.26 140 13:58 12.02.2021
2631 Clouds 4 1024 48 10000 8.23 130 13:40 12.02.2021
2632 Clouds 4 1024 56 10000 8.23 130 12:55 12.02.2021
2633 Clouds 3 1024 56 10000 10.29 130 12:36 12.02.2021
2634 Clouds 3 1024 56 10000 8.23 130 11:49 12.02.2021
2635 Clouds 3 1024 52 10000 8.75 140 11:26 12.02.2021
2636 Clouds 3 1024 56 10000 8.75 130 10:52 12.02.2021
2637 Clouds 3 1023 60 10000 8.75 130 10:34 12.02.2021
2638 Clouds 2 1023 60 10000 8.23 130 09:44 12.02.2021
2639 Clouds 2 1022 60 10000 8.23 140 09:24 12.02.2021
2640 Clouds 2 1022 64 10000 8.23 140 08:48 12.02.2021
2641 Clouds 2 1022 64 10000 8.23 140 08:27 12.02.2021
2642 Clouds 2 1022 64 10000 8.23 140 07:53 12.02.2021
2643 Snow 2 1022 64 10000 8.23 140 07:28 12.02.2021
2644 Snow 2 1022 64 10000 7.72 130 06:54 12.02.2021
2645 Snow 2 1022 69 10000 7.72 130 05:39 12.02.2021
2646 Snow 2 1022 64 10000 7.72 130 03:48 12.02.2021
2647 Clouds 2 1021 64 10000 8.23 130 00:47 12.02.2021
2648 Clouds 2 1021 64 10000 8.23 130 23:39 11.02.2021
2649 Clouds 2 1021 60 10000 8.75 130 23:20 11.02.2021
2650 Clouds 2 1021 60 10000 8.75 130 22:44 11.02.2021
2651 Clouds 2 1021 60 10000 8.75 130 22:23 11.02.2021
2652 Clouds 2 1021 64 10000 8.75 130 21:43 11.02.2021
2653 Clouds 2 1021 64 10000 8.75 130 21:25 11.02.2021
2654 Clouds 2 1021 69 10000 7.72 130 20:58 11.02.2021
2655 Clouds 2 1021 64 10000 8.75 130 20:39 11.02.2021
2656 Clouds 2 1021 64 10000 8.75 130 20:21 11.02.2021
2657 Clouds 2 1021 64 10000 7.72 130 19:47 11.02.2021
2658 Clouds 2 1021 69 10000 8.23 130 19:26 11.02.2021
2659 Clouds 2 1020 69 10000 7.72 130 18:43 11.02.2021
2660 Clouds 2 1020 69 10000 8.23 130 18:21 11.02.2021
2661 Clouds 2 1021 69 10000 8.75 130 17:48 11.02.2021
2662 Clouds 2 1021 69 10000 8.75 120 17:21 11.02.2021
2663 Clouds 2 1021 64 10000 8.23 130 16:46 11.02.2021
2664 Clouds 2 1021 64 10000 7.72 130 16:27 11.02.2021
2665 Clouds 2 1021 60 10000 8.75 120 15:45 11.02.2021
2666 Clouds 2 1021 64 10000 8.75 130 15:26 11.02.2021
2667 Clouds 2 1021 64 10000 8.23 130 14:56 11.02.2021
2668 Clouds 2 1022 60 10000 8.75 140 14:31 11.02.2021
2669 Clouds 2 1022 60 10000 8.75 130 13:44 11.02.2021
2670 Clouds 2 1022 64 10000 9.26 120 13:21 11.02.2021
2671 Clouds 2 1022 64 10000 9.26 120 12:56 11.02.2021
2672 Clouds 2 1022 69 10000 9.26 130 12:35 11.02.2021
2673 Clouds 2 1022 69 10000 9.26 120 11:48 11.02.2021
2674 Clouds 1 1022 64 10000 10.29 120 11:28 11.02.2021
2675 Clouds 1 1022 64 10000 8.75 120 10:55 11.02.2021
2676 Clouds 1 1022 64 10000 9.26 120 10:37 11.02.2021
2677 Clouds 1 1021 64 10000 9.26 120 10:19 11.02.2021
2678 Clouds 1 1021 64 10000 8.23 120 09:38 11.02.2021
2679 Clouds 1 1021 64 10000 8.23 120 09:18 11.02.2021
2680 Clouds 1 1021 69 10000 9.26 120 08:43 11.02.2021
2681 Clouds 1 1021 64 10000 8.75 110 07:43 11.02.2021
2682 Clouds 1 1022 64 10000 8.23 120 06:44 11.02.2021
2683 Clouds 1 1022 64 10000 7.72 110 05:54 11.02.2021
2684 Clouds 1 1023 55 10000 7.72 120 03:43 11.02.2021
2685 Clouds 1 1023 55 10000 6.69 140 02:21 11.02.2021
2686 Clouds 1 1023 60 10000 6.17 110 00:23 11.02.2021
2687 Clouds 1 1022 55 10000 6.17 110 23:48 10.02.2021
2688 Clouds 1 1022 60 10000 5.66 110 23:19 10.02.2021
2689 Clouds 1 1022 55 10000 5.14 120 22:43 10.02.2021
2690 Clouds 1 1022 60 10000 5.66 110 22:23 10.02.2021
2691 Clouds 1 1022 60 10000 5.14 110 21:40 10.02.2021
2692 Clouds 1 1022 60 10000 5.14 110 21:20 10.02.2021
2693 Clouds 1 1022 60 10000 5.14 110 21:20 10.02.2021
2694 Clouds 1 1022 60 10000 5.14 120 20:50 10.02.2021
2695 Clouds 1 1022 60 10000 6.17 110 20:28 10.02.2021
2696 Clouds 1 1022 60 10000 5.66 100 19:50 10.02.2021
2697 Clouds 1 1021 60 10000 6.17 100 19:27 10.02.2021
2698 Clouds 1 1021 69 10000 4.63 100 18:48 10.02.2021
2699 Clouds 2 1021 60 10000 5.66 100 18:26 10.02.2021
2700 Clouds 2 1021 64 10000 7.2 100 17:59 10.02.2021
2701 Clouds 2 1021 60 10000 6.17 100 17:39 10.02.2021
2702 Clouds 2 1021 60 10000 6.17 100 17:19 10.02.2021
2703 Clouds 3 1020 60 10000 7.2 100 16:41 10.02.2021
2704 Clouds 3 1020 60 10000 7.2 100 16:41 10.02.2021
2705 Clouds 3 1020 60 10000 7.2 100 16:23 10.02.2021
2706 Clouds 3 1020 75 10000 5.14 110 15:24 10.02.2021
2707 Clouds 3 1020 60 10000 6.69 100 14:53 10.02.2021
2708 Clouds 3 1020 60 10000 7.2 100 14:34 10.02.2021
2709 Clouds 3 1020 56 10000 6.69 110 13:55 10.02.2021
2710 Clouds 2 1019 56 10000 7.72 100 13:30 10.02.2021
2711 Clouds 2 1019 55 10000 7.2 100 12:54 10.02.2021
2712 Clouds 2 1019 60 10000 5.66 90 12:31 10.02.2021
2713 Clouds 2 1019 75 8000 5.14 50 11:58 10.02.2021
2714 Clouds 2 1018 69 10000 7.2 50 11:39 10.02.2021
2715 Clouds 2 1018 80 10000 5.14 50 11:21 10.02.2021
2716 Clouds 2 1017 60 10000 6.17 80 10:25 10.02.2021
2717 Clouds 2 1017 60 10000 6.69 90 09:57 10.02.2021
2718 Clouds 1 1017 55 10000 7.2 80 09:33 10.02.2021
2719 Clouds 1 1016 55 10000 7.72 80 08:56 10.02.2021
2720 Clouds 1 1016 55 10000 6.69 80 08:35 10.02.2021
2721 Clouds 1 1015 60 10000 5.66 80 07:39 10.02.2021
2722 Clouds 1 1014 60 10000 8.75 80 06:22 10.02.2021
2723 Clouds 1 1012 69 10000 10.29 80 01:37 10.02.2021
2724 Clouds 1 1012 64 10000 8.23 90 00:22 10.02.2021
2725 Clouds 2 1011 64 10000 8.75 90 23:33 09.02.2021
2726 Clouds 2 1010 75 10000 9.26 90 22:49 09.02.2021
2727 Clouds 2 1010 80 10000 7.2 70 22:24 09.02.2021
2728 Clouds 2 1010 80 10000 7.2 70 22:24 09.02.2021
2729 Clouds 2 1010 69 10000 9.77 80 21:52 09.02.2021
2730 Clouds 2 1010 69 10000 9.77 80 21:25 09.02.2021
2731 Clouds 2 1009 64 10000 9.26 80 20:45 09.02.2021
2732 Clouds 2 1009 69 10000 11.32 80 20:25 09.02.2021
2733 Clouds 2 1009 60 10000 8.75 80 19:53 09.02.2021
2734 Clouds 2 1008 60 10000 10.29 80 19:30 09.02.2021
2735 Clouds 2 1008 64 10000 8.75 70 18:56 09.02.2021
2736 Clouds 2 1008 64 10000 8.75 80 18:35 09.02.2021
2737 Clouds 2 1008 69 10000 9.26 80 17:56 09.02.2021
2738 Clouds 2 1008 60 10000 8.75 90 17:36 09.02.2021
2739 Clouds 2 1008 60 10000 8.75 90 17:18 09.02.2021
2740 Clouds 2 1008 64 10000 9.26 80 16:38 09.02.2021
2741 Clouds 2 1008 64 10000 9.26 80 16:18 09.02.2021
2742 Clouds 2 1009 69 10000 9.77 90 15:41 09.02.2021
2743 Clouds 2 1009 69 10000 9.77 90 15:23 09.02.2021
2744 Clouds 2 1009 64 10000 9.77 90 14:48 09.02.2021
2745 Clouds 2 1009 64 10000 9.26 80 14:26 09.02.2021
2746 Clouds 2 1009 64 10000 9.26 80 14:26 09.02.2021
2747 Clouds 2 1009 75 10000 8.75 100 13:43 09.02.2021
2748 Clouds 2 1009 80 10000 8.23 100 13:21 09.02.2021
2749 Clouds 2 1008 60 10000 7.72 80 12:48 09.02.2021
2750 Clouds 2 1009 75 6000 9.26 80 12:28 09.02.2021
2751 Clouds 1 1009 64 10000 9.77 90 11:44 09.02.2021
2752 Clouds 1 1009 64 10000 9.77 90 11:44 09.02.2021
2753 Clouds 1 1008 75 10000 7.2 100 11:23 09.02.2021
2754 Clouds 1 1008 69 10000 9.77 100 10:58 09.02.2021
2755 Snow 1 1008 69 8000 10.29 90 10:23 09.02.2021
2756 Clouds 1 1008 75 10000 9.77 100 09:59 09.02.2021
2757 Snow 1 1008 75 4000 10.29 100 09:40 09.02.2021
2758 Snow 1 1008 75 8000 9.26 90 09:20 09.02.2021
2759 Snow 1 1008 75 8000 10.29 90 08:30 09.02.2021
2760 Snow 1 1007 75 8000 9.26 100 07:54 09.02.2021
2761 Snow 1 1008 75 6000 7.72 100 05:35 09.02.2021
2762 Snow 1 1009 80 5000 9.26 100 03:49 09.02.2021
2763 Clouds 2 1009 69 10000 7.2 100 01:57 09.02.2021
2764 Snow 1 1009 80 6000 9.77 100 00:31 09.02.2021
2765 Clouds 1 1008 75 10000 9.26 90 23:44 08.02.2021
2766 Clouds 2 1008 75 10000 9.26 90 23:19 08.02.2021
2767 Clouds 2 1008 86 10000 8.75 70 22:43 08.02.2021
2768 Clouds 1 1008 86 10000 8.75 70 22:22 08.02.2021
2769 Snow 2 1008 75 8000 9.26 80 21:46 08.02.2021
2770 Clouds 2 1008 64 10000 7.72 80 21:23 08.02.2021
2771 Clouds 2 1008 80 10000 9.26 80 20:44 08.02.2021
2772 Snow 2 1008 93 10000 7.2 80 20:25 08.02.2021
2773 Snow 2 1009 80 3000 9.77 80 19:59 08.02.2021
2774 Clouds 2 1008 75 10000 9.26 80 19:41 08.02.2021
2775 Clouds 1 1008 75 10000 9.26 80 19:21 08.02.2021
2776 Clouds 2 1008 64 10000 7.72 80 18:42 08.02.2021
2777 Clouds 2 1008 64 10000 7.72 80 18:19 08.02.2021
2778 Clouds 2 1008 64 10000 8.75 80 17:43 08.02.2021
2779 Clouds 2 1008 64 10000 9.26 70 17:23 08.02.2021
2780 Clouds 2 1008 55 10000 7.2 80 16:41 08.02.2021
2781 Clouds 2 1008 55 10000 7.2 80 16:21 08.02.2021
2782 Clouds 2 1009 64 10000 9.77 70 15:41 08.02.2021
2783 Clouds 2 1009 64 10000 9.77 70 15:19 08.02.2021
2784 Clouds 2 1009 64 10000 9.77 80 14:51 08.02.2021
2785 Clouds 3 1009 69 10000 8.75 80 14:30 08.02.2021
2786 Clouds 3 1009 69 10000 8.23 80 13:56 08.02.2021
2787 Clouds 2 1009 64 10000 10.29 80 13:32 08.02.2021
2788 Clouds 2 1009 64 10000 10.29 80 13:32 08.02.2021
2789 Clouds 2 1009 64 10000 9.77 90 12:53 08.02.2021
2790 Clouds 2 1009 64 10000 9.26 80 12:34 08.02.2021
2791 Clouds 2 1009 64 10000 10.29 80 11:44 08.02.2021
2792 Clouds 2 1009 64 10000 9.26 80 11:19 08.02.2021
2793 Clouds 2 1009 64 10000 9.26 80 10:44 08.02.2021
2794 Clouds 2 1009 60 10000 10.29 80 10:23 08.02.2021
2795 Clouds 2 1009 64 10000 8.75 80 09:50 08.02.2021
2796 Clouds 2 1009 60 10000 8.75 90 09:29 08.02.2021
2797 Clouds 2 1009 60 10000 11.32 80 08:32 08.02.2021
2798 Clouds 2 1009 55 10000 10.29 90 07:51 08.02.2021
2799 Clouds 2 1009 60 10000 8.75 90 07:22 08.02.2021
2800 Clouds 2 1009 60 10000 9.77 80 05:29 08.02.2021
2801 Clouds 2 1010 60 10000 10.29 90 02:28 08.02.2021
2802 Clouds 2 1010 60 10000 10.29 90 00:43 08.02.2021
2803 Clouds 2 1010 64 10000 10.8 90 00:18 08.02.2021
2804 Clouds 2 1010 64 10000 10.8 90 23:46 07.02.2021
2805 Clouds 2 1010 64 10000 10.8 90 23:19 07.02.2021
2806 Clouds 3 1010 64 10000 10.8 90 22:43 07.02.2021
2807 Clouds 2 1010 64 10000 10.8 90 22:24 07.02.2021
2808 Clouds 2 1010 64 10000 11.32 90 21:51 07.02.2021
2809 Clouds 3 1010 64 10000 10.8 90 21:26 07.02.2021
2810 Clouds 3 1010 64 10000 10.8 80 20:53 07.02.2021
2811 Clouds 3 1010 69 10000 10.29 90 20:33 07.02.2021
2812 Clouds 3 1010 64 10000 10.8 90 19:55 07.02.2021
2813 Clouds 3 1010 64 10000 11.32 90 19:30 07.02.2021
2814 Clouds 3 1010 64 10000 10.29 90 18:55 07.02.2021
2815 Clouds 3 1009 64 10000 9.77 80 18:35 07.02.2021
2816 Clouds 3 1009 69 10000 10.29 90 17:59 07.02.2021
2817 Clouds 3 1010 64 10000 10.29 90 17:40 07.02.2021
2818 Clouds 3 1010 64 10000 10.29 90 17:19 07.02.2021
2819 Clouds 3 1010 75 10000 10.8 90 16:45 07.02.2021
2820 Clouds 3 1010 75 10000 9.77 80 16:23 07.02.2021
2821 Clouds 3 1010 65 10000 9.77 90 15:49 07.02.2021
2822 Clouds 3 1011 60 10000 9.26 90 15:28 07.02.2021
2823 Clouds 3 1011 65 10000 9.77 90 14:49 07.02.2021
2824 Clouds 3 1011 70 10000 9.77 90 14:30 07.02.2021
2825 Clouds 4 1011 70 10000 9.77 90 13:56 07.02.2021
2826 Clouds 4 1011 75 10000 10.29 90 13:34 07.02.2021
2827 Drizzle 4 1011 81 10000 10.29 90 12:46 07.02.2021
2828 Drizzle 4 1011 81 10000 10.29 90 12:23 07.02.2021
2829 Clouds 4 1011 81 10000 10.29 80 11:53 07.02.2021
2830 Clouds 4 1011 87 10000 10.29 80 11:27 07.02.2021
2831 Clouds 4 1011 87 10000 10.29 90 10:51 07.02.2021
2832 Clouds 4 1011 81 10000 10.29 90 10:26 07.02.2021
2833 Clouds 4 1010 87 10000 11.83 90 09:49 07.02.2021
2834 Clouds 4 1010 81 10000 10.29 90 09:21 07.02.2021
2835 Clouds 4 1010 81 10000 10.29 90 08:31 07.02.2021
2836 Clouds 4 1010 81 10000 10.29 100 07:38 07.02.2021
2837 Clouds 4 1010 81 10000 10.29 90 05:57 07.02.2021
2838 Clouds 4 1010 81 10000 10.29 90 03:54 07.02.2021
2839 Clouds 5 1010 81 10000 8.75 80 01:37 07.02.2021
2840 Clouds 5 1010 87 10000 7.72 80 00:36 07.02.2021
2841 Clouds 5 1010 81 10000 9.26 70 23:46 06.02.2021
2842 Clouds 5 1010 87 10000 7.2 60 22:42 06.02.2021
2843 Clouds 5 1010 87 10000 7.2 60 21:43 06.02.2021
2844 Clouds 5 1010 87 10000 6.69 70 21:23 06.02.2021
2845 Clouds 5 1010 87 10000 6.69 60 20:52 06.02.2021
2846 Clouds 5 1010 87 10000 5.66 60 20:26 06.02.2021
2847 Drizzle 6 1009 81 10000 7.2 60 19:57 06.02.2021
2848 Drizzle 6 1009 81 10000 6.17 60 19:34 06.02.2021
2849 Clouds 6 1009 81 10000 7.2 60 18:54 06.02.2021
2850 Clouds 6 1009 81 10000 8.75 50 18:34 06.02.2021
2851 Clouds 6 1009 87 10000 8.23 60 17:56 06.02.2021
2852 Clouds 6 1009 87 10000 8.23 50 17:38 06.02.2021
2853 Clouds 6 1009 87 10000 7.2 50 17:19 06.02.2021
2854 Clouds 6 1009 87 10000 7.2 50 16:41 06.02.2021
2855 Clouds 6 1009 87 10000 7.2 50 16:23 06.02.2021
2856 Drizzle 6 1009 87 10000 7.2 50 15:48 06.02.2021
2857 Drizzle 6 1009 87 10000 5.14 70 15:25 06.02.2021
2858 Drizzle 6 1009 87 10000 6.17 70 14:45 06.02.2021
2859 Clouds 6 1009 93 10000 6.69 70 14:27 06.02.2021
2860 Drizzle 6 1009 93 8000 6.69 40 13:51 06.02.2021
2861 Drizzle 6 1009 93 10000 6.69 30 13:32 06.02.2021
2862 Clouds 6 1009 93 10000 5.14 40 12:23 06.02.2021
2863 Clouds 6 1009 93 10000 5.14 40 11:57 06.02.2021
2864 Clouds 6 1009 93 10000 5.66 40 11:38 06.02.2021
2865 Clouds 6 1009 93 10000 5.66 30 11:19 06.02.2021
2866 Clouds 6 1009 93 10000 5.14 30 10:42 06.02.2021
2867 Clouds 6 1009 93 10000 5.14 30 10:23 06.02.2021
2868 Clouds 5 1009 93 10000 6.69 20 09:37 06.02.2021
2869 Clouds 5 1009 93 10000 6.69 20 09:18 06.02.2021
2870 Clouds 5 1008 100 10000 5.66 20 08:49 06.02.2021
2871 Clouds 6 1008 100 10000 5.66 10 08:23 06.02.2021
2872 Clouds 6 1008 93 10000 5.66 30 06:29 06.02.2021
2873 Clouds 5 1007 100 10000 3.6 30 04:37 06.02.2021
2874 Clouds 5 1007 93 10000 3.09 340 02:34 06.02.2021
2875 Clouds 4 1007 93 10000 2.57 330 00:48 06.02.2021
2876 Clouds 4 1007 100 10000 2.06 350 00:20 06.02.2021
2877 Clouds 4 1007 100 10000 2.06 350 23:46 05.02.2021
2878 Clouds 4 1007 93 10000 2.06 320 23:26 05.02.2021
2879 Clouds 4 1007 93 10000 2.06 300 22:48 05.02.2021
2880 Clouds 4 1007 93 10000 2.06 290 22:23 05.02.2021
2881 Clouds 4 1006 93 10000 2.57 290 21:51 05.02.2021
2882 Clouds 4 1006 100 10000 2.06 300 21:29 05.02.2021
2883 Clouds 4 1006 100 10000 2.57 280 20:48 05.02.2021
2884 Clouds 4 1006 93 10000 1.03 260 19:53 05.02.2021
2885 Clouds 4 1006 93 10000 1.03 0 19:22 05.02.2021
2886 Clouds 5 1005 87 10000 1.54 250 18:54 05.02.2021
2887 Clouds 5 1005 87 10000 1.03 0 18:28 05.02.2021
2888 Clouds 5 1005 87 10000 1.54 0 17:48 05.02.2021
2889 Clouds 5 1005 87 10000 2.06 230 17:27 05.02.2021
2890 Clouds 5 1005 87 10000 1.54 0 16:57 05.02.2021
2891 Clouds 5 1004 87 10000 2.06 270 16:37 05.02.2021
2892 Clouds 5 1004 87 10000 2.06 270 16:19 05.02.2021
2893 Clouds 5 1004 87 10000 2.06 250 15:29 05.02.2021
2894 Clouds 6 1004 93 10000 2.06 250 14:57 05.02.2021
2895 Clouds 6 1004 87 10000 2.57 280 14:37 05.02.2021
2896 Clouds 6 1004 87 10000 2.57 280 14:18 05.02.2021
2897 Drizzle 5 1004 93 8000 4.12 270 13:39 05.02.2021
2898 Drizzle 5 1004 93 8000 4.12 270 13:19 05.02.2021
2899 Drizzle 5 1004 100 4000 3.6 260 12:41 05.02.2021
2900 Drizzle 5 1004 100 4000 3.6 260 12:41 05.02.2021
2901 Drizzle 5 1004 87 10000 4.12 270 11:58 05.02.2021
2902 Clouds 4 1004 93 10000 3.6 270 11:37 05.02.2021
2903 Clouds 4 1004 93 10000 3.6 270 11:19 05.02.2021
2904 Drizzle 4 1004 93 3000 3.6 270 10:43 05.02.2021
2905 Drizzle 4 1004 93 10000 4.12 270 10:22 05.02.2021
2906 Clouds 4 1003 93 10000 3.6 270 09:42 05.02.2021
2907 Clouds 4 1003 93 10000 3.6 270 09:22 05.02.2021
2908 Clouds 4 1003 93 10000 3.6 260 08:37 05.02.2021
2909 Clouds 4 1002 93 10000 4.12 260 07:40 05.02.2021
2910 Clouds 4 1002 93 10000 4.12 260 07:19 05.02.2021
2911 Clouds 5 1002 87 10000 2.57 260 05:40 05.02.2021
2912 Clouds 5 1002 87 10000 2.57 260 04:59 05.02.2021
2913 Clouds 6 1002 93 10000 2.57 250 02:25 05.02.2021
2914 Clouds 7 1002 93 10000 1.54 0 00:58 05.02.2021
2915 Clouds 7 1002 93 10000 2.06 250 00:36 05.02.2021
2916 Clouds 7 1002 93 10000 2.06 260 00:18 05.02.2021
2917 Clouds 7 1002 93 10000 1.54 0 23:40 04.02.2021
2918 Clouds 7 1002 93 10000 1.54 0 23:22 04.02.2021
2919 Clouds 7 1002 87 10000 1.03 0 22:54 04.02.2021
2920 Clouds 7 1002 87 10000 1.54 0 22:30 04.02.2021
2921 Clouds 7 1002 87 10000 2.06 150 21:55 04.02.2021
2922 Clouds 7 1002 87 10000 2.57 180 21:37 04.02.2021
2923 Clouds 7 1002 81 10000 2.06 160 20:56 04.02.2021
2924 Clouds 7 1001 81 10000 2.06 150 20:34 04.02.2021
2925 Clouds 7 1001 81 10000 2.06 160 19:51 04.02.2021
2926 Clouds 7 1001 81 10000 2.57 180 19:26 04.02.2021
2927 Clouds 8 1001 81 10000 2.57 200 18:41 04.02.2021
2928 Clouds 8 1001 81 10000 2.57 200 18:22 04.02.2021
2929 Clouds 9 1001 81 10000 3.6 210 17:45 04.02.2021
2930 Clouds 9 1001 76 10000 4.12 210 17:22 04.02.2021
2931 Clouds 9 1001 76 10000 4.12 200 16:49 04.02.2021
2932 Clouds 10 1000 76 10000 3.6 190 16:20 04.02.2021
2933 Clouds 9 1001 81 10000 3.6 200 15:41 04.02.2021
2934 Clouds 9 1001 81 10000 3.6 200 15:21 04.02.2021
2935 Clouds 9 1001 81 10000 3.6 210 14:57 04.02.2021
2936 Clouds 10 1001 81 10000 4.12 200 14:39 04.02.2021
2937 Clouds 9 1001 81 10000 4.12 200 14:19 04.02.2021
2938 Clouds 10 1001 81 10000 3.6 200 13:43 04.02.2021
2939 Clouds 9 1001 87 10000 5.14 200 12:57 04.02.2021
2940 Clouds 9 1001 87 10000 4.12 200 12:27 04.02.2021
2941 Clouds 8 1001 87 10000 4.12 200 11:53 04.02.2021
2942 Clouds 8 1001 87 10000 4.12 200 11:32 04.02.2021
2943 Clouds 8 1000 87 10000 4.63 200 10:45 04.02.2021
2944 Clouds 8 1000 93 10000 4.12 200 10:18 04.02.2021
2945 Clouds 8 1000 93 10000 4.12 200 09:43 04.02.2021
2946 Clouds 8 999 87 10000 5.14 200 09:19 04.02.2021
2947 Rain 8 998 87 10000 5.66 210 08:41 04.02.2021
2948 Rain 8 998 87 10000 5.66 210 08:20 04.02.2021
2949 Clouds 8 998 87 10000 5.14 200 07:42 04.02.2021
2950 Clouds 8 998 93 10000 6.17 200 06:55 04.02.2021
2951 Clouds 8 997 93 10000 5.66 200 06:37 04.02.2021
2952 Rain 7 997 87 10000 6.69 190 03:54 04.02.2021
2953 Clouds 7 997 87 10000 4.12 160 02:26 04.02.2021
2954 Rain 7 997 87 10000 4.12 150 00:48 04.02.2021
2955 Clouds 7 997 81 10000 3.09 140 23:40 03.02.2021
2956 Rain 7 997 81 10000 4.12 170 22:50 03.02.2021
2957 Rain 8 996 81 10000 3.6 170 22:23 03.02.2021
2958 Rain 7 996 81 10000 4.12 180 21:59 03.02.2021
2959 Clouds 7 996 81 10000 3.6 180 21:40 03.02.2021
2960 Clouds 7 996 81 10000 3.6 180 21:20 03.02.2021
2961 Clouds 7 996 81 10000 4.12 190 20:46 03.02.2021
2962 Clouds 7 996 81 10000 4.12 200 20:26 03.02.2021
2963 Clouds 7 995 81 10000 3.09 190 19:46 03.02.2021
2964 Clouds 7 995 81 10000 3.6 170 19:23 03.02.2021
2965 Clouds 7 994 81 10000 3.09 170 18:49 03.02.2021
2966 Rain 7 994 81 10000 3.6 180 18:21 03.02.2021
2967 Rain 7 994 81 10000 3.6 190 17:54 03.02.2021
2968 Rain 7 994 81 10000 3.6 200 17:33 03.02.2021
2969 Rain 7 993 87 10000 4.12 200 16:59 03.02.2021
2970 Rain 7 993 81 10000 5.14 220 16:35 03.02.2021
2971 Rain 8 993 76 10000 4.63 220 15:50 03.02.2021
2972 Rain 9 992 76 10000 4.63 230 15:30 03.02.2021
2973 Clouds 9 992 76 10000 4.63 230 14:54 03.02.2021
2974 Clouds 9 992 76 10000 4.12 230 14:30 03.02.2021
2975 Clouds 9 992 76 10000 3.6 240 13:56 03.02.2021
2976 Clouds 8 991 76 10000 4.12 230 13:29 03.02.2021
2977 Clouds 8 991 76 10000 4.12 230 12:55 03.02.2021
2978 Clouds 8 991 76 10000 4.63 240 12:36 03.02.2021
2979 Clouds 8 991 76 10000 4.63 240 12:18 03.02.2021
2980 Clouds 8 990 81 10000 4.63 240 11:38 03.02.2021
2981 Clouds 7 989 87 10000 4.63 240 10:59 03.02.2021
2982 Clouds 7 989 81 10000 4.63 230 10:23 03.02.2021
2983 Clouds 7 988 81 10000 5.66 250 09:51 03.02.2021
2984 Clouds 7 988 87 10000 5.14 240 09:32 03.02.2021
2985 Clouds 7 988 87 10000 4.12 230 08:54 03.02.2021
2986 Clouds 7 987 87 10000 4.12 230 08:35 03.02.2021
2987 Clouds 7 987 93 10000 5.66 220 07:42 03.02.2021
2988 Clouds 7 986 87 10000 5.14 220 06:42 03.02.2021
2989 Clouds 8 986 87 10000 5.14 220 04:55 03.02.2021
2990 Clouds 8 986 93 10000 5.66 220 04:34 03.02.2021
2991 Clouds 8 986 87 10000 5.66 230 03:48 03.02.2021
2992 Clouds 8 985 87 10000 5.66 230 02:37 03.02.2021
2993 Clouds 8 985 87 10000 6.17 230 01:20 03.02.2021
2994 Clouds 9 984 87 10000 5.14 220 00:20 03.02.2021
2995 Clouds 9 984 81 10000 3.6 240 23:40 02.02.2021
2996 Clouds 9 984 81 10000 3.6 240 23:22 02.02.2021
2997 Clouds 9 983 93 10000 3.6 220 22:37 02.02.2021
2998 Clouds 9 983 93 10000 3.6 220 22:18 02.02.2021
2999 Clouds 9 983 93 10000 4.12 230 21:40 02.02.2021
3000 Clouds 9 983 93 10000 4.12 220 21:21 02.02.2021
3001 Clouds 9 983 93 10000 4.12 220 20:47 02.02.2021
3002 Clouds 9 983 93 10000 3.6 200 20:21 02.02.2021
3003 Clouds 9 982 93 10000 3.6 200 19:48 02.02.2021
3004 Clouds 9 982 93 10000 2.06 160 19:30 02.02.2021
3005 Clouds 9 982 93 10000 2.06 160 19:30 02.02.2021
3006 Clouds 9 982 93 10000 2.06 160 19:30 02.02.2021
3007 Clouds 10 982 87 10000 2.06 130 18:46 02.02.2021
3008 Clouds 10 982 93 10000 2.57 150 18:26 02.02.2021
3009 Clouds 10 982 93 10000 2.57 150 18:26 02.02.2021
3010 Clouds 10 982 93 10000 2.57 140 17:52 02.02.2021
3011 Clouds 10 982 100 10000 2.06 140 17:24 02.02.2021
3012 Clouds 10 982 100 10000 2.06 140 16:58 02.02.2021
3013 Clouds 10 982 93 8000 3.6 140 16:38 02.02.2021
3014 Clouds 10 983 93 8000 4.12 140 16:18 02.02.2021
3015 Clouds 10 983 93 8000 4.12 140 15:42 02.02.2021
3016 Clouds 10 983 93 7000 3.6 130 15:21 02.02.2021
3017 Clouds 10 984 93 6000 3.6 130 14:41 02.02.2021
3018 Rain 9 984 93 6000 3.6 130 14:20 02.02.2021
3019 Rain 10 984 93 10000 2.57 110 13:54 02.02.2021
3020 Rain 10 985 93 10000 2.06 140 13:36 02.02.2021
3021 Clouds 10 985 93 10000 2.06 130 13:18 02.02.2021
3022 Clouds 10 986 93 10000 2.57 140 12:31 02.02.2021
3023 Clouds 9 986 100 10000 2.06 140 11:44 02.02.2021
3024 Clouds 8 986 100 10000 1.54 0 11:22 02.02.2021
3025 Rain 8 986 100 10000 1.03 0 10:55 02.02.2021
3026 Rain 8 987 93 10000 1.54 0 10:27 02.02.2021
3027 Fog 7 986 100 500 2.06 90 09:46 02.02.2021
3028 Mist 7 986 93 2000 1.54 80 09:25 02.02.2021
3029 Drizzle 6 986 93 1700 1.54 90 08:48 02.02.2021
3030 Mist 6 986 93 3000 2.57 100 08:22 02.02.2021
3031 Clouds 6 986 93 4000 5.14 80 07:28 02.02.2021
3032 Clouds 6 986 93 4000 5.14 90 06:42 02.02.2021
3033 Clouds 6 986 100 5000 4.63 100 05:52 02.02.2021
3034 Clouds 6 987 100 9000 5.66 110 04:37 02.02.2021
3035 Clouds 6 988 100 6000 6.17 110 02:25 02.02.2021
3036 Rain 6 989 93 6000 6.17 120 01:46 02.02.2021
3037 Rain 6 989 93 10000 6.69 110 00:34 02.02.2021
3038 Rain 6 991 87 10000 6.69 110 23:19 01.02.2021
3039 Rain 6 992 100 7000 7.72 130 22:43 01.02.2021
3040 Rain 6 992 100 10000 6.69 130 22:24 01.02.2021
3041 Clouds 6 993 93 10000 5.66 130 21:48 01.02.2021
3042 Drizzle 6 993 93 10000 5.66 140 21:27 01.02.2021
3043 Drizzle 6 994 87 10000 6.69 140 20:47 01.02.2021
3044 Clouds 6 994 93 10000 7.2 150 20:25 01.02.2021
3045 Drizzle 6 994 100 10000 6.17 140 19:55 01.02.2021
3046 Clouds 6 995 100 10000 6.17 140 19:37 01.02.2021
3047 Clouds 6 995 100 10000 6.17 140 19:18 01.02.2021
3048 Clouds 6 995 93 10000 6.17 140 18:41 01.02.2021
3049 Drizzle 6 995 93 6000 5.14 140 18:22 01.02.2021
3050 Drizzle 6 995 93 6000 5.14 140 17:45 01.02.2021
3051 Clouds 6 996 93 10000 5.14 140 17:22 01.02.2021
3052 Clouds 6 996 87 10000 5.14 140 16:42 01.02.2021
3053 Clouds 6 996 87 10000 5.14 140 16:42 01.02.2021
3054 Clouds 6 996 87 10000 5.14 140 16:22 01.02.2021
3055 Drizzle 6 996 87 10000 5.14 150 15:41 01.02.2021
3056 Clouds 6 996 87 10000 4.63 150 15:19 01.02.2021
3057 Clouds 6 996 87 10000 4.63 150 14:51 01.02.2021
3058 Clouds 6 997 87 10000 4.12 160 14:23 01.02.2021
3059 Clouds 6 997 81 10000 3.09 140 13:44 01.02.2021
3060 Clouds 6 997 81 10000 4.12 170 13:25 01.02.2021
3061 Clouds 6 996 81 10000 3.6 140 12:44 01.02.2021
3062 Clouds 5 996 87 10000 3.6 110 12:25 01.02.2021
3063 Clouds 5 996 87 10000 2.57 130 11:43 01.02.2021
3064 Clouds 5 996 100 10000 1.54 0 11:21 01.02.2021
3065 Clouds 4 996 93 10000 2.57 90 10:47 01.02.2021
3066 Clouds 4 995 93 10000 1.03 0 10:21 01.02.2021
3067 Clouds 4 995 100 10000 1.54 80 09:51 01.02.2021
3068 Clouds 3 995 93 10000 0.51 0 09:25 01.02.2021
3069 Clouds 3 994 100 10000 2.06 60 08:56 01.02.2021
3070 Clouds 3 994 100 10000 2.06 70 08:24 01.02.2021
3071 Mist 4 993 100 5000 1.54 0 06:58 01.02.2021
3072 Clouds 4 992 93 10000 1.54 0 04:32 01.02.2021
3073 Clouds 4 991 93 10000 3.09 140 02:39 01.02.2021
3074 Clouds 3 991 100 10000 4.12 120 23:57 31.01.2021
3075 Clouds 3 990 100 10000 4.12 130 22:56 31.01.2021
3076 Clouds 3 990 100 6000 4.63 140 22:37 31.01.2021
3077 Clouds 3 990 100 6000 4.12 130 22:18 31.01.2021
3078 Clouds 3 990 100 6000 4.12 130 21:46 31.01.2021
3079 Clouds 3 990 100 6000 5.14 130 21:19 31.01.2021
3080 Clouds 3 990 100 7000 4.63 130 20:42 31.01.2021
3081 Clouds 3 990 100 10000 5.66 130 20:20 31.01.2021
3082 Clouds 3 990 100 10000 5.14 130 19:38 31.01.2021
3083 Clouds 3 990 100 10000 5.14 130 19:19 31.01.2021
3084 Clouds 3 989 100 10000 5.66 120 18:47 31.01.2021
3085 Clouds 3 990 93 10000 6.17 120 18:25 31.01.2021
3086 Clouds 3 990 93 10000 7.2 110 17:57 31.01.2021
3087 Clouds 3 990 93 10000 6.69 120 17:38 31.01.2021
3088 Clouds 3 990 93 10000 6.69 120 17:19 31.01.2021
3089 Clouds 3 990 93 10000 6.69 120 17:19 31.01.2021
3090 Clouds 3 991 93 7000 6.69 120 16:41 31.01.2021
3091 Clouds 3 991 93 10000 6.17 120 16:20 31.01.2021
3092 Clouds 3 991 93 10000 6.17 120 15:48 31.01.2021
3093 Rain 3 992 100 10000 6.69 120 15:18 31.01.2021
3094 Rain 2 993 93 10000 8.23 130 14:36 31.01.2021
3095 Rain 2 993 93 10000 8.23 130 14:36 31.01.2021
3096 Rain 2 993 93 10000 8.23 130 14:18 31.01.2021
3097 Rain 2 994 93 8000 7.72 130 13:39 31.01.2021
3098 Rain 2 994 93 8000 7.72 130 13:18 31.01.2021
3099 Rain 2 995 93 8000 7.2 140 12:45 31.01.2021
3100 Rain 2 995 93 10000 7.2 140 12:20 31.01.2021
3101 Rain 2 996 93 10000 7.2 140 11:39 31.01.2021
3102 Rain 2 996 93 10000 7.2 140 11:20 31.01.2021
3103 Rain 2 996 93 10000 6.17 140 10:45 31.01.2021
3104 Rain 2 997 93 10000 6.69 140 10:26 31.01.2021
3105 Rain 3 998 81 10000 7.2 130 09:39 31.01.2021
3106 Rain 4 998 70 10000 6.17 140 08:52 31.01.2021
3107 Rain 4 998 70 10000 6.17 130 08:30 31.01.2021
3108 Clouds 4 1000 65 10000 5.14 140 06:45 31.01.2021
3109 Clouds 3 1002 75 10000 5.14 110 03:46 31.01.2021
3110 Clouds 4 1003 75 10000 7.72 100 00:28 31.01.2021
3111 Clouds 4 1004 75 10000 8.23 100 23:52 30.01.2021
3112 Clouds 4 1004 75 10000 8.75 100 23:24 30.01.2021
3113 Clouds 4 1004 75 10000 9.26 90 22:40 30.01.2021
3114 Clouds 4 1004 75 10000 9.26 90 22:22 30.01.2021
3115 Clouds 4 1003 75 10000 10.29 80 21:39 30.01.2021
3116 Clouds 4 1003 75 10000 10.29 80 21:18 30.01.2021
3117 Clouds 4 1002 75 10000 11.83 80 20:39 30.01.2021
3118 Clouds 4 1002 75 10000 10.8 70 19:59 30.01.2021
3119 Clouds 4 1001 75 10000 10.8 70 19:40 30.01.2021
3120 Clouds 4 1001 75 10000 10.8 70 19:19 30.01.2021
3121 Clouds 4 1000 81 10000 11.32 80 18:40 30.01.2021
3122 Clouds 4 1000 81 10000 11.32 80 18:20 30.01.2021
3123 Clouds 4 1000 81 10000 12.35 80 17:45 30.01.2021
3124 Clouds 4 999 81 10000 12.86 80 17:19 30.01.2021
3125 Clouds 4 998 87 10000 12.86 70 16:41 30.01.2021
3126 Clouds 4 998 87 10000 12.35 80 16:22 30.01.2021
3127 Clouds 4 998 87 10000 12.35 80 15:49 30.01.2021
3128 Clouds 4 997 87 8000 12.86 80 15:24 30.01.2021
3129 Clouds 4 997 93 8000 13.89 80 14:52 30.01.2021
3130 Clouds 4 996 93 7000 13.89 80 14:32 30.01.2021
3131 Clouds 4 996 93 8000 13.89 80 13:57 30.01.2021
3132 Clouds 4 995 93 7000 13.38 80 13:21 30.01.2021
3133 Clouds 4 995 93 7000 13.38 80 12:44 30.01.2021
3134 Clouds 4 995 93 8000 13.89 80 12:26 30.01.2021
3135 Rain 4 994 93 6000 13.38 80 11:46 30.01.2021
3136 Rain 4 993 93 6000 12.86 80 10:56 30.01.2021
3137 Rain 4 993 93 7000 12.35 80 10:27 30.01.2021
3138 Rain 5 992 93 5000 11.83 90 09:41 30.01.2021
3139 Rain 5 992 93 5000 11.83 90 09:22 30.01.2021
3140 Rain 5 992 93 7000 12.35 90 08:44 30.01.2021
3141 Rain 5 992 93 6000 10.8 90 07:41 30.01.2021
3142 Rain 6 992 100 6000 10.8 90 06:25 30.01.2021
3143 Rain 6 994 93 6000 9.77 90 03:46 30.01.2021
3144 Rain 6 995 87 10000 9.77 90 02:52 30.01.2021
3145 Rain 6 996 93 10000 9.26 90 02:21 30.01.2021
3146 Clouds 6 997 93 10000 7.2 90 00:53 30.01.2021
3147 Clouds 6 998 93 10000 7.72 90 00:21 30.01.2021
3148 Clouds 6 998 93 10000 7.2 90 23:50 29.01.2021
3149 Drizzle 6 999 93 6000 7.2 90 23:27 29.01.2021
3150 Drizzle 6 999 93 10000 5.14 80 22:45 29.01.2021
3151 Drizzle 6 1000 93 10000 4.63 80 22:25 29.01.2021
3152 Clouds 6 1000 93 10000 4.63 70 21:45 29.01.2021
3153 Drizzle 6 1000 93 10000 5.14 70 21:26 29.01.2021
3154 Drizzle 7 1000 93 10000 4.12 80 20:43 29.01.2021
3155 Clouds 7 1000 93 8000 4.63 70 20:21 29.01.2021
3156 Clouds 7 1001 93 10000 4.12 40 19:39 29.01.2021
3157 Clouds 7 1001 93 10000 4.12 40 19:20 29.01.2021
3158 Clouds 8 1001 93 6000 4.12 30 18:49 29.01.2021
3159 Clouds 9 1000 87 10000 3.09 270 17:47 29.01.2021
3160 Clouds 9 1000 81 10000 5.14 290 17:22 29.01.2021
3161 Clouds 9 1000 81 10000 5.14 290 16:49 29.01.2021
3162 Clouds 9 1000 87 10000 5.66 290 16:24 29.01.2021
3163 Clouds 9 1000 87 10000 5.66 290 16:24 29.01.2021
3164 Clouds 9 1000 87 10000 5.66 290 16:24 29.01.2021
3165 Clouds 10 1000 81 10000 7.2 290 15:55 29.01.2021
3166 Clouds 9 1000 87 10000 6.17 300 15:36 29.01.2021
3167 Clouds 9 999 87 10000 7.72 290 15:18 29.01.2021
3168 Clouds 9 999 87 10000 8.75 280 14:22 29.01.2021
3169 Clouds 9 999 93 6000 9.77 290 13:46 29.01.2021
3170 Clouds 9 999 93 4000 10.29 280 13:27 29.01.2021
3171 Clouds 8 997 93 3500 9.26 270 12:36 29.01.2021
3172 Clouds 8 997 93 9000 10.29 270 12:18 29.01.2021
3173 Clouds 8 996 93 7000 8.75 270 11:41 29.01.2021
3174 Clouds 9 996 93 7000 8.75 270 11:18 29.01.2021
3175 Clouds 8 995 100 6000 6.17 250 10:42 29.01.2021
3176 Clouds 8 995 100 6000 6.17 250 10:19 29.01.2021
3177 Clouds 7 994 93 10000 4.63 250 09:37 29.01.2021
3178 Rain 7 994 93 10000 5.14 260 08:50 29.01.2021
3179 Clouds 7 994 93 10000 6.69 270 08:26 29.01.2021
3180 Clouds 7 993 93 10000 5.14 260 07:47 29.01.2021
3181 Clouds 7 993 93 10000 4.63 260 07:26 29.01.2021
3182 Clouds 7 993 93 10000 4.63 260 07:26 29.01.2021
3183 Clouds 8 992 93 10000 4.63 270 06:48 29.01.2021
3184 Clouds 7 991 87 10000 1.54 220 04:53 29.01.2021
3185 Clouds 9 992 87 10000 2.57 220 00:52 29.01.2021
3186 Clouds 9 992 87 10000 3.6 230 00:23 29.01.2021
3187 Clouds 9 992 81 10000 4.12 230 23:57 28.01.2021
3188 Clouds 9 992 87 10000 4.63 240 23:39 28.01.2021
3189 Clouds 9 992 87 10000 4.12 250 23:20 28.01.2021
3190 Clouds 10 992 81 10000 5.66 250 22:41 28.01.2021
3191 Clouds 10 992 87 10000 3.6 240 22:22 28.01.2021
3192 Clouds 10 992 87 10000 3.6 240 21:44 28.01.2021
3193 Clouds 11 992 87 10000 4.12 240 21:26 28.01.2021
3194 Clouds 11 992 93 10000 4.63 230 20:46 28.01.2021
3195 Clouds 11 992 87 10000 5.14 230 20:19 28.01.2021
3196 Clouds 11 992 87 10000 5.14 230 20:19 28.01.2021
3197 Clouds 11 992 87 10000 5.14 230 20:19 28.01.2021
3198 Clouds 12 992 87 10000 5.14 210 19:54 28.01.2021
3199 Clouds 12 992 87 10000 5.14 210 19:32 28.01.2021
3200 Clouds 12 993 87 10000 4.63 200 18:53 28.01.2021
3201 Clouds 11 993 87 10000 3.09 170 18:34 28.01.2021
3202 Clouds 11 994 87 10000 2.06 140 17:58 28.01.2021
3203 Clouds 11 995 87 10000 3.6 180 17:40 28.01.2021
3204 Clouds 11 995 87 10000 3.6 180 17:21 28.01.2021
3205 Rain 11 995 87 10000 3.09 190 16:43 28.01.2021
3206 Rain 12 996 87 10000 4.12 200 16:21 28.01.2021
3207 Clouds 12 997 76 10000 4.63 210 15:36 28.01.2021
3208 Clouds 12 997 82 10000 3.6 200 14:55 28.01.2021
3209 Clouds 12 998 81 10000 4.63 200 14:37 28.01.2021
3210 Rain 11 998 81 10000 3.09 210 14:18 28.01.2021
3211 Rain 10 999 81 10000 2.57 190 13:39 28.01.2021
3212 Clouds 10 999 81 10000 3.09 200 12:51 28.01.2021
3213 Clouds 10 999 81 10000 3.6 220 12:33 28.01.2021
3214 Clouds 10 999 87 10000 4.12 210 11:58 28.01.2021
3215 Clouds 10 999 81 10000 3.6 220 11:39 28.01.2021
3216 Clouds 10 999 81 10000 3.6 220 11:18 28.01.2021
3217 Clouds 10 998 81 10000 4.12 230 10:49 28.01.2021
3218 Clouds 10 997 81 10000 5.66 250 10:26 28.01.2021
3219 Clouds 10 997 87 10000 5.66 250 09:42 28.01.2021
3220 Clouds 10 997 87 10000 5.66 250 09:20 28.01.2021
3221 Clouds 10 997 87 10000 5.66 250 08:46 28.01.2021
3222 Clouds 10 996 87 10000 5.66 250 07:51 28.01.2021
3223 Clouds 10 996 87 10000 5.14 250 07:22 28.01.2021
3224 Clouds 10 997 87 10000 6.69 250 06:48 28.01.2021
3225 Clouds 11 996 93 10000 4.12 230 04:31 28.01.2021
3226 Rain 11 997 93 8000 2.57 230 02:46 28.01.2021
3227 Clouds 8 1000 100 4000 3.09 140 00:50 28.01.2021
3228 Clouds 8 1002 100 5000 5.14 130 23:41 27.01.2021
3229 Clouds 8 1002 100 5000 5.14 130 23:22 27.01.2021
3230 Clouds 8 1003 100 5000 4.63 120 22:40 27.01.2021
3231 Rain 8 1003 100 5000 4.63 120 22:19 27.01.2021
3232 Rain 8 1003 100 5000 4.63 120 22:19 27.01.2021
3233 Rain 8 1004 100 2000 4.12 130 21:42 27.01.2021
3234 Rain 8 1005 100 1500 4.12 130 21:22 27.01.2021
3235 Rain 8 1005 100 1500 4.12 130 20:42 27.01.2021
3236 Clouds 8 1005 100 1500 4.12 140 20:18 27.01.2021
3237 Rain 9 1006 100 800 3.6 130 19:41 27.01.2021
3238 Rain 9 1006 100 800 3.6 130 19:41 27.01.2021
3239 Rain 9 1007 100 800 3.09 130 19:21 27.01.2021
3240 Rain 9 1007 100 800 2.57 120 18:43 27.01.2021
3241 Rain 9 1007 100 800 2.57 120 18:23 27.01.2021
3242 Rain 9 1008 93 8000 2.06 110 17:47 27.01.2021
3243 Rain 10 1008 93 8000 2.06 110 17:28 27.01.2021
3244 Rain 10 1008 93 8000 2.06 110 16:49 27.01.2021
3245 Clouds 11 1008 93 8000 1.03 0 16:28 27.01.2021
3246 Mist 11 1008 87 4000 1.03 0 15:52 27.01.2021
3247 Clouds 11 1009 87 10000 1.54 0 15:33 27.01.2021
3248 Clouds 11 1009 82 10000 2.57 150 14:47 27.01.2021
3249 Clouds 11 1009 87 10000 2.06 140 14:23 27.01.2021
3250 Clouds 11 1009 87 10000 2.06 150 13:48 27.01.2021
3251 Clouds 10 1010 93 10000 1.03 0 13:26 27.01.2021
3252 Clouds 10 1010 93 10000 2.06 100 12:41 27.01.2021
3253 Clouds 10 1010 93 10000 2.06 100 12:22 27.01.2021
3254 Clouds 9 1010 93 10000 1.03 0 11:46 27.01.2021
3255 Clouds 9 1010 93 10000 1.03 0 11:22 27.01.2021
3256 Clouds 9 1010 93 10000 2.06 200 10:41 27.01.2021
3257 Clouds 8 1010 93 10000 2.06 200 10:21 27.01.2021
3258 Clouds 8 1010 93 10000 2.57 210 09:49 27.01.2021
3259 Clouds 9 1009 93 10000 2.57 230 08:59 27.01.2021
3260 Clouds 9 1009 87 10000 2.57 240 08:32 27.01.2021
3261 Clouds 9 1009 87 10000 3.09 250 07:43 27.01.2021
3262 Clouds 9 1009 87 10000 3.09 260 07:19 27.01.2021
3263 Clouds 9 1009 87 10000 2.57 260 06:19 27.01.2021
3264 Clouds 9 1009 87 10000 2.57 260 05:44 27.01.2021
3265 Rain 8 1009 100 10000 3.6 230 03:35 27.01.2021
3266 Clouds 9 1009 93 10000 2.57 240 02:23 27.01.2021
3267 Clouds 9 1009 87 10000 3.09 250 01:50 27.01.2021
3268 Clouds 9 1009 93 10000 4.12 230 00:34 27.01.2021
3269 Clouds 9 1009 93 10000 4.12 250 23:49 26.01.2021
3270 Clouds 9 1008 93 10000 4.12 250 23:30 26.01.2021
3271 Rain 9 1008 93 10000 4.12 250 22:51 26.01.2021
3272 Clouds 9 1008 93 10000 4.63 260 22:24 26.01.2021
3273 Rain 9 1008 93 10000 4.63 250 21:54 26.01.2021
3274 Clouds 10 1007 93 10000 5.14 260 21:34 26.01.2021
3275 Clouds 10 1007 87 10000 5.14 250 20:58 26.01.2021
3276 Clouds 10 1007 93 10000 7.2 270 20:40 26.01.2021
3277 Clouds 10 1007 93 10000 7.2 270 20:21 26.01.2021
3278 Drizzle 10 1006 100 10000 5.14 250 19:45 26.01.2021
3279 Drizzle 10 1006 100 10000 6.69 270 19:22 26.01.2021
3280 Clouds 10 1006 100 6000 7.2 270 18:48 26.01.2021
3281 Drizzle 10 1006 93 10000 7.72 270 18:27 26.01.2021
3282 Drizzle 10 1006 93 10000 7.72 270 18:27 26.01.2021
3283 Drizzle 10 1006 93 10000 5.14 260 17:55 26.01.2021
3284 Drizzle 10 1005 93 10000 5.66 250 17:37 26.01.2021
3285 Drizzle 10 1005 93 10000 5.14 250 16:56 26.01.2021
3286 Clouds 10 1005 93 4000 4.63 250 16:37 26.01.2021
3287 Clouds 10 1005 93 4000 4.63 250 16:19 26.01.2021
3288 Clouds 10 1005 93 10000 4.63 240 15:44 26.01.2021
3289 Clouds 10 1005 93 10000 5.14 230 15:24 26.01.2021
3290 Clouds 10 1005 81 10000 2.57 190 14:45 26.01.2021
3291 Clouds 10 1005 87 10000 2.06 160 14:25 26.01.2021
3292 Clouds 10 1005 81 10000 3.09 150 13:35 26.01.2021
3293 Clouds 8 1005 81 10000 4.12 150 12:59 26.01.2021
3294 Clouds 8 1005 81 10000 4.12 150 12:59 26.01.2021
3295 Clouds 9 1006 87 10000 4.12 160 12:40 26.01.2021
3296 Clouds 8 1006 87 10000 4.12 160 12:22 26.01.2021
3297 Clouds 7 1006 93 10000 4.63 140 11:51 26.01.2021
3298 Clouds 6 1007 100 10000 4.63 140 11:25 26.01.2021
3299 Clouds 6 1008 93 4500 3.6 150 10:42 26.01.2021
3300 Clouds 6 1008 93 6000 5.66 160 10:22 26.01.2021
3301 Clouds 5 1006 87 10000 3.09 100 09:40 26.01.2021
3302 Clouds 5 1008 93 10000 5.14 140 09:22 26.01.2021
3303 Clouds 4 1009 93 10000 4.63 150 08:49 26.01.2021
3304 Clouds 4 1009 93 10000 4.12 150 08:18 26.01.2021
3305 Rain 4 1010 87 10000 4.12 150 07:19 26.01.2021
3306 Rain 4 1011 87 10000 5.66 190 05:53 26.01.2021
3307 Rain 4 1011 87 10000 2.06 140 05:34 26.01.2021
3308 Rain 4 1013 81 10000 3.09 220 03:42 26.01.2021
3309 Rain 4 1013 80 10000 2.57 210 01:35 26.01.2021
3310 Clouds 2 1013 80 10000 2.06 200 00:36 26.01.2021
3311 Rain 2 1013 80 10000 1.54 0 23:33 25.01.2021
3312 Clouds 2 1013 75 10000 2.57 180 22:51 25.01.2021
3313 Clouds 2 1013 80 10000 2.57 200 22:33 25.01.2021
3314 Clouds 2 1013 80 10000 2.06 210 21:48 25.01.2021
3315 Clouds 2 1013 75 10000 2.57 210 21:22 25.01.2021
3316 Clouds 2 1013 75 10000 2.57 210 20:45 25.01.2021
3317 Clouds 2 1013 80 10000 2.06 230 20:27 25.01.2021
3318 Clouds 2 1012 80 10000 2.57 230 19:49 25.01.2021
3319 Clouds 2 1012 80 10000 3.09 220 19:24 25.01.2021
3320 Clouds 2 1012 87 10000 2.57 230 18:47 25.01.2021
3321 Clouds 3 1012 75 10000 2.57 240 18:25 25.01.2021
3322 Clouds 3 1012 75 10000 3.09 240 17:49 25.01.2021
3323 Clouds 4 1011 75 10000 3.6 240 17:26 25.01.2021
3324 Clouds 4 1011 75 10000 3.6 240 16:57 25.01.2021
3325 Clouds 4 1011 81 10000 3.6 230 16:39 25.01.2021
3326 Clouds 4 1011 75 10000 3.09 240 16:20 25.01.2021
3327 Clouds 4 1012 75 10000 3.09 240 15:41 25.01.2021
3328 Clouds 4 1012 75 10000 3.09 240 15:21 25.01.2021
3329 Clouds 4 1012 75 10000 3.09 240 14:39 25.01.2021
3330 Clouds 4 1011 75 10000 5.66 230 14:18 25.01.2021
3331 Clouds 3 1011 75 10000 3.6 240 13:44 25.01.2021
3332 Clouds 3 1011 75 10000 3.6 240 13:44 25.01.2021
3333 Clouds 3 1011 75 10000 3.09 240 13:22 25.01.2021
3334 Clouds 4 1011 75 10000 3.09 240 12:44 25.01.2021
3335 Clear 3 1010 80 10000 3.6 240 12:19 25.01.2021
3336 Clouds 2 1010 80 10000 3.09 240 11:31 25.01.2021
3337 Clouds 1 1010 86 10000 3.09 240 10:53 25.01.2021
3338 Clouds 0 1010 86 10000 3.09 240 10:22 25.01.2021
3339 Clouds 0 1009 86 10000 4.12 250 09:54 25.01.2021
3340 Clouds 0 1009 86 10000 4.12 250 09:31 25.01.2021
3341 Clear 0 1009 86 10000 4.63 250 08:48 25.01.2021
3342 Clear 0 1008 86 10000 5.14 250 08:23 25.01.2021
3343 Clear 0 1008 86 10000 4.63 250 07:29 25.01.2021
3344 Clear -1 1007 86 10000 4.63 260 06:39 25.01.2021
3345 Clouds -1 1006 93 10000 4.12 250 02:56 25.01.2021
3346 Clouds -1 1005 93 10000 4.12 250 00:45 25.01.2021
3347 Clouds -1 1004 93 10000 3.6 250 23:39 24.01.2021
3348 Clouds -1 1004 93 10000 3.6 250 23:18 24.01.2021
3349 Clouds -1 1003 100 10000 3.09 260 22:40 24.01.2021
3350 Clouds -1 1003 100 10000 3.09 260 22:18 24.01.2021
3351 Clouds -1 1003 100 10000 3.6 290 21:37 24.01.2021
3352 Clouds -1 1002 93 10000 4.12 300 21:19 24.01.2021
3353 Clouds 0 1002 93 10000 4.12 310 20:41 24.01.2021
3354 Clouds 0 1002 93 10000 4.12 310 20:19 24.01.2021
3355 Clouds 0 1002 93 10000 4.12 310 20:19 24.01.2021
3356 Clouds 0 1002 93 10000 5.14 310 19:48 24.01.2021
3357 Clouds 0 1001 93 10000 4.63 320 19:25 24.01.2021
3358 Clouds 1 1001 100 10000 4.12 320 18:56 24.01.2021
3359 Clouds 1 1001 100 10000 4.12 320 18:56 24.01.2021
3360 Clouds 1 1000 93 10000 4.12 310 18:37 24.01.2021
3361 Clouds 1 1000 93 10000 4.12 310 18:18 24.01.2021
3362 Clouds 1 1000 93 10000 4.12 310 17:45 24.01.2021
3363 Clouds 2 999 93 10000 4.12 340 17:20 24.01.2021
3364 Clouds 2 998 93 10000 4.63 320 16:42 24.01.2021
3365 Snow 1 998 93 9000 4.63 310 16:21 24.01.2021
3366 Clouds 1 998 93 9000 4.63 310 15:48 24.01.2021
3367 Snow 1 997 93 3000 5.14 320 15:21 24.01.2021
3368 Clouds 1 997 93 10000 5.14 310 14:57 24.01.2021
3369 Snow 1 997 93 10000 5.14 300 14:34 24.01.2021
3370 Snow 1 996 100 5000 5.14 290 13:40 24.01.2021
3371 Snow 1 996 100 5000 5.14 290 13:18 24.01.2021
3372 Snow 1 996 93 6000 4.12 300 12:40 24.01.2021
3373 Snow 0 996 93 6000 4.12 300 12:19 24.01.2021
3374 Snow 0 995 100 4000 2.06 310 11:46 24.01.2021
3375 Snow 0 995 100 1600 2.57 310 11:23 24.01.2021
3376 Snow 0 994 93 8000 2.57 300 10:42 24.01.2021
3377 Fog 0 994 100 1000 3.6 310 09:57 24.01.2021
3378 Clouds 0 994 100 8000 4.12 300 09:22 24.01.2021
3379 Clouds 0 993 100 8000 3.09 300 08:52 24.01.2021
3380 Clouds 0 993 100 10000 2.57 300 07:22 24.01.2021
3381 Snow 1 994 93 9000 2.57 100 02:34 24.01.2021
3382 Snow 1 995 60 10000 2.06 320 00:59 24.01.2021
3383 Rain 2 996 64 10000 3.09 200 00:24 24.01.2021
3384 Snow 1 996 75 10000 2.57 180 23:47 23.01.2021
3385 Snow 1 996 93 10000 2.06 150 23:24 23.01.2021
3386 Snow 0 996 86 10000 2.06 110 22:42 23.01.2021
3387 Clouds 0 996 86 10000 2.06 110 22:21 23.01.2021
3388 Snow 1 996 75 10000 1.03 0 21:48 23.01.2021
3389 Clouds 1 996 80 10000 1.54 200 21:21 23.01.2021
3390 Clouds 1 996 80 10000 1.54 180 20:43 23.01.2021
3391 Clouds 1 996 80 10000 1.54 190 20:21 23.01.2021
3392 Clouds 0 996 86 10000 2.06 210 19:46 23.01.2021
3393 Clouds 0 996 86 10000 2.06 210 19:46 23.01.2021
3394 Clear 0 997 80 10000 2.57 220 19:21 23.01.2021
3395 Clear 1 996 80 10000 1.54 0 18:46 23.01.2021
3396 Clouds 1 997 86 10000 1.54 0 18:24 23.01.2021
3397 Clouds 1 997 80 10000 1.03 0 17:45 23.01.2021
3398 Clouds 2 996 75 10000 2.06 260 17:26 23.01.2021
3399 Clouds 3 997 75 10000 4.12 280 16:47 23.01.2021
3400 Clouds 3 997 70 10000 5.14 280 16:25 23.01.2021
3401 Clouds 3 997 80 10000 4.12 280 15:40 23.01.2021
3402 Clouds 3 997 80 10000 4.12 280 15:20 23.01.2021
3403 Clouds 3 997 80 10000 6.69 280 14:31 23.01.2021
3404 Clouds 3 997 80 10000 6.69 270 13:52 23.01.2021
3405 Clouds 3 997 80 10000 6.17 260 13:34 23.01.2021
3406 Clouds 2 996 80 10000 4.12 260 12:49 23.01.2021
3407 Clouds 2 997 80 10000 3.09 250 12:27 23.01.2021
3408 Clouds 1 996 86 10000 4.12 250 11:45 23.01.2021
3409 Clouds 1 996 86 10000 4.12 250 11:24 23.01.2021
3410 Clouds 0 996 93 10000 4.63 260 10:46 23.01.2021
3411 Clouds 0 996 93 10000 5.14 260 10:18 23.01.2021
3412 Clouds -1 996 93 10000 4.12 250 09:44 23.01.2021
3413 Clouds -1 995 93 8000 5.14 260 08:54 23.01.2021
3414 Mist -1 995 93 3500 6.17 270 08:30 23.01.2021
3415 Clouds -1 995 93 9000 5.14 270 07:25 23.01.2021
3416 Clouds 0 994 100 9000 6.17 280 03:36 23.01.2021
3417 Clouds 1 994 100 10000 4.63 270 00:41 23.01.2021
3418 Clouds 1 993 93 10000 4.63 260 23:39 22.01.2021
3419 Clouds 2 993 93 10000 4.12 260 22:53 22.01.2021
3420 Clouds 2 993 93 10000 5.14 270 22:32 22.01.2021
3421 Clouds 1 993 93 10000 4.63 270 21:46 22.01.2021
3422 Clouds 1 993 93 10000 4.63 270 21:46 22.01.2021
3423 Clouds 1 993 86 10000 4.12 270 21:26 22.01.2021
3424 Clouds 2 993 93 10000 4.12 270 20:56 22.01.2021
3425 Clouds 2 993 93 10000 4.12 260 20:37 22.01.2021
3426 Clouds 2 993 87 10000 4.12 270 19:55 22.01.2021
3427 Clouds 3 993 93 10000 5.66 270 19:22 22.01.2021
3428 Clouds 3 992 87 10000 3.6 270 18:55 22.01.2021
3429 Clouds 3 992 87 10000 3.6 270 18:55 22.01.2021
3430 Clouds 3 992 81 10000 4.63 270 18:30 22.01.2021
3431 Clouds 3 992 81 10000 4.63 280 17:58 22.01.2021
3432 Clouds 3 992 81 10000 4.63 280 17:40 22.01.2021
3433 Clouds 3 991 81 10000 5.66 270 16:59 22.01.2021
3434 Clouds 4 991 81 10000 5.66 270 16:36 22.01.2021
3435 Clouds 4 991 81 10000 5.14 270 15:59 22.01.2021
3436 Clouds 4 991 81 10000 5.14 270 15:26 22.01.2021
3437 Clouds 4 991 81 10000 5.14 260 14:50 22.01.2021
3438 Clouds 4 991 87 10000 3.09 250 14:28 22.01.2021
3439 Clouds 3 992 93 10000 3.6 250 13:46 22.01.2021
3440 Clouds 3 991 93 10000 4.63 250 13:27 22.01.2021
3441 Clouds 3 991 93 10000 3.6 250 12:42 22.01.2021
3442 Clouds 2 992 93 10000 5.14 230 12:19 22.01.2021
3443 Clouds 2 991 93 10000 3.6 250 11:42 22.01.2021
3444 Clouds 2 991 100 10000 4.12 250 10:49 22.01.2021
3445 Clouds 2 990 93 10000 4.12 260 10:29 22.01.2021
3446 Clouds 2 990 93 10000 3.6 250 09:46 22.01.2021
3447 Clouds 2 990 93 10000 4.12 250 08:59 22.01.2021
3448 Clouds 2 990 93 10000 6.17 250 08:32 22.01.2021
3449 Clouds 2 989 93 10000 4.12 250 08:00 22.01.2021
3450 Clouds 2 989 86 10000 4.12 240 06:24 22.01.2021
3451 Clouds 1 988 100 10000 5.66 270 02:29 22.01.2021
3452 Clouds 2 987 93 10000 4.12 250 00:30 22.01.2021
3453 Clouds 2 986 93 10000 4.12 250 23:50 21.01.2021
3454 Clouds 2 986 93 10000 5.66 260 23:21 21.01.2021
3455 Clouds 2 986 93 10000 5.66 260 22:48 21.01.2021
3456 Clouds 3 986 93 10000 4.12 250 21:59 21.01.2021
3457 Clouds 3 986 93 10000 5.66 270 21:40 21.01.2021
3458 Clouds 3 986 93 10000 5.66 270 21:19 21.01.2021
3459 Clouds 3 985 87 10000 5.66 270 20:46 21.01.2021
3460 Clouds 3 985 87 10000 6.17 270 20:21 21.01.2021
3461 Clouds 3 985 87 10000 6.17 270 19:50 21.01.2021
3462 Clouds 4 984 87 10000 6.69 270 19:26 21.01.2021
3463 Clouds 4 984 87 10000 5.66 260 18:49 21.01.2021
3464 Clouds 4 984 87 10000 5.66 260 18:23 21.01.2021
3465 Clouds 4 983 87 10000 5.14 260 17:59 21.01.2021
3466 Clouds 5 983 81 10000 5.66 270 17:40 21.01.2021
3467 Clouds 5 983 81 10000 5.66 270 17:18 21.01.2021
3468 Clouds 6 983 75 10000 4.63 260 16:41 21.01.2021
3469 Clouds 6 983 75 10000 4.63 260 16:22 21.01.2021
3470 Clouds 5 983 81 10000 6.17 260 15:48 21.01.2021
3471 Clouds 6 983 81 10000 5.66 250 15:28 21.01.2021
3472 Clouds 6 983 87 10000 6.17 260 14:47 21.01.2021
3473 Clouds 5 982 87 10000 5.66 260 14:25 21.01.2021
3474 Clouds 5 982 87 10000 5.14 270 13:46 21.01.2021
3475 Clouds 5 982 87 10000 7.2 270 13:26 21.01.2021
3476 Clouds 4 981 87 10000 8.23 270 12:45 21.01.2021
3477 Clouds 4 981 93 10000 8.23 270 12:25 21.01.2021
3478 Clouds 3 981 87 10000 9.26 270 11:53 21.01.2021
3479 Clouds 4 981 87 10000 10.29 270 11:32 21.01.2021
3480 Clouds 3 980 87 10000 10.29 270 10:53 21.01.2021
3481 Clouds 3 980 93 10000 7.72 250 10:34 21.01.2021
3482 Clouds 3 980 87 10000 8.23 260 09:49 21.01.2021
3483 Clouds 3 979 93 10000 8.23 260 09:30 21.01.2021
3484 Clouds 3 979 93 10000 8.75 260 08:57 21.01.2021
3485 Clouds 3 979 87 10000 7.72 250 08:27 21.01.2021
3486 Clouds 2 979 93 10000 8.23 250 07:45 21.01.2021
3487 Clouds 2 978 93 10000 7.2 250 07:25 21.01.2021
3488 Clouds 3 978 93 10000 7.72 260 05:59 21.01.2021
3489 Clouds 3 978 93 10000 8.23 260 04:29 21.01.2021
3490 Clouds 2 979 93 10000 7.2 250 01:33 21.01.2021
3491 Clouds 2 978 93 10000 5.66 260 00:41 21.01.2021
3492 Clouds 2 978 100 10000 5.14 270 23:44 20.01.2021
3493 Clouds 2 978 100 10000 6.17 270 23:24 20.01.2021
3494 Clouds 2 978 93 10000 6.69 280 22:50 20.01.2021
3495 Clouds 2 978 93 10000 7.2 280 22:29 20.01.2021
3496 Clouds 2 978 93 10000 6.69 280 21:49 20.01.2021
3497 Clouds 2 978 93 10000 6.17 280 21:22 20.01.2021
3498 Clouds 2 978 93 10000 6.17 280 20:51 20.01.2021
3499 Clouds 3 978 93 10000 5.66 300 20:21 20.01.2021
3500 Clouds 3 978 93 10000 5.66 300 19:47 20.01.2021
3501 Rain 3 978 93 10000 5.14 290 19:28 20.01.2021
3502 Rain 3 978 93 10000 4.63 310 18:43 20.01.2021
3503 Rain 3 979 93 10000 3.6 300 18:20 20.01.2021
3504 Rain 3 978 100 10000 1.54 0 17:44 20.01.2021
3505 Rain 3 978 100 10000 1.54 0 17:26 20.01.2021
3506 Rain 3 978 100 10000 2.06 330 16:47 20.01.2021
3507 Rain 2 978 93 10000 2.06 320 16:20 20.01.2021
3508 Rain 2 979 100 8000 3.6 360 15:38 20.01.2021
3509 Rain 3 979 93 10000 2.57 340 14:57 20.01.2021
3510 Rain 3 980 93 10000 3.09 340 14:38 20.01.2021
3511 Rain 3 980 93 10000 3.09 340 14:18 20.01.2021
3512 Rain 4 980 93 10000 2.57 310 13:36 20.01.2021
3513 Rain 4 981 93 9000 3.09 340 12:55 20.01.2021
3514 Rain 4 981 93 10000 3.6 340 12:22 20.01.2021
3515 Rain 4 981 93 10000 2.57 300 11:40 20.01.2021
3516 Rain 4 981 93 10000 3.09 280 11:19 20.01.2021
3517 Rain 4 981 93 10000 3.09 280 10:45 20.01.2021
3518 Rain 4 982 93 10000 3.09 280 10:22 20.01.2021
3519 Rain 4 982 93 10000 4.12 280 09:38 20.01.2021
3520 Rain 4 982 93 10000 3.09 270 09:19 20.01.2021
3521 Rain 4 982 100 10000 3.6 280 08:41 20.01.2021
3522 Rain 5 982 100 10000 3.6 280 08:21 20.01.2021
3523 Rain 5 983 100 9000 4.12 300 07:38 20.01.2021
3524 Rain 5 983 100 9000 4.12 300 07:18 20.01.2021
3525 Rain 7 983 93 5000 3.6 320 04:29 20.01.2021
3526 Rain 11 983 93 10000 4.12 220 01:51 20.01.2021
3527 Rain 11 984 93 10000 3.09 230 00:58 20.01.2021
3528 Rain 11 984 87 10000 4.63 230 23:54 19.01.2021
3529 Clouds 11 984 87 10000 5.14 220 23:34 19.01.2021
3530 Clouds 11 984 87 10000 5.14 220 23:34 19.01.2021
3531 Rain 11 985 87 10000 5.66 220 22:58 19.01.2021
3532 Rain 11 985 87 10000 5.14 220 22:40 19.01.2021
3533 Rain 11 985 87 10000 5.14 220 22:21 19.01.2021
3534 Rain 11 985 87 10000 6.17 220 21:54 19.01.2021
3535 Rain 11 986 87 10000 5.66 220 21:34 19.01.2021
3536 Rain 11 986 87 10000 5.14 220 20:49 19.01.2021
3537 Rain 11 986 93 10000 5.66 220 20:28 19.01.2021
3538 Rain 11 987 87 10000 5.14 220 19:56 19.01.2021
3539 Rain 11 987 93 10000 5.14 220 19:34 19.01.2021
3540 Rain 11 988 87 10000 4.63 210 18:59 19.01.2021
3541 Rain 11 988 87 10000 5.66 220 18:38 19.01.2021
3542 Rain 11 988 87 10000 5.66 220 18:20 19.01.2021
3543 Rain 11 989 87 10000 5.66 220 17:42 19.01.2021
3544 Clouds 11 989 87 10000 6.69 210 17:19 19.01.2021
3545 Clouds 11 990 87 10000 7.2 220 16:39 19.01.2021
3546 Clouds 11 990 87 10000 7.2 220 16:18 19.01.2021
3547 Clouds 11 990 87 10000 5.14 220 15:48 19.01.2021
3548 Clouds 11 991 87 10000 6.17 210 15:29 19.01.2021
3549 Clouds 11 992 93 10000 6.17 210 14:43 19.01.2021
3550 Clouds 11 993 93 10000 6.69 210 14:25 19.01.2021
3551 Rain 10 994 87 10000 6.69 210 13:49 19.01.2021
3552 Clouds 10 994 87 10000 5.66 210 13:23 19.01.2021
3553 Clouds 10 995 93 10000 5.66 210 12:49 19.01.2021
3554 Rain 10 996 87 10000 6.69 220 12:30 19.01.2021
3555 Rain 10 996 87 10000 6.69 220 11:51 19.01.2021
3556 Rain 10 996 87 10000 6.69 220 11:51 19.01.2021
3557 Rain 10 997 87 10000 5.66 230 11:29 19.01.2021
3558 Clouds 10 997 87 10000 5.66 230 10:53 19.01.2021
3559 Clouds 10 997 87 10000 5.14 230 10:32 19.01.2021
3560 Clouds 10 998 93 10000 5.14 230 09:54 19.01.2021
3561 Clouds 10 998 93 5000 5.14 230 09:36 19.01.2021
3562 Rain 10 999 100 6000 3.09 220 08:59 19.01.2021
3563 Clouds 10 999 100 5000 1.54 170 08:26 19.01.2021
3564 Rain 9 1000 100 5000 1.03 0 07:49 19.01.2021
3565 Rain 9 1000 100 6000 1.54 0 06:54 19.01.2021
3566 Rain 9 1002 100 10000 2.06 240 02:56 19.01.2021
3567 Rain 9 1002 100 10000 2.06 230 02:20 19.01.2021
3568 Rain 9 1004 93 10000 3.09 230 23:59 18.01.2021
3569 Rain 9 1005 93 10000 2.57 220 23:35 18.01.2021
3570 Rain 9 1005 93 10000 3.6 230 22:58 18.01.2021
3571 Rain 9 1006 93 10000 3.09 230 22:38 18.01.2021
3572 Rain 9 1006 93 10000 3.09 230 22:18 18.01.2021
3573 Rain 9 1007 93 10000 3.6 230 21:40 18.01.2021
3574 Rain 9 1007 93 10000 3.6 230 21:21 18.01.2021
3575 Rain 10 1007 93 10000 2.57 220 20:43 18.01.2021
3576 Rain 10 1007 93 10000 2.57 220 20:43 18.01.2021
3577 Rain 9 1008 100 10000 2.57 220 20:25 18.01.2021
3578 Rain 9 1009 93 10000 1.54 200 19:51 18.01.2021
3579 Rain 9 1009 93 10000 1.03 160 19:33 18.01.2021
3580 Rain 8 1010 100 6000 1.54 160 18:47 18.01.2021
3581 Clouds 8 1010 100 4000 1.54 140 18:23 18.01.2021
3582 Clouds 7 1011 100 7000 1.54 0 17:45 18.01.2021
3583 Clouds 7 1011 100 8000 2.06 140 17:24 18.01.2021
3584 Mist 7 1012 100 4500 1.54 0 16:48 18.01.2021
3585 Mist 7 1013 100 2200 2.06 150 16:22 18.01.2021
3586 Clouds 7 1013 100 2500 2.06 140 15:49 18.01.2021
3587 Clouds 7 1014 93 2700 1.54 0 15:25 18.01.2021
3588 Clouds 8 1015 93 3000 4.12 210 14:46 18.01.2021
3589 Clouds 8 1015 81 10000 3.09 190 14:28 18.01.2021
3590 Clouds 7 1016 81 10000 2.57 190 13:47 18.01.2021
3591 Clouds 7 1017 81 10000 2.57 190 13:28 18.01.2021
3592 Clouds 7 1017 81 10000 2.06 200 12:56 18.01.2021
3593 Clouds 7 1018 81 10000 2.06 220 12:36 18.01.2021
3594 Clouds 7 1018 81 10000 2.06 220 12:18 18.01.2021
3595 Clouds 7 1018 81 10000 6.17 210 11:40 18.01.2021
3596 Clouds 6 1018 81 10000 2.06 220 11:20 18.01.2021
3597 Clouds 6 1018 81 10000 2.57 220 10:46 18.01.2021
3598 Clouds 6 1019 81 10000 3.09 240 09:50 18.01.2021
3599 Clouds 6 1019 81 10000 3.6 240 09:32 18.01.2021
3600 Clouds 5 1019 81 10000 3.6 240 08:55 18.01.2021
3601 Clouds 5 1020 81 10000 3.6 240 08:25 18.01.2021
3602 Clouds 5 1020 87 10000 3.6 240 07:37 18.01.2021
3603 Clouds 5 1021 87 10000 3.6 240 05:45 18.01.2021
3604 Clouds 5 1021 87 10000 4.63 240 04:39 18.01.2021
3605 Clouds 5 1021 87 10000 4.63 240 04:18 18.01.2021
3606 Clouds 5 1021 87 10000 5.14 240 03:42 18.01.2021
3607 Clouds 5 1021 87 10000 5.14 240 03:20 18.01.2021
3608 Clouds 5 1022 87 10000 5.66 240 02:38 18.01.2021
3609 Clouds 5 1022 87 10000 5.66 250 01:36 18.01.2021
3610 Clouds 5 1023 87 10000 5.14 240 00:32 18.01.2021
3611 Clouds 5 1023 87 10000 5.14 250 23:48 17.01.2021
3612 Clouds 5 1023 87 10000 5.66 250 23:21 17.01.2021
3613 Clear 6 1024 87 10000 5.14 240 22:41 17.01.2021
3614 Clear 6 1024 87 10000 5.14 240 22:22 17.01.2021
3615 Clouds 6 1024 81 10000 4.63 240 21:40 17.01.2021
3616 Clouds 6 1024 81 10000 4.63 240 21:22 17.01.2021
3617 Clouds 6 1024 81 10000 4.12 240 20:49 17.01.2021
3618 Clouds 6 1024 87 10000 4.12 240 20:29 17.01.2021
3619 Clouds 6 1024 87 10000 4.12 240 19:43 17.01.2021
3620 Clouds 6 1025 81 10000 3.6 230 19:24 17.01.2021
3621 Rain 6 1025 81 10000 3.6 230 18:44 17.01.2021
3622 Rain 6 1025 81 10000 3.09 230 18:26 17.01.2021
3623 Rain 6 1025 87 10000 3.6 240 17:48 17.01.2021
3624 Clouds 6 1025 81 10000 3.6 240 17:26 17.01.2021
3625 Clouds 7 1025 81 10000 4.12 240 16:44 17.01.2021
3626 Rain 7 1025 81 10000 3.6 240 16:24 17.01.2021
3627 Clouds 6 1025 81 10000 3.6 240 15:43 17.01.2021
3628 Clouds 6 1025 81 10000 4.63 240 15:25 17.01.2021
3629 Clouds 6 1025 87 10000 5.14 250 14:49 17.01.2021
3630 Clouds 6 1025 87 10000 5.14 250 14:49 17.01.2021
3631 Clouds 6 1025 81 10000 5.14 250 14:26 17.01.2021
3632 Clouds 6 1025 87 10000 4.63 250 13:46 17.01.2021
3633 Clouds 6 1026 87 10000 4.12 250 13:27 17.01.2021
3634 Clouds 5 1026 87 10000 4.12 250 12:54 17.01.2021
3635 Clouds 5 1026 81 10000 3.6 260 12:31 17.01.2021
3636 Clouds 5 1025 87 10000 6.69 240 11:59 17.01.2021
3637 Clouds 5 1025 87 10000 6.69 240 11:24 17.01.2021
3638 Clouds 4 1025 87 10000 4.63 250 10:49 17.01.2021
3639 Clouds 4 1025 87 10000 5.14 250 10:21 17.01.2021
3640 Clouds 4 1025 93 10000 4.12 250 09:44 17.01.2021
3641 Clouds 3 1024 93 10000 5.14 260 08:46 17.01.2021
3642 Clouds 3 1023 93 10000 4.12 260 06:57 17.01.2021
3643 Clear 4 1022 87 10000 4.63 260 04:28 17.01.2021
3644 Clouds 4 1021 81 10000 6.69 270 02:48 17.01.2021
3645 Clouds 5 1020 81 10000 7.2 260 00:51 17.01.2021
3646 Clouds 5 1020 81 10000 7.2 260 00:51 17.01.2021
3647 Clouds 5 1020 87 10000 6.69 260 00:18 17.01.2021
3648 Clouds 6 1020 81 10000 5.66 250 23:49 16.01.2021
3649 Clouds 5 1019 81 10000 5.14 260 23:20 16.01.2021
3650 Clouds 6 1019 81 10000 5.66 250 22:45 16.01.2021
3651 Clouds 6 1019 81 10000 6.17 250 21:58 16.01.2021
3652 Clouds 6 1019 81 10000 5.66 260 21:37 16.01.2021
3653 Clouds 6 1019 81 10000 5.66 260 21:18 16.01.2021
3654 Clouds 6 1019 75 10000 4.63 250 20:42 16.01.2021
3655 Clouds 6 1019 75 10000 4.63 260 20:21 16.01.2021
3656 Clouds 6 1019 75 10000 6.17 270 19:44 16.01.2021
3657 Clouds 6 1018 75 10000 8.23 270 19:24 16.01.2021
3658 Clouds 6 1018 75 10000 8.23 270 19:24 16.01.2021
3659 Clouds 6 1018 75 10000 7.2 270 18:43 16.01.2021
3660 Clouds 6 1018 75 10000 7.2 270 18:43 16.01.2021
3661 Clouds 7 1018 75 10000 6.69 270 18:24 16.01.2021
3662 Clouds 7 1018 75 10000 7.2 270 17:47 16.01.2021
3663 Clouds 7 1017 70 10000 8.23 280 17:28 16.01.2021
3664 Clouds 8 1017 81 10000 8.75 280 16:47 16.01.2021
3665 Clouds 8 1016 76 10000 8.23 280 16:26 16.01.2021
3666 Clouds 8 1016 76 10000 8.75 270 15:54 16.01.2021
3667 Clouds 8 1016 76 10000 10.29 280 15:22 16.01.2021
3668 Clouds 8 1016 76 10000 9.77 280 14:22 16.01.2021
3669 Clouds 8 1016 87 10000 9.26 270 13:48 16.01.2021
3670 Clouds 8 1016 87 10000 9.26 270 13:24 16.01.2021
3671 Clouds 7 1015 81 10000 7.72 260 12:39 16.01.2021
3672 Clouds 7 1015 81 10000 7.72 260 12:20 16.01.2021
3673 Clouds 7 1015 81 10000 8.23 260 11:48 16.01.2021
3674 Clouds 7 1014 81 10000 7.2 260 11:25 16.01.2021
3675 Clouds 7 1014 87 10000 7.2 260 10:46 16.01.2021
3676 Clouds 7 1013 81 10000 7.2 250 10:21 16.01.2021
3677 Clouds 7 1013 87 10000 6.69 250 09:33 16.01.2021
3678 Clouds 7 1012 87 10000 7.2 270 08:47 16.01.2021
3679 Clouds 7 1012 87 10000 7.2 260 07:48 16.01.2021
3680 Clouds 8 1011 87 10000 5.66 250 06:43 16.01.2021
3681 Clouds 10 1010 93 10000 4.63 240 04:39 16.01.2021
3682 Clouds 10 1010 87 10000 6.17 190 02:56 16.01.2021
3683 Rain 9 1013 87 10000 8.75 160 00:50 16.01.2021
3684 Rain 9 1014 87 10000 7.2 160 00:28 16.01.2021
3685 Rain 9 1014 87 10000 8.23 160 23:58 15.01.2021
3686 Rain 8 1015 87 10000 7.2 160 23:21 15.01.2021
3687 Rain 8 1017 87 10000 5.66 140 22:25 15.01.2021
3688 Rain 8 1017 87 10000 7.2 150 21:46 15.01.2021
3689 Rain 8 1019 81 10000 6.17 160 20:59 15.01.2021
3690 Rain 8 1019 81 10000 8.75 170 20:40 15.01.2021
3691 Rain 8 1020 87 10000 7.72 170 20:22 15.01.2021
3692 Clouds 8 1020 81 10000 7.2 170 19:41 15.01.2021
3693 Clouds 7 1020 81 10000 7.2 170 19:22 15.01.2021
3694 Clouds 7 1021 81 10000 6.17 160 18:44 15.01.2021
3695 Clouds 7 1022 81 10000 3.6 150 18:19 15.01.2021
3696 Clouds 7 1022 76 10000 5.14 160 17:52 15.01.2021
3697 Clouds 7 1022 76 10000 5.14 170 17:26 15.01.2021
3698 Clouds 7 1023 81 10000 5.66 160 16:54 15.01.2021
3699 Clouds 8 1023 81 10000 4.63 150 16:25 15.01.2021
3700 Clouds 7 1024 81 10000 4.12 150 15:43 15.01.2021
3701 Clouds 8 1024 81 10000 4.12 140 15:23 15.01.2021
3702 Clouds 7 1025 81 10000 6.17 150 14:51 15.01.2021
3703 Clouds 7 1025 81 10000 5.66 150 14:28 15.01.2021
3704 Clouds 7 1026 81 10000 5.14 150 13:46 15.01.2021
3705 Clouds 7 1027 87 10000 5.14 150 13:24 15.01.2021
3706 Clouds 6 1027 87 10000 5.14 150 12:59 15.01.2021
3707 Clouds 6 1027 87 10000 4.63 150 12:37 15.01.2021
3708 Clouds 5 1027 87 10000 4.63 150 12:18 15.01.2021
3709 Clouds 4 1027 93 10000 3.6 150 11:42 15.01.2021
3710 Clouds 3 1027 93 10000 2.06 130 10:58 15.01.2021
3711 Clouds 1 1027 100 7000 3.09 110 10:39 15.01.2021
3712 Clouds 1 1027 100 7000 3.09 110 10:19 15.01.2021
3713 Clouds 1 1027 93 10000 2.06 120 09:47 15.01.2021
3714 Clouds 1 1027 93 10000 2.06 120 09:47 15.01.2021
3715 Clouds 1 1028 100 10000 2.29 181 09:27 15.01.2021
3716 Clouds 1 1027 100 5000 1.03 0 08:27 15.01.2021
3717 Clouds 1 1027 93 5000 1.03 0 07:42 15.01.2021
3718 Fog 1 1028 100 4000 1.54 0 07:21 15.01.2021
3719 Fog 1 1028 100 2500 2.06 280 05:56 15.01.2021
3720 Clouds 2 1027 93 7000 3.6 290 02:28 15.01.2021
3721 Clouds 3 1026 100 10000 4.12 270 00:37 15.01.2021
3722 Clouds 4 1026 93 10000 4.63 290 23:30 14.01.2021
3723 Clouds 4 1026 93 10000 4.63 290 22:52 14.01.2021
3724 Clouds 5 1026 93 10000 4.63 280 22:28 14.01.2021
3725 Clouds 5 1025 93 10000 4.63 290 21:58 14.01.2021
3726 Clouds 4 1025 93 10000 5.14 280 21:39 14.01.2021
3727 Clouds 4 1025 93 10000 3.6 280 21:20 14.01.2021
3728 Clouds 4 1025 93 10000 3.6 280 20:43 14.01.2021
3729 Clouds 5 1024 87 10000 4.12 290 19:57 14.01.2021
3730 Clouds 6 1024 87 10000 4.63 300 19:36 14.01.2021
3731 Clouds 6 1024 93 10000 6.17 290 18:59 14.01.2021
3732 Clouds 6 1024 87 10000 6.17 300 18:39 14.01.2021
3733 Clouds 7 1023 81 10000 5.14 300 17:57 14.01.2021
3734 Clouds 8 1023 81 10000 6.17 300 17:30 14.01.2021
3735 Clouds 8 1023 81 10000 6.17 310 16:54 14.01.2021
3736 Clouds 8 1022 81 10000 6.17 300 16:31 14.01.2021
3737 Clouds 9 1022 81 10000 7.72 300 15:55 14.01.2021
3738 Clouds 9 1021 81 10000 7.72 300 15:32 14.01.2021
3739 Clouds 8 1021 81 10000 7.2 310 14:48 14.01.2021
3740 Clouds 8 1021 81 10000 7.2 300 14:30 14.01.2021
3741 Clouds 8 1021 76 10000 8.23 300 13:56 14.01.2021
3742 Clouds 8 1021 87 10000 7.72 300 13:24 14.01.2021
3743 Clouds 7 1020 87 10000 8.23 300 12:57 14.01.2021
3744 Clouds 7 1020 87 10000 8.23 300 12:22 14.01.2021
3745 Clouds 7 1020 87 10000 8.23 300 11:58 14.01.2021
3746 Clouds 7 1020 87 10000 8.23 310 11:38 14.01.2021
3747 Clouds 7 1020 87 10000 8.23 310 11:18 14.01.2021
3748 Clouds 7 1018 87 10000 6.69 300 10:40 14.01.2021
3749 Clouds 8 1018 87 10000 6.69 300 10:18 14.01.2021
3750 Drizzle 7 1018 93 10000 7.72 300 09:42 14.01.2021
3751 Drizzle 8 1017 93 10000 7.2 300 09:20 14.01.2021
3752 Drizzle 8 1016 93 10000 7.2 300 08:33 14.01.2021
3753 Drizzle 8 1016 87 10000 8.23 300 07:57 14.01.2021
3754 Drizzle 8 1016 87 10000 7.2 290 07:31 14.01.2021
3755 Drizzle 8 1015 93 10000 8.75 300 06:37 14.01.2021
3756 Drizzle 9 1014 93 7000 8.23 290 04:57 14.01.2021
3757 Drizzle 11 1013 100 6000 4.12 240 00:27 14.01.2021
3758 Drizzle 11 1013 93 6000 4.12 240 23:31 13.01.2021
3759 Clouds 11 1013 87 10000 4.63 240 22:49 13.01.2021
3760 Clouds 11 1013 93 10000 4.63 250 22:23 13.01.2021
3761 Clouds 11 1013 87 10000 4.12 240 21:43 13.01.2021
3762 Clouds 11 1013 87 10000 3.6 230 21:22 13.01.2021
3763 Clouds 11 1014 93 10000 5.14 230 20:51 13.01.2021
3764 Rain 11 1014 87 10000 5.14 230 20:25 13.01.2021
3765 Rain 11 1014 93 10000 4.63 230 19:49 13.01.2021
3766 Clouds 11 1014 87 10000 5.14 230 19:27 13.01.2021
3767 Rain 11 1014 87 10000 4.63 230 18:51 13.01.2021
3768 Rain 11 1014 87 10000 4.12 230 18:32 13.01.2021
3769 Clouds 11 1014 93 10000 4.63 230 17:47 13.01.2021
3770 Rain 11 1014 93 10000 4.63 240 17:18 13.01.2021
3771 Rain 11 1014 87 10000 5.14 240 16:45 13.01.2021
3772 Rain 11 1014 87 10000 4.63 240 16:21 13.01.2021
3773 Clouds 11 1015 87 10000 5.14 240 15:41 13.01.2021
3774 Drizzle 11 1015 87 10000 5.14 250 15:20 13.01.2021
3775 Clouds 11 1016 87 10000 4.63 240 14:28 13.01.2021
3776 Clouds 12 1016 87 10000 4.63 250 13:47 13.01.2021
3777 Clouds 11 1016 87 10000 4.12 240 13:25 13.01.2021
3778 Clouds 11 1016 93 10000 4.63 250 12:46 13.01.2021
3779 Drizzle 11 1016 93 10000 5.66 250 12:25 13.01.2021
3780 Drizzle 10 1016 93 5000 5.66 250 11:51 13.01.2021
3781 Drizzle 10 1016 93 5000 8.75 270 11:33 13.01.2021
3782 Drizzle 10 1015 93 10000 8.75 270 10:49 13.01.2021
3783 Drizzle 10 1015 93 10000 8.23 260 10:28 13.01.2021
3784 Clouds 10 1015 93 8000 4.63 250 09:40 13.01.2021
3785 Clouds 10 1015 93 5000 5.14 250 08:59 13.01.2021
3786 Clouds 10 1015 93 5000 4.12 250 08:41 13.01.2021
3787 Clouds 10 1015 93 5000 4.12 250 08:23 13.01.2021
3788 Clouds 10 1015 93 5000 5.14 250 07:29 13.01.2021
3789 Rain 10 1015 93 7000 4.12 240 05:55 13.01.2021
3790 Rain 9 1016 93 3000 2.57 180 04:18 13.01.2021
3791 Clouds 8 1016 93 3000 2.57 180 03:43 13.01.2021
3792 Rain 7 1016 100 3000 2.57 180 03:22 13.01.2021
3793 Clouds 6 1018 100 7000 0.51 360 00:48 13.01.2021
3794 Rain 6 1018 100 8000 1.54 0 23:43 12.01.2021
3795 Rain 5 1018 93 10000 2.06 140 22:58 12.01.2021
3796 Rain 5 1018 93 10000 3.6 150 22:39 12.01.2021
3797 Rain 5 1018 93 10000 3.6 150 22:19 12.01.2021
3798 Clouds 6 1018 81 10000 4.12 150 21:43 12.01.2021
3799 Drizzle 5 1018 81 10000 3.6 140 21:24 12.01.2021
3800 Clouds 5 1018 81 10000 3.6 140 20:47 12.01.2021
3801 Rain 5 1018 75 10000 3.6 130 20:27 12.01.2021
3802 Rain 5 1018 81 10000 3.09 110 19:44 12.01.2021
3803 Rain 5 1018 81 10000 3.09 120 18:57 12.01.2021
3804 Rain 5 1018 87 10000 3.09 110 18:38 12.01.2021
3805 Rain 5 1018 87 10000 3.09 110 18:20 12.01.2021
3806 Clouds 6 1018 87 10000 2.57 90 17:34 12.01.2021
3807 Rain 6 1017 87 10000 2.57 100 16:54 12.01.2021
3808 Clouds 6 1017 87 10000 2.57 90 16:36 12.01.2021
3809 Clouds 6 1017 87 10000 2.57 90 16:18 12.01.2021
3810 Rain 6 1017 81 10000 3.6 90 15:29 12.01.2021
3811 Clouds 6 1017 75 10000 3.6 90 14:57 12.01.2021
3812 Clouds 6 1017 81 10000 3.09 60 14:39 12.01.2021
3813 Clouds 6 1017 81 10000 3.09 60 14:18 12.01.2021
3814 Clouds 6 1016 70 10000 3.6 50 13:45 12.01.2021
3815 Clouds 6 1016 87 10000 3.09 40 12:39 12.01.2021
3816 Clouds 6 1016 93 10000 2.57 30 11:55 12.01.2021
3817 Clouds 5 1015 93 10000 1.54 360 11:36 12.01.2021
3818 Clouds 5 1015 93 10000 2.06 360 10:44 12.01.2021
3819 Clouds 5 1014 93 10000 2.57 360 10:20 12.01.2021
3820 Clouds 6 1014 93 10000 3.09 360 09:54 12.01.2021
3821 Clouds 6 1013 100 7000 3.09 360 09:24 12.01.2021
3822 Clouds 7 1012 93 10000 5.66 20 08:39 12.01.2021
3823 Clouds 7 1012 93 10000 5.66 20 08:20 12.01.2021
3824 Rain 7 1011 93 9000 3.09 320 07:34 12.01.2021
3825 Rain 8 1011 100 10000 3.6 330 05:56 12.01.2021
3826 Rain 9 1009 93 10000 5.66 290 03:48 12.01.2021
3827 Rain 9 1009 93 9000 7.2 290 03:23 12.01.2021
3828 Rain 9 1008 100 10000 6.69 270 02:18 12.01.2021
3829 Rain 9 1008 100 7000 7.72 260 00:55 12.01.2021
3830 Clouds 9 1008 93 6000 7.2 260 23:44 11.01.2021
3831 Rain 9 1008 93 8000 7.2 250 23:20 11.01.2021
3832 Rain 9 1008 93 7000 7.2 250 22:47 11.01.2021
3833 Rain 10 1008 93 7000 7.72 250 22:28 11.01.2021
3834 Clouds 9 1008 93 7000 7.2 260 21:47 11.01.2021
3835 Clouds 9 1008 93 10000 7.72 260 21:26 11.01.2021
3836 Drizzle 10 1008 93 10000 8.23 250 20:59 11.01.2021
3837 Rain 9 1009 93 10000 7.2 250 20:39 11.01.2021
3838 Rain 9 1009 93 9000 6.17 250 20:21 11.01.2021
3839 Drizzle 9 1009 93 9000 6.17 250 19:50 11.01.2021
3840 Drizzle 9 1009 93 8000 6.17 250 19:23 11.01.2021
3841 Drizzle 9 1010 93 8000 6.17 250 18:44 11.01.2021
3842 Drizzle 9 1010 93 8000 5.14 250 18:24 11.01.2021
3843 Drizzle 9 1010 93 6000 6.17 250 17:42 11.01.2021
3844 Drizzle 9 1011 93 6000 5.66 240 17:24 11.01.2021
3845 Drizzle 9 1011 93 7000 5.66 240 16:49 11.01.2021
3846 Drizzle 9 1011 93 8000 5.66 240 16:29 11.01.2021
3847 Drizzle 9 1011 87 10000 6.17 250 15:58 11.01.2021
3848 Clouds 9 1011 87 10000 6.17 240 15:37 11.01.2021
3849 Clouds 9 1012 87 10000 5.66 240 14:58 11.01.2021
3850 Clouds 9 1012 87 10000 5.14 240 14:37 11.01.2021
3851 Rain 9 1013 81 10000 6.69 250 13:48 11.01.2021
3852 Clouds 8 1013 87 10000 7.2 250 13:23 11.01.2021
3853 Clouds 8 1013 87 10000 7.72 250 12:44 11.01.2021
3854 Clouds 8 1014 87 10000 6.69 240 12:26 11.01.2021
3855 Clouds 8 1014 87 10000 6.17 240 11:48 11.01.2021
3856 Rain 7 1014 87 10000 6.17 240 11:18 11.01.2021
3857 Clouds 7 1015 87 10000 5.66 240 10:42 11.01.2021
3858 Clouds 7 1015 87 10000 5.66 240 10:21 11.01.2021
3859 Clouds 7 1015 93 10000 5.66 240 09:37 11.01.2021
3860 Clouds 7 1015 93 10000 5.66 240 09:19 11.01.2021
3861 Clouds 7 1016 93 10000 4.63 240 08:38 11.01.2021
3862 Clouds 6 1016 87 10000 5.14 250 07:50 11.01.2021
3863 Clouds 6 1016 93 10000 6.17 250 07:25 11.01.2021
3864 Drizzle 6 1016 93 8000 6.69 240 06:49 11.01.2021
3865 Clouds 5 1018 93 10000 6.17 250 02:52 11.01.2021
3866 Drizzle 6 1020 93 8000 5.66 250 00:57 11.01.2021
3867 Clouds 6 1020 87 10000 5.66 240 23:48 10.01.2021
3868 Clouds 6 1020 87 10000 5.14 250 23:23 10.01.2021
3869 Clouds 6 1021 93 10000 5.14 240 22:44 10.01.2021
3870 Clouds 6 1021 93 10000 4.63 250 22:20 10.01.2021
3871 Clouds 6 1021 93 10000 5.66 250 21:41 10.01.2021
3872 Clouds 6 1021 93 10000 5.66 250 21:20 10.01.2021
3873 Clouds 6 1021 93 10000 5.66 250 20:49 10.01.2021
3874 Clouds 6 1021 93 10000 5.14 250 20:29 10.01.2021
3875 Clouds 6 1022 93 10000 5.14 250 19:42 10.01.2021
3876 Drizzle 6 1022 93 10000 5.14 250 19:23 10.01.2021
3877 Clouds 5 1022 93 10000 3.6 240 18:45 10.01.2021
3878 Drizzle 5 1022 100 10000 4.12 230 18:20 10.01.2021
3879 Mist 5 1023 100 3500 4.63 240 17:26 10.01.2021
3880 Mist 5 1023 100 2500 3.6 240 16:51 10.01.2021
3881 Mist 5 1023 100 1800 3.09 240 16:31 10.01.2021
3882 Mist 5 1023 93 2000 5.66 240 15:42 10.01.2021
3883 Mist 5 1023 93 2000 5.66 240 15:42 10.01.2021
3884 Mist 5 1023 100 1800 4.12 250 15:24 10.01.2021
3885 Mist 5 1024 93 5000 3.6 250 14:41 10.01.2021
3886 Mist 5 1024 93 5000 3.6 250 14:23 10.01.2021
3887 Mist 5 1024 100 3500 3.6 250 13:48 10.01.2021
3888 Mist 5 1024 100 1500 4.63 250 13:27 10.01.2021
3889 Mist 5 1025 100 1500 4.63 250 12:59 10.01.2021
3890 Mist 5 1025 100 1500 5.14 250 12:41 10.01.2021
3891 Mist 5 1025 100 1500 4.63 250 11:57 10.01.2021
3892 Fog 4 1025 93 800 3.6 240 11:21 10.01.2021
3893 Mist 4 1025 93 1200 4.63 240 10:52 10.01.2021
3894 Mist 3 1025 93 1500 4.12 240 10:24 10.01.2021
3895 Mist 3 1025 93 1500 4.63 240 09:46 10.01.2021
3896 Mist 3 1025 100 4000 4.12 250 08:50 10.01.2021
3897 Clouds 4 1025 93 7000 3.6 240 08:18 10.01.2021
3898 Clouds 3 1025 93 10000 5.66 230 06:52 10.01.2021
3899 Drizzle 3 1026 93 6000 5.14 230 06:18 10.01.2021
3900 Drizzle 3 1026 93 6000 5.14 230 05:28 10.01.2021
3901 Clouds 3 1026 93 6000 4.63 250 02:38 10.01.2021
3902 Clouds 2 1026 87 10000 4.63 250 00:25 10.01.2021
3903 Clouds 2 1026 87 10000 4.12 240 23:42 09.01.2021
3904 Clouds 2 1026 87 10000 4.12 240 23:23 09.01.2021
3905 Clouds 2 1027 75 10000 6.17 220 22:25 09.01.2021
3906 Clouds 2 1026 69 10000 5.14 260 21:59 09.01.2021
3907 Clouds 2 1026 69 10000 5.14 250 21:40 09.01.2021
3908 Clouds 2 1026 69 10000 5.14 250 21:21 09.01.2021
3909 Clouds 2 1026 69 10000 4.12 250 20:58 09.01.2021
3910 Clouds 2 1026 69 10000 4.12 250 20:37 09.01.2021
3911 Clouds 2 1026 69 10000 4.12 240 19:43 09.01.2021
3912 Clouds 1 1026 64 10000 4.12 240 19:21 09.01.2021
3913 Clouds 2 1026 69 10000 3.6 240 18:39 09.01.2021
3914 Clouds 2 1026 69 10000 3.6 240 18:19 09.01.2021
3915 Clouds 2 1026 69 10000 3.09 240 17:43 09.01.2021
3916 Clouds 2 1026 69 10000 3.6 250 17:23 09.01.2021
3917 Clouds 2 1026 64 10000 3.09 240 16:31 09.01.2021
3918 Clouds 2 1026 69 10000 3.6 250 15:47 09.01.2021
3919 Clouds 2 1026 69 10000 3.09 250 15:27 09.01.2021
3920 Clouds 2 1026 75 10000 3.09 250 14:38 09.01.2021
3921 Clouds 2 1026 75 10000 3.09 250 14:20 09.01.2021
3922 Clouds 2 1026 75 10000 3.09 250 13:47 09.01.2021
3923 Clouds 1 1027 80 10000 3.09 260 13:28 09.01.2021
3924 Clouds 1 1027 80 10000 3.09 260 12:47 09.01.2021
3925 Clouds 0 1027 80 10000 2.57 260 12:21 09.01.2021
3926 Clouds -2 1027 86 10000 3.09 250 11:50 09.01.2021
3927 Clouds -2 1027 93 10000 3.09 270 11:27 09.01.2021
3928 Clouds -3 1027 93 10000 3.09 260 10:52 09.01.2021
3929 Clouds -3 1027 93 10000 2.57 260 10:27 09.01.2021
3930 Clouds -4 1027 100 10000 2.57 250 09:46 09.01.2021
3931 Clouds -4 1026 93 10000 2.57 260 09:21 09.01.2021
3932 Clouds -4 1026 93 10000 2.57 260 08:26 09.01.2021
3933 Clouds -4 1026 86 10000 2.06 270 06:56 09.01.2021
3934 Clouds -4 1026 86 10000 3.09 270 06:38 09.01.2021
3935 Clouds -3 1026 93 10000 2.06 250 04:43 09.01.2021
3936 Clouds -3 1025 93 10000 2.57 300 02:48 09.01.2021
3937 Clouds -3 1025 86 10000 2.57 310 02:29 09.01.2021
3938 Clouds -3 1025 86 10000 4.12 300 01:36 09.01.2021
3939 Clouds -2 1025 93 10000 3.6 340 00:34 09.01.2021
3940 Clouds -2 1025 86 10000 4.63 330 23:50 08.01.2021
3941 Clouds -2 1025 86 10000 4.63 330 23:50 08.01.2021
3942 Clouds -2 1025 86 10000 4.63 320 22:54 08.01.2021
3943 Clouds -2 1025 86 10000 3.6 310 21:59 08.01.2021
3944 Clouds -2 1024 86 10000 3.6 320 21:34 08.01.2021
3945 Clouds -2 1024 86 10000 4.12 320 20:42 08.01.2021
3946 Clouds -2 1024 86 10000 5.14 330 20:23 08.01.2021
3947 Clouds -1 1024 80 10000 5.14 330 19:39 08.01.2021
3948 Clouds -2 1024 80 10000 5.14 330 19:20 08.01.2021
3949 Clouds 0 1023 69 10000 4.63 340 18:34 08.01.2021
3950 Clouds 1 1023 74 10000 5.14 340 17:55 08.01.2021
3951 Clouds 1 1023 69 10000 3.6 330 17:30 08.01.2021
3952 Clouds 2 1023 75 10000 4.63 340 16:51 08.01.2021
3953 Clouds 2 1023 69 10000 5.14 350 15:57 08.01.2021
3954 Clouds 2 1023 69 10000 5.14 350 15:38 08.01.2021
3955 Clouds 2 1023 75 10000 5.14 330 14:41 08.01.2021
3956 Clouds 2 1023 75 10000 5.14 330 14:22 08.01.2021
3957 Clouds 1 1023 75 10000 5.14 340 13:22 08.01.2021
3958 Clouds 1 1023 80 10000 5.66 330 12:53 08.01.2021
3959 Clouds 1 1023 80 10000 5.66 330 12:23 08.01.2021
3960 Clouds 0 1023 86 10000 6.17 330 11:59 08.01.2021
3961 Clouds 0 1022 86 10000 6.17 330 11:40 08.01.2021
3962 Snow 0 1022 86 10000 6.17 330 11:20 08.01.2021
3963 Snow -1 1022 93 10000 6.69 320 10:45 08.01.2021
3964 Snow -1 1022 93 10000 6.17 320 09:57 08.01.2021
3965 Snow -1 1021 86 10000 5.66 320 09:38 08.01.2021
3966 Snow -1 1021 86 10000 5.66 320 09:19 08.01.2021
3967 Snow -1 1020 86 10000 7.2 320 07:43 08.01.2021
3968 Clouds -1 1020 93 10000 6.69 330 07:24 08.01.2021
3969 Clouds 0 1020 93 10000 5.66 300 04:18 08.01.2021
3970 Clouds 1 1019 93 10000 5.14 300 23:43 07.01.2021
3971 Clouds 1 1019 93 10000 5.14 290 22:55 07.01.2021
3972 Clouds 1 1019 93 10000 5.14 290 22:36 07.01.2021
3973 Clouds 1 1019 93 10000 5.66 300 21:50 07.01.2021
3974 Clouds 1 1019 86 10000 5.66 300 21:31 07.01.2021
3975 Clouds 1 1019 93 10000 5.14 280 20:55 07.01.2021
3976 Clouds 1 1019 100 10000 6.17 280 20:36 07.01.2021
3977 Clouds 1 1019 93 10000 5.14 280 19:49 07.01.2021
3978 Clouds 1 1019 93 10000 4.63 280 19:26 07.01.2021
3979 Clouds 2 1019 93 10000 5.14 280 18:47 07.01.2021
3980 Clouds 2 1018 93 10000 4.63 270 18:20 07.01.2021
3981 Clouds 2 1018 93 10000 6.17 270 17:35 07.01.2021
3982 Clouds 2 1018 93 10000 4.63 270 16:57 07.01.2021
3983 Clouds 2 1018 93 10000 5.14 270 16:32 07.01.2021
3984 Clouds 2 1018 93 10000 5.66 270 15:56 07.01.2021
3985 Clouds 2 1018 93 10000 4.63 270 15:31 07.01.2021
3986 Clouds 1 1018 93 8000 5.14 270 14:34 07.01.2021
3987 Clouds 1 1019 100 6000 4.63 260 13:59 07.01.2021
3988 Clouds 1 1019 93 6000 6.17 270 13:30 07.01.2021
3989 Clouds 1 1019 90 10000 2.68 268 12:56 07.01.2021
3990 Clouds 1 1019 89 10000 4.6 260 12:24 07.01.2021
3991 Clouds 1 1019 89 10000 3.6 260 11:43 07.01.2021
3992 Clouds 1 1019 91 10000 4.1 260 11:25 07.01.2021
3993 Clouds 1 1019 91 10000 3.6 260 10:38 07.01.2021
3994 Snow 1 1019 92 8000 3.1 250 10:19 07.01.2021
3995 Snow 0 1019 92 8000 3.1 250 09:41 07.01.2021
3996 Snow 0 1019 95 6000 3.1 260 08:51 07.01.2021
3997 Snow 0 1019 93 8000 3.1 260 08:23 07.01.2021
3998 Clouds 0 1019 93 10000 4.6 270 07:43 07.01.2021
3999 Snow 0 1019 92 10000 3.1 250 06:51 07.01.2021
4000 Clouds -1 1020 92 10000 3.1 260 03:18 07.01.2021
4001 Clouds -1 1021 92 10000 2.1 220 00:25 07.01.2021
4002 Clouds -1 1022 92 10000 2.6 270 23:35 06.01.2021
4003 Clouds 0 1022 92 10000 3.6 270 22:36 06.01.2021
4004 Clouds 0 1022 96 10000 1.5 0 21:42 06.01.2021
4005 Clouds 0 1022 92 10000 0.5 0 21:22 06.01.2021
4006 Clouds 1 1022 97 10000 3.1 270 20:50 06.01.2021
4007 Clouds 1 1022 97 10000 3.1 280 20:22 06.01.2021
4008 Clouds 1 1022 86 10000 2.6 280 19:48 06.01.2021
4009 Clouds 2 1022 86 10000 2.6 280 19:29 06.01.2021
4010 Clouds 2 1022 94 10000 3.6 280 18:50 06.01.2021
4011 Clouds 2 1022 97 10000 2.1 260 18:32 06.01.2021
4012 Clouds 2 1022 93 10000 1.5 280 17:47 06.01.2021
4013 Clouds 2 1022 93 10000 1.5 280 17:28 06.01.2021
4014 Clouds 2 1022 93 10000 3.1 300 16:59 06.01.2021
4015 Clouds 2 1022 86 10000 3.6 290 16:36 06.01.2021
4016 Clouds 2 1022 93 10000 3.6 280 16:18 06.01.2021
4017 Clouds 2 1023 85 10000 3.6 280 15:43 06.01.2021
4018 Clouds 2 1023 84 10000 3.6 280 15:23 06.01.2021
4019 Clouds 3 1023 93 10000 2.1 320 14:32 06.01.2021
4020 Clouds 3 1024 93 10000 2.1 330 13:55 06.01.2021
4021 Clouds 3 1024 93 10000 2.1 10 13:27 06.01.2021
4022 Clouds 3 1024 93 10000 5.1 350 12:58 06.01.2021
4023 Clouds 2 1025 93 10000 5.1 350 12:30 06.01.2021
4024 Clouds 2 1025 82 10000 4.1 320 11:44 06.01.2021
4025 Clouds 2 1025 83 10000 4.1 320 11:21 06.01.2021
4026 Clouds 2 1025 83 10000 4.1 350 10:39 06.01.2021
4027 Clouds 2 1025 83 10000 4.6 340 09:52 06.01.2021
4028 Clouds 2 1025 93 10000 3.6 340 09:27 06.01.2021
4029 Clouds 2 1025 100 10000 4.6 330 08:51 06.01.2021
4030 Clouds 2 1025 100 10000 2.6 20 08:18 06.01.2021
4031 Rain 2 1025 100 10000 2.6 20 07:51 06.01.2021
4032 Clouds 2 1025 84 10000 2.6 340 06:44 06.01.2021
4033 Clouds 2 1025 82 10000 3.6 10 05:28 06.01.2021
4034 Clouds 2 1026 82 10000 3.1 340 02:59 06.01.2021
4035 Clouds 2 1026 82 10000 4.1 350 02:40 06.01.2021
4036 Clouds 2 1026 82 10000 4.6 340 02:19 06.01.2021
4037 Clouds 2 1027 93 10000 4.1 320 23:48 05.01.2021
4038 Clouds 3 1027 79 10000 3.1 20 22:55 05.01.2021
4039 Clouds 3 1027 79 10000 3.6 350 22:36 05.01.2021
4040 Clouds 3 1027 93 10000 4.6 360 22:18 05.01.2021
4041 Clouds 3 1027 79 10000 4.6 40 21:21 05.01.2021
4042 Clouds 4 1027 79 10000 4.6 40 20:30 05.01.2021
4043 Clouds 4 1027 80 10000 4.1 50 19:46 05.01.2021
4044 Clouds 3 1027 80 10000 4.1 50 19:27 05.01.2021
4045 Clouds 3 1027 78 10000 4.6 50 18:50 05.01.2021
4046 Clouds 4 1027 78 10000 4.6 50 18:28 05.01.2021
4047 Clouds 4 1027 78 10000 4.6 50 18:28 05.01.2021
4048 Clouds 4 1027 86 10000 5.7 50 17:54 05.01.2021
4049 Clouds 4 1027 86 10000 5.1 50 17:32 05.01.2021
4050 Clouds 4 1027 77 10000 5.7 30 16:57 05.01.2021
4051 Clouds 5 1027 80 10000 4.6 40 16:36 05.01.2021
4052 Clouds 5 1027 80 10000 6.7 40 16:18 05.01.2021
4053 Clouds 5 1027 75 10000 6.7 50 15:40 05.01.2021
4054 Clouds 4 1027 65 10000 6.7 40 14:48 05.01.2021
4055 Clouds 4 1027 72 10000 7.2 50 14:18 05.01.2021
4056 Clouds 4 1028 86 10000 4.1 30 13:44 05.01.2021
4057 Clouds 4 1028 86 10000 4.6 30 13:20 05.01.2021
4058 Clouds 3 1028 86 10000 2.6 40 12:46 05.01.2021
4059 Clouds 3 1028 86 10000 5.1 360 12:20 05.01.2021
4060 -273 0 0 0 0 0 11:33 05.01.2021
4061 Clouds 3 1028 74 10000 4.1 340 11:31 05.01.2021
4062 Clouds 3 1028 93 10000 4.6 20 10:46 05.01.2021
4063 Clouds 3 1028 93 10000 4.6 20 10:25 05.01.2021
4064 Clouds 3 1028 93 10000 3.6 350 09:47 05.01.2021
4065 Clouds 3 1028 93 10000 3.6 350 09:26 05.01.2021
4066 Snow 3 1028 93 10000 4.6 10 08:23 05.01.2021
4067 Clouds 3 1027 79 10000 6.2 20 06:39 05.01.2021
4068 Clouds 4 1027 69 10000 5.1 50 03:42 05.01.2021
4069 Clear 4 1028 69 10000 4.6 40 00:28 05.01.2021
4070 Clouds 4 1028 74 10000 5.7 40 23:43 04.01.2021
4071 Clouds 4 1027 69 10000 5.7 50 23:24 04.01.2021
4072 Clouds 4 1028 74 10000 6.2 50 22:46 04.01.2021
4073 Clouds 4 1028 74 10000 6.2 50 22:46 04.01.2021
4074 Clouds 4 1028 69 10000 6.7 60 22:22 04.01.2021
4075 Clouds 4 1027 74 10000 5.7 60 21:44 04.01.2021
4076 Clouds 4 1027 74 10000 5.7 60 21:24 04.01.2021
4077 Clouds 4 1027 69 10000 8.2 60 20:43 04.01.2021
4078 Clouds 4 1027 86 10000 4.6 60 20:22 04.01.2021
4079 Clouds 4 1027 86 10000 5.7 90 19:43 04.01.2021
4080 Clouds 4 1027 75 10000 7.2 50 19:21 04.01.2021
4081 Clouds 3 1027 86 7000 3.1 70 18:48 04.01.2021
4082 Clouds 4 1027 75 10000 5.7 50 18:18 04.01.2021
4083 Clouds 4 1027 75 10000 6.2 50 17:39 04.01.2021
4084 Clouds 4 1026 75 10000 6.2 50 17:21 04.01.2021
4085 Clouds 4 1026 75 10000 7.2 50 16:44 04.01.2021
4086 Clouds 4 1026 75 10000 7.7 60 16:26 04.01.2021
4087 Clouds 4 1026 75 10000 7.7 50 15:49 04.01.2021
4088 Clouds 4 1026 75 10000 8.7 50 15:25 04.01.2021
4089 Clouds 4 1027 86 10000 4.6 70 14:21 04.01.2021
4090 Clouds 4 1027 93 10000 4.6 90 13:37 04.01.2021
4091 Rain 4 1027 86 9000 7.7 60 12:57 04.01.2021
4092 Clouds 4 1027 75 10000 6.7 50 12:31 04.01.2021
4093 Clouds 4 1027 80 10000 6.2 40 11:52 04.01.2021
4094 Clouds 5 1027 75 10000 7.2 50 11:20 04.01.2021
4095 Clouds 5 1027 80 10000 6.2 50 10:46 04.01.2021
4096 Clouds 5 1027 80 10000 6.2 50 10:23 04.01.2021
4097 Clouds 5 1026 80 10000 5.1 40 09:48 04.01.2021
4098 Clouds 4 1026 76 10000 5.1 40 09:18 04.01.2021
4099 Clouds 4 1026 76 10000 4.6 40 08:41 04.01.2021
4100 Clouds 4 1026 77 10000 5.7 50 07:48 04.01.2021
4101 Clouds 4 1026 76 10000 5.1 40 06:56 04.01.2021
4102 Clouds 4 1026 75 10000 5.1 50 05:21 04.01.2021
4103 Clouds 4 1025 86 10000 6.7 50 02:31 04.01.2021
4104 Rain 4 1025 86 10000 2.1 10 00:29 04.01.2021
4105 Clouds 3 1025 93 10000 7.2 60 23:47 03.01.2021
4106 Rain 3 1025 78 10000 6.7 90 23:19 03.01.2021
4107 Clouds 4 1025 86 10000 4.1 60 22:42 03.01.2021
4108 Clouds 4 1025 86 10000 4.1 60 22:23 03.01.2021
4109 Clouds 3 1024 86 10000 4.6 80 21:46 03.01.2021
4110 Clouds 3 1024 86 10000 4.6 80 21:24 03.01.2021
4111 Rain 3 1024 93 10000 3.1 360 20:42 03.01.2021
4112 Clouds 2 1024 93 10000 4.1 360 20:20 03.01.2021
4113 Clouds 2 1024 93 10000 3.6 350 19:52 03.01.2021
4114 Clouds 2 1024 93 10000 3.6 350 19:33 03.01.2021
4115 Rain 3 1023 93 10000 5.1 350 18:52 03.01.2021
4116 Clouds 3 1023 93 10000 5.1 30 18:33 03.01.2021
4117 Rain 3 1023 86 10000 4.6 360 17:53 03.01.2021
4118 Clouds 3 1023 86 10000 4.6 360 17:29 03.01.2021
4119 Clouds 3 1023 81 10000 5.7 360 16:57 03.01.2021
4120 Clouds 3 1023 81 10000 5.7 360 16:38 03.01.2021
4121 Clouds 3 1023 78 10000 4.6 340 16:18 03.01.2021
4122 Clouds 3 1023 78 10000 6.2 350 15:41 03.01.2021
4123 Clouds 3 1023 75 10000 4.1 340 15:19 03.01.2021
4124 Clouds 3 1023 80 10000 4.6 340 14:41 03.01.2021
4125 Clouds 2 1023 86 10000 5.1 340 13:55 03.01.2021
4126 Clouds 2 1024 86 10000 5.1 330 13:26 03.01.2021
4127 Clouds 2 1024 86 10000 5.1 320 12:58 03.01.2021
4128 Clouds 0 1024 92 10000 4.1 340 11:46 03.01.2021
4129 Clouds 0 1024 92 10000 4.1 340 11:27 03.01.2021
4130 Clouds 0 1024 92 10000 4.6 340 10:57 03.01.2021
4131 Clouds 0 1024 92 10000 4.6 320 10:32 03.01.2021
4132 Clouds 0 1023 92 10000 3.6 300 09:45 03.01.2021
4133 Clouds 0 1023 92 10000 3.6 300 09:24 03.01.2021
4134 Clouds 0 1023 86 10000 4.6 320 08:29 03.01.2021
4135 Clouds 0 1023 92 10000 5.1 330 06:54 03.01.2021
4136 Clouds -1 1023 92 10000 5.1 310 03:20 03.01.2021
4137 Clouds -1 1023 86 10000 4.1 320 02:23 03.01.2021
4138 Clouds -1 1023 92 10000 4.6 320 00:25 03.01.2021
4139 Clouds 0 1022 92 10000 4.6 310 23:42 02.01.2021
4140 Clouds 0 1022 92 10000 3.6 300 23:18 02.01.2021
4141 Clouds 0 1022 92 10000 4.6 330 22:45 02.01.2021
4142 Clouds 0 1022 92 10000 4.6 330 22:27 02.01.2021
4143 Clouds 0 1022 86 10000 6.2 330 21:38 02.01.2021
4144 Clouds 0 1021 86 10000 5.1 330 21:20 02.01.2021
4145 Clouds 0 1021 86 10000 5.1 330 20:41 02.01.2021
4146 Clouds 0 1021 91 10000 3.6 330 20:21 02.01.2021
4147 Clouds 1 1021 86 10000 4.6 340 19:43 02.01.2021
4148 Clouds 1 1021 86 10000 4.6 340 19:43 02.01.2021
4149 Clouds 2 1021 89 10000 5.1 330 19:19 02.01.2021
4150 Clouds 2 1021 89 10000 3.6 310 18:43 02.01.2021
4151 Clouds 2 1021 86 10000 3.6 310 18:25 02.01.2021
4152 Clouds 3 1020 86 10000 5.1 330 17:46 02.01.2021
4153 Clouds 3 1020 86 10000 5.7 330 17:25 02.01.2021
4154 Clouds 3 1020 86 10000 5.7 330 16:38 02.01.2021
4155 Clouds 4 1019 93 10000 6.2 320 16:19 02.01.2021
4156 Clouds 4 1019 93 10000 5.7 310 15:42 02.01.2021
4157 Clouds 4 1019 93 10000 5.1 300 15:24 02.01.2021
4158 Clouds 3 1019 93 10000 5.7 300 14:37 02.01.2021
4159 Clouds 3 1019 93 10000 6.2 300 13:59 02.01.2021
4160 Clouds 3 1020 93 10000 5.7 290 13:38 02.01.2021
4161 Clouds 3 1020 93 10000 5.7 290 12:54 02.01.2021
4162 Clouds 2 1020 100 10000 5.7 280 12:32 02.01.2021
4163 Clouds 2 1020 91 10000 6.2 280 11:48 02.01.2021
4164 Rain 2 1020 94 10000 6.7 280 11:22 02.01.2021
4165 Rain 1 1019 94 10000 5.1 270 10:51 02.01.2021
4166 Rain 1 1019 94 10000 5.1 270 10:30 02.01.2021
4167 Rain 1 1019 94 10000 5.1 280 09:54 02.01.2021
4168 Rain 1 1019 92 10000 6.2 280 09:27 02.01.2021
4169 Rain 1 1019 92 6000 6.2 270 08:50 02.01.2021
4170 Rain 1 1019 92 6000 6.2 270 08:28 02.01.2021
4171 Clouds 1 1019 92 10000 5.1 260 07:47 02.01.2021
4172 Clouds 1 1019 94 10000 5.7 260 07:22 02.01.2021
4173 Clear 1 1020 95 10000 4.1 260 06:42 02.01.2021
4174 Clear 0 1020 92 10000 5.1 280 05:45 02.01.2021
4175 Clear -1 1020 92 10000 4.1 290 00:58 02.01.2021
4176 Clear 0 1020 92 10000 4.1 300 00:37 02.01.2021
4177 Clear 0 1019 92 10000 5.1 310 23:55 01.01.2021
4178 Clear 1 1019 94 10000 4.6 310 23:21 01.01.2021
4179 Clear 1 1019 94 10000 4.1 310 22:47 01.01.2021
4180 Clear 1 1019 91 10000 4.1 310 22:24 01.01.2021
4181 Clear 1 1019 91 10000 4.1 310 21:44 01.01.2021
4182 Clouds 1 1018 90 10000 3.6 300 21:22 01.01.2021
4183 Clouds 1 1018 90 10000 3.6 300 20:53 01.01.2021
4184 Clouds 1 1018 90 10000 3.6 310 20:22 01.01.2021
4185 Clouds 1 1018 90 10000 3.6 310 19:43 01.01.2021
4186 Clouds 1 1018 90 10000 3.6 310 19:24 01.01.2021
4187 Clouds 2 1018 90 10000 3.1 300 18:59 01.01.2021
4188 Clouds 2 1018 90 10000 3.6 310 18:40 01.01.2021
4189 Clouds 2 1017 93 10000 3.6 320 18:19 01.01.2021
4190 Clouds 3 1017 86 10000 3.6 320 17:42 01.01.2021
4191 Clouds 4 1017 86 10000 3.1 330 17:18 01.01.2021
4192 Clouds 5 1016 80 10000 4.1 320 16:40 01.01.2021
4193 Clouds 5 1016 80 10000 4.6 330 15:56 01.01.2021
4194 Clouds 5 1016 80 10000 4.6 330 15:37 01.01.2021
4195 Clouds 5 1016 80 10000 4.6 320 14:42 01.01.2021
4196 Clouds 4 1016 86 10000 4.1 320 14:19 01.01.2021
4197 Clouds 3 1016 86 10000 4.6 310 13:37 01.01.2021
4198 Clouds 3 1016 93 10000 3.1 290 12:48 01.01.2021
4199 Clouds 2 1016 93 10000 3.1 290 12:25 01.01.2021
4200 Clouds 2 1016 84 10000 4.1 290 11:40 01.01.2021
4201 Clouds 1 1016 89 10000 3.6 270 11:18 01.01.2021
4202 Clouds 1 1016 89 10000 3.6 270 10:51 01.01.2021
4203 Clouds 1 1015 93 10000 4.1 310 09:53 01.01.2021
4204 Clouds 1 1015 92 10000 4.1 290 09:24 01.01.2021
4205 Clouds 1 1014 88 10000 4.1 300 08:30 01.01.2021
4206 Clouds 4 1014 86 10000 6.2 330 06:24 01.01.2021
4207 Clouds 4 1013 86 10000 3.6 340 04:49 01.01.2021
4208 Clouds 5 1012 80 10000 6.7 350 01:40 01.01.2021
4209 Clouds 5 1011 86 10000 7.7 350 00:32 01.01.2021
4210 Clouds 4 1011 86 10000 6.2 340 23:38 31.12.2020
4211 Clouds 4 1011 93 10000 6.7 350 23:20 31.12.2020
4212 Clouds 4 1010 93 10000 6.7 350 22:42 31.12.2020
4213 Clouds 4 1010 93 10000 6.7 350 22:21 31.12.2020
4214 Rain 4 1010 93 10000 6.7 350 21:55 31.12.2020
4215 Clouds 4 1010 93 10000 5.7 350 21:33 31.12.2020
4216 Clouds 4 1009 93 10000 6.7 350 20:58 31.12.2020
4217 Rain 4 1009 93 10000 7.2 340 20:27 31.12.2020
4218 Rain 3 1008 100 10000 6.7 340 19:49 31.12.2020
4219 Clouds 3 1008 100 10000 6.7 340 19:31 31.12.2020
4220 Clouds 3 1008 93 10000 4.6 320 18:51 31.12.2020
4221 Clouds 2 1007 93 10000 5.1 310 18:25 31.12.2020
4222 Clouds 2 1007 93 10000 5.1 310 17:46 31.12.2020
4223 Clouds 2 1007 93 10000 5.1 310 17:26 31.12.2020
4224 Clouds 2 1007 93 10000 6.2 310 16:55 31.12.2020
4225 Clouds 2 1007 93 10000 5.7 310 16:37 31.12.2020
4226 Clouds 2 1006 93 10000 5.1 280 16:18 31.12.2020
4227 Clouds 2 1006 93 10000 4.1 290 15:42 31.12.2020
4228 Rain 2 1007 80 10000 6.2 310 15:18 31.12.2020
4229 Rain 2 1006 80 10000 5.7 300 14:40 31.12.2020
4230 Rain 3 1006 76 10000 5.7 310 14:21 31.12.2020
4231 Clouds 2 1006 76 10000 5.1 300 13:42 31.12.2020
4232 Clouds 2 1006 79 10000 6.2 300 13:24 31.12.2020
4233 Clouds 2 1006 79 10000 5.1 300 13:24 31.12.2020
4234 Clouds 2 1006 79 10000 6.2 300 12:55 31.12.2020
4235 Clouds 1 1006 76 10000 5.7 300 12:37 31.12.2020
4236 Clouds 1 1006 84 10000 6.2 290 11:54 31.12.2020
4237 Clouds 0 1006 87 10000 6.7 290 11:32 31.12.2020
4238 Clouds 0 1006 92 10000 5.1 270 10:52 31.12.2020
4239 Clouds 0 1006 92 10000 5.1 270 10:31 31.12.2020
4240 Snow 0 1006 92 7000 5.1 260 09:59 31.12.2020
4241 Clouds 0 1006 92 10000 5.1 260 09:39 31.12.2020
4242 Snow 0 1006 100 10000 5.7 270 09:21 31.12.2020
4243 Snow 0 1005 100 10000 5.7 260 08:46 31.12.2020
4244 Clouds -1 1005 100 10000 5.7 260 08:27 31.12.2020
4245 Clear -1 1005 92 10000 6.2 270 07:52 31.12.2020
4246 Clouds -1 1006 92 10000 5.7 270 06:49 31.12.2020
4247 Clear -1 1006 100 10000 5.7 260 05:30 31.12.2020
4248 Clear -1 1006 92 10000 6.7 280 03:24 31.12.2020
4249 Clear -1 1006 92 10000 6.2 280 02:26 31.12.2020
4250 Clear 0 1006 92 10000 5.7 280 01:53 31.12.2020
4251 Clear 0 1006 92 10000 4.6 280 01:33 31.12.2020
4252 Clear 0 1006 92 10000 5.1 270 00:52 31.12.2020
4253 Clear 0 1006 92 10000 5.1 280 23:55 30.12.2020
4254 Clear 0 1005 100 10000 4.6 280 23:20 30.12.2020
4255 Clear 0 1005 92 10000 5.1 280 22:52 30.12.2020
4256 Clear 0 1005 92 10000 5.1 280 22:32 30.12.2020
4257 Clear 0 1005 92 10000 5.1 290 21:49 30.12.2020
4258 Clear 0 1005 92 10000 5.1 290 21:25 30.12.2020
4259 Clear 0 1005 92 10000 4.6 290 20:52 30.12.2020
4260 Clouds 0 1005 100 10000 5.1 280 20:25 30.12.2020
4261 Clouds 1 1005 90 10000 4.6 290 19:42 30.12.2020
4262 Clouds 1 1005 88 10000 4.6 290 19:23 30.12.2020
4263 Clouds 1 1005 88 10000 4.1 280 18:57 30.12.2020
4264 Clouds 1 1004 87 10000 3.6 290 18:37 30.12.2020
4265 Clouds 1 1004 87 10000 4.1 290 18:19 30.12.2020
4266 Clouds 2 1004 87 10000 4.1 290 17:41 30.12.2020
4267 Clouds 2 1004 85 10000 3.6 310 17:21 30.12.2020
4268 Clouds 2 1003 85 10000 4.1 290 16:41 30.12.2020
4269 Clouds 2 1003 86 10000 4.6 280 15:50 30.12.2020
4270 Clouds 2 1003 93 10000 4.1 270 15:29 30.12.2020
4271 Clouds 2 1003 86 10000 5.1 280 14:45 30.12.2020
4272 Clouds 2 1003 85 10000 5.1 280 14:26 30.12.2020
4273 Clouds 2 1003 85 10000 5.1 280 13:53 30.12.2020
4274 Clouds 2 1003 81 10000 4.1 270 12:49 30.12.2020
4275 Clouds 2 1003 85 10000 3.1 250 12:24 30.12.2020
4276 Clouds 2 1003 85 10000 3.1 250 11:39 30.12.2020
4277 Clouds 2 1003 90 10000 3.1 250 11:20 30.12.2020
4278 Clouds 2 1003 90 10000 3.1 250 10:55 30.12.2020
4279 Clouds 1 1003 86 10000 4.1 250 10:36 30.12.2020
4280 Clouds 2 1002 86 10000 4.1 270 09:55 30.12.2020
4281 Clouds 2 1002 86 10000 4.1 260 09:36 30.12.2020
4282 Clouds 1 1002 86 10000 3.6 260 08:35 30.12.2020
4283 Clouds 1 1002 86 10000 3.6 250 07:32 30.12.2020
4284 Clouds 1 1002 86 10000 3.1 240 06:54 30.12.2020
4285 Snow 1 1002 86 10000 2.6 240 06:35 30.12.2020
4286 Clouds 1 1002 94 10000 3.1 250 05:46 30.12.2020
4287 Clouds 1 1002 94 10000 3.1 250 05:27 30.12.2020
4288 Clouds 1 1002 92 10000 3.1 250 03:29 30.12.2020
4289 Clouds 1 1002 86 10000 4.6 270 02:47 30.12.2020
4290 Clouds 1 1002 86 10000 4.6 270 02:27 30.12.2020
4291 Clouds 2 1003 86 10000 5.7 280 01:34 30.12.2020
4292 Clouds 2 1003 86 10000 3.6 270 00:51 30.12.2020
4293 Clouds 2 1003 86 10000 3.6 270 00:32 30.12.2020
4294 Clouds 2 1002 86 10000 5.1 270 23:58 29.12.2020
4295 Clouds 2 1003 86 10000 4.6 280 23:40 29.12.2020
4296 Clouds 2 1002 86 10000 5.1 280 23:21 29.12.2020
4297 Clouds 2 1002 86 10000 6.2 290 22:43 29.12.2020
4298 Clouds 2 1002 86 10000 6.2 290 22:23 29.12.2020
4299 Clouds 3 1002 88 10000 5.7 300 21:47 29.12.2020
4300 Clouds 3 1002 85 10000 5.7 300 21:29 29.12.2020
4301 Clouds 3 1001 85 10000 6.7 290 20:48 29.12.2020
4302 Clouds 3 1001 85 10000 6.7 290 20:26 29.12.2020
4303 Clouds 3 1001 86 10000 5.7 300 19:56 29.12.2020
4304 Clouds 3 1001 86 10000 5.7 300 19:37 29.12.2020
4305 Clouds 4 1001 86 10000 7.2 310 19:18 29.12.2020
4306 Clouds 4 1000 86 10000 6.2 290 18:39 29.12.2020
4307 Clouds 4 1000 80 10000 7.2 320 18:19 29.12.2020
4308 Clouds 5 1000 80 10000 7.2 320 17:44 29.12.2020
4309 Clouds 5 999 80 10000 7.7 310 17:19 29.12.2020
4310 Clouds 5 999 80 10000 8.2 310 16:36 29.12.2020
4311 Clouds 5 998 80 10000 7.2 310 15:59 29.12.2020
4312 Clouds 5 998 80 10000 7.2 310 15:36 29.12.2020
4313 Clouds 5 998 80 10000 7.2 320 14:58 29.12.2020
4314 Clouds 5 997 80 10000 8.2 320 14:36 29.12.2020
4315 Clouds 5 997 86 10000 7.7 310 14:18 29.12.2020
4316 Clouds 5 997 86 10000 7.2 320 13:39 29.12.2020
4317 Clouds 4 996 86 10000 6.7 320 13:18 29.12.2020
4318 Clouds 4 996 86 10000 7.7 320 12:37 29.12.2020
4319 Clouds 3 996 81 10000 6.2 310 12:19 29.12.2020
4320 Clouds 3 996 81 10000 6.2 310 11:52 29.12.2020
4321 Clouds 2 995 85 10000 4.6 310 11:31 29.12.2020
4322 Clouds 2 993 86 10000 6.7 320 10:23 29.12.2020
4323 Clouds 2 992 86 10000 5.7 310 09:48 29.12.2020
4324 Clouds 3 992 93 10000 6.2 320 09:20 29.12.2020
4325 Clouds 3 992 93 10000 6.2 320 09:20 29.12.2020
4326 Clouds 3 992 93 10000 6.2 320 08:53 29.12.2020
4327 Clouds 3 991 86 10000 6.2 320 08:22 29.12.2020
4328 Clouds 3 990 93 10000 7.2 300 07:26 29.12.2020
4329 Clouds 2 989 89 10000 2.6 270 06:26 29.12.2020
4330 Clouds 4 986 86 10000 7.7 320 03:45 29.12.2020
4331 Clouds 4 984 86 10000 9.8 300 00:47 29.12.2020
4332 Clouds 4 984 86 10000 9.8 290 00:20 29.12.2020
4333 Clouds 4 984 86 10000 10.3 290 23:34 28.12.2020
4334 Clouds 4 983 86 10000 10.3 290 22:28 28.12.2020
4335 Clouds 4 983 86 10000 7.2 280 21:45 28.12.2020
4336 Clouds 4 983 86 10000 7.2 280 21:24 28.12.2020
4337 Clouds 4 983 86 10000 8.7 300 20:42 28.12.2020
4338 Clouds 4 983 86 10000 9.3 310 20:22 28.12.2020
4339 Clouds 4 982 86 10000 9.8 300 19:48 28.12.2020
4340 Clouds 4 982 86 10000 9.8 300 19:24 28.12.2020
4341 Clouds 5 981 86 10000 9.3 300 18:52 28.12.2020
4342 Clouds 5 981 86 10000 9.3 300 18:28 28.12.2020
4343 Clouds 5 981 86 10000 9.3 300 17:45 28.12.2020
4344 Clouds 5 981 86 10000 10.3 310 17:25 28.12.2020
4345 Clouds 5 980 86 10000 10.8 310 16:45 28.12.2020
4346 Clouds 5 980 86 10000 10.8 310 16:24 28.12.2020
4347 Rain 5 980 86 10000 8.7 310 15:50 28.12.2020
4348 Clouds 4 979 93 8000 8.7 300 14:58 28.12.2020
4349 Rain 4 979 93 8000 6.2 310 13:59 28.12.2020
4350 Rain 4 979 93 8000 6.7 300 13:35 28.12.2020
4351 Clouds 4 979 86 10000 7.7 310 12:55 28.12.2020
4352 Rain 4 979 86 10000 7.2 300 12:24 28.12.2020
4353 Clouds 4 978 86 10000 5.7 310 11:47 28.12.2020
4354 Clouds 4 978 86 10000 5.7 310 11:25 28.12.2020
4355 Clouds 4 978 80 10000 3.1 320 10:49 28.12.2020
4356 Clouds 4 978 80 10000 3.1 320 10:28 28.12.2020
4357 Clouds 4 975 80 10000 8.2 340 09:49 28.12.2020
4358 Clouds 4 974 80 10000 8.7 350 09:21 28.12.2020
4359 Clouds 4 974 80 10000 8.7 350 08:52 28.12.2020
4360 Clouds 4 970 86 10000 9.3 320 06:51 28.12.2020
4361 Clouds 4 966 86 10000 9.8 300 04:41 28.12.2020
4362 Clouds 3 965 93 10000 6.7 260 02:44 28.12.2020
4363 Rain 3 966 93 10000 5.7 250 00:53 28.12.2020
4364 Snow 3 967 93 4000 7.2 250 23:49 27.12.2020
4365 Rain 3 967 84 10000 5.7 230 23:20 27.12.2020
4366 Rain 2 968 90 10000 6.7 240 21:58 27.12.2020
4367 Clouds 2 968 86 10000 6.2 240 21:27 27.12.2020
4368 Clouds 2 969 86 10000 6.2 250 20:48 27.12.2020
4369 Clouds 2 969 85 10000 4.6 260 19:48 27.12.2020
4370 Clouds 2 969 84 10000 4.6 260 19:22 27.12.2020
4371 Clouds 2 969 83 10000 6.7 270 18:47 27.12.2020
4372 Clouds 2 968 93 10000 6.7 270 18:20 27.12.2020
4373 Clouds 3 969 93 10000 7.2 270 17:49 27.12.2020
4374 Clouds 3 969 93 10000 7.2 270 17:30 27.12.2020
4375 Clouds 4 969 80 10000 4.1 250 16:43 27.12.2020
4376 Clouds 4 969 80 10000 4.6 250 15:59 27.12.2020
4377 Clouds 4 969 80 10000 5.1 250 15:21 27.12.2020
4378 Clouds 4 969 80 10000 6.7 250 14:41 27.12.2020
4379 Clouds 4 970 80 10000 6.7 250 14:22 27.12.2020
4380 Clouds 4 970 80 10000 6.7 250 13:23 27.12.2020
4381 Clouds 4 971 74 10000 7.2 250 12:49 27.12.2020
4382 Clouds 3 972 76 10000 6.7 250 12:22 27.12.2020
4383 Clouds 3 972 76 10000 6.7 250 11:39 27.12.2020
4384 Clouds 2 973 79 10000 6.7 250 10:52 27.12.2020
4385 Clouds 2 973 81 10000 7.2 250 10:26 27.12.2020
4386 Clouds 2 973 81 10000 7.2 250 09:56 27.12.2020
4387 Clouds 2 974 81 10000 6.2 240 08:50 27.12.2020
4388 Clouds 3 974 81 10000 6.2 250 08:26 27.12.2020
4389 Clouds 2 974 81 10000 6.7 250 07:27 27.12.2020
4390 Clouds 2 975 80 10000 7.7 260 05:46 27.12.2020
4391 Rain 4 975 86 10000 7.2 260 04:32 27.12.2020
4392 Clouds 5 976 86 10000 5.7 260 03:21 27.12.2020
4393 Rain 6 977 93 10000 6.2 240 01:34 27.12.2020
4394 Rain 6 979 93 8000 8.2 260 00:24 27.12.2020
4395 Rain 7 980 93 8000 8.2 230 23:40 26.12.2020
4396 Rain 8 981 87 8000 8.7 230 23:19 26.12.2020
4397 Rain 8 983 93 10000 8.2 230 22:36 26.12.2020
4398 Rain 8 984 93 10000 9.3 230 22:18 26.12.2020
4399 Rain 8 986 93 10000 8.7 230 21:48 26.12.2020
4400 Rain 8 987 93 10000 8.7 230 21:22 26.12.2020
4401 Rain 8 988 87 10000 8.7 230 20:42 26.12.2020
4402 Rain 8 990 87 10000 8.7 240 20:19 26.12.2020
4403 Rain 8 991 87 10000 9.3 240 19:27 26.12.2020
4404 Rain 8 994 81 10000 9.3 240 18:53 26.12.2020
4405 Rain 7 994 81 10000 9.3 240 18:29 26.12.2020
4406 Rain 8 997 70 10000 9.8 230 17:42 26.12.2020
4407 Clouds 8 998 70 10000 7.7 240 17:21 26.12.2020
4408 Rain 8 1000 75 10000 7.2 240 16:37 26.12.2020
4409 Clouds 8 1002 75 10000 7.7 230 15:38 26.12.2020
4410 Clouds 8 1004 75 10000 7.2 230 15:19 26.12.2020
4411 Clouds 8 1004 81 10000 7.7 230 14:29 26.12.2020
4412 Clouds 8 1006 81 10000 8.2 230 13:54 26.12.2020
4413 Clouds 8 1008 81 10000 7.7 240 13:32 26.12.2020
4414 Clouds 7 1010 81 10000 6.7 230 12:50 26.12.2020
4415 Clouds 7 1010 81 10000 6.7 230 12:30 26.12.2020
4416 Clouds 7 1012 75 10000 5.7 230 11:51 26.12.2020
4417 Clouds 7 1012 75 10000 5.7 230 11:24 26.12.2020
4418 Clouds 7 1013 81 10000 5.7 240 10:55 26.12.2020
4419 Clouds 7 1014 81 10000 5.7 230 10:28 26.12.2020
4420 Clouds 7 1014 81 10000 5.1 240 09:55 26.12.2020
4421 Clouds 7 1015 81 10000 5.1 230 09:32 26.12.2020
4422 Clouds 7 1017 81 10000 4.6 250 08:39 26.12.2020
4423 Clouds 7 1017 87 10000 4.6 240 07:56 26.12.2020
4424 Clouds 7 1018 81 10000 6.2 250 07:20 26.12.2020
4425 Clouds 8 1021 93 10000 3.6 240 03:53 26.12.2020
4426 Clouds 8 1022 93 5000 4.6 240 02:24 26.12.2020
4427 Clouds 7 1024 100 10000 5.1 240 00:28 26.12.2020
4428 Clouds 7 1024 93 10000 5.7 240 23:43 25.12.2020
4429 Clouds 7 1024 93 10000 5.7 240 23:25 25.12.2020
4430 Clouds 6 1025 93 10000 5.7 240 22:50 25.12.2020
4431 Clouds 6 1025 93 10000 5.7 240 22:23 25.12.2020
4432 Clouds 6 1026 87 10000 4.6 240 21:35 25.12.2020
4433 Clouds 6 1026 87 10000 5.7 240 20:59 25.12.2020
4434 Clouds 6 1027 87 10000 6.2 250 20:37 25.12.2020
4435 Clouds 6 1027 93 10000 5.1 240 19:50 25.12.2020
4436 Clouds 6 1027 93 10000 5.1 240 19:30 25.12.2020
4437 Clouds 6 1028 86 10000 4.6 240 18:39 25.12.2020
4438 Clouds 6 1028 86 10000 4.6 240 18:39 25.12.2020
4439 Clouds 6 1029 86 10000 3.6 240 17:54 25.12.2020
4440 Clouds 6 1029 86 10000 3.6 240 17:34 25.12.2020
4441 Clouds 5 1030 86 10000 3.6 240 16:48 25.12.2020
4442 Clouds 6 1030 86 10000 4.6 250 16:20 25.12.2020
4443 Clouds 5 1031 86 10000 3.6 240 15:39 25.12.2020
4444 Clouds 5 1031 93 10000 3.6 240 15:21 25.12.2020
4445 Clouds 5 1032 93 10000 3.6 230 14:30 25.12.2020
4446 Clouds 5 1033 75 10000 4.1 250 13:46 25.12.2020
4447 Clouds 5 1033 75 10000 4.1 250 13:26 25.12.2020
4448 Clouds 5 1033 80 10000 4.6 250 12:47 25.12.2020
4449 Clouds 5 1033 80 10000 4.6 250 12:25 25.12.2020
4450 Clouds 4 1033 76 10000 3.6 240 11:46 25.12.2020
4451 Clouds 3 1034 81 10000 3.1 240 11:21 25.12.2020
4452 Clouds 3 1034 86 10000 3.6 240 10:32 25.12.2020
4453 Clouds 2 1034 86 10000 3.6 260 09:49 25.12.2020
4454 Clouds 2 1035 86 10000 3.1 250 08:49 25.12.2020
4455 Clouds 2 1035 86 10000 3.1 250 08:28 25.12.2020
4456 Clouds 1 1035 95 10000 4.1 270 06:48 25.12.2020
4457 Clouds 1 1035 93 10000 3.6 270 04:47 25.12.2020
4458 Clouds 1 1036 86 10000 4.1 280 02:19 25.12.2020
4459 Clouds 1 1036 95 10000 4.1 300 00:19 25.12.2020
4460 Clouds 1 1036 90 10000 3.1 300 23:29 24.12.2020
4461 Clouds 1 1036 82 10000 0.89 285 22:53 24.12.2020
4462 Clouds 1 1036 88 10000 5.1 290 22:23 24.12.2020
4463 Clouds 1 1036 86 10000 3.6 270 21:43 24.12.2020
4464 Clouds 1 1035 85 10000 3.6 310 20:53 24.12.2020
4465 Clouds 1 1035 86 10000 4.1 290 19:34 24.12.2020
4466 Clouds 3 1034 74 10000 5.1 320 18:21 24.12.2020
4467 Clouds 3 1033 74 10000 3.6 330 17:38 24.12.2020
4468 Clouds 4 1033 64 10000 4.6 340 17:20 24.12.2020
4469 Clouds 4 1033 64 10000 5.7 340 16:25 24.12.2020
4470 Clouds 5 1032 69 10000 6.7 350 15:43 24.12.2020
4471 Clouds 5 1032 64 10000 8.2 350 15:21 24.12.2020
4472 Clouds 5 1032 64 10000 8.2 350 14:56 24.12.2020
4473 Clouds 5 1031 65 10000 7.7 350 14:24 24.12.2020
4474 Clouds 5 1031 71 10000 6.7 350 13:49 24.12.2020
4475 Clouds 5 1031 71 10000 6.7 350 13:30 24.12.2020
4476 Clouds 4 1031 71 10000 7.2 330 12:56 24.12.2020
4477 Clouds 4 1031 72 10000 6.2 330 12:37 24.12.2020
4478 Clouds 4 1031 76 10000 6.7 330 12:18 24.12.2020
4479 Clouds 3 1030 76 10000 8.2 330 11:38 24.12.2020
4480 Clouds 3 1030 83 10000 9.3 320 11:18 24.12.2020
4481 Clouds 2 1029 83 10000 5.7 300 10:43 24.12.2020
4482 Clouds 2 1028 86 10000 4.6 270 09:54 24.12.2020
4483 Clouds 2 1028 86 10000 4.6 270 09:35 24.12.2020
4484 Clouds 2 1027 86 10000 5.7 280 08:48 24.12.2020
4485 Clouds 2 1027 86 10000 6.7 300 07:51 24.12.2020
4486 Clouds 2 1027 86 10000 6.7 300 07:51 24.12.2020
4487 Clouds 2 1026 87 10000 6.7 290 07:30 24.12.2020
4488 Clouds 2 1026 84 10000 6.2 280 06:23 24.12.2020
4489 Clear 2 1024 93 10000 6.2 310 03:23 24.12.2020
4490 Clear 2 1023 78 10000 5.7 320 01:48 24.12.2020
4491 Clear 3 1022 93 10000 5.7 330 01:18 24.12.2020
4492 Clear 3 1022 93 10000 5.7 330 01:18 24.12.2020
4493 Clouds 4 1021 86 10000 7.2 330 00:23 24.12.2020
4494 Clouds 4 1021 86 10000 7.2 330 23:56 23.12.2020
4495 Clouds 4 1021 86 10000 9.8 330 23:38 23.12.2020
4496 Clouds 4 1020 80 10000 5.1 350 23:18 23.12.2020
4497 Clouds 4 1019 80 10000 7.7 350 22:42 23.12.2020
4498 Clouds 4 1018 86 10000 7.7 350 22:19 23.12.2020
4499 Clouds 4 1018 80 10000 7.7 350 21:32 23.12.2020
4500 Clouds 5 1017 86 10000 8.2 350 20:59 23.12.2020
4501 Clouds 5 1016 86 10000 8.7 350 20:37 23.12.2020
4502 Clouds 5 1016 80 10000 8.7 350 20:19 23.12.2020
4503 Clouds 5 1015 80 10000 8.2 350 19:42 23.12.2020
4504 Clouds 6 1014 80 10000 8.7 360 19:22 23.12.2020
4505 Clouds 6 1014 80 10000 8.7 360 18:52 23.12.2020
4506 Clouds 6 1014 80 10000 8.7 360 18:34 23.12.2020
4507 Clouds 6 1012 81 10000 10.8 10 17:43 23.12.2020
4508 Clouds 6 1011 81 10000 10.3 10 17:22 23.12.2020
4509 Clouds 6 1011 81 10000 9.8 10 16:56 23.12.2020
4510 Clouds 6 1011 81 10000 9.8 10 16:31 23.12.2020
4511 Clouds 6 1010 81 10000 10.8 10 15:59 23.12.2020
4512 Clouds 5 1010 86 10000 12.3 20 15:39 23.12.2020
4513 Clouds 6 1010 81 10000 12.3 20 15:21 23.12.2020
4514 Clouds 6 1009 81 10000 11.3 20 14:45 23.12.2020
4515 Rain 6 1009 86 10000 11.8 20 14:22 23.12.2020
4516 Rain 6 1009 86 10000 12.3 20 13:46 23.12.2020
4517 Rain 5 1009 93 10000 10.8 20 13:20 23.12.2020
4518 Rain 5 1009 81 9000 11.3 20 12:58 23.12.2020
4519 Rain 5 1009 81 9000 11.3 20 12:37 23.12.2020
4520 Rain 6 1008 81 10000 10.3 30 12:18 23.12.2020
4521 Rain 5 1008 93 10000 8.2 20 11:43 23.12.2020
4522 Rain 6 1008 86 10000 9.3 30 10:57 23.12.2020
4523 Rain 5 1008 86 10000 8.7 40 10:39 23.12.2020
4524 Clouds 5 1007 86 10000 9.3 30 09:39 23.12.2020
4525 Clouds 5 1007 86 10000 7.7 40 08:58 23.12.2020
4526 Clouds 5 1007 86 10000 7.7 40 08:33 23.12.2020
4527 Rain 5 1007 93 10000 9.3 40 07:51 23.12.2020
4528 Clouds 5 1007 86 10000 8.7 40 06:53 23.12.2020
4529 Clouds 4 1007 93 10000 7.7 50 06:35 23.12.2020
4530 Rain 5 1008 93 10000 6.2 40 05:24 23.12.2020
4531 Rain 5 1008 86 10000 7.2 50 03:56 23.12.2020
4532 Rain 6 1008 87 10000 4.1 60 00:33 23.12.2020
4533 Rain 6 1009 81 10000 5.7 60 23:45 22.12.2020
4534 Clouds 6 1009 86 10000 5.1 40 23:25 22.12.2020
4535 Clouds 6 1010 86 10000 4.6 70 22:43 22.12.2020
4536 Clouds 5 1010 86 10000 4.6 70 22:25 22.12.2020
4537 Clouds 5 1009 93 10000 2.1 20 21:54 22.12.2020
4538 Clouds 6 1010 93 10000 2.6 20 21:21 22.12.2020
4539 Clouds 5 1010 93 10000 2.6 20 20:55 22.12.2020
4540 Rain 5 1010 93 10000 3.1 10 20:37 22.12.2020
4541 Rain 5 1010 93 10000 2.6 360 20:18 22.12.2020
4542 Rain 5 1010 93 10000 2.6 350 19:41 22.12.2020
4543 Rain 5 1010 93 10000 2.6 20 19:20 22.12.2020
4544 Rain 5 1010 93 10000 2.6 50 18:47 22.12.2020
4545 Rain 5 1010 93 10000 3.1 80 18:27 22.12.2020
4546 Rain 5 1010 86 10000 2.1 60 17:41 22.12.2020
4547 Rain 5 1011 86 10000 1 110 17:18 22.12.2020
4548 Clouds 5 1011 86 10000 1 110 17:18 22.12.2020
4549 Clouds 5 1011 86 10000 1 0 16:47 22.12.2020
4550 Rain 5 1011 86 10000 1 0 16:21 22.12.2020
4551 Rain 6 1011 86 10000 1 0 15:49 22.12.2020
4552 Clouds 6 1011 86 10000 1 0 15:31 22.12.2020
4553 Rain 6 1011 86 10000 3.1 310 14:58 22.12.2020
4554 Clouds 6 1011 86 10000 3.1 310 14:40 22.12.2020
4555 Clouds 6 1012 75 10000 2.6 290 14:21 22.12.2020
4556 Clouds 6 1011 86 10000 2.6 290 13:45 22.12.2020
4557 Clouds 5 1012 80 10000 2.6 270 13:19 22.12.2020
4558 Clouds 5 1012 80 10000 2.6 270 12:53 22.12.2020
4559 Clouds 5 1012 80 10000 2.1 270 12:34 22.12.2020
4560 Clouds 4 1012 86 10000 2.1 250 11:58 22.12.2020
4561 Clouds 4 1012 86 10000 2.1 250 11:58 22.12.2020
4562 Clouds 3 1012 82 10000 2.1 260 11:39 22.12.2020
4563 Clouds 2 1011 86 10000 2.6 250 11:20 22.12.2020
4564 Clouds 2 1011 86 10000 2.6 250 10:53 22.12.2020
4565 Clouds 2 1011 88 10000 3.1 270 10:24 22.12.2020
4566 Clouds 2 1011 88 10000 3.1 270 09:57 22.12.2020
4567 Clouds 3 1010 86 10000 2.1 250 09:24 22.12.2020
4568 Clouds 3 1010 86 10000 2.1 250 08:53 22.12.2020
4569 Clouds 3 1010 86 10000 3.1 250 08:53 22.12.2020
4570 Clouds 3 1010 86 10000 3.1 250 08:32 22.12.2020
4571 Clouds 3 1010 86 10000 4.1 250 07:56 22.12.2020
4572 Clouds 3 1010 86 10000 4.1 250 07:56 22.12.2020
4573 Clouds 2 1010 93 10000 3.6 260 07:19 22.12.2020
4574 Clouds 2 1009 93 10000 2.6 240 05:48 22.12.2020
4575 Clouds 2 1008 93 10000 2.6 240 03:46 22.12.2020
4576 Clouds 3 1006 93 10000 3.1 270 01:35 22.12.2020
4577 Clouds 5 1003 93 10000 4.6 300 23:56 21.12.2020
4578 Clouds 5 1003 93 10000 4.6 300 23:37 21.12.2020
4579 Clouds 6 1002 100 10000 2.1 290 22:59 21.12.2020
4580 Clouds 6 1002 93 10000 4.6 320 22:36 21.12.2020
4581 Clouds 6 1002 100 10000 4.6 320 22:18 21.12.2020
4582 Clouds 6 1001 93 10000 4.6 320 21:41 21.12.2020
4583 Rain 6 1001 93 10000 5.1 330 21:22 21.12.2020
4584 Rain 6 1000 93 10000 5.1 330 20:40 21.12.2020
4585 Rain 7 1000 93 10000 4.6 340 20:19 21.12.2020
4586 Rain 8 999 93 8000 6.2 330 19:45 21.12.2020
4587 Rain 8 999 93 3000 4.6 320 19:20 21.12.2020
4588 Clouds 8 999 93 3000 4.6 320 18:53 21.12.2020
4589 Clouds 9 999 100 10000 3.6 310 18:34 21.12.2020
4590 Drizzle 9 998 93 2500 3.6 300 17:56 21.12.2020
4591 Mist 9 998 93 1500 3.1 280 17:37 21.12.2020
4592 Drizzle 9 998 93 2000 2.6 270 17:19 21.12.2020
4593 Clouds 9 997 93 6000 1 0 16:38 21.12.2020
4594 Clouds 9 997 100 2000 1.5 0 16:18 21.12.2020
4595 Clouds 9 997 93 10000 1.5 0 15:40 21.12.2020
4596 Fog 9 997 93 5810 2.6 140 14:57 21.12.2020
4597 Drizzle 9 997 93 1500 2.6 140 14:22 21.12.2020
4598 Clouds 9 998 100 2000 3.1 130 13:45 21.12.2020
4599 Clouds 9 998 100 1500 3.1 110 13:27 21.12.2020
4600 Clouds 9 999 100 1500 4.1 110 12:47 21.12.2020
4601 Clouds 8 999 100 1500 4.1 110 12:25 21.12.2020
4602 Clouds 8 999 100 1500 3.6 120 11:59 21.12.2020
4603 Clouds 8 999 100 1500 3.6 140 11:40 21.12.2020
4604 Clouds 8 999 100 1200 3.6 130 11:22 21.12.2020
4605 Clouds 8 999 93 2000 4.1 110 10:49 21.12.2020
4606 Clouds 8 999 93 2000 4.1 110 10:30 21.12.2020
4607 Clouds 8 1000 93 6000 4.6 120 09:49 21.12.2020
4608 Clouds 8 1000 93 6000 4.6 120 09:26 21.12.2020
4609 Clouds 8 1000 93 6000 3.1 140 08:54 21.12.2020
4610 Clouds 8 1001 93 6000 4.6 130 07:56 21.12.2020
4611 Clouds 8 1002 93 10000 3.1 140 06:47 21.12.2020
4612 Rain 7 1004 87 10000 2.1 140 04:58 21.12.2020
4613 Clouds 6 1007 80 10000 2.6 150 02:31 21.12.2020
4614 Clouds 6 1007 80 10000 2.6 210 00:34 21.12.2020
4615 Clouds 6 1008 75 10000 3.1 200 23:37 20.12.2020
4616 Clouds 6 1008 75 10000 3.6 220 23:18 20.12.2020
4617 Clouds 6 1008 75 10000 4.6 220 22:42 20.12.2020
4618 Clouds 6 1008 75 10000 4.6 230 22:22 20.12.2020
4619 Clouds 6 1007 81 10000 6.2 220 21:40 20.12.2020
4620 Clouds 6 1007 75 10000 5.7 230 21:21 20.12.2020
4621 Clouds 7 1007 75 10000 5.7 220 20:52 20.12.2020
4622 Clouds 6 1007 75 10000 5.7 220 20:26 20.12.2020
4623 Clouds 6 1006 75 10000 4.6 210 19:51 20.12.2020
4624 Clouds 6 1006 75 10000 4.6 210 19:33 20.12.2020
4625 Clouds 6 1006 75 10000 5.7 220 18:59 20.12.2020
4626 Clouds 6 1007 75 10000 6.2 220 18:40 20.12.2020
4627 Clouds 6 1006 75 10000 6.2 220 18:22 20.12.2020
4628 Clouds 6 1006 75 10000 4.6 220 17:44 20.12.2020
4629 Clouds 7 1006 70 10000 5.7 220 17:23 20.12.2020
4630 Clouds 7 1006 70 10000 4.6 220 16:45 20.12.2020
4631 Clouds 7 1005 75 10000 4.6 220 16:27 20.12.2020
4632 Clouds 7 1005 70 10000 5.7 220 15:48 20.12.2020
4633 Clouds 7 1005 75 10000 6.2 230 15:25 20.12.2020
4634 Clouds 7 1005 75 10000 5.1 230 14:54 20.12.2020
4635 Clouds 7 1005 75 10000 5.1 230 14:33 20.12.2020
4636 Clouds 7 1005 75 10000 5.1 230 13:47 20.12.2020
4637 Clouds 7 1005 75 10000 5.1 230 13:25 20.12.2020
4638 Clouds 7 1005 75 10000 4.6 230 12:58 20.12.2020
4639 Clouds 7 1005 81 10000 4.6 230 12:39 20.12.2020
4640 Clouds 6 1005 81 10000 5.1 220 12:19 20.12.2020
4641 Clouds 6 1004 81 10000 5.1 230 11:42 20.12.2020
4642 Clouds 6 1004 81 10000 4.6 230 10:59 20.12.2020
4643 Clouds 6 1004 86 10000 5.1 230 10:41 20.12.2020
4644 Clouds 6 1003 81 10000 5.1 230 10:20 20.12.2020
4645 Clouds 6 1003 81 10000 4.6 220 09:45 20.12.2020
4646 Clouds 6 1003 81 10000 4.6 220 09:27 20.12.2020
4647 Clouds 6 1002 81 10000 4.6 220 08:55 20.12.2020
4648 Clouds 6 1002 81 10000 4.1 230 08:36 20.12.2020
4649 Clouds 6 1002 81 10000 4.6 220 07:24 20.12.2020
4650 Clouds 7 1001 75 10000 4.6 220 05:44 20.12.2020
4651 Clouds 6 999 86 10000 4.6 200 01:45 20.12.2020
4652 Clouds 6 998 81 10000 4.6 220 00:37 20.12.2020
4653 Clouds 6 996 81 10000 5.1 220 23:20 19.12.2020
4654 Clouds 6 996 81 10000 5.1 220 22:56 19.12.2020
4655 Clouds 6 996 81 10000 5.1 220 22:37 19.12.2020
4656 Clouds 6 996 81 10000 5.7 220 22:19 19.12.2020
4657 Clouds 7 995 81 10000 6.2 210 21:42 19.12.2020
4658 Clouds 7 995 75 10000 6.2 200 21:23 19.12.2020
4659 Clouds 7 995 75 10000 4.6 200 20:44 19.12.2020
4660 Clouds 7 995 75 10000 4.6 190 20:21 19.12.2020
4661 Clouds 7 994 75 10000 5.1 190 19:51 19.12.2020
4662 Clouds 7 994 75 10000 5.1 190 19:33 19.12.2020
4663 Clouds 7 994 75 10000 6.7 220 18:41 19.12.2020
4664 Clouds 7 993 75 10000 6.2 220 18:23 19.12.2020
4665 Clouds 7 993 75 10000 5.7 230 17:48 19.12.2020
4666 Clouds 7 993 75 10000 5.7 230 17:48 19.12.2020
4667 Clouds 7 993 75 10000 5.7 230 17:24 19.12.2020
4668 Clouds 7 992 70 10000 7.7 240 16:45 19.12.2020
4669 Clouds 7 992 70 10000 7.7 240 16:27 19.12.2020
4670 Clouds 8 991 70 10000 8.2 230 15:59 19.12.2020
4671 Clouds 8 991 66 10000 8.7 200 15:40 19.12.2020
4672 Clouds 9 991 70 10000 6.7 200 14:43 19.12.2020
4673 Clouds 9 991 70 10000 7.7 200 14:22 19.12.2020
4674 Clouds 8 991 70 10000 7.7 210 13:42 19.12.2020
4675 Clouds 8 991 70 10000 7.7 210 13:20 19.12.2020
4676 Clouds 8 991 75 10000 6.7 210 12:45 19.12.2020
4677 Clouds 8 991 75 10000 6.7 210 12:26 19.12.2020
4678 Clouds 8 990 75 10000 6.7 220 11:58 19.12.2020
4679 Clouds 8 990 75 10000 6.2 220 11:40 19.12.2020
4680 Clouds 8 989 75 10000 8.7 200 10:45 19.12.2020
4681 Clouds 8 989 70 10000 6.7 170 10:27 19.12.2020
4682 Clouds 8 989 70 10000 6.7 170 09:56 19.12.2020
4683 Clouds 8 989 81 10000 6.7 160 09:38 19.12.2020
4684 Clouds 8 990 75 10000 5.1 160 08:36 19.12.2020
4685 Clouds 7 990 75 10000 6.2 200 07:25 19.12.2020
4686 Clouds 8 990 76 10000 5.7 200 06:54 19.12.2020
4687 Clouds 8 990 81 10000 6.2 200 06:21 19.12.2020
4688 Clouds 9 991 70 10000 5.1 190 05:19 19.12.2020
4689 Rain 9 991 76 10000 6.2 180 03:20 19.12.2020
4690 Clouds 8 992 76 10000 6.2 200 00:41 19.12.2020
4691 Clouds 9 992 81 10000 5.7 210 00:18 19.12.2020
4692 Clouds 9 991 81 10000 7.2 190 23:48 18.12.2020
4693 Clouds 9 991 76 10000 7.7 200 23:23 18.12.2020
4694 Clouds 9 991 81 10000 4.6 210 22:46 18.12.2020
4695 Clouds 9 991 81 10000 4.6 210 22:46 18.12.2020
4696 Clear 9 991 76 10000 4.6 200 22:24 18.12.2020
4697 Clear 9 992 76 10000 3.6 180 21:50 18.12.2020
4698 Clouds 10 992 81 10000 4.1 160 21:31 18.12.2020
4699 Rain 10 992 87 10000 2.6 150 20:42 18.12.2020
4700 Rain 10 993 87 10000 2.6 160 20:21 18.12.2020
4701 Rain 10 993 87 10000 7.2 190 19:45 18.12.2020
4702 Rain 10 993 76 10000 2.6 160 19:21 18.12.2020
4703 Rain 11 993 76 10000 3.6 180 18:43 18.12.2020
4704 Clouds 11 993 76 10000 3.6 180 18:24 18.12.2020
4705 Clouds 11 994 76 10000 5.1 190 17:28 18.12.2020
4706 Clouds 11 993 76 10000 5.1 210 16:57 18.12.2020
4707 Clouds 11 993 76 10000 5.1 210 16:38 18.12.2020
4708 Clouds 12 993 81 10000 4.6 220 16:18 18.12.2020
4709 Clouds 12 993 81 10000 6.7 210 15:42 18.12.2020
4710 Clouds 13 993 76 10000 6.7 210 15:24 18.12.2020
4711 Clouds 13 993 76 10000 9.3 200 14:55 18.12.2020
4712 Clouds 13 993 82 10000 8.7 210 14:22 18.12.2020
4713 Clouds 13 993 82 10000 6.7 200 13:51 18.12.2020
4714 Clouds 13 993 82 10000 6.7 200 13:31 18.12.2020
4715 Clouds 13 993 87 10000 4.1 130 12:50 18.12.2020
4716 Clouds 13 993 87 10000 4.1 130 12:27 18.12.2020
4717 Clouds 12 993 93 10000 8.7 160 11:26 18.12.2020
4718 Clouds 11 994 93 10000 6.7 150 10:40 18.12.2020
4719 Clouds 11 995 87 10000 6.2 140 10:21 18.12.2020
4720 Rain 11 996 87 10000 5.7 150 09:40 18.12.2020
4721 Rain 12 996 87 10000 6.2 160 09:22 18.12.2020
4722 Rain 12 996 87 10000 6.2 160 08:57 18.12.2020
4723 Rain 11 996 93 10000 8.7 150 08:36 18.12.2020
4724 Rain 11 997 87 10000 5.1 140 07:47 18.12.2020
4725 Clouds 10 998 87 10000 5.1 140 07:19 18.12.2020
4726 Clouds 10 998 87 10000 5.1 140 06:58 18.12.2020
4727 Clouds 10 999 87 10000 2.6 160 05:43 18.12.2020
4728 Clouds 9 999 87 10000 2.6 190 04:51 18.12.2020
4729 Clouds 12 1000 87 10000 4.6 200 02:31 18.12.2020
4730 Clouds 12 1000 87 10000 4.1 210 01:41 18.12.2020
4731 Clouds 12 1000 87 10000 4.1 210 00:28 18.12.2020
4732 Clouds 12 999 93 10000 3.1 170 23:50 17.12.2020
4733 Clouds 11 999 93 10000 2.6 160 23:19 17.12.2020
4734 Clouds 12 1000 93 10000 3.6 170 22:47 17.12.2020
4735 Clouds 12 1000 93 10000 3.6 170 22:27 17.12.2020
4736 Rain 12 1000 87 10000 6.7 190 21:44 17.12.2020
4737 Rain 12 1000 81 10000 6.2 190 21:20 17.12.2020
4738 Rain 12 1000 81 10000 6.2 190 20:45 17.12.2020
4739 Rain 12 1001 87 10000 6.7 170 20:19 17.12.2020
4740 Clouds 12 1001 81 10000 6.2 170 19:49 17.12.2020
4741 Clouds 12 1001 81 10000 5.7 160 19:25 17.12.2020
4742 Clouds 12 1002 81 10000 4.6 170 18:47 17.12.2020
4743 Clouds 11 1002 87 10000 6.2 160 18:27 17.12.2020
4744 Clouds 12 1002 81 10000 4.6 170 18:27 17.12.2020
4745 Clouds 12 1002 87 10000 6.2 160 17:58 17.12.2020
4746 Clouds 12 1002 76 10000 5.1 160 17:38 17.12.2020
4747 Clouds 11 1002 81 10000 5.1 160 17:20 17.12.2020
4748 Clouds 11 1003 81 10000 5.1 170 16:37 17.12.2020
4749 Clouds 11 1003 76 10000 5.7 170 16:18 17.12.2020
4750 Clouds 11 1003 76 10000 6.2 170 15:42 17.12.2020
4751 Clouds 11 1004 76 10000 6.7 190 15:23 17.12.2020
4752 Clouds 11 1004 76 10000 5.7 200 14:47 17.12.2020
4753 Clouds 11 1005 81 10000 4.6 190 14:20 17.12.2020
4754 Clouds 10 1005 81 10000 3.6 180 13:42 17.12.2020
4755 Clouds 10 1006 81 10000 2.1 150 13:18 17.12.2020
4756 Clouds 9 1006 81 10000 2.6 160 12:39 17.12.2020
4757 Clouds 9 1006 75 10000 3.1 160 12:21 17.12.2020
4758 Clouds 8 1006 75 10000 2.6 150 11:41 17.12.2020
4759 Clouds 8 1006 81 10000 3.6 190 11:20 17.12.2020
4760 Clouds 7 1006 75 10000 2.6 190 10:40 17.12.2020
4761 Clouds 7 1005 81 10000 3.6 210 09:36 17.12.2020
4762 Clouds 7 1005 81 10000 4.1 220 08:40 17.12.2020
4763 Clouds 7 1005 81 10000 4.1 220 07:42 17.12.2020
4764 Clouds 7 1004 81 10000 4.1 220 07:20 17.12.2020
4765 Clouds 7 1004 81 10000 4.6 220 06:47 17.12.2020
4766 Clouds 7 1004 81 10000 4.6 220 06:27 17.12.2020
4767 Clouds 7 1003 81 10000 4.6 220 03:29 17.12.2020
4768 Clouds 7 1001 81 10000 4.1 230 00:27 17.12.2020
4769 Clouds 7 1001 87 10000 4.1 220 23:40 16.12.2020
4770 Clouds 7 1001 87 10000 4.1 220 23:18 16.12.2020
4771 Clouds 8 1000 87 10000 3.6 210 22:48 16.12.2020
4772 Clouds 8 1000 87 10000 3.6 210 22:28 16.12.2020
4773 Clouds 8 1000 87 10000 3.6 210 21:42 16.12.2020
4774 Clouds 8 1000 81 10000 3.6 230 21:23 16.12.2020
4775 Clouds 8 1000 81 10000 3.6 230 20:52 16.12.2020
4776 Clouds 8 999 81 10000 5.7 220 20:20 16.12.2020
4777 Clouds 8 998 81 10000 5.1 210 19:38 16.12.2020
4778 Clouds 8 998 81 10000 4.1 210 19:18 16.12.2020
4779 Clouds 8 998 87 10000 5.7 200 18:47 16.12.2020
4780 Clouds 8 997 87 10000 5.7 200 18:25 16.12.2020
4781 Clouds 8 996 81 10000 4.1 210 17:36 16.12.2020
4782 Rain 7 996 81 10000 5.7 250 16:46 16.12.2020
4783 Rain 7 996 81 10000 6.2 230 16:28 16.12.2020
4784 Rain 7 996 81 10000 6.2 230 15:58 16.12.2020
4785 Rain 8 996 81 10000 5.7 230 15:39 16.12.2020
4786 Rain 8 995 81 10000 7.2 220 15:18 16.12.2020
4787 Rain 9 995 87 10000 7.2 220 14:44 16.12.2020
4788 Rain 9 995 87 10000 7.2 220 14:25 16.12.2020
4789 Rain 9 994 81 10000 8.7 210 13:41 16.12.2020
4790 Clouds 10 993 81 10000 8.2 210 13:20 16.12.2020
4791 Clouds 10 993 81 10000 6.7 200 12:43 16.12.2020
4792 Clouds 10 992 81 10000 7.7 190 11:51 16.12.2020
4793 Clouds 9 992 81 10000 7.7 190 11:31 16.12.2020
4794 Clouds 10 991 76 10000 8.7 190 10:56 16.12.2020
4795 Clouds 10 991 76 10000 7.7 180 10:32 16.12.2020
4796 Clouds 10 990 76 10000 7.2 180 09:55 16.12.2020
4797 Clouds 10 989 76 10000 6.7 170 09:29 16.12.2020
4798 Clouds 10 989 81 10000 8.2 160 08:22 16.12.2020
4799 Clouds 9 989 81 10000 7.7 170 07:45 16.12.2020
4800 Clouds 9 988 81 10000 7.2 170 07:20 16.12.2020
4801 Rain 9 992 93 8000 9.8 120 03:35 16.12.2020
4802 Rain 9 995 93 10000 9.8 140 01:59 16.12.2020
4803 Clouds 8 997 76 10000 5.7 160 23:46 15.12.2020
4804 Clouds 8 998 81 10000 3.1 140 23:19 15.12.2020
4805 Clouds 8 998 81 10000 2.6 140 22:41 15.12.2020
4806 Clouds 8 998 75 10000 5.1 170 22:20 15.12.2020
4807 Clouds 8 998 75 10000 3.6 150 21:46 15.12.2020
4808 Clouds 8 998 75 10000 5.1 170 21:23 15.12.2020
4809 Clouds 7 998 75 10000 3.6 140 20:45 15.12.2020
4810 Clouds 7 998 75 10000 3.6 140 20:27 15.12.2020
4811 Clouds 7 998 75 10000 3.6 140 19:55 15.12.2020
4812 Clouds 6 998 75 10000 3.6 150 19:33 15.12.2020
4813 Clouds 7 998 75 10000 4.1 160 18:41 15.12.2020
4814 Clouds 6 998 75 10000 4.1 160 18:22 15.12.2020
4815 Clouds 7 998 75 10000 3.1 170 17:58 15.12.2020
4816 Clouds 6 998 81 10000 3.6 190 17:40 15.12.2020
4817 Clouds 7 997 75 10000 5.1 200 17:19 15.12.2020
4818 Clouds 8 997 70 10000 4.6 200 16:32 15.12.2020
4819 Clouds 9 997 66 10000 6.2 210 15:51 15.12.2020
4820 Clouds 9 997 66 10000 6.2 210 15:30 15.12.2020
4821 Clouds 9 996 76 10000 5.7 200 14:47 15.12.2020
4822 Clouds 9 996 70 10000 5.1 200 14:21 15.12.2020
4823 Clouds 9 996 70 10000 4.1 180 13:51 15.12.2020
4824 Clouds 9 996 70 10000 4.1 180 13:32 15.12.2020
4825 Clouds 9 996 81 10000 3.6 150 12:47 15.12.2020
4826 Clouds 9 996 75 10000 3.6 120 12:22 15.12.2020
4827 Rain 8 996 75 10000 3.6 120 11:56 15.12.2020
4828 Clouds 9 996 70 10000 3.1 130 11:26 15.12.2020
4829 Clouds 7 996 75 10000 3.6 160 10:55 15.12.2020
4830 Clouds 7 995 75 10000 5.7 190 10:32 15.12.2020
4831 Clouds 6 995 81 10000 2.1 130 09:51 15.12.2020
4832 Clouds 6 995 81 10000 2.1 130 09:32 15.12.2020
4833 Clouds 6 994 75 10000 3.1 190 08:53 15.12.2020
4834 Clouds 6 994 75 10000 3.1 160 08:26 15.12.2020
4835 Clouds 6 994 81 10000 4.1 180 07:49 15.12.2020
4836 Clouds 6 994 81 10000 4.1 180 07:49 15.12.2020
4837 Clouds 7 994 81 10000 4.1 180 07:25 15.12.2020
4838 Clear 7 993 81 10000 4.6 190 06:33 15.12.2020
4839 Clear 8 992 81 10000 3.6 190 03:25 15.12.2020
4840 Clear 8 992 81 10000 3.1 190 00:34 15.12.2020
4841 Clouds 8 991 81 10000 5.1 200 23:26 14.12.2020
4842 Clouds 8 991 81 10000 5.1 200 22:56 14.12.2020
4843 Clouds 8 991 81 10000 4.6 200 22:32 14.12.2020
4844 Clouds 8 991 81 10000 5.1 200 21:45 14.12.2020
4845 Clouds 8 990 75 10000 4.6 190 21:23 14.12.2020
4846 Clouds 8 990 75 10000 5.1 200 20:51 14.12.2020
4847 Clouds 8 990 75 10000 5.1 200 20:30 14.12.2020
4848 Clouds 8 990 75 10000 5.1 190 19:53 14.12.2020
4849 Clouds 8 990 75 10000 5.1 190 19:29 14.12.2020
4850 Clouds 8 989 75 10000 4.6 190 18:51 14.12.2020
4851 Clouds 8 989 75 10000 4.6 190 18:51 14.12.2020
4852 Clouds 8 989 75 10000 4.6 190 18:51 14.12.2020
4853 Clouds 8 989 75 10000 4.6 190 18:30 14.12.2020
4854 Clouds 8 989 70 10000 5.1 190 17:46 14.12.2020
4855 Clouds 9 989 70 10000 5.7 190 17:24 14.12.2020
4856 Clouds 9 989 70 10000 5.1 190 17:24 14.12.2020
4857 Clouds 9 989 66 10000 6.2 200 16:50 14.12.2020
4858 Clouds 9 989 76 10000 6.7 210 16:29 14.12.2020
4859 Clouds 10 988 76 10000 6.2 210 15:40 14.12.2020
4860 Clouds 10 988 71 10000 7.2 200 15:20 14.12.2020
4861 Clouds 10 988 71 10000 8.2 210 14:42 14.12.2020
4862 Clouds 10 988 71 10000 7.2 210 14:24 14.12.2020
4863 Clouds 10 988 71 10000 7.7 220 13:43 14.12.2020
4864 Clouds 10 988 70 10000 6.2 220 13:19 14.12.2020
4865 Clouds 10 988 70 10000 6.7 210 12:52 14.12.2020
4866 Clouds 10 988 70 10000 6.7 210 12:28 14.12.2020
4867 Clouds 9 987 75 10000 5.1 210 11:35 14.12.2020
4868 Clouds 8 987 75 10000 4.1 210 10:40 14.12.2020
4869 Clouds 8 986 81 10000 4.1 210 10:21 14.12.2020
4870 Clouds 8 986 75 10000 5.1 200 09:43 14.12.2020
4871 Clouds 8 985 81 10000 5.1 210 08:47 14.12.2020
4872 Clouds 8 985 81 10000 5.1 210 08:29 14.12.2020
4873 Clouds 9 984 81 10000 6.7 210 07:44 14.12.2020
4874 Clouds 9 984 81 10000 7.2 210 06:47 14.12.2020
4875 Clouds 9 983 81 10000 6.7 210 05:35 14.12.2020
4876 Rain 9 982 81 9000 9.8 210 02:26 14.12.2020
4877 Clouds 10 982 76 10000 7.7 190 00:56 14.12.2020
4878 Rain 10 982 76 10000 6.7 190 00:33 14.12.2020
4879 Clouds 10 982 76 10000 6.2 190 23:50 13.12.2020
4880 Rain 10 982 76 10000 6.2 190 23:30 13.12.2020
4881 Clouds 10 982 76 10000 8.2 200 22:47 13.12.2020
4882 Clouds 10 982 76 10000 8.7 200 22:20 13.12.2020
4883 Clouds 11 982 76 10000 8.2 200 21:45 13.12.2020
4884 Clouds 10 982 76 10000 8.2 200 21:26 13.12.2020
4885 Clouds 11 983 76 10000 7.7 190 20:35 13.12.2020
4886 Clouds 11 983 76 10000 6.7 190 19:57 13.12.2020
4887 Clouds 11 983 76 10000 7.7 190 19:37 13.12.2020
4888 Clouds 11 984 76 10000 6.7 190 19:19 13.12.2020
4889 Clouds 11 984 76 10000 6.2 200 18:42 13.12.2020
4890 Clouds 11 984 81 10000 5.7 200 18:20 13.12.2020
4891 Clouds 11 984 81 10000 6.7 190 17:47 13.12.2020
4892 Clouds 11 984 81 10000 6.2 190 17:21 13.12.2020
4893 Clouds 11 984 81 10000 6.2 190 16:56 13.12.2020
4894 Clouds 11 984 81 10000 6.2 190 16:56 13.12.2020
4895 Clouds 11 984 76 10000 5.7 200 16:38 13.12.2020
4896 Clouds 11 985 87 10000 6.2 200 16:18 13.12.2020
4897 Clouds 12 985 81 10000 5.7 210 15:40 13.12.2020
4898 Clouds 12 985 81 10000 5.7 200 15:21 13.12.2020
4899 Clouds 12 985 87 10000 5.7 210 14:43 13.12.2020
4900 Clouds 12 985 93 10000 4.1 160 14:21 13.12.2020
4901 Clouds 12 984 93 10000 4.6 140 13:43 13.12.2020
4902 Rain 12 984 93 10000 4.6 140 13:25 13.12.2020
4903 Rain 11 987 100 6000 3.1 160 12:48 13.12.2020
4904 Mist 11 987 100 2000 6.2 160 12:22 13.12.2020
4905 Rain 11 987 100 2500 7.7 150 11:40 13.12.2020
4906 Clouds 10 987 93 8000 4.6 130 10:56 13.12.2020
4907 Clouds 10 988 93 7000 5.7 150 10:37 13.12.2020
4908 Rain 10 989 100 8000 6.7 150 09:55 13.12.2020
4909 Rain 10 989 93 8000 8.2 150 09:26 13.12.2020
4910 Drizzle 9 990 93 10000 7.2 140 08:34 13.12.2020
4911 Drizzle 9 992 93 10000 9.3 140 07:47 13.12.2020
4912 Clouds 7 996 93 10000 7.7 140 04:48 13.12.2020
4913 Rain 6 1000 81 10000 5.1 150 02:41 13.12.2020
4914 Rain 6 1000 75 10000 5.7 150 01:57 13.12.2020
4915 Rain 6 1001 80 10000 3.6 150 00:50 13.12.2020
4916 Rain 5 1002 86 10000 3.6 150 23:56 12.12.2020
4917 Clouds 4 1003 93 10000 1 0 23:31 12.12.2020
4918 Clouds 4 1003 93 10000 1.5 180 22:52 12.12.2020
4919 Clouds 4 1004 93 10000 2.1 220 21:59 12.12.2020
4920 Clouds 4 1003 93 10000 2.1 200 21:34 12.12.2020
4921 Clouds 4 1003 86 10000 2.6 210 20:56 12.12.2020
4922 Clouds 4 1004 86 10000 2.1 210 20:30 12.12.2020
4923 Clouds 4 1004 86 10000 2.1 200 19:58 12.12.2020
4924 Clouds 4 1004 86 10000 3.1 260 19:39 12.12.2020
4925 Clouds 5 1004 86 10000 2.6 250 19:21 12.12.2020
4926 Clouds 6 1004 81 10000 2.6 240 18:44 12.12.2020
4927 Clouds 6 1004 86 10000 2.6 240 18:26 12.12.2020
4928 Clouds 5 1004 86 10000 3.6 260 17:47 12.12.2020
4929 Clouds 6 1003 81 10000 5.7 260 16:56 12.12.2020
4930 Clouds 7 1003 75 10000 5.1 270 16:21 12.12.2020
4931 Clouds 7 1003 75 10000 5.7 270 15:45 12.12.2020
4932 Clouds 7 1003 75 10000 5.7 270 15:27 12.12.2020
4933 Clouds 7 1002 81 10000 6.7 270 14:48 12.12.2020
4934 Clouds 7 1002 87 10000 6.2 270 13:56 12.12.2020
4935 Clouds 6 1002 86 10000 7.2 270 13:37 12.12.2020
4936 Clouds 6 1002 86 10000 4.6 260 12:58 12.12.2020
4937 Clouds 5 1001 86 10000 5.1 250 12:26 12.12.2020
4938 Clouds 4 1000 93 10000 5.1 250 10:54 12.12.2020
4939 Clouds 4 999 93 10000 7.2 260 09:49 12.12.2020
4940 Clear 4 998 86 10000 6.7 270 08:57 12.12.2020
4941 Clear 5 994 93 10000 6.7 270 02:57 12.12.2020
4942 Clouds 6 991 93 10000 7.7 270 23:55 11.12.2020
4943 Clouds 7 990 93 10000 7.7 270 22:30 11.12.2020
4944 Clouds 8 988 100 10000 8.2 290 20:50 11.12.2020
4945 Clouds 8 986 93 10000 3.6 280 18:27 11.12.2020
4946 Clouds 9 984 87 10000 4.1 290 16:27 11.12.2020
4947 Clouds 9 983 93 10000 4.1 260 14:18 11.12.2020
4948 Clouds 9 983 87 10000 2.6 240 13:25 11.12.2020
4949 Clouds 8 982 93 10000 3.1 240 12:19 11.12.2020
4950 Clouds 9 982 93 10000 3.1 240 11:51 11.12.2020
4951 Clouds 8 981 87 10000 2.6 230 10:46 11.12.2020
4952 Clouds 8 980 87 10000 2.1 220 08:48 11.12.2020
4953 Clouds 8 980 93 10000 3.1 220 05:42 11.12.2020
4954 Clouds 9 981 87 10000 3.1 220 05:18 11.12.2020
4955 Clouds 9 982 87 10000 4.1 230 02:18 11.12.2020
4956 Clear 9 983 93 10000 3.1 210 00:23 11.12.2020
4957 Clouds 9 983 93 10000 4.1 220 22:52 10.12.2020
4958 Clouds 10 985 93 10000 3.1 210 21:36 10.12.2020
4959 Clouds 10 985 93 10000 2.1 150 20:42 10.12.2020
4960 Clouds 9 986 93 10000 3.6 140 19:43 10.12.2020
4961 Clouds 8 986 93 10000 4.1 130 18:56 10.12.2020
4962 Rain 8 988 87 3000 1.5 0 17:54 10.12.2020
4963 Clouds 9 989 87 10000 1.5 0 16:30 10.12.2020
4964 Clouds 9 990 87 10000 2.6 150 15:27 10.12.2020
4965 Clouds 8 991 81 10000 2.1 210 14:50 10.12.2020
4966 Clouds 8 992 81 10000 2.1 200 14:27 10.12.2020
4967 Clouds 8 995 93 10000 2.1 210 12:47 10.12.2020
4968 Clouds 7 996 93 8000 3.1 230 11:35 10.12.2020
4969 Drizzle 7 995 93 8000 1.5 0 08:52 10.12.2020
4970 Fog 7 995 100 900 1.5 0 07:48 10.12.2020
4971 Clouds 8 995 100 5000 2.6 130 06:41 10.12.2020
4972 Clouds 8 993 93 6000 4.1 130 02:56 10.12.2020
4973 Clouds 8 993 93 6000 5.1 130 02:23 10.12.2020
4974 Rain 8 993 93 6000 5.1 140 00:22 10.12.2020
4975 Rain 8 992 93 10000 8.2 140 21:58 09.12.2020
4976 Clouds 8 993 100 10000 7.2 150 20:28 09.12.2020
4977 Clouds 7 994 87 10000 5.7 140 19:21 09.12.2020
4978 Clouds 7 995 93 10000 5.1 140 17:43 09.12.2020
4979 Clouds 7 997 93 10000 4.1 140 16:44 09.12.2020
4980 Clouds 7 998 87 10000 2.6 140 16:22 09.12.2020
4981 Clouds 7 999 87 10000 2.1 170 15:30 09.12.2020
4982 Rain 8 1000 81 10000 4.6 200 14:27 09.12.2020
4983 Clouds 7 1000 81 10000 4.1 140 13:58 09.12.2020
4984 Rain 6 1002 81 10000 4.6 150 13:19 09.12.2020
4985 Clouds 6 1003 86 10000 2.6 140 12:44 09.12.2020
4986 Clouds 6 1004 80 10000 2.6 150 11:51 09.12.2020
4987 Clouds 5 1005 80 10000 2.6 190 10:48 09.12.2020
4988 Clouds 3 1006 85 10000 1 0 08:49 09.12.2020
4989 Clouds 3 1006 88 10000 3.6 250 07:43 09.12.2020
4990 Clouds 4 1007 88 10000 4.1 240 05:48 09.12.2020
4991 Clouds 4 1008 86 10000 4.6 250 03:29 09.12.2020
4992 Clouds 3 1008 93 10000 4.6 260 01:52 09.12.2020
4993 Clouds 3 1008 86 10000 6.7 270 23:43 08.12.2020
4994 Clouds 3 1007 86 10000 8.2 280 22:52 08.12.2020
4995 Clouds 3 1007 86 10000 7.7 280 21:22 08.12.2020
4996 Clouds 4 1006 80 10000 8.7 290 19:33 08.12.2020
4997 Clouds 4 1006 80 10000 4.6 260 18:58 08.12.2020
4998 Clouds 5 1005 75 10000 8.7 290 17:33 08.12.2020
4999 Clouds 6 1003 81 10000 8.7 290 15:45 08.12.2020
5000 Clouds 6 1003 81 10000 8.2 280 14:26 08.12.2020
5001 Clouds 5 1003 86 10000 8.7 280 13:24 08.12.2020
5002 Clouds 5 1003 86 10000 7.7 280 12:26 08.12.2020
5003 Clouds 4 1002 93 10000 7.2 270 11:42 08.12.2020
5004 Clouds 3 1002 93 10000 7.2 270 10:45 08.12.2020
5005 Clouds 3 1001 93 10000 6.7 260 09:50 08.12.2020
5006 Clouds 2 1001 100 10000 7.2 260 07:59 08.12.2020
5007 Clouds 2 1000 91 10000 6.2 270 06:36 08.12.2020
5008 Clouds 1 1000 90 10000 5.7 260 03:29 08.12.2020
5009 Clouds 1 1001 91 10000 6.2 270 00:46 08.12.2020
5010 Clouds 1 1001 92 10000 6.2 260 23:51 07.12.2020
5011 Clouds 1 1001 100 10000 5.1 270 22:37 07.12.2020
5012 Clouds 1 1001 92 10000 5.1 270 21:50 07.12.2020
5013 Clouds 1 1001 91 10000 4.6 290 19:51 07.12.2020
5014 Clouds 2 1000 93 10000 4.6 300 18:29 07.12.2020
5015 Clouds 3 1000 93 10000 3.6 310 17:26 07.12.2020
5016 Clouds 4 1000 80 10000 4.6 330 16:53 07.12.2020
5017 Clouds 4 1000 86 10000 4.1 330 15:26 07.12.2020
5018 Clouds 4 1000 93 10000 2.6 280 14:46 07.12.2020
5019 Clouds 4 1000 93 10000 4.6 350 13:45 07.12.2020
5020 Clouds 3 1000 100 10000 2.6 330 12:38 07.12.2020
5021 Rain 1 1000 100 5000 2.6 340 11:43 07.12.2020
5022 Rain 1 1000 88 10000 2.1 300 11:18 07.12.2020
5023 Clouds 1 999 100 10000 1.5 0 09:40 07.12.2020
5024 Rain 0 999 100 10000 2.6 330 08:21 07.12.2020
5025 Rain -1 999 100 10000 2.1 300 06:21 07.12.2020
5026 Clouds -2 1000 92 10000 2.1 310 04:48 07.12.2020
5027 Clouds -3 1000 100 10000 3.1 290 01:54 07.12.2020
5028 Fog -2 1001 100 700 2.6 280 23:50 06.12.2020
5029 Fog -2 1002 100 900 3.1 280 22:23 06.12.2020
5030 Fog -1 1003 100 400 2.6 270 20:54 06.12.2020
5031 Fog -1 1003 100 400 2.6 280 20:34 06.12.2020
5032 Fog -1 1003 100 350 3.6 280 19:53 06.12.2020
5033 Fog -1 1004 100 250 2.6 260 18:18 06.12.2020
5034 Fog 1 1004 89 300 3.6 280 16:44 06.12.2020
5035 Fog 2 1004 83 300 3.6 270 14:52 06.12.2020
5036 Fog 1 1005 100 300 4.1 270 13:32 06.12.2020
5037 Fog 0 1005 100 300 3.6 270 12:39 06.12.2020
5038 Fog -1 1005 100 300 3.6 270 11:55 06.12.2020
5039 Fog -1 1005 100 500 4.1 270 11:30 06.12.2020
5040 Fog -1 1005 92 500 3.1 280 10:43 06.12.2020
5041 Fog -2 1004 100 800 4.1 280 09:45 06.12.2020
5042 Fog -1 1004 92 800 2.6 270 08:22 06.12.2020
5043 Fog 0 1004 92 6000 3.6 270 05:38 06.12.2020
5044 Clouds 2 1003 92 7000 2.1 240 00:57 06.12.2020
5045 Clouds 2 1003 92 10000 2.6 230 00:37 06.12.2020
5046 Clouds 2 1003 93 6000 3.6 290 00:19 06.12.2020
5047 Clear 2 1002 92 10000 3.6 300 22:41 05.12.2020
5048 Clear 2 1002 91 10000 2.6 300 22:19 05.12.2020
5049 Clear 2 1002 91 10000 3.1 300 21:47 05.12.2020
5050 Clear 2 1002 88 10000 3.1 300 21:22 05.12.2020
5051 Clouds 4 1000 93 10000 3.6 310 19:21 05.12.2020
5052 Clouds 5 1000 93 10000 4.6 320 18:38 05.12.2020
5053 Rain 7 998 81 10000 5.1 360 16:51 05.12.2020
5054 Clouds 7 998 81 10000 5.1 360 16:29 05.12.2020
5055 Clouds 7 998 81 10000 6.2 30 15:36 05.12.2020
5056 Clouds 7 997 75 10000 6.7 20 13:53 05.12.2020
5057 Clouds 6 995 86 10000 6.2 350 11:50 05.12.2020
5058 Clouds 6 994 86 10000 6.7 350 10:41 05.12.2020
5059 Clouds 6 993 81 10000 9.3 350 09:38 05.12.2020
5060 Clouds 6 991 81 10000 7.2 340 07:48 05.12.2020
5061 Clouds 7 990 81 10000 8.7 340 06:20 05.12.2020
5062 Clouds 7 987 87 10000 9.3 340 02:45 05.12.2020
5063 Clouds 7 984 81 10000 10.8 340 23:47 04.12.2020
5064 Rain 7 983 81 10000 10.8 340 21:53 04.12.2020
5065 Rain 6 982 81 10000 10.8 330 19:42 04.12.2020
5066 Clouds 5 981 86 10000 10.3 330 18:40 04.12.2020
5067 Clouds 5 980 86 10000 9.3 340 17:48 04.12.2020
5068 Clouds 5 979 93 10000 9.8 330 17:19 04.12.2020
5069 Clouds 3 979 93 10000 8.7 310 15:34 04.12.2020
5070 Rain 4 981 80 10000 9.3 290 13:38 04.12.2020
5071 Rain 4 981 89 10000 9.8 290 13:20 04.12.2020
5072 Rain 3 981 89 10000 9.8 290 12:41 04.12.2020
5073 Clouds 1 982 80 10000 7.7 290 10:38 04.12.2020
5074 Clouds 1 982 88 10000 8.2 290 09:37 04.12.2020
5075 Clouds 0 982 90 10000 6.7 290 06:40 04.12.2020
5076 Clouds 0 982 96 10000 6.7 300 05:20 04.12.2020
5077 Clouds 0 983 94 10000 6.7 300 01:54 04.12.2020
5078 Clouds 0 983 94 10000 5.1 310 22:51 03.12.2020
5079 Clouds 1 983 93 10000 5.1 300 21:56 03.12.2020
5080 Clouds 1 983 86 10000 6.2 320 20:47 03.12.2020
5081 Clouds 2 983 89 10000 4.1 300 19:26 03.12.2020
5082 Clouds 2 983 86 10000 4.1 330 18:48 03.12.2020
5083 Clouds 3 983 85 10000 4.6 320 17:21 03.12.2020
5084 Clouds 3 983 86 10000 3.6 310 16:45 03.12.2020
5085 Clouds 4 984 86 10000 5.7 330 15:34 03.12.2020
5086 Clouds 3 984 93 10000 5.7 310 14:50 03.12.2020
5087 Clouds 3 985 93 10000 4.6 310 14:19 03.12.2020
5088 Clouds 3 986 86 10000 4.6 290 12:55 03.12.2020
5089 Clouds 3 986 93 10000 4.6 290 12:25 03.12.2020
5090 Clouds 3 987 93 10000 3.1 240 11:22 03.12.2020
5091 Clouds 3 990 86 10000 3.6 250 08:49 03.12.2020
5092 Rain 4 997 86 10000 5.1 230 04:24 03.12.2020
5093 Rain 5 1001 86 10000 5.1 250 02:20 03.12.2020
5094 Clouds 5 1004 86 10000 4.6 240 00:41 03.12.2020
5095 Clouds 6 1007 86 10000 5.1 240 22:47 02.12.2020
5096 Clouds 6 1008 86 10000 4.6 230 21:56 02.12.2020
5097 Clouds 6 1009 80 10000 4.6 230 20:52 02.12.2020
5098 Clouds 6 1010 80 10000 4.1 240 20:34 02.12.2020
5099 Clouds 6 1011 80 10000 4.1 240 19:55 02.12.2020
5100 Clouds 6 1013 75 10000 4.1 240 17:53 02.12.2020
5101 Clouds 6 1013 75 10000 4.1 240 17:34 02.12.2020
5102 Clouds 7 1013 75 10000 4.1 240 16:57 02.12.2020
5103 Clouds 7 1016 75 10000 6.7 270 14:47 02.12.2020
5104 Clouds 6 1019 86 10000 4.6 260 11:34 02.12.2020
5105 Clouds 6 1020 93 10000 4.1 260 10:28 02.12.2020
5106 Clouds 7 1020 93 10000 5.7 280 08:29 02.12.2020
5107 Clouds 9 1025 87 10000 6.2 270 00:57 02.12.2020
5108 Clouds 9 1026 87 10000 8.2 270 22:21 01.12.2020
5109 Clouds 9 1026 93 10000 5.1 250 20:36 01.12.2020
5110 Clouds 9 1027 87 10000 3.6 240 19:34 01.12.2020
5111 Clouds 9 1027 93 10000 3.1 250 17:29 01.12.2020
5112 Clouds 9 1028 100 10000 5.7 270 15:24 01.12.2020
5113 Clouds 9 1029 93 10000 3.1 250 13:37 01.12.2020
5114 Clouds 8 1029 87 10000 2.6 250 11:44 01.12.2020
5115 Clouds 8 1029 87 10000 2.6 250 11:26 01.12.2020
5116 Clouds 7 1029 87 10000 2.1 250 10:37 01.12.2020
5117 Clouds 6 1029 93 10000 3.6 280 08:20 01.12.2020
5118 Clouds 6 1028 93 10000 3.6 280 06:46 01.12.2020
5119 Clear 5 1028 93 10000 3.1 270 01:51 01.12.2020
5120 Clear 5 1028 93 10000 3.6 290 01:51 01.12.2020
5121 Clouds 5 1028 100 10000 5.1 290 00:52 01.12.2020
5122 Clouds 5 1027 93 10000 3.6 300 23:21 30.11.2020
5123 Clouds 5 1027 93 10000 5.1 310 22:42 30.11.2020
5124 Clouds 6 1027 93 10000 5.1 310 22:23 30.11.2020
5125 Clouds 8 1026 87 10000 3.6 320 20:47 30.11.2020
5126 Clouds 9 1025 87 10000 4.1 310 19:41 30.11.2020
5127 Clouds 10 1024 93 10000 7.7 300 18:22 30.11.2020
5128 Drizzle 10 1023 93 10000 6.2 290 17:46 30.11.2020
5129 Clouds 10 1023 93 10000 6.7 280 16:54 30.11.2020
5130 Drizzle 10 1022 93 10000 8.2 270 15:46 30.11.2020
5131 Clouds 10 1022 93 10000 8.2 270 14:24 30.11.2020
5132 Clouds 10 1023 93 6000 6.2 260 13:42 30.11.2020
5133 Clouds 10 1023 93 8000 6.2 260 12:26 30.11.2020
5134 Clouds 9 1023 93 8000 6.2 260 11:57 30.11.2020
5135 Clouds 9 1023 87 10000 5.7 250 10:25 30.11.2020
5136 Clouds 9 1023 93 10000 6.2 260 09:43 30.11.2020
5137 Rain 9 1024 93 10000 6.2 250 06:48 30.11.2020
5138 Clouds 8 1027 93 9000 5.1 270 23:29 29.11.2020
5139 Clouds 8 1027 100 7000 3.1 260 21:47 29.11.2020
5140 Clouds 8 1027 100 7000 3.1 260 21:47 29.11.2020
5141 Clouds 8 1027 100 7000 3.1 260 21:28 29.11.2020
5142 Fog 8 1027 93 800 4.1 270 19:46 29.11.2020
5143 Mist 9 1026 100 2500 4.1 280 17:46 29.11.2020
5144 Mist 9 1026 100 2500 4.1 280 17:46 29.11.2020
5145 Clouds 11 1025 87 8000 2.1 220 14:53 29.11.2020
5146 Mist 9 1026 100 4500 1 0 12:46 29.11.2020
5147 Mist 8 1026 100 4500 1 0 11:41 29.11.2020
5148 Clouds 8 1025 93 10000 0.5 360 09:26 29.11.2020
5149 Clouds 7 1024 100 10000 1 360 08:37 29.11.2020
5150 Clouds 7 1023 100 10000 1.5 340 04:21 29.11.2020
5151 Clouds 7 1022 100 10000 2.1 50 23:19 28.11.2020
5152 Clouds 6 1022 100 10000 2.1 50 22:55 28.11.2020
5153 Clouds 6 1020 100 10000 3.1 60 20:27 28.11.2020
5154 Clouds 7 1020 93 10000 2.6 50 19:29 28.11.2020
5155 Clouds 8 1019 100 10000 2.1 10 18:58 28.11.2020
5156 Clouds 7 1018 93 10000 2.6 40 18:23 28.11.2020
5157 Clouds 9 1018 93 10000 2.6 60 17:33 28.11.2020
5158 Clouds 10 1017 87 10000 4.1 70 15:56 28.11.2020
5159 Clouds 10 1017 81 10000 4.1 90 13:58 28.11.2020
5160 Clouds 8 1016 93 10000 4.6 70 11:29 28.11.2020
5161 Clouds 6 1015 86 10000 3.6 80 09:27 28.11.2020
5162 Clear 3 1014 78 10000 3.6 90 03:48 28.11.2020
5163 Clouds 2 1014 80 10000 2.1 110 01:54 28.11.2020
5164 Clouds 5 1014 75 10000 3.6 140 23:23 27.11.2020
5165 Clouds 6 1015 87 10000 1.5 150 22:45 27.11.2020
5166 Clouds 5 1015 86 10000 1 0 20:41 27.11.2020
5167 Clouds 5 1015 86 10000 1 0 20:23 27.11.2020
5168 Clouds 5 1015 86 10000 2.1 30 19:19 27.11.2020
5169 Clouds 6 1016 80 10000 1 90 16:58 27.11.2020
5170 Clouds 8 1017 70 10000 1 0 14:45 27.11.2020
5171 Clouds 7 1018 80 10000 1 0 13:21 27.11.2020
5172 Clouds 6 1019 100 10000 1 280 12:47 27.11.2020
5173 Clouds 2 1019 81 10000 1 310 11:34 27.11.2020
5174 Clouds -1 1019 100 10000 1.5 300 10:49 27.11.2020
5175 Clouds 0 1020 83 10000 2.1 280 09:53 27.11.2020
5176 Clouds 3 1021 93 10000 0.5 0 04:32 27.11.2020
5177 Clouds 6 1022 82 10000 2.47 261 22:26 26.11.2020
5178 Clouds 6 1022 81 10000 1.5 270 21:56 26.11.2020
5179 Clouds 6 1022 81 10000 1.5 270 20:50 26.11.2020
5180 Clouds 6 1021 75 10000 1.5 0 18:37 26.11.2020
5181 Clouds 6 1021 75 10000 1.5 0 17:41 26.11.2020
5182 Clouds 7 1022 93 10000 3.6 270 14:39 26.11.2020
5183 Clouds 7 1022 100 10000 4.1 270 13:19 26.11.2020
5184 Clouds 7 1022 100 10000 3.6 280 12:41 26.11.2020
5185 Clouds 5 1022 100 10000 4.1 280 11:29 26.11.2020
5186 Clouds 4 1022 100 1200 1.5 0 10:25 26.11.2020
5187 Fog 3 1021 93 500 2.6 270 09:39 26.11.2020
5188 Fog 3 1021 100 500 3.6 270 09:18 26.11.2020
5189 Fog 4 1021 100 500 4.1 270 08:34 26.11.2020
5190 Clouds 4 1020 93 10000 4.1 260 02:19 26.11.2020
5191 Clouds 5 1018 86 10000 5.7 270 22:31 25.11.2020
5192 Clouds 5 1017 93 10000 5.1 260 20:38 25.11.2020
5193 Clouds 6 1016 87 10000 3.6 250 19:27 25.11.2020
5194 Clouds 6 1015 87 10000 4.1 260 18:22 25.11.2020
5195 Clouds 7 1014 87 10000 5.7 270 15:55 25.11.2020
5196 Clouds 8 1014 87 10000 6.2 270 15:32 25.11.2020
5197 Clouds 7 1013 87 10000 4.6 260 13:47 25.11.2020
5198 Clouds 7 1013 93 10000 5.1 270 12:59 25.11.2020
5199 Clouds 6 1012 93 10000 3.6 260 11:27 25.11.2020
5200 Clear 4 1010 93 10000 3.6 250 09:23 25.11.2020
5201 Clear 4 1010 93 10000 3.6 250 08:51 25.11.2020
5202 Clear 5 1010 86 10000 3.6 250 08:29 25.11.2020
5203 Clouds 5 1008 86 10000 2.6 240 03:55 25.11.2020
5204 Rain 5 1007 93 10000 3.6 250 01:50 25.11.2020
5205 Rain 6 1006 93 10000 3.6 260 00:22 25.11.2020
5206 Clouds 5 1006 93 10000 3.1 260 23:36 24.11.2020
5207 Clouds 5 1006 93 10000 2.6 250 22:52 24.11.2020
5208 Rain 5 1006 93 10000 3.6 270 21:51 24.11.2020
5209 Rain 5 1005 93 10000 5.1 270 21:28 24.11.2020
5210 Rain 5 1005 93 10000 6.2 270 20:19 24.11.2020
5211 Clouds 6 1003 100 10000 5.1 260 18:39 24.11.2020
5212 Clouds 9 1002 87 2500 6.7 260 17:29 24.11.2020
5213 Clouds 12 1002 81 10000 7.2 190 16:38 24.11.2020
5214 Clouds 13 1002 71 10000 7.2 200 15:56 24.11.2020
5215 Clouds 12 1003 76 10000 9.3 200 15:36 24.11.2020
5216 Clouds 13 1003 71 10000 8.7 190 15:18 24.11.2020
5217 Clouds 13 1003 71 10000 8.2 190 14:31 24.11.2020
5218 Clouds 13 1005 71 10000 8.2 170 12:42 24.11.2020
5219 Clouds 13 1005 71 10000 8.2 170 12:21 24.11.2020
5220 Clouds 13 1006 81 10000 7.2 190 11:37 24.11.2020
5221 Clouds 12 1006 81 10000 5.7 150 10:30 24.11.2020
5222 Clouds 12 1007 87 10000 6.7 160 09:53 24.11.2020
5223 Clouds 12 1007 76 10000 5.7 170 09:34 24.11.2020
5224 Rain 11 1009 76 10000 7.2 200 06:50 24.11.2020
5225 Clouds 11 1011 87 10000 7.2 210 04:19 24.11.2020
5226 Clouds 11 1014 87 10000 6.2 200 22:28 23.11.2020
5227 Rain 12 1014 81 10000 7.2 210 21:35 23.11.2020
5228 Clouds 12 1014 81 10000 7.2 200 20:50 23.11.2020
5229 Clouds 12 1014 81 10000 7.2 200 20:20 23.11.2020
5230 Clouds 12 1015 81 10000 7.7 210 18:20 23.11.2020
5231 Clouds 12 1015 81 10000 7.2 200 17:24 23.11.2020
5232 Clouds 12 1015 81 10000 8.2 200 16:22 23.11.2020
5233 Clouds 12 1017 81 10000 6.7 200 14:46 23.11.2020
5234 Clouds 12 1019 76 10000 6.7 210 12:55 23.11.2020
5235 Rain 11 1019 81 10000 6.2 200 12:36 23.11.2020
5236 Clouds 10 1020 81 10000 4.6 190 11:46 23.11.2020
5237 Clouds 9 1021 81 10000 2.6 170 10:47 23.11.2020
5238 Clouds 7 1021 87 10000 3.1 170 09:31 23.11.2020
5239 Clouds 6 1022 81 10000 4.6 180 08:40 23.11.2020
5240 Clouds 5 1022 86 10000 3.6 170 07:25 23.11.2020
5241 Clouds 5 1026 86 10000 3.1 240 00:32 23.11.2020
5242 Clouds 5 1026 86 10000 3.1 240 23:28 22.11.2020
5243 Clouds 5 1026 86 10000 3.1 240 21:59 22.11.2020
5244 Clouds 5 1026 86 10000 4.1 250 20:53 22.11.2020
5245 Clouds 5 1026 86 10000 2.1 240 19:53 22.11.2020
5246 Clouds 6 1025 81 10000 2.6 220 18:40 22.11.2020
5247 Clouds 7 1025 70 10000 3.1 240 16:52 22.11.2020
5248 Clouds 8 1025 75 10000 3.6 240 15:44 22.11.2020
5249 Clouds 8 1025 75 10000 3.1 240 14:29 22.11.2020
5250 Clouds 8 1026 75 10000 3.1 240 12:49 22.11.2020
5251 Clouds 7 1025 81 10000 3.6 240 11:57 22.11.2020
5252 Clouds 6 1025 86 10000 3.1 240 11:20 22.11.2020
5253 Clouds 5 1025 93 10000 3.1 240 10:44 22.11.2020
5254 Clouds 4 1025 93 10000 2.6 240 08:51 22.11.2020
5255 Clouds 6 1024 87 10000 3.6 240 01:48 22.11.2020
5256 Clouds 7 1023 93 10000 3.6 250 23:39 21.11.2020
5257 Clouds 8 1022 87 10000 5.1 250 21:57 21.11.2020
5258 Clouds 8 1022 87 10000 5.1 250 21:24 21.11.2020
5259 Clouds 8 1022 81 10000 5.7 250 20:34 21.11.2020
5260 Clouds 8 1022 81 10000 5.1 250 19:54 21.11.2020
5261 Clouds 8 1021 87 10000 4.1 240 19:27 21.11.2020
5262 Clouds 9 1021 87 10000 4.6 270 17:57 21.11.2020
5263 Clouds 10 1021 81 10000 4.6 250 16:49 21.11.2020
5264 Clouds 11 1021 76 10000 5.7 260 15:52 21.11.2020
5265 Clouds 11 1020 76 10000 5.1 250 15:22 21.11.2020
5266 Clouds 11 1021 76 10000 5.7 250 14:43 21.11.2020
5267 Clouds 11 1021 81 10000 4.6 240 14:20 21.11.2020
5268 Clouds 11 1021 81 10000 4.6 240 14:20 21.11.2020
5269 Clouds 10 1021 87 10000 5.1 260 12:28 21.11.2020
5270 Clouds 10 1021 93 10000 5.1 270 11:58 21.11.2020
5271 Drizzle 11 1019 93 5000 6.7 240 10:40 21.11.2020
5272 Drizzle 11 1018 93 7000 7.7 230 09:58 21.11.2020
5273 Clouds 11 1018 87 10000 8.2 230 08:51 21.11.2020
5274 Clouds 10 1018 81 10000 7.7 230 06:34 21.11.2020
5275 Clouds 11 1019 76 10000 5.1 230 04:33 21.11.2020
5276 Clouds 11 1021 87 10000 7.2 230 00:45 21.11.2020
5277 Clouds 11 1021 93 10000 6.2 220 23:44 20.11.2020
5278 Drizzle 11 1022 93 10000 7.2 230 22:25 20.11.2020
5279 Clouds 11 1022 81 10000 6.7 240 21:38 20.11.2020
5280 Clouds 11 1022 81 10000 7.7 240 21:20 20.11.2020
5281 Clouds 11 1023 87 10000 5.7 240 19:44 20.11.2020
5282 Clouds 11 1023 87 10000 5.1 240 18:36 20.11.2020
5283 Clouds 12 1023 76 10000 7.7 240 17:47 20.11.2020
5284 Clouds 12 1023 81 10000 7.2 250 17:23 20.11.2020
5285 Clouds 12 1023 87 10000 7.2 250 16:38 20.11.2020
5286 Clouds 12 1023 87 10000 7.7 240 15:56 20.11.2020
5287 Drizzle 12 1024 93 10000 7.2 240 14:49 20.11.2020
5288 Drizzle 12 1025 93 6000 5.7 240 13:43 20.11.2020
5289 Clouds 12 1025 93 10000 6.7 240 13:18 20.11.2020
5290 Drizzle 12 1025 93 10000 7.2 230 12:33 20.11.2020
5291 Clouds 12 1025 93 10000 6.2 240 11:43 20.11.2020
5292 Clouds 11 1025 100 10000 6.2 230 10:45 20.11.2020
5293 Clouds 11 1025 93 10000 5.7 220 08:52 20.11.2020
5294 Rain 10 1026 93 10000 5.7 220 08:23 20.11.2020
5295 Rain 10 1027 87 10000 6.2 230 05:20 20.11.2020
5296 Clouds 9 1029 87 9000 5.1 210 03:43 20.11.2020
5297 Clouds 7 1033 75 10000 2.1 190 22:35 19.11.2020
5298 Clouds 7 1033 75 10000 2.6 210 21:55 19.11.2020
5299 Clouds 6 1033 75 10000 3.6 220 21:19 19.11.2020
5300 Clouds 6 1033 75 10000 3.6 230 20:31 19.11.2020
5301 Clouds 6 1033 75 10000 3.1 240 19:45 19.11.2020
5302 Clouds 6 1033 75 10000 3.1 240 19:22 19.11.2020
5303 Clouds 6 1033 75 10000 3.1 270 17:39 19.11.2020
5304 Clouds 7 1033 70 10000 5.7 290 16:48 19.11.2020
5305 Clouds 7 1033 70 10000 5.1 270 15:31 19.11.2020
5306 Clouds 7 1033 70 10000 6.2 270 14:31 19.11.2020
5307 Clouds 7 1031 75 10000 5.7 280 13:44 19.11.2020
5308 Clouds 7 1031 81 10000 4.6 290 12:57 19.11.2020
5309 Clouds 6 1032 81 10000 6.7 290 12:34 19.11.2020
5310 Clouds 5 1031 86 10000 7.2 280 11:41 19.11.2020
5311 Clouds 6 1031 86 10000 7.2 280 11:22 19.11.2020
5312 Clouds 6 1031 86 10000 7.2 280 11:22 19.11.2020
5313 Clouds 6 1031 86 10000 7.2 280 11:22 19.11.2020
5314 Clouds 5 1030 86 10000 6.7 270 10:51 19.11.2020
5315 Clouds 5 1027 93 10000 5.1 280 09:49 19.11.2020
5316 Clouds 5 1027 93 10000 5.1 280 09:28 19.11.2020
5317 Clouds 6 1027 86 10000 5.1 280 08:58 19.11.2020
5318 Clouds 6 1025 81 10000 9.3 290 07:57 19.11.2020
5319 Clouds 8 1011 75 10000 11.8 270 01:48 19.11.2020
5320 Clouds 8 1010 75 10000 12.3 270 00:33 19.11.2020
5321 Clouds 9 1009 93 10000 10.8 260 23:47 18.11.2020
5322 Clouds 8 1008 87 9000 11.8 260 23:23 18.11.2020
5323 Clouds 9 1007 76 10000 11.3 250 22:29 18.11.2020
5324 Clouds 8 1006 81 10000 11.3 240 21:44 18.11.2020
5325 Clouds 8 1006 81 10000 11.3 240 21:26 18.11.2020
5326 Clouds 8 1006 75 10000 9.8 230 20:40 18.11.2020
5327 Clouds 7 1007 81 10000 9.3 230 19:44 18.11.2020
5328 Clouds 7 1007 81 10000 9.3 230 19:22 18.11.2020
5329 Clouds 7 1007 81 10000 9.3 230 19:22 18.11.2020
5330 Clouds 7 1008 81 10000 8.2 230 18:45 18.11.2020
5331 Clouds 8 1007 75 10000 8.2 240 17:44 18.11.2020
5332 Clouds 8 1007 75 10000 10.3 240 16:52 18.11.2020
5333 Clouds 8 1006 66 10000 8.7 230 16:18 18.11.2020
5334 Clouds 9 1006 66 10000 8.2 250 14:42 18.11.2020
5335 Clouds 9 1006 70 10000 8.2 250 14:19 18.11.2020
5336 Clouds 9 1006 76 10000 6.7 250 13:22 18.11.2020
5337 Clouds 9 1005 81 10000 8.2 260 12:43 18.11.2020
5338 Clouds 9 1005 93 10000 6.7 250 11:51 18.11.2020
5339 Rain 9 1005 93 7000 5.7 250 10:57 18.11.2020
5340 Rain 9 1004 93 8000 5.7 250 10:30 18.11.2020
5341 Clouds 14 1002 82 10000 7.2 190 08:41 18.11.2020
5342 Clouds 14 1004 87 10000 5.1 150 06:49 18.11.2020
5343 Clouds 14 1006 87 10000 6.7 180 04:24 18.11.2020
5344 Clouds 13 1010 82 10000 8.7 200 00:20 18.11.2020
5345 Clouds 14 1010 82 10000 7.7 200 23:24 17.11.2020
5346 Clouds 14 1010 82 10000 9.3 200 22:44 17.11.2020
5347 Clouds 14 1010 82 10000 9.3 200 22:25 17.11.2020
5348 Clouds 14 1011 82 10000 6.7 210 21:46 17.11.2020
5349 Clouds 14 1011 82 10000 7.7 200 21:18 17.11.2020
5350 Clouds 14 1011 76 10000 7.7 200 20:42 17.11.2020
5351 Clouds 14 1011 87 10000 8.2 210 20:22 17.11.2020
5352 Clouds 14 1011 82 10000 7.2 210 18:37 17.11.2020
5353 Clouds 14 1011 82 10000 5.7 210 18:18 17.11.2020
5354 Clouds 15 1010 82 10000 7.2 210 16:59 17.11.2020
5355 Clouds 16 1010 82 10000 7.2 210 16:30 17.11.2020
5356 Clouds 16 1011 82 10000 7.2 210 15:51 17.11.2020
5357 Clouds 16 1011 82 10000 7.2 210 15:33 17.11.2020
5358 Clouds 16 1010 82 10000 6.7 210 14:57 17.11.2020
5359 Clouds 16 1010 82 10000 6.7 210 14:28 17.11.2020
5360 Clouds 16 1010 82 10000 7.2 210 13:41 17.11.2020
5361 Clouds 15 1010 82 10000 7.7 220 13:19 17.11.2020
5362 Clouds 15 1010 77 10000 6.2 230 12:40 17.11.2020
5363 Clouds 15 1009 82 10000 6.2 210 11:44 17.11.2020
5364 Clouds 14 1009 82 10000 5.7 210 10:50 17.11.2020
5365 Clouds 14 1009 82 10000 5.7 200 10:29 17.11.2020
5366 Clouds 14 1009 87 10000 6.7 210 09:51 17.11.2020
5367 Clouds 14 1009 82 10000 7.2 210 09:29 17.11.2020
5368 Clouds 13 1009 87 10000 5.7 210 08:23 17.11.2020
5369 Clouds 13 1009 82 10000 5.7 200 07:44 17.11.2020
5370 Clouds 13 1009 82 10000 7.2 220 06:34 17.11.2020
5371 Clouds 13 1008 82 10000 7.7 210 03:31 17.11.2020
5372 Clouds 14 1008 82 10000 6.2 220 02:53 17.11.2020
5373 Clouds 13 1008 87 10000 6.7 220 01:23 17.11.2020
5374 Clouds 13 1008 87 10000 6.7 220 01:23 17.11.2020
5375 Clouds 13 1008 87 10000 6.7 220 00:50 17.11.2020
5376 Clouds 13 1007 87 10000 6.7 230 23:45 16.11.2020
5377 Clouds 14 1007 87 10000 6.7 230 23:23 16.11.2020
5378 Drizzle 14 1007 93 10000 6.2 230 22:42 16.11.2020
5379 Clouds 14 1007 93 10000 5.1 230 22:20 16.11.2020
5380 Clouds 14 1006 93 10000 5.7 220 21:44 16.11.2020
5381 Clouds 14 1006 93 10000 5.7 220 21:24 16.11.2020
5382 Clouds 14 1006 93 10000 6.2 230 20:27 16.11.2020
5383 Clouds 14 1006 93 10000 6.7 230 19:56 16.11.2020
5384 Clouds 14 1005 93 10000 5.7 230 19:38 16.11.2020
5385 Clouds 14 1005 87 10000 6.2 230 19:19 16.11.2020
5386 Clouds 13 1005 87 10000 6.2 230 18:29 16.11.2020
5387 Clouds 13 1004 87 10000 6.7 230 17:42 16.11.2020
5388 Rain 13 1004 87 10000 6.7 220 17:20 16.11.2020
5389 Rain 13 1004 87 10000 6.7 220 16:52 16.11.2020
5390 Clouds 13 1005 87 10000 6.7 210 16:27 16.11.2020
5391 Clouds 12 1005 87 10000 7.2 210 15:50 16.11.2020
5392 Clouds 12 1005 87 10000 7.2 210 15:29 16.11.2020
5393 Clouds 12 1005 93 10000 6.7 200 15:29 16.11.2020
5394 Rain 11 1005 93 10000 6.7 200 14:53 16.11.2020
5395 Rain 10 1007 93 10000 4.6 200 13:59 16.11.2020
5396 Rain 10 1008 81 10000 4.6 200 13:21 16.11.2020
5397 Rain 9 1008 81 10000 3.6 210 12:32 16.11.2020
5398 Clouds 9 1008 87 10000 5.7 220 11:43 16.11.2020
5399 Clouds 9 1008 87 10000 5.7 220 11:23 16.11.2020
5400 Clouds 8 1008 87 10000 3.6 230 10:44 16.11.2020
5401 Clouds 8 1008 87 10000 3.6 230 10:26 16.11.2020
5402 Clouds 8 1008 87 10000 3.6 220 09:53 16.11.2020
5403 Clouds 8 1008 81 10000 4.6 230 09:34 16.11.2020
5404 Clouds 8 1007 75 10000 4.6 240 08:48 16.11.2020
5405 Clouds 8 1006 75 10000 4.6 240 08:21 16.11.2020
5406 Clouds 8 1006 81 10000 5.1 250 07:29 16.11.2020
5407 Clouds 8 1006 87 10000 5.7 250 06:46 16.11.2020
5408 Clouds 7 1005 81 10000 5.7 250 05:48 16.11.2020
5409 Clouds 8 1003 75 10000 9.8 270 03:54 16.11.2020
5410 Clouds 9 999 93 10000 10.3 270 01:45 16.11.2020
5411 Clouds 10 998 87 10000 9.3 270 00:33 16.11.2020
5412 Clouds 10 996 87 10000 7.2 260 23:30 15.11.2020
5413 Clouds 10 994 87 10000 7.2 260 22:58 15.11.2020
5414 Clouds 9 994 93 10000 6.2 260 22:25 15.11.2020
5415 Clouds 9 993 93 10000 6.2 250 21:54 15.11.2020
5416 Clouds 9 993 87 10000 6.2 250 21:35 15.11.2020
5417 Clouds 9 992 93 10000 7.7 260 20:58 15.11.2020
5418 Clouds 9 991 87 10000 7.2 260 20:38 15.11.2020
5419 Clouds 9 991 87 10000 7.2 260 20:38 15.11.2020
5420 Clouds 9 991 81 10000 8.2 260 19:57 15.11.2020
5421 Clouds 9 990 87 10000 8.2 260 19:38 15.11.2020
5422 Clouds 9 990 87 10000 8.2 260 19:19 15.11.2020
5423 Clouds 9 988 87 10000 8.7 260 18:45 15.11.2020
5424 Clouds 9 988 87 10000 8.7 260 18:25 15.11.2020
5425 Clouds 9 986 87 10000 7.2 260 17:47 15.11.2020
5426 Clouds 9 986 87 10000 7.2 260 17:26 15.11.2020
5427 Clouds 8 986 93 10000 6.2 260 16:58 15.11.2020
5428 Clouds 8 985 93 10000 6.7 260 16:38 15.11.2020
5429 Clouds 8 984 87 10000 6.2 250 16:18 15.11.2020
5430 Clouds 8 984 93 10000 6.7 240 15:42 15.11.2020
5431 Rain 7 984 87 10000 6.2 240 15:22 15.11.2020
5432 Rain 7 984 93 6000 6.7 240 14:50 15.11.2020
5433 Clouds 7 984 93 6000 6.7 240 14:25 15.11.2020
5434 Clouds 7 984 93 6000 6.7 240 14:25 15.11.2020
5435 Clouds 7 983 87 8000 6.2 230 13:41 15.11.2020
5436 Clouds 8 983 87 10000 7.2 230 13:18 15.11.2020
5437 Clouds 7 983 81 10000 5.7 230 12:42 15.11.2020
5438 Clouds 7 982 81 10000 7.2 220 12:19 15.11.2020
5439 Rain 7 982 87 10000 6.2 220 11:42 15.11.2020
5440 Rain 7 982 93 9000 5.7 230 11:18 15.11.2020
5441 Clouds 7 982 87 10000 6.7 230 10:49 15.11.2020
5442 Rain 7 982 87 10000 6.7 230 10:30 15.11.2020
5443 Clouds 7 981 87 10000 4.1 240 09:46 15.11.2020
5444 Rain 7 981 87 10000 4.1 240 09:23 15.11.2020
5445 Rain 7 981 87 7000 5.1 250 08:54 15.11.2020
5446 Rain 8 981 93 7000 5.7 240 08:31 15.11.2020
5447 Clouds 8 981 87 7000 3.6 190 07:44 15.11.2020
5448 Rain 10 983 87 10000 5.1 180 05:33 15.11.2020
5449 Clouds 10 985 81 10000 4.1 150 04:51 15.11.2020
5450 Clouds 11 988 81 10000 6.2 190 01:26 15.11.2020
5451 Clouds 11 989 87 10000 4.6 200 00:29 15.11.2020
5452 Clouds 10 989 76 10000 5.1 180 23:41 14.11.2020
5453 Clouds 10 989 76 10000 5.7 200 22:51 14.11.2020
5454 Clouds 10 989 81 10000 7.7 220 22:32 14.11.2020
5455 Clouds 10 988 76 10000 8.2 220 21:45 14.11.2020
5456 Clouds 11 988 76 10000 8.2 220 21:23 14.11.2020
5457 Clouds 11 987 87 10000 7.2 230 20:59 14.11.2020
5458 Clouds 11 987 76 10000 9.3 220 20:30 14.11.2020
5459 Clouds 11 986 81 10000 9.8 230 19:58 14.11.2020
5460 Clouds 11 985 76 10000 10.8 220 19:36 14.11.2020
5461 Clouds 12 985 71 10000 11.3 210 18:55 14.11.2020
5462 Clouds 12 986 76 10000 9.8 200 18:36 14.11.2020
5463 Clouds 12 986 76 10000 7.7 190 18:18 14.11.2020
5464 Clouds 12 986 71 10000 7.2 190 17:41 14.11.2020
5465 Rain 12 986 66 10000 8.2 200 17:20 14.11.2020
5466 Clouds 12 986 71 10000 7.2 190 16:44 14.11.2020
5467 Clouds 12 987 71 10000 6.2 200 16:24 14.11.2020
5468 Clouds 13 987 71 10000 6.2 200 15:52 14.11.2020
5469 Clouds 13 988 93 10000 6.7 160 15:29 14.11.2020
5470 Clouds 13 988 93 10000 6.7 140 14:49 14.11.2020
5471 Rain 12 991 93 10000 6.7 140 14:26 14.11.2020
5472 Rain 12 991 93 10000 6.7 140 13:49 14.11.2020
5473 Rain 12 992 81 10000 7.2 160 13:26 14.11.2020
5474 Clouds 12 993 87 10000 5.1 140 12:48 14.11.2020
5475 Clouds 12 993 87 10000 5.1 140 12:30 14.11.2020
5476 Clouds 12 995 81 10000 4.6 140 11:46 14.11.2020
5477 Clouds 11 995 81 10000 4.6 140 11:25 14.11.2020
5478 Clouds 11 996 87 10000 4.6 150 10:49 14.11.2020
5479 Clouds 11 996 87 10000 4.6 150 10:26 14.11.2020
5480 Clouds 10 996 87 10000 5.1 150 09:51 14.11.2020
5481 Clouds 10 997 87 10000 4.1 150 09:28 14.11.2020
5482 Clouds 10 998 81 10000 3.1 150 08:59 14.11.2020
5483 Rain 10 998 81 10000 6.2 190 08:38 14.11.2020
5484 Rain 10 999 87 10000 5.1 160 07:51 14.11.2020
5485 Clouds 10 999 87 10000 4.1 150 07:28 14.11.2020
5486 Clouds 9 1000 81 10000 4.1 150 06:35 14.11.2020
5487 Rain 9 1001 87 10000 4.1 160 05:37 14.11.2020
5488 Rain 10 1002 76 10000 3.1 170 04:22 14.11.2020
5489 Clouds 9 1005 76 10000 5.1 190 01:21 14.11.2020
5490 Rain 10 1005 76 10000 5.1 200 23:49 13.11.2020
5491 Rain 10 1005 76 10000 5.7 200 23:26 13.11.2020
5492 Clear 10 1005 81 10000 6.2 200 22:55 13.11.2020
5493 Rain 10 1005 76 10000 5.1 200 22:29 13.11.2020
5494 Clear 9 1005 76 10000 6.2 200 21:59 13.11.2020
5495 Clear 9 1005 76 10000 6.2 200 21:39 13.11.2020
5496 Clear 9 1005 76 10000 6.2 200 21:20 13.11.2020
5497 Clear 9 1005 81 10000 5.7 200 20:42 13.11.2020
5498 Clear 9 1005 81 10000 5.7 200 20:22 13.11.2020
5499 Clouds 10 1006 76 10000 4.6 200 19:46 13.11.2020
5500 Clouds 10 1006 76 10000 4.6 200 19:46 13.11.2020
5501 Clouds 9 1006 76 10000 4.6 200 19:23 13.11.2020
5502 Clouds 9 1006 70 10000 5.1 190 18:56 13.11.2020
5503 Clouds 9 1006 70 10000 4.6 200 18:25 13.11.2020
5504 Clouds 9 1006 70 10000 4.6 200 17:43 13.11.2020
5505 Clouds 9 1006 70 10000 4.6 200 17:43 13.11.2020
5506 Clouds 9 1005 70 10000 6.2 200 17:19 13.11.2020
5507 Clouds 9 1005 70 10000 5.7 210 16:49 13.11.2020
5508 Clouds 9 1005 70 10000 5.7 210 16:24 13.11.2020
5509 Clouds 9 1006 70 10000 5.1 210 15:50 13.11.2020
5510 Clouds 9 1005 70 10000 5.1 210 15:27 13.11.2020
5511 Rain 8 1005 75 10000 5.7 230 14:50 13.11.2020
5512 Clouds 9 1005 70 10000 6.2 220 14:25 13.11.2020
5513 Clouds 9 1005 70 10000 6.2 220 13:53 13.11.2020
5514 Clouds 9 1005 70 10000 5.7 230 13:27 13.11.2020
5515 Clouds 9 1005 70 10000 6.2 230 12:48 13.11.2020
5516 Clouds 9 1004 75 10000 6.2 230 12:25 13.11.2020
5517 Clouds 8 1004 70 10000 6.2 230 11:50 13.11.2020
5518 Clouds 8 1004 70 10000 6.2 230 11:32 13.11.2020
5519 Clouds 8 1003 75 10000 6.2 230 10:58 13.11.2020
5520 Clouds 7 1003 75 10000 6.7 230 10:39 13.11.2020
5521 Clouds 7 1003 75 10000 5.7 230 10:21 13.11.2020
5522 Clouds 7 1003 81 10000 5.7 220 09:42 13.11.2020
5523 Clouds 7 1003 81 10000 5.1 210 09:20 13.11.2020
5524 Clouds 7 1002 81 10000 5.7 210 08:50 13.11.2020
5525 Clouds 7 1002 81 10000 5.7 210 08:20 13.11.2020
5526 Clouds 6 1001 81 10000 5.7 230 07:44 13.11.2020
5527 Clouds 7 1001 81 10000 5.7 230 07:26 13.11.2020
5528 Clouds 7 1001 87 10000 6.2 230 06:49 13.11.2020
5529 Clouds 7 1001 87 10000 3.6 230 05:43 13.11.2020
5530 Clouds 7 1001 87 10000 3.6 230 05:23 13.11.2020
5531 Clouds 9 999 93 10000 4.1 250 01:45 13.11.2020
5532 Clouds 12 999 81 10000 7.7 190 00:51 13.11.2020
5533 Clouds 12 999 81 10000 7.7 190 00:31 13.11.2020
5534 Clouds 12 1000 76 10000 5.1 170 23:38 12.11.2020
5535 Rain 12 1000 87 10000 7.2 150 23:19 12.11.2020
5536 Rain 12 1000 87 10000 7.2 150 23:19 12.11.2020
5537 Clouds 12 1000 76 10000 7.7 150 22:50 12.11.2020
5538 Clouds 12 1000 76 10000 7.7 150 22:30 12.11.2020
5539 Clouds 12 1000 76 10000 9.3 170 21:56 12.11.2020
5540 Clouds 12 1001 76 10000 6.2 170 21:36 12.11.2020
5541 Clouds 12 1001 76 10000 5.7 180 21:18 12.11.2020
5542 Clouds 12 1001 76 10000 7.2 170 20:39 12.11.2020
5543 Clouds 12 1002 76 10000 7.2 190 20:21 12.11.2020
5544 Clouds 12 1002 76 10000 9.3 190 19:47 12.11.2020
5545 Clouds 12 1002 76 10000 9.3 190 19:29 12.11.2020
5546 Clouds 11 1002 76 10000 8.2 200 18:52 12.11.2020
5547 Rain 12 1003 71 10000 8.7 200 18:24 12.11.2020
5548 Clouds 12 1004 71 10000 8.7 200 17:48 12.11.2020
5549 Clouds 12 1004 71 10000 8.7 200 17:29 12.11.2020
5550 Clouds 12 1004 71 10000 8.2 190 16:47 12.11.2020
5551 Clouds 12 1004 71 10000 8.2 190 16:27 12.11.2020
5552 Clouds 12 1004 71 10000 6.2 200 15:59 12.11.2020
5553 Rain 12 1005 71 10000 7.7 190 15:41 12.11.2020
5554 Rain 12 1005 71 10000 7.7 190 15:21 12.11.2020
5555 Clouds 12 1005 71 10000 7.2 200 14:46 12.11.2020
5556 Clouds 12 1005 71 10000 7.2 200 14:25 12.11.2020
5557 Clouds 12 1006 71 10000 7.7 200 13:55 12.11.2020
5558 Clouds 11 1007 71 10000 5.7 200 13:36 12.11.2020
5559 Clouds 11 1007 71 10000 4.6 190 13:18 12.11.2020
5560 Clouds 11 1007 71 10000 4.1 200 12:42 12.11.2020
5561 Clouds 11 1007 76 10000 4.6 190 12:19 12.11.2020
5562 Clouds 10 1008 71 10000 5.1 180 11:46 12.11.2020
5563 Clouds 10 1008 71 10000 5.1 180 11:27 12.11.2020
5564 Clouds 8 1008 76 10000 3.6 190 10:41 12.11.2020
5565 Clear 8 1007 75 10000 4.1 190 10:23 12.11.2020
5566 Clouds 8 1007 75 10000 4.1 190 09:47 12.11.2020
5567 Clouds 8 1007 75 10000 4.1 190 09:23 12.11.2020
5568 Clouds 8 1007 75 10000 4.6 220 08:57 12.11.2020
5569 Clouds 8 1007 81 10000 4.6 220 08:39 12.11.2020
5570 Clouds 8 1007 87 10000 5.1 230 08:19 12.11.2020
5571 Clouds 8 1006 87 10000 4.6 230 07:42 12.11.2020
5572 Clouds 7 1006 87 10000 5.7 240 07:19 12.11.2020
5573 Clouds 7 1006 87 10000 6.7 250 06:49 12.11.2020
5574 Clouds 7 1005 87 10000 5.1 240 05:23 12.11.2020
5575 Clouds 7 1004 87 10000 7.2 270 03:21 12.11.2020
5576 Clouds 8 1002 87 10000 9.3 270 01:33 12.11.2020
5577 Clouds 9 1000 87 10000 9.3 270 23:58 11.11.2020
5578 Clouds 9 999 87 10000 7.7 260 23:25 11.11.2020
5579 Clouds 9 998 87 10000 8.2 260 22:58 11.11.2020
5580 Clouds 9 997 93 10000 7.7 260 22:39 11.11.2020
5581 Clouds 10 997 93 10000 6.2 250 22:19 11.11.2020
5582 Clouds 10 996 93 10000 5.1 240 21:41 11.11.2020
5583 Clouds 10 996 93 10000 5.1 240 21:23 11.11.2020
5584 Rain 11 996 87 10000 4.1 230 20:57 11.11.2020
5585 Rain 11 995 87 10000 2.6 240 20:39 11.11.2020
5586 Rain 11 995 87 10000 2.6 240 20:20 11.11.2020
5587 Rain 11 996 87 10000 3.6 190 19:48 11.11.2020
5588 Rain 11 997 81 10000 4.6 200 19:30 11.11.2020
5589 Rain 12 997 71 10000 8.2 180 18:53 11.11.2020
5590 Rain 12 996 76 10000 7.7 170 18:33 11.11.2020
5591 Rain 12 998 87 10000 8.7 160 17:42 11.11.2020
5592 Rain 12 998 87 10000 8.7 160 17:23 11.11.2020
5593 Rain 12 999 87 10000 8.2 160 16:54 11.11.2020
5594 Rain 13 999 82 10000 7.7 170 16:33 11.11.2020
5595 Rain 13 1001 93 6000 8.7 170 15:50 11.11.2020
5596 Rain 13 1001 93 6000 8.7 170 15:27 11.11.2020
5597 Clouds 13 1001 87 10000 7.7 170 14:56 11.11.2020
5598 Rain 13 1002 87 10000 8.7 160 14:37 11.11.2020
5599 Rain 13 1002 87 10000 8.2 160 13:57 11.11.2020
5600 Clouds 14 1003 82 10000 7.2 170 13:35 11.11.2020
5601 Rain 13 1004 87 10000 6.7 170 12:48 11.11.2020
5602 Rain 13 1005 93 10000 7.2 160 12:21 11.11.2020
5603 Rain 13 1005 93 10000 7.2 160 11:49 11.11.2020
5604 Rain 13 1005 87 6000 8.2 160 11:30 11.11.2020
5605 Rain 13 1005 87 6000 8.2 160 11:30 11.11.2020
5606 Clouds 13 1006 76 10000 9.3 170 10:43 11.11.2020
5607 Clouds 13 1006 76 10000 9.3 170 10:24 11.11.2020
5608 Clouds 13 1007 76 10000 8.7 170 09:49 11.11.2020
5609 Clouds 13 1007 76 10000 8.7 170 09:28 11.11.2020
5610 Clouds 13 1008 76 10000 8.7 180 08:49 11.11.2020
5611 Clouds 13 1008 82 10000 8.2 180 08:29 11.11.2020
5612 Clouds 13 1008 82 10000 8.2 170 07:54 11.11.2020
5613 Clouds 13 1009 76 10000 7.2 180 07:36 11.11.2020
5614 Clouds 13 1009 82 10000 6.7 170 06:29 11.11.2020
5615 Clouds 13 1011 87 10000 5.7 150 04:47 11.11.2020
5616 Clouds 13 1014 81 10000 5.7 150 01:33 11.11.2020
5617 Clouds 12 1015 81 10000 6.2 160 00:42 11.11.2020
5618 Rain 12 1015 81 10000 6.2 170 23:56 10.11.2020
5619 Rain 12 1016 76 10000 3.6 170 23:24 10.11.2020
5620 Clouds 12 1016 76 10000 3.6 170 22:57 10.11.2020
5621 Clouds 11 1016 81 10000 4.1 150 22:28 10.11.2020
5622 Clouds 11 1016 81 10000 4.6 150 21:56 10.11.2020
5623 Clouds 11 1016 81 10000 4.1 170 21:38 10.11.2020
5624 Clouds 11 1017 81 10000 5.1 150 21:19 10.11.2020
5625 Clouds 11 1017 76 10000 5.1 160 20:43 10.11.2020
5626 Clouds 11 1017 76 10000 5.1 160 20:23 10.11.2020
5627 Clouds 11 1017 76 10000 4.6 160 19:56 10.11.2020
5628 Clouds 11 1017 76 10000 4.6 170 19:37 10.11.2020
5629 Clouds 11 1017 76 10000 5.1 190 19:18 10.11.2020
5630 Clouds 11 1017 76 10000 5.1 190 18:41 10.11.2020
5631 Clouds 11 1017 76 10000 5.7 190 18:20 10.11.2020
5632 Clouds 11 1018 76 10000 5.1 190 17:44 10.11.2020
5633 Clouds 11 1018 76 10000 5.1 190 17:26 10.11.2020
5634 Clouds 11 1018 76 10000 5.1 210 16:58 10.11.2020
5635 Clouds 11 1018 76 10000 5.1 210 16:38 10.11.2020
5636 Clouds 11 1018 76 10000 5.1 220 16:20 10.11.2020
5637 Clouds 11 1018 81 10000 4.6 200 15:46 10.11.2020
5638 Clouds 11 1018 81 10000 4.6 200 15:25 10.11.2020
5639 Clouds 12 1018 76 10000 5.7 210 14:42 10.11.2020
5640 Drizzle 12 1018 87 10000 5.1 210 14:23 10.11.2020
5641 Drizzle 12 1018 87 10000 5.1 210 13:57 10.11.2020
5642 Clouds 12 1018 81 10000 3.1 220 13:36 10.11.2020
5643 Clouds 12 1018 81 10000 3.1 220 13:18 10.11.2020
5644 Clouds 12 1018 81 10000 3.6 230 12:44 10.11.2020
5645 Clouds 12 1018 81 10000 3.6 230 12:44 10.11.2020
5646 Clouds 12 1018 81 10000 3.6 230 12:24 10.11.2020
5647 Clouds 12 1018 93 10000 2.6 180 11:39 10.11.2020
5648 Clouds 12 1018 93 10000 2.6 180 11:20 10.11.2020
5649 Drizzle 11 1018 93 6000 2.1 210 10:45 10.11.2020
5650 Drizzle 11 1018 93 6000 2.1 210 10:27 10.11.2020
5651 Drizzle 11 1018 93 6000 2.1 210 10:27 10.11.2020
5652 Clouds 10 1018 87 10000 1 0 09:51 10.11.2020
5653 Clouds 10 1018 87 10000 1 0 09:51 10.11.2020
5654 Clouds 9 1017 93 10000 1 0 09:29 10.11.2020
5655 Clouds 10 1017 87 10000 1.5 150 08:59 10.11.2020
5656 Clouds 9 1018 87 10000 1.5 0 08:40 10.11.2020
5657 Clouds 10 1018 87 10000 1.5 0 08:22 10.11.2020
5658 Clouds 10 1017 93 10000 1.5 0 07:39 10.11.2020
5659 Clouds 10 1017 93 10000 1.5 0 07:19 10.11.2020
5660 Clouds 10 1017 100 10000 1 0 06:38 10.11.2020
5661 Fog 10 1017 100 200 1 0 05:33 10.11.2020
5662 Clouds 11 1016 93 10000 2.1 100 03:36 10.11.2020
5663 Clouds 11 1016 93 10000 2.1 140 01:41 10.11.2020
5664 Clouds 12 1016 93 10000 2.6 130 00:52 10.11.2020
5665 Drizzle 12 1016 100 10000 2.6 140 23:47 09.11.2020
5666 Drizzle 12 1016 100 10000 2.6 140 23:23 09.11.2020
5667 Clouds 12 1016 100 10000 3.1 140 22:42 09.11.2020
5668 Clouds 12 1016 100 10000 3.1 140 22:22 09.11.2020
5669 Clouds 12 1015 93 10000 4.1 140 21:44 09.11.2020
5670 Clouds 12 1015 93 10000 4.1 140 21:26 09.11.2020
5671 Clouds 12 1015 93 10000 3.6 140 20:42 09.11.2020
5672 Clouds 12 1015 93 10000 4.1 130 20:22 09.11.2020
5673 Clouds 13 1015 93 10000 4.1 130 19:49 09.11.2020
5674 Clouds 13 1015 93 10000 4.1 130 19:49 09.11.2020
5675 Clouds 13 1015 100 10000 4.1 140 19:24 09.11.2020
5676 Clouds 13 1015 93 10000 4.1 140 18:58 09.11.2020
5677 Clouds 13 1014 93 10000 4.6 140 18:39 09.11.2020
5678 Clouds 13 1014 93 10000 5.1 140 18:19 09.11.2020
5679 Clouds 13 1014 93 10000 4.1 140 17:44 09.11.2020
5680 Clouds 13 1014 93 10000 4.1 140 17:25 09.11.2020
5681 Clouds 14 1014 87 10000 4.6 140 16:44 09.11.2020
5682 Clouds 14 1014 87 10000 4.6 140 16:44 09.11.2020
5683 Clouds 14 1014 93 10000 3.6 140 16:23 09.11.2020
5684 Clouds 14 1014 93 10000 4.1 140 15:45 09.11.2020
5685 Clouds 14 1014 93 10000 4.1 140 15:25 09.11.2020
5686 Clouds 13 1014 93 7000 4.6 140 14:49 09.11.2020
5687 Clouds 13 1014 93 7000 4.6 140 14:28 09.11.2020
5688 Clouds 13 1014 93 10000 5.1 140 13:53 09.11.2020
5689 Rain 14 1014 93 10000 4.6 140 13:28 09.11.2020
5690 Rain 14 1014 93 10000 4.1 150 12:58 09.11.2020
5691 Rain 14 1014 93 10000 4.1 140 12:40 09.11.2020
5692 Clouds 13 1014 93 10000 4.1 150 12:20 09.11.2020
5693 Rain 13 1014 93 10000 5.1 140 11:42 09.11.2020
5694 Clouds 13 1014 93 10000 5.1 140 11:24 09.11.2020
5695 Clouds 13 1014 93 10000 5.1 150 10:44 09.11.2020
5696 Clouds 13 1014 93 10000 5.1 150 10:25 09.11.2020
5697 Clouds 13 1014 87 10000 4.6 140 09:54 09.11.2020
5698 Clouds 12 1014 93 10000 5.1 140 09:29 09.11.2020
5699 Clouds 12 1014 93 10000 6.2 150 08:50 09.11.2020
5700 Clouds 12 1013 93 10000 6.2 150 08:27 09.11.2020
5701 Drizzle 12 1013 93 10000 5.1 140 07:43 09.11.2020
5702 Drizzle 12 1013 93 10000 5.1 140 07:22 09.11.2020
5703 Clouds 12 1013 93 10000 4.6 140 06:51 09.11.2020
5704 Clouds 12 1014 93 10000 4.6 140 03:51 09.11.2020
5705 Clouds 12 1014 93 10000 4.1 130 01:57 09.11.2020
5706 Clouds 12 1014 93 10000 3.1 130 01:39 09.11.2020
5707 Clouds 12 1014 93 10000 4.6 140 00:35 09.11.2020
5708 Clouds 12 1015 93 10000 4.6 140 23:40 08.11.2020
5709 Clouds 12 1015 93 6000 3.1 130 23:22 08.11.2020
5710 Clouds 12 1015 93 10000 1.5 0 22:42 08.11.2020
5711 Clouds 12 1015 87 10000 4.1 140 22:21 08.11.2020
5712 Clouds 12 1014 87 10000 4.1 140 21:43 08.11.2020
5713 Clouds 12 1014 81 10000 5.7 150 21:20 08.11.2020
5714 Clouds 12 1014 81 10000 5.7 150 20:55 08.11.2020
5715 Clouds 12 1014 87 10000 3.1 120 20:37 08.11.2020
5716 Clouds 11 1014 87 10000 3.1 130 20:19 08.11.2020
5717 Clouds 11 1014 87 10000 4.1 100 19:43 08.11.2020
5718 Clouds 11 1014 81 10000 4.1 130 19:21 08.11.2020
5719 Clouds 12 1014 93 10000 5.1 150 18:49 08.11.2020
5720 Clouds 12 1014 81 10000 4.1 130 18:49 08.11.2020
5721 Clouds 12 1014 87 10000 3.1 100 18:22 08.11.2020
5722 Clouds 12 1014 87 10000 3.1 100 17:58 08.11.2020
5723 Clouds 12 1014 87 10000 2.6 90 17:39 08.11.2020
5724 Clouds 13 1014 82 10000 2.1 160 17:19 08.11.2020
5725 Clouds 14 1014 82 10000 2.1 160 16:56 08.11.2020
5726 Clouds 13 1013 87 10000 5.1 140 16:36 08.11.2020
5727 Clouds 13 1014 87 10000 3.6 130 16:18 08.11.2020
5728 Clouds 14 1014 82 10000 4.6 140 15:43 08.11.2020
5729 Clouds 13 1014 87 10000 4.1 140 15:22 08.11.2020
5730 Clouds 14 1014 82 10000 5.1 150 14:42 08.11.2020
5731 Clouds 14 1014 82 10000 5.1 150 14:22 08.11.2020
5732 Clouds 14 1014 82 10000 5.1 150 14:22 08.11.2020
5733 Clouds 14 1014 82 10000 5.7 150 13:47 08.11.2020
5734 Clouds 14 1014 82 10000 5.7 150 13:24 08.11.2020
5735 Clouds 15 1014 87 10000 5.1 150 12:46 08.11.2020
5736 Clouds 14 1014 87 10000 5.1 150 12:28 08.11.2020
5737 Clouds 14 1014 87 10000 2.6 140 11:58 08.11.2020
5738 Clouds 13 1014 87 10000 2.1 20 11:40 08.11.2020
5739 Clouds 13 1014 93 10000 3.1 150 11:20 08.11.2020
5740 Clouds 13 1014 93 10000 3.6 150 10:50 08.11.2020
5741 Clouds 12 1014 93 10000 3.1 150 10:19 08.11.2020
5742 Clouds 12 1014 93 10000 3.1 150 09:55 08.11.2020
5743 Clouds 12 1013 100 4000 4.1 150 09:37 08.11.2020
5744 Clouds 12 1013 100 5000 4.1 140 09:18 08.11.2020
5745 Clouds 12 1013 100 5000 4.1 140 08:39 08.11.2020
5746 Clouds 11 1013 100 4000 4.1 140 08:18 08.11.2020
5747 Clouds 11 1013 100 4000 4.1 140 07:52 08.11.2020
5748 Clouds 11 1013 93 5000 4.1 140 07:24 08.11.2020
5749 Rain 11 1013 100 4500 4.1 140 06:22 08.11.2020
5750 Rain 12 1013 100 4500 2.6 130 05:52 08.11.2020
5751 Rain 12 1014 93 4000 4.1 140 04:31 08.11.2020
5752 Drizzle 11 1015 100 8000 2.6 120 01:53 08.11.2020
5753 Clouds 11 1015 100 7000 2.6 120 01:19 08.11.2020
5754 Clouds 11 1015 100 7000 2.6 120 01:19 08.11.2020
5755 Rain 11 1015 93 5000 2.1 110 00:27 08.11.2020
5756 Rain 10 1015 100 8000 2.6 70 23:47 07.11.2020
5757 Clouds 10 1015 100 8000 2.6 70 23:28 07.11.2020
5758 Rain 10 1016 100 10000 2.6 70 22:44 07.11.2020
5759 Rain 10 1016 100 10000 2.6 70 22:25 07.11.2020
5760 Clouds 10 1016 100 10000 2.1 100 21:46 07.11.2020
5761 Clouds 10 1016 100 10000 2.1 70 21:23 07.11.2020
5762 Clouds 10 1016 100 10000 2.1 70 20:55 07.11.2020
5763 Clouds 10 1016 93 10000 1 60 20:37 07.11.2020
5764 Clouds 10 1016 93 10000 1.5 90 20:19 07.11.2020
5765 Clouds 10 1016 93 10000 2.6 60 19:43 07.11.2020
5766 Clouds 10 1016 93 10000 2.6 60 19:24 07.11.2020
5767 Clouds 10 1016 93 10000 3.6 80 18:40 07.11.2020
5768 Clouds 10 1016 93 10000 4.1 90 18:21 07.11.2020
5769 Clouds 10 1016 93 10000 4.1 80 17:46 07.11.2020
5770 Clouds 10 1016 93 10000 4.1 80 17:26 07.11.2020
5771 Clouds 10 1016 87 10000 4.6 60 16:44 07.11.2020
5772 Clouds 11 1017 87 10000 3.6 60 16:24 07.11.2020
5773 Clouds 11 1017 87 10000 3.6 70 15:48 07.11.2020
5774 Clouds 11 1017 87 10000 3.6 70 15:25 07.11.2020
5775 Clouds 11 1017 87 10000 3.6 90 14:58 07.11.2020
5776 Clouds 11 1017 87 10000 4.1 90 14:40 07.11.2020
5777 Clouds 11 1017 87 10000 4.1 90 14:20 07.11.2020
5778 Clouds 11 1017 87 10000 3.6 90 13:42 07.11.2020
5779 Clouds 11 1017 87 10000 3.6 90 13:22 07.11.2020
5780 Clouds 11 1017 81 10000 3.1 120 12:35 07.11.2020
5781 Clouds 10 1017 93 10000 2.6 60 11:47 07.11.2020
5782 Clouds 10 1017 93 10000 2.6 60 11:25 07.11.2020
5783 Clouds 9 1018 93 10000 2.6 80 10:59 07.11.2020
5784 Clouds 8 1018 100 10000 1.5 0 10:40 07.11.2020
5785 Clouds 8 1018 100 10000 1.5 0 10:22 07.11.2020
5786 Clouds 5 1018 100 10000 1.5 0 09:47 07.11.2020
5787 Clouds 5 1018 100 10000 1.5 0 09:21 07.11.2020
5788 Clouds 5 1018 93 10000 1.5 0 08:47 07.11.2020
5789 Clouds 5 1018 93 10000 1.5 0 08:29 07.11.2020
5790 Clouds 5 1018 100 10000 1 0 07:48 07.11.2020
5791 Clouds 5 1018 93 10000 2.6 90 06:54 07.11.2020
5792 Clouds 5 1018 86 10000 0.5 360 05:54 07.11.2020
5793 Clouds 5 1018 80 10000 1 140 04:22 07.11.2020
5794 Clouds 6 1019 93 10000 2.6 170 02:46 07.11.2020
5795 Clouds 6 1019 81 10000 1 0 01:27 07.11.2020
5796 Clouds 5 1020 93 10000 2.6 90 00:38 07.11.2020
5797 Clouds 5 1020 100 10000 1.5 100 23:40 06.11.2020
5798 Clouds 5 1020 86 10000 2.6 120 23:18 06.11.2020
5799 Clouds 5 1020 86 10000 3.6 110 22:40 06.11.2020
5800 Clouds 6 1021 87 10000 3.6 110 22:18 06.11.2020
5801 Clouds 6 1021 87 10000 4.1 100 21:43 06.11.2020
5802 Clouds 6 1021 100 10000 3.6 100 21:20 06.11.2020
5803 Clouds 6 1021 100 10000 3.6 100 20:47 06.11.2020
5804 Clouds 7 1021 81 10000 4.1 110 20:20 06.11.2020
5805 Clouds 7 1022 87 10000 3.1 90 19:46 06.11.2020
5806 Clouds 7 1022 87 10000 3.1 90 19:28 06.11.2020
5807 Clouds 7 1022 87 10000 4.6 110 18:57 06.11.2020
5808 Clouds 7 1022 87 10000 5.7 100 18:39 06.11.2020
5809 Clouds 8 1023 87 10000 3.6 80 18:19 06.11.2020
5810 Clouds 8 1023 87 10000 3.6 80 18:19 06.11.2020
5811 Clouds 8 1023 81 10000 3.1 90 17:47 06.11.2020
5812 Clouds 10 1023 76 10000 4.1 100 17:24 06.11.2020
5813 Clouds 10 1024 76 10000 5.1 100 16:45 06.11.2020
5814 Clouds 10 1024 76 10000 5.1 100 16:22 06.11.2020
5815 Clouds 11 1025 66 10000 4.6 120 15:47 06.11.2020
5816 Clouds 11 1025 66 10000 4.6 120 15:26 06.11.2020
5817 Clouds 11 1026 66 10000 6.2 110 14:50 06.11.2020
5818 Clouds 11 1026 66 10000 6.2 110 14:23 06.11.2020
5819 Clouds 11 1026 71 10000 5.1 120 13:44 06.11.2020
5820 Clouds 11 1027 71 10000 5.7 110 13:21 06.11.2020
5821 Clouds 11 1027 71 10000 4.6 110 12:44 06.11.2020
5822 Clouds 11 1027 71 10000 4.6 110 12:23 06.11.2020
5823 Clouds 10 1028 81 10000 3.1 130 11:40 06.11.2020
5824 Clouds 10 1029 81 10000 1.5 0 11:21 06.11.2020
5825 Clouds 8 1029 87 10000 2.6 150 10:38 06.11.2020
5826 Clouds 7 1029 87 10000 3.1 140 10:19 06.11.2020
5827 Clouds 7 1029 87 10000 3.1 140 09:46 06.11.2020
5828 Clouds 6 1029 100 10000 3.6 90 09:21 06.11.2020
5829 Clouds 6 1029 100 10000 2.1 80 08:49 06.11.2020
5830 Clouds 5 1029 100 10000 2.1 80 08:28 06.11.2020
5831 Clouds 6 1030 93 10000 1.5 90 07:48 06.11.2020
5832 Clouds 5 1030 93 10000 0.5 360 07:29 06.11.2020
5833 Clouds 5 1030 100 10000 2.09 154 06:51 06.11.2020
5834 Clouds 5 1031 100 10000 0.5 360 05:42 06.11.2020
5835 Clouds 5 1032 93 10000 1 0 03:18 06.11.2020
5836 Mist 8 1034 93 3000 1.5 70 00:46 06.11.2020
5837 Mist 8 1034 93 3000 2.1 80 00:19 06.11.2020
5838 Clouds 8 1034 93 6000 2.1 80 23:29 05.11.2020
5839 Clouds 8 1035 93 6000 1 0 22:57 05.11.2020
5840 Clouds 8 1035 93 6000 1.5 0 22:37 05.11.2020
5841 Clouds 8 1035 93 6000 2.1 30 22:18 05.11.2020
5842 Clouds 8 1035 93 8000 2.6 60 21:42 05.11.2020
5843 Clouds 8 1035 93 8000 2.6 60 21:21 05.11.2020
5844 Clouds 8 1036 93 10000 1 0 20:45 05.11.2020
5845 Clouds 9 1036 93 10000 1 0 20:26 05.11.2020
5846 Clouds 9 1036 93 10000 1.5 0 19:58 05.11.2020
5847 Clouds 9 1036 93 10000 2.1 310 19:40 05.11.2020
5848 Clouds 9 1036 93 10000 2.1 310 19:20 05.11.2020
5849 Clouds 9 1036 87 10000 2.6 290 18:42 05.11.2020
5850 Clouds 9 1036 87 10000 2.1 250 18:23 05.11.2020
5851 Clouds 9 1037 87 10000 2.6 260 17:51 05.11.2020
5852 Clouds 9 1037 87 10000 2.6 260 17:27 05.11.2020
5853 Clouds 10 1037 87 10000 1.5 0 16:50 05.11.2020
5854 Clouds 10 1037 87 10000 1.5 0 16:29 05.11.2020
5855 Drizzle 10 1037 87 10000 3.1 260 15:57 05.11.2020
5856 Clouds 10 1038 87 10000 2.6 250 15:39 05.11.2020
5857 Drizzle 10 1037 87 10000 3.1 270 15:20 05.11.2020
5858 Clouds 10 1038 87 10000 2.1 240 14:44 05.11.2020
5859 Clouds 10 1038 87 10000 2.1 240 14:24 05.11.2020
5860 Drizzle 9 1038 93 8000 4.1 260 13:41 05.11.2020
5861 Drizzle 9 1038 93 4000 3.1 250 13:23 05.11.2020
5862 Drizzle 9 1038 93 8000 4.1 260 13:23 05.11.2020
5863 Drizzle 9 1039 100 3000 3.1 250 12:45 05.11.2020
5864 Drizzle 9 1039 93 3000 2.6 240 12:23 05.11.2020
5865 Drizzle 8 1039 100 3000 3.1 240 11:46 05.11.2020
5866 Drizzle 8 1039 100 3000 3.1 240 11:25 05.11.2020
5867 Drizzle 8 1039 81 4000 2.6 240 10:52 05.11.2020
5868 Drizzle 8 1039 81 4000 2.6 240 10:30 05.11.2020
5869 Drizzle 8 1039 81 7000 2.1 240 09:55 05.11.2020
5870 Clouds 8 1038 81 10000 3.6 240 09:37 05.11.2020
5871 Clouds 8 1038 81 10000 3.1 250 09:18 05.11.2020
5872 Clouds 8 1038 75 10000 3.6 250 08:43 05.11.2020
5873 Clouds 8 1038 75 10000 4.1 250 08:23 05.11.2020
5874 Clouds 8 1038 75 10000 4.1 240 07:29 05.11.2020
5875 Clouds 7 1038 81 10000 4.1 240 06:51 05.11.2020
5876 Clouds 7 1038 81 10000 4.1 240 06:33 05.11.2020
5877 Clouds 6 1039 80 10000 3.6 250 03:47 05.11.2020
5878 Clouds 5 1040 81 10000 2.1 230 00:59 05.11.2020
5879 Clouds 5 1040 75 10000 2.1 240 00:26 05.11.2020
5880 Clouds 6 1040 81 10000 2.1 240 23:43 04.11.2020
5881 Clouds 6 1040 81 10000 2.1 240 23:25 04.11.2020
5882 Clouds 7 1039 81 10000 2.1 260 22:45 04.11.2020
5883 Clouds 7 1039 81 10000 2.1 260 22:23 04.11.2020
5884 Clouds 7 1039 87 10000 3.1 290 21:48 04.11.2020
5885 Clouds 7 1039 87 10000 3.1 290 21:29 04.11.2020
5886 Clouds 7 1039 87 10000 3.6 280 20:56 04.11.2020
5887 Clouds 7 1039 87 10000 3.6 280 20:56 04.11.2020
5888 Clouds 7 1038 87 10000 2.1 250 20:37 04.11.2020
5889 Clouds 8 1038 87 10000 4.1 290 20:18 04.11.2020
5890 Clouds 8 1038 81 10000 4.1 280 19:42 04.11.2020
5891 Clouds 8 1038 81 10000 4.1 280 19:42 04.11.2020
5892 Clouds 8 1038 81 10000 4.1 280 19:24 04.11.2020
5893 Clouds 8 1037 81 10000 2.1 240 18:43 04.11.2020
5894 Clouds 8 1037 81 10000 3.1 260 18:24 04.11.2020
5895 Clouds 8 1037 81 10000 3.1 260 17:54 04.11.2020
5896 Clouds 9 1037 76 10000 2.6 270 17:36 04.11.2020
5897 Clouds 9 1037 76 10000 3.6 280 17:18 04.11.2020
5898 Clouds 9 1037 76 10000 4.1 310 16:37 04.11.2020
5899 Clouds 9 1037 76 10000 4.6 290 16:18 04.11.2020
5900 Clouds 9 1036 66 10000 6.7 310 15:42 04.11.2020
5901 Clouds 9 1036 66 10000 6.7 310 15:23 04.11.2020
5902 Clouds 9 1036 70 10000 5.7 300 14:47 04.11.2020
5903 Clouds 9 1036 70 10000 5.7 300 14:26 04.11.2020
5904 Clouds 9 1037 70 10000 5.1 310 13:56 04.11.2020
5905 Clouds 9 1036 76 10000 5.7 300 13:37 04.11.2020
5906 Clouds 9 1036 87 10000 5.7 300 13:18 04.11.2020
5907 Clouds 8 1036 87 10000 5.7 300 12:42 04.11.2020
5908 Clouds 8 1036 87 10000 5.7 300 12:24 04.11.2020
5909 Clouds 7 1035 87 10000 5.1 280 11:46 04.11.2020
5910 Clouds 7 1035 87 10000 5.1 280 11:23 04.11.2020
5911 Clouds 5 1035 86 10000 5.7 280 10:51 04.11.2020
5912 Clouds 5 1035 86 10000 5.7 280 10:24 04.11.2020
5913 Clouds 5 1035 86 10000 5.7 280 10:24 04.11.2020
5914 Clouds 4 1034 93 10000 4.6 270 09:56 04.11.2020
5915 Clouds 4 1034 93 10000 4.1 270 09:29 04.11.2020
5916 Clouds 3 1034 100 10000 4.6 270 08:58 04.11.2020
5917 Clouds 3 1033 93 10000 5.7 270 08:39 04.11.2020
5918 Clouds 3 1033 93 10000 5.7 270 08:18 04.11.2020
5919 Clouds 4 1032 93 10000 5.7 270 07:40 04.11.2020
5920 Clouds 3 1032 100 10000 4.1 260 07:21 04.11.2020
5921 Clouds 3 1031 93 10000 5.1 270 06:39 04.11.2020
5922 Clouds 3 1031 93 10000 4.1 270 05:24 04.11.2020
5923 Clouds 3 1028 100 10000 5.7 280 02:31 04.11.2020
5924 Clouds 4 1027 93 10000 5.1 290 01:38 04.11.2020
5925 Clouds 4 1026 93 10000 5.1 270 00:25 04.11.2020
5926 Clouds 4 1025 93 10000 5.1 270 23:28 03.11.2020
5927 Clouds 4 1025 93 10000 4.6 270 22:57 03.11.2020
5928 Clouds 4 1024 93 10000 4.6 270 22:38 03.11.2020
5929 Clouds 5 1024 86 10000 3.1 260 22:19 03.11.2020
5930 Clouds 5 1023 93 10000 3.6 270 21:43 03.11.2020
5931 Clouds 5 1023 93 10000 3.6 270 21:24 03.11.2020
5932 Clouds 5 1023 93 10000 3.6 270 21:24 03.11.2020
5933 Clouds 5 1022 86 10000 5.1 270 20:49 03.11.2020
5934 Clouds 5 1022 86 10000 5.1 270 20:27 03.11.2020
5935 Clouds 5 1022 86 10000 6.2 270 19:55 03.11.2020
5936 Clouds 6 1021 86 10000 4.1 260 19:37 03.11.2020
5937 Clouds 6 1021 86 10000 4.1 270 19:19 03.11.2020
5938 Clouds 6 1020 86 10000 4.1 290 18:41 03.11.2020
5939 Clouds 6 1020 75 10000 6.7 280 18:19 03.11.2020
5940 Clouds 7 1019 75 10000 4.1 280 17:46 03.11.2020
5941 Rain 7 1019 75 10000 4.1 280 17:27 03.11.2020
5942 Clouds 8 1018 65 10000 5.7 270 16:51 03.11.2020
5943 Rain 8 1018 65 10000 5.7 270 16:31 03.11.2020
5944 Clouds 8 1018 65 10000 7.2 270 15:55 03.11.2020
5945 Clouds 8 1018 65 10000 7.2 270 15:37 03.11.2020
5946 Clouds 8 1018 70 10000 6.7 270 15:18 03.11.2020
5947 Clouds 9 1017 75 10000 7.2 270 14:42 03.11.2020
5948 Clouds 9 1017 75 10000 7.2 270 14:23 03.11.2020
5949 Clouds 9 1017 75 10000 7.2 270 13:41 03.11.2020
5950 Clouds 9 1017 75 10000 7.2 270 13:21 03.11.2020
5951 Clouds 8 1016 75 10000 7.7 270 12:45 03.11.2020
5952 Clouds 8 1016 75 10000 7.7 270 12:24 03.11.2020
5953 Clouds 7 1015 81 10000 8.2 270 11:47 03.11.2020
5954 Clouds 7 1015 81 10000 8.2 270 11:25 03.11.2020
5955 Clouds 7 1015 81 10000 7.7 270 10:56 03.11.2020
5956 Clouds 6 1015 81 10000 7.7 260 10:37 03.11.2020
5957 Clouds 6 1014 86 10000 6.2 260 10:18 03.11.2020
5958 Clouds 5 1014 80 10000 6.2 260 09:45 03.11.2020
5959 Clouds 5 1014 80 10000 6.2 260 09:22 03.11.2020
5960 Clouds 5 1012 86 10000 6.2 270 08:49 03.11.2020
5961 Clouds 5 1012 86 10000 6.2 270 08:29 03.11.2020
5962 Clouds 5 1011 86 10000 7.7 270 07:41 03.11.2020
5963 Clouds 6 1010 81 10000 8.7 270 07:19 03.11.2020
5964 Clouds 6 1010 81 10000 5.1 230 06:21 03.11.2020
5965 Clouds 6 1010 75 10000 4.6 220 04:34 03.11.2020
5966 Clouds 6 1010 75 10000 5.7 230 00:45 03.11.2020
5967 Clouds 6 1010 75 10000 5.7 230 00:24 03.11.2020
5968 Clouds 6 1009 70 10000 4.6 230 23:43 02.11.2020
5969 Clouds 6 1009 80 10000 4.6 230 23:22 02.11.2020
5970 Clouds 6 1009 75 10000 5.7 240 22:43 02.11.2020
5971 Clouds 6 1009 75 10000 5.7 240 22:24 02.11.2020
5972 Clouds 6 1008 75 10000 5.7 240 21:39 02.11.2020
5973 Clouds 6 1007 81 10000 5.1 240 21:21 02.11.2020
5974 Clouds 6 1007 81 10000 5.1 240 20:56 02.11.2020
5975 Clouds 6 1007 87 10000 4.6 240 20:38 02.11.2020
5976 Clouds 6 1006 81 10000 5.7 240 20:18 02.11.2020
5977 Clouds 6 1005 81 10000 5.7 250 19:43 02.11.2020
5978 Clouds 6 1005 81 10000 5.7 250 19:24 02.11.2020
5979 Clouds 6 1003 81 10000 11.8 270 18:42 02.11.2020
5980 Rain 6 1003 87 10000 9.8 260 18:21 02.11.2020
5981 Rain 6 1003 87 10000 9.8 260 17:57 02.11.2020
5982 Rain 6 1002 87 9000 8.2 250 17:39 02.11.2020
5983 Rain 7 1001 87 7000 6.2 250 17:20 02.11.2020
5984 Rain 6 1001 87 7000 6.2 250 17:20 02.11.2020
5985 Rain 7 1000 81 10000 5.1 250 16:41 02.11.2020
5986 Clouds 8 1000 81 10000 5.1 250 16:23 02.11.2020
5987 Clouds 8 999 87 10000 7.2 250 15:42 02.11.2020
5988 Clouds 8 997 81 10000 8.7 260 15:24 02.11.2020
5989 Rain 8 997 81 10000 8.7 260 14:54 02.11.2020
5990 Rain 8 996 87 10000 9.3 250 14:20 02.11.2020
5991 Clouds 9 996 93 8000 7.7 250 13:56 02.11.2020
5992 Clouds 9 996 93 8000 7.7 250 13:38 02.11.2020
5993 Clouds 9 995 87 6000 7.7 240 13:19 02.11.2020
5994 Clouds 10 995 87 8000 7.2 230 12:31 02.11.2020
5995 Clouds 9 994 87 10000 7.7 230 11:59 02.11.2020
5996 Clouds 10 994 81 10000 7.7 230 11:38 02.11.2020
5997 Clouds 10 994 81 10000 6.7 230 11:19 02.11.2020
5998 Clouds 9 994 81 10000 4.6 230 10:43 02.11.2020
5999 Clouds 9 994 81 10000 4.6 230 10:21 02.11.2020
6000 Clouds 8 994 81 10000 5.7 220 09:51 02.11.2020
6001 Clouds 8 993 87 10000 4.6 210 09:24 02.11.2020
6002 Clouds 7 993 87 10000 4.6 220 08:46 02.11.2020
6003 Clouds 7 993 87 10000 4.6 220 08:26 02.11.2020
6004 Clouds 7 993 93 10000 4.1 240 07:50 02.11.2020
6005 Clouds 7 991 93 10000 5.1 240 07:22 02.11.2020
6006 Clouds 7 991 93 10000 5.1 250 06:36 02.11.2020
6007 Clouds 7 988 93 10000 4.1 250 03:35 02.11.2020
6008 Clouds 7 986 93 10000 2.1 260 01:25 02.11.2020
6009 Clouds 7 986 93 8000 7.7 310 00:36 02.11.2020
6010 Clouds 9 984 100 6000 6.2 280 23:44 01.11.2020
6011 Clouds 9 984 100 6000 6.2 280 23:25 01.11.2020
6012 Clouds 10 983 93 6000 5.7 280 22:47 01.11.2020
6013 Clouds 11 983 93 6000 5.7 280 22:27 01.11.2020
6014 Clouds 11 983 100 7000 6.2 280 21:59 01.11.2020
6015 Clouds 11 982 93 6000 7.7 290 21:39 01.11.2020
6016 Clouds 12 982 93 6000 7.7 290 21:21 01.11.2020
6017 Clouds 16 981 82 10000 8.7 220 20:42 01.11.2020
6018 Clouds 16 981 82 10000 8.7 220 20:42 01.11.2020
6019 Clouds 16 981 82 10000 8.7 220 20:24 01.11.2020
6020 Clouds 16 982 93 10000 8.7 220 19:44 01.11.2020
6021 Clouds 15 982 93 10000 8.7 220 19:26 01.11.2020
6022 Clouds 15 982 93 9000 8.2 220 18:54 01.11.2020
6023 Rain 16 982 82 10000 9.3 210 18:36 01.11.2020
6024 Rain 15 983 87 10000 6.7 210 18:18 01.11.2020
6025 Rain 15 983 87 10000 6.7 210 18:18 01.11.2020
6026 Clouds 14 984 93 10000 3.1 160 17:43 01.11.2020
6027 Clouds 14 984 93 10000 3.1 160 17:24 01.11.2020
6028 Clouds 13 987 93 10000 4.1 190 16:42 01.11.2020
6029 Clouds 13 987 93 10000 4.1 190 16:21 01.11.2020
6030 Clouds 12 988 93 5000 5.1 210 15:54 01.11.2020
6031 Clouds 12 989 87 9000 7.2 210 15:36 01.11.2020
6032 Rain 12 990 81 9000 6.7 210 15:18 01.11.2020
6033 Clouds 12 991 81 9000 7.2 210 14:44 01.11.2020
6034 Rain 11 991 76 10000 9.8 210 14:22 01.11.2020
6035 Rain 12 991 76 10000 9.8 210 13:49 01.11.2020
6036 Rain 12 991 66 10000 9.3 220 13:31 01.11.2020
6037 Clouds 12 992 71 10000 8.7 210 12:44 01.11.2020
6038 Clouds 12 992 71 10000 8.7 210 12:44 01.11.2020
6039 Clouds 12 992 71 10000 8.7 210 12:26 01.11.2020
6040 Clouds 11 992 66 10000 8.2 220 11:55 01.11.2020
6041 Rain 11 992 66 10000 8.2 220 11:37 01.11.2020
6042 Clouds 11 991 71 10000 8.2 230 11:18 01.11.2020
6043 Clouds 10 991 66 10000 8.7 240 10:40 01.11.2020
6044 Clouds 10 991 70 10000 7.2 240 10:22 01.11.2020
6045 Clouds 9 991 76 10000 6.7 240 09:46 01.11.2020
6046 Clouds 9 990 76 10000 8.2 250 08:50 01.11.2020
6047 Clouds 9 990 76 10000 8.2 250 08:24 01.11.2020
6048 Clouds 10 989 76 10000 10.3 260 07:45 01.11.2020
6049 Clouds 13 987 76 10000 6.7 160 05:30 01.11.2020
6050 Rain 9 997 70 10000 8.2 170 01:52 01.11.2020
6051 Clouds 9 998 66 10000 7.2 180 00:53 01.11.2020
6052 Clouds 9 1001 66 10000 7.2 190 23:39 31.10.2020
6053 Clouds 9 1001 66 10000 5.1 180 23:18 31.10.2020
6054 Clouds 9 1001 70 10000 5.1 190 22:43 31.10.2020
6055 Clouds 8 1002 70 10000 4.1 200 22:23 31.10.2020
6056 Rain 8 1002 75 10000 5.7 210 21:46 31.10.2020
6057 Rain 8 1002 70 10000 5.1 230 21:20 31.10.2020
6058 Rain 8 1002 70 10000 5.1 220 20:39 31.10.2020
6059 Clouds 8 1003 70 10000 6.2 220 20:19 31.10.2020
6060 Clouds 8 1003 75 10000 5.7 210 19:43 31.10.2020
6061 Clouds 8 1003 75 10000 5.7 210 19:24 31.10.2020
6062 Clouds 8 1002 70 10000 6.7 230 18:52 31.10.2020
6063 Clouds 9 1002 66 10000 5.7 220 18:34 31.10.2020
6064 Clouds 9 1000 61 10000 6.7 240 17:43 31.10.2020
6065 Clouds 9 1000 61 10000 6.7 240 17:24 31.10.2020
6066 Clouds 10 999 61 10000 8.7 240 16:53 31.10.2020
6067 Clouds 10 999 61 10000 8.7 250 16:33 31.10.2020
6068 Rain 10 999 57 10000 9.3 250 15:54 31.10.2020
6069 Clouds 11 998 62 10000 10.3 250 15:25 31.10.2020
6070 Clouds 11 997 62 10000 9.3 240 14:53 31.10.2020
6071 Clouds 11 996 62 10000 9.3 240 14:31 31.10.2020
6072 Clouds 11 996 66 10000 9.8 240 13:52 31.10.2020
6073 Clouds 11 995 71 10000 8.7 240 13:28 31.10.2020
6074 Clouds 11 994 71 10000 8.7 240 12:55 31.10.2020
6075 Clouds 11 992 71 10000 10.8 240 12:22 31.10.2020
6076 Clouds 11 991 76 10000 10.8 240 11:41 31.10.2020
6077 Clouds 11 991 76 10000 10.8 240 11:22 31.10.2020
6078 Clouds 12 988 77 8000 7.7 200 10:42 31.10.2020
6079 Clouds 15 988 87 10000 7.7 170 09:57 31.10.2020
6080 Clouds 15 989 87 10000 7.2 160 09:37 31.10.2020
6081 Clouds 15 990 93 8000 8.2 150 09:19 31.10.2020
6082 Rain 14 991 93 9000 9.8 150 08:26 31.10.2020
6083 Rain 14 993 87 10000 9.8 150 07:42 31.10.2020
6084 Rain 14 993 87 10000 9.8 150 07:23 31.10.2020
6085 Clouds 14 995 87 8000 10.3 150 06:36 31.10.2020
6086 Clouds 15 1001 87 10000 9.8 170 03:49 31.10.2020
6087 Clouds 14 1003 100 8000 7.7 150 02:39 31.10.2020
6088 Clouds 11 1007 93 7000 7.2 120 00:55 31.10.2020
6089 Clouds 11 1009 87 10000 5.7 140 23:56 30.10.2020
6090 Clouds 10 1010 87 10000 6.2 140 23:31 30.10.2020
6091 Rain 10 1010 81 10000 6.2 140 22:59 30.10.2020
6092 Clouds 9 1012 87 10000 4.1 150 22:38 30.10.2020
6093 Clouds 9 1012 93 10000 3.6 130 22:20 30.10.2020
6094 Clouds 8 1012 93 10000 3.6 130 21:48 30.10.2020
6095 Clouds 8 1012 87 10000 3.6 150 21:26 30.10.2020
6096 Clouds 7 1013 87 10000 2.6 150 20:45 30.10.2020
6097 Clouds 7 1013 87 10000 2.6 150 20:26 30.10.2020
6098 Clouds 6 1014 86 10000 2.1 140 19:58 30.10.2020
6099 Clouds 6 1014 75 10000 1.5 0 19:37 30.10.2020
6100 Clouds 6 1014 75 10000 1.5 0 19:18 30.10.2020
6101 Clouds 8 1014 70 10000 1.5 180 18:41 30.10.2020
6102 Clouds 8 1014 70 10000 1.5 180 18:22 30.10.2020
6103 Clouds 9 1015 62 10000 2.1 250 17:44 30.10.2020
6104 Clouds 10 1014 66 10000 3.1 240 17:21 30.10.2020
6105 Clouds 10 1014 66 10000 3.1 240 16:50 30.10.2020
6106 Clouds 11 1014 62 10000 3.6 250 16:24 30.10.2020
6107 Clouds 11 1013 66 10000 3.1 260 15:42 30.10.2020
6108 Clouds 11 1014 66 10000 5.1 280 15:24 30.10.2020
6109 Clouds 11 1014 66 10000 5.1 280 14:58 30.10.2020
6110 Clouds 11 1013 66 10000 6.2 270 14:39 30.10.2020
6111 Clouds 11 1013 66 10000 6.2 270 14:21 30.10.2020
6112 Clouds 11 1013 66 10000 6.2 270 14:21 30.10.2020
6113 Clouds 11 1013 66 10000 6.2 270 14:21 30.10.2020
6114 Clouds 11 1013 71 10000 5.7 260 13:41 30.10.2020
6115 Clouds 11 1012 71 10000 5.7 270 13:20 30.10.2020
6116 Clouds 10 1012 76 10000 3.6 250 12:43 30.10.2020
6117 Clouds 10 1012 76 10000 3.6 250 12:22 30.10.2020
6118 Clouds 10 1011 81 10000 3.1 260 11:46 30.10.2020
6119 Clouds 10 1011 87 10000 4.1 260 11:20 30.10.2020
6120 Clouds 9 1011 87 10000 4.1 260 10:50 30.10.2020
6121 Clouds 9 1011 87 10000 3.6 270 10:25 30.10.2020
6122 Clouds 9 1010 87 10000 7.2 300 09:47 30.10.2020
6123 Clouds 9 1010 87 10000 7.2 300 09:24 30.10.2020
6124 Drizzle 10 1009 93 2500 5.1 270 08:55 30.10.2020
6125 Drizzle 10 1008 93 9000 5.1 290 08:31 30.10.2020
6126 Drizzle 10 1007 93 10000 4.1 270 07:51 30.10.2020
6127 Drizzle 10 1007 93 10000 4.1 270 07:33 30.10.2020
6128 Drizzle 11 1006 87 10000 3.1 260 06:49 30.10.2020
6129 Drizzle 11 1005 87 8000 3.6 260 05:31 30.10.2020
6130 Clouds 15 1002 82 10000 3.1 240 02:41 30.10.2020
6131 Clouds 15 1001 82 10000 6.2 220 00:47 30.10.2020
6132 Clouds 15 1000 82 10000 6.7 210 23:57 29.10.2020
6133 Clouds 15 1000 82 10000 7.7 210 23:39 29.10.2020
6134 Clouds 15 1000 82 10000 7.7 210 23:21 29.10.2020
6135 Clouds 15 1000 82 10000 7.2 210 22:43 29.10.2020
6136 Clouds 15 1000 82 10000 7.2 210 22:24 29.10.2020
6137 Clouds 15 999 82 10000 7.7 210 21:40 29.10.2020
6138 Clouds 15 999 82 10000 7.7 210 21:21 29.10.2020
6139 Clouds 15 999 87 10000 6.2 210 20:42 29.10.2020
6140 Clouds 15 999 82 10000 7.2 200 20:20 29.10.2020
6141 Clouds 15 999 82 10000 7.2 200 20:20 29.10.2020
6142 Clouds 14 999 87 10000 7.7 210 19:45 29.10.2020
6143 Clouds 14 999 87 10000 7.7 210 19:22 29.10.2020
6144 Clouds 14 999 87 10000 6.7 200 18:58 29.10.2020
6145 Clouds 14 999 87 10000 6.7 210 18:39 29.10.2020
6146 Rain 14 1000 87 10000 7.2 200 18:20 29.10.2020
6147 Rain 15 1000 82 10000 7.7 210 17:41 29.10.2020
6148 Rain 15 1000 82 10000 7.7 220 17:21 29.10.2020
6149 Clouds 15 999 82 10000 6.2 210 16:47 29.10.2020
6150 Clouds 15 1000 82 10000 7.7 210 16:21 29.10.2020
6151 Clouds 15 1000 82 10000 7.7 210 15:57 29.10.2020
6152 Rain 15 999 82 10000 7.7 220 15:38 29.10.2020
6153 Clouds 15 1000 87 10000 8.2 220 15:19 29.10.2020
6154 Clouds 15 1000 93 10000 6.7 220 14:45 29.10.2020
6155 Clouds 15 1000 87 10000 7.2 220 14:23 29.10.2020
6156 Rain 14 1000 87 10000 6.7 220 13:48 29.10.2020
6157 Rain 14 1000 87 10000 6.7 220 13:28 29.10.2020
6158 Clouds 14 999 87 10000 7.2 220 12:44 29.10.2020
6159 Clouds 14 999 87 10000 8.2 220 12:21 29.10.2020
6160 Clouds 14 999 87 10000 8.2 220 11:58 29.10.2020
6161 Clouds 14 999 93 10000 7.2 210 11:40 29.10.2020
6162 Clouds 14 999 93 10000 7.2 210 11:40 29.10.2020
6163 Clouds 13 999 87 8000 6.2 210 11:21 29.10.2020
6164 Rain 13 999 87 7000 6.7 210 10:37 29.10.2020
6165 Rain 13 999 87 7000 6.7 210 10:37 29.10.2020
6166 Rain 13 999 87 7000 6.7 210 10:19 29.10.2020
6167 Rain 13 1000 93 10000 5.7 210 09:50 29.10.2020
6168 Rain 13 1000 93 10000 5.7 210 09:27 29.10.2020
6169 Rain 12 1000 87 6000 5.1 190 08:48 29.10.2020
6170 Rain 12 1000 93 8000 2.6 150 08:26 29.10.2020
6171 Rain 11 1001 93 10000 4.1 140 07:52 29.10.2020
6172 Rain 11 1001 87 10000 4.1 150 07:23 29.10.2020
6173 Rain 10 1002 93 10000 3.6 170 06:53 29.10.2020
6174 Rain 9 1004 87 10000 4.1 200 04:50 29.10.2020
6175 Clouds 8 1004 82 10000 1.79 8 02:32 29.10.2020
6176 Clouds 7 1003 82 10000 1.79 196 00:45 29.10.2020
6177 Clouds 7 1003 82 10000 1.79 204 00:23 29.10.2020
6178 Clouds 7 1002 81 10000 1.79 216 23:44 28.10.2020
6179 Clear 7 1002 81 10000 1.34 241 23:20 28.10.2020
6180 Clouds 7 1000 81 10000 6.2 240 22:44 28.10.2020
6181 Clouds 7 1000 81 10000 6.2 240 22:26 28.10.2020
6182 Clouds 7 999 81 10000 6.7 250 21:46 28.10.2020
6183 Clouds 7 999 81 10000 6.7 250 21:26 28.10.2020
6184 Clouds 7 999 81 10000 6.2 240 20:59 28.10.2020
6185 Clouds 7 998 81 10000 6.2 240 20:40 28.10.2020
6186 Clouds 7 998 81 10000 6.7 250 20:19 28.10.2020
6187 Clouds 7 997 81 10000 5.7 250 19:47 28.10.2020
6188 Clouds 7 997 81 10000 5.7 250 19:27 28.10.2020
6189 Clouds 8 996 75 10000 5.1 240 18:46 28.10.2020
6190 Clouds 8 996 75 10000 4.6 240 18:20 28.10.2020
6191 Clouds 8 996 70 10000 4.6 240 17:44 28.10.2020
6192 Clouds 8 995 70 10000 5.1 240 17:24 28.10.2020
6193 Clouds 8 995 70 10000 5.1 240 16:49 28.10.2020
6194 Clouds 8 995 81 10000 5.1 230 16:31 28.10.2020
6195 Clouds 8 995 81 10000 5.1 240 15:46 28.10.2020
6196 Rain 9 995 72 10000 2.24 268 15:20 28.10.2020
6197 Clouds 10 994 66 10000 6.2 230 14:58 28.10.2020
6198 Clouds 9 994 66 10000 6.2 230 14:38 28.10.2020
6199 Rain 9 995 78 10000 4.47 258 14:19 28.10.2020
6200 Clouds 10 994 72 10000 3.13 128 12:39 28.10.2020
6201 Clouds 9 994 71 10000 1.34 275 12:21 28.10.2020
6202 Clouds 9 994 73 10000 1.79 151 11:44 28.10.2020
6203 Clouds 9 994 76 10000 3.13 34 11:23 28.10.2020
6204 Clouds 8 993 75 10000 6.2 220 10:59 28.10.2020
6205 Clouds 8 993 75 10000 6.2 220 10:40 28.10.2020
6206 Clouds 8 993 75 10000 6.2 220 10:22 28.10.2020
6207 Clouds 8 993 75 10000 6.2 220 10:22 28.10.2020
6208 Clouds 8 992 75 10000 6.2 230 09:41 28.10.2020
6209 Clouds 7 992 75 10000 5.1 230 09:21 28.10.2020
6210 Clouds 7 992 75 10000 5.1 230 08:48 28.10.2020
6211 Clouds 7 992 75 10000 4.6 240 08:27 28.10.2020
6212 Clouds 7 991 75 10000 6.7 230 07:48 28.10.2020
6213 Clouds 7 991 75 10000 6.7 230 07:30 28.10.2020
6214 Clouds 7 991 75 10000 6.7 230 06:41 28.10.2020
6215 Clouds 7 991 75 10000 6.7 230 05:52 28.10.2020
6216 Clouds 7 991 75 10000 7.2 230 05:20 28.10.2020
6217 Clouds 8 990 75 10000 6.7 230 04:25 28.10.2020
6218 Clouds 8 990 75 10000 7.2 230 02:26 28.10.2020
6219 Clouds 8 990 70 10000 6.2 230 01:50 28.10.2020
6220 Clouds 8 990 75 10000 7.2 210 00:21 28.10.2020
6221 Clouds 8 990 75 10000 6.2 210 23:38 27.10.2020
6222 Clouds 8 990 75 10000 6.2 210 23:20 27.10.2020
6223 Clouds 8 990 70 10000 6.2 230 22:42 27.10.2020
6224 Clouds 8 990 70 10000 6.2 230 22:19 27.10.2020
6225 Clouds 8 990 70 10000 6.2 230 21:56 27.10.2020
6226 Clouds 8 990 70 10000 5.7 220 21:37 27.10.2020
6227 Clouds 8 990 70 10000 5.7 220 21:37 27.10.2020
6228 Clouds 8 990 70 10000 5.7 220 21:37 27.10.2020
6229 Clouds 8 990 70 10000 5.7 220 21:18 27.10.2020
6230 Clouds 8 990 70 10000 5.1 230 20:43 27.10.2020
6231 Clouds 8 990 70 10000 5.1 230 20:22 27.10.2020
6232 Clouds 8 990 70 10000 5.7 230 19:39 27.10.2020
6233 Clouds 8 990 70 10000 4.6 230 19:21 27.10.2020
6234 Clouds 8 990 70 10000 4.6 230 18:58 27.10.2020
6235 Clouds 8 990 70 10000 4.1 240 18:40 27.10.2020
6236 Clouds 8 990 66 10000 5.1 250 18:20 27.10.2020
6237 Clouds 8 990 66 10000 6.2 250 17:43 27.10.2020
6238 Clouds 9 989 61 10000 4.6 250 17:21 27.10.2020
6239 Clouds 9 989 61 10000 4.6 250 17:21 27.10.2020
6240 Clouds 10 989 61 10000 7.2 250 16:54 27.10.2020
6241 Clouds 10 989 61 10000 7.2 250 16:36 27.10.2020
6242 Clouds 11 989 58 10000 7.7 250 16:18 27.10.2020
6243 Rain 11 989 66 10000 5.1 250 15:40 27.10.2020
6244 Clouds 11 988 71 10000 6.7 260 15:20 27.10.2020
6245 Clouds 11 987 66 10000 8.2 260 14:48 27.10.2020
6246 Clouds 11 987 66 10000 8.2 260 14:28 27.10.2020
6247 Clouds 11 988 71 10000 9.8 260 13:54 27.10.2020
6248 Clouds 11 988 76 10000 7.2 270 13:24 27.10.2020
6249 Clouds 10 987 87 10000 5.1 260 12:42 27.10.2020
6250 Clouds 11 987 87 10000 5.1 260 12:24 27.10.2020
6251 Clouds 10 987 87 8000 11.8 270 11:43 27.10.2020
6252 Clouds 10 987 87 8000 11.8 270 11:25 27.10.2020
6253 Clouds 12 986 93 10000 4.1 230 10:51 27.10.2020
6254 Clouds 12 986 100 8000 2.6 160 10:33 27.10.2020
6255 Clouds 11 987 93 9000 3.6 140 09:47 27.10.2020
6256 Clouds 11 987 93 9000 3.6 140 09:27 27.10.2020
6257 Clouds 10 988 93 10000 5.1 150 08:49 27.10.2020
6258 Clouds 11 988 93 10000 5.1 150 08:26 27.10.2020
6259 Clouds 10 989 93 10000 5.1 140 07:47 27.10.2020
6260 Clouds 9 989 93 10000 5.1 140 07:29 27.10.2020
6261 Clouds 9 991 87 10000 4.1 140 06:39 27.10.2020
6262 Clouds 8 991 87 10000 4.1 140 06:19 27.10.2020
6263 Clouds 8 992 81 10000 4.6 150 05:44 27.10.2020
6264 Clouds 8 994 81 10000 3.1 150 04:57 27.10.2020
6265 Clouds 8 996 87 10000 2.6 160 02:40 27.10.2020
6266 Clouds 7 997 87 10000 2.6 210 00:59 27.10.2020
6267 Clouds 8 998 87 10000 3.1 250 23:57 26.10.2020
6268 Clouds 8 998 87 10000 3.1 240 23:36 26.10.2020
6269 Clouds 8 998 87 10000 3.1 240 23:36 26.10.2020
6270 Clouds 8 999 87 10000 3.1 240 22:55 26.10.2020
6271 Clouds 8 999 87 10000 3.6 240 22:29 26.10.2020
6272 Clouds 8 999 87 10000 3.1 230 21:53 26.10.2020
6273 Clouds 8 998 93 10000 4.6 250 21:21 26.10.2020
6274 Clouds 8 998 93 10000 4.6 250 20:59 26.10.2020
6275 Clouds 8 999 87 10000 4.1 250 20:41 26.10.2020
6276 Clouds 8 998 81 10000 5.7 260 20:22 26.10.2020
6277 Clouds 8 998 76 10000 5.7 260 19:48 26.10.2020
6278 Clouds 9 998 76 10000 5.7 260 19:28 26.10.2020
6279 Clouds 9 998 81 10000 6.2 270 18:57 26.10.2020
6280 Clouds 9 998 81 10000 5.7 270 18:36 26.10.2020
6281 Clouds 9 998 81 10000 8.2 270 18:18 26.10.2020
6282 Clouds 9 997 76 10000 7.2 270 17:40 26.10.2020
6283 Clouds 10 997 76 10000 8.2 280 17:22 26.10.2020
6284 Clouds 10 997 71 10000 9.8 280 16:44 26.10.2020
6285 Clouds 10 997 71 10000 11.3 280 16:22 26.10.2020
6286 Rain 11 997 71 10000 9.3 280 15:44 26.10.2020
6287 Clouds 12 997 71 10000 9.3 280 15:25 26.10.2020
6288 Clouds 11 997 76 10000 9.8 280 14:56 26.10.2020
6289 Clouds 11 997 76 10000 9.8 280 14:56 26.10.2020
6290 Clouds 12 996 66 10000 11.3 280 14:38 26.10.2020
6291 Clouds 11 996 76 10000 9.8 270 13:48 26.10.2020
6292 Clouds 11 996 76 10000 9.8 270 13:29 26.10.2020
6293 Clouds 11 996 71 10000 10.3 270 12:58 26.10.2020
6294 Clouds 11 996 76 10000 9.8 280 12:40 26.10.2020
6295 Clouds 11 995 81 10000 8.2 270 12:20 26.10.2020
6296 Clouds 10 995 87 10000 9.3 270 11:46 26.10.2020
6297 Clouds 10 994 87 10000 8.2 270 11:23 26.10.2020
6298 Clouds 9 994 87 10000 8.2 270 10:57 26.10.2020
6299 Clouds 9 994 81 10000 8.7 270 10:38 26.10.2020
6300 Clouds 9 994 87 10000 8.2 260 10:18 26.10.2020
6301 Clouds 8 993 87 10000 8.2 270 09:39 26.10.2020
6302 Clouds 8 993 87 10000 7.7 260 09:18 26.10.2020
6303 Clouds 8 992 87 10000 7.7 260 08:27 26.10.2020
6304 Clouds 9 992 81 10000 7.7 280 07:52 26.10.2020
6305 Clouds 9 991 87 10000 7.2 260 07:31 26.10.2020
6306 Clouds 9 990 93 10000 7.2 260 05:58 26.10.2020
6307 Rain 9 988 87 10000 5.1 240 04:20 26.10.2020
6308 Clouds 8 987 93 10000 6.2 230 03:21 26.10.2020
6309 Rain 8 988 81 10000 5.7 230 01:36 26.10.2020
6310 Clouds 8 988 87 10000 5.1 220 00:39 26.10.2020
6311 Clouds 8 988 87 10000 5.7 230 00:21 26.10.2020
6312 Clouds 8 989 81 10000 4.6 230 23:37 25.10.2020
6313 Clouds 8 988 81 10000 6.2 220 22:59 25.10.2020
6314 Clouds 8 988 81 10000 5.7 220 22:39 25.10.2020
6315 Clouds 8 988 75 10000 6.2 220 22:19 25.10.2020
6316 Clouds 8 988 75 10000 5.7 220 21:39 25.10.2020
6317 Clouds 8 988 75 10000 6.2 220 21:19 25.10.2020
6318 Clouds 8 988 75 10000 5.1 220 20:44 25.10.2020
6319 Clouds 8 988 75 10000 5.1 220 20:25 25.10.2020
6320 Clouds 9 988 70 10000 5.7 230 19:57 25.10.2020
6321 Clouds 9 988 70 10000 5.1 220 19:38 25.10.2020
6322 Clouds 9 988 70 10000 5.1 230 19:19 25.10.2020
6323 Clouds 10 988 66 10000 6.2 230 18:41 25.10.2020
6324 Clouds 10 988 66 10000 5.1 220 18:22 25.10.2020
6325 Clouds 10 988 66 10000 5.1 220 17:57 25.10.2020
6326 Clouds 10 987 62 10000 5.1 220 17:38 25.10.2020
6327 Clouds 11 987 62 10000 5.7 220 17:19 25.10.2020
6328 Clouds 11 987 57 10000 5.7 220 16:46 25.10.2020
6329 Clouds 11 987 57 10000 5.7 220 16:28 25.10.2020
6330 Clouds 11 987 62 10000 7.7 220 15:50 25.10.2020
6331 Clouds 11 987 62 10000 7.7 220 15:29 25.10.2020
6332 Clouds 11 987 62 10000 5.7 230 14:55 25.10.2020
6333 Clouds 11 987 57 10000 6.2 240 14:31 25.10.2020
6334 Clouds 11 988 62 10000 7.2 230 13:58 25.10.2020
6335 Clouds 11 987 62 10000 7.2 230 13:39 25.10.2020
6336 Clouds 11 987 66 10000 6.2 230 13:18 25.10.2020
6337 Clouds 11 987 66 10000 5.7 230 12:46 25.10.2020
6338 Clouds 10 987 66 10000 5.7 230 12:25 25.10.2020
6339 Clouds 9 987 70 10000 6.2 230 11:43 25.10.2020
6340 Clouds 9 987 75 10000 6.7 230 11:21 25.10.2020
6341 Clouds 9 987 75 10000 6.7 230 10:56 25.10.2020
6342 Clouds 9 987 75 10000 6.2 220 10:38 25.10.2020
6343 Clouds 8 987 70 10000 5.7 230 10:19 25.10.2020
6344 Clouds 8 986 81 10000 6.2 230 09:39 25.10.2020
6345 Clouds 7 986 81 10000 5.7 230 09:19 25.10.2020
6346 Clouds 7 986 81 10000 6.2 230 08:40 25.10.2020
6347 Clouds 7 986 81 10000 6.2 230 08:22 25.10.2020
6348 Clouds 7 985 81 10000 6.2 230 07:46 25.10.2020
6349 Clouds 7 985 81 10000 6.2 230 07:18 25.10.2020
6350 Clouds 8 984 75 10000 6.2 220 06:30 25.10.2020
6351 Clouds 8 984 75 10000 5.1 200 05:22 25.10.2020
6352 Clouds 8 985 81 10000 4.1 210 04:51 25.10.2020
6353 Clouds 8 986 70 10000 4.1 180 02:42 25.10.2020
6354 Clouds 8 986 70 10000 5.7 190 00:54 25.10.2020
6355 Clouds 8 987 70 10000 5.1 200 00:31 25.10.2020
6356 Clouds 8 987 70 10000 4.6 200 23:59 24.10.2020
6357 Clouds 8 987 70 10000 5.1 200 23:40 24.10.2020
6358 Clouds 8 987 70 10000 5.1 190 23:20 24.10.2020
6359 Clouds 8 987 75 10000 4.1 200 22:41 24.10.2020
6360 Clouds 8 987 75 10000 4.1 200 22:23 24.10.2020
6361 Clouds 8 987 75 10000 4.1 200 21:56 24.10.2020
6362 Clouds 8 987 75 10000 4.1 190 21:37 24.10.2020
6363 Clouds 8 987 75 10000 4.1 190 21:19 24.10.2020
6364 Clouds 8 987 81 10000 3.6 190 20:43 24.10.2020
6365 Clouds 8 987 81 10000 3.6 190 20:20 24.10.2020
6366 Clouds 9 987 66 10000 4.1 220 19:42 24.10.2020
6367 Clouds 9 987 66 10000 4.1 220 19:23 24.10.2020
6368 Clouds 10 987 71 10000 6.2 220 18:54 24.10.2020
6369 Clouds 10 987 71 10000 5.7 220 18:31 24.10.2020
6370 Clouds 11 987 71 10000 3.1 210 17:54 24.10.2020
6371 Rain 10 988 76 10000 3.6 190 17:27 24.10.2020
6372 Rain 10 989 71 10000 5.1 200 16:57 24.10.2020
6373 Rain 11 989 66 10000 5.7 200 16:39 24.10.2020
6374 Rain 11 990 71 10000 4.6 200 15:58 24.10.2020
6375 Rain 11 990 66 10000 5.1 210 15:38 24.10.2020
6376 Rain 11 990 66 10000 5.1 210 15:18 24.10.2020
6377 Clouds 11 991 71 10000 4.6 200 14:39 24.10.2020
6378 Clouds 11 991 71 10000 4.6 200 14:21 24.10.2020
6379 Clouds 10 991 76 10000 3.6 210 13:44 24.10.2020
6380 Clouds 10 991 76 10000 3.6 210 13:20 24.10.2020
6381 Clouds 9 991 81 10000 5.1 210 12:41 24.10.2020
6382 Clouds 9 991 81 10000 5.1 210 12:20 24.10.2020
6383 Clouds 9 991 81 10000 5.1 210 11:50 24.10.2020
6384 Clouds 9 991 81 10000 5.1 210 11:23 24.10.2020
6385 Clouds 9 991 87 10000 5.1 220 10:48 24.10.2020
6386 Clouds 9 991 87 10000 5.1 220 10:29 24.10.2020
6387 Rain 8 991 93 10000 4.6 230 09:48 24.10.2020
6388 Clouds 10 990 87 10000 9.3 250 09:27 24.10.2020
6389 Rain 10 990 87 10000 9.3 250 08:58 24.10.2020
6390 Rain 12 989 76 10000 8.2 210 08:19 24.10.2020
6391 Rain 12 989 82 10000 8.7 200 07:51 24.10.2020
6392 Rain 12 990 82 10000 9.8 200 07:21 24.10.2020
6393 Rain 13 990 82 10000 8.7 180 06:51 24.10.2020
6394 Clouds 12 992 71 10000 7.2 160 05:47 24.10.2020
6395 Rain 11 996 71 10000 8.2 180 02:26 24.10.2020
6396 Clouds 10 1000 71 10000 6.7 180 00:57 24.10.2020
6397 Clouds 10 1000 71 10000 6.7 180 00:37 24.10.2020
6398 Clouds 10 1000 71 10000 6.7 180 00:37 24.10.2020
6399 Clouds 10 1000 71 10000 6.7 180 00:19 24.10.2020
6400 Clouds 9 1001 70 10000 6.2 190 23:43 23.10.2020
6401 Clouds 9 1001 70 10000 6.2 190 23:22 23.10.2020
6402 Clouds 8 1002 66 10000 4.1 190 22:42 23.10.2020
6403 Clouds 8 1002 66 10000 4.1 190 22:22 23.10.2020
6404 Clouds 8 1002 66 10000 4.1 190 22:22 23.10.2020
6405 Clouds 8 1003 70 10000 3.6 190 21:58 23.10.2020
6406 Clouds 8 1003 70 10000 3.6 200 21:39 23.10.2020
6407 Clouds 8 1004 75 10000 3.1 200 21:20 23.10.2020
6408 Clouds 8 1004 75 10000 3.1 200 20:39 23.10.2020
6409 Clouds 8 1004 75 10000 3.1 200 20:20 23.10.2020
6410 Clouds 8 1004 75 10000 2.6 210 19:45 23.10.2020
6411 Clouds 8 1004 75 10000 2.6 210 19:26 23.10.2020
6412 Clouds 9 1004 76 10000 5.1 240 18:48 23.10.2020
6413 Clouds 9 1004 66 10000 4.6 230 18:30 23.10.2020
6414 Clouds 10 1004 62 10000 3.6 250 17:47 23.10.2020
6415 Clouds 10 1004 62 10000 3.6 250 17:22 23.10.2020
6416 Clouds 11 1004 71 10000 4.1 250 16:55 23.10.2020
6417 Clouds 11 1004 62 10000 5.7 240 16:35 23.10.2020
6418 Clouds 11 1004 66 10000 5.1 250 15:58 23.10.2020
6419 Clouds 11 1004 62 10000 4.6 240 15:40 23.10.2020
6420 Clouds 11 1004 62 10000 6.2 250 15:20 23.10.2020
6421 Clouds 11 1004 62 10000 6.2 250 15:20 23.10.2020
6422 Clouds 11 1004 66 10000 5.7 240 14:48 23.10.2020
6423 Clouds 11 1004 66 10000 5.7 240 14:29 23.10.2020
6424 Clouds 10 1003 71 10000 6.2 260 13:42 23.10.2020
6425 Clouds 10 1003 76 10000 6.2 270 13:23 23.10.2020
6426 Clouds 9 1003 76 10000 6.2 270 12:51 23.10.2020
6427 Clouds 9 1003 81 10000 5.7 270 12:31 23.10.2020
6428 Clouds 9 1002 93 10000 4.1 260 11:51 23.10.2020
6429 Clouds 9 1002 93 10000 4.1 260 11:28 23.10.2020
6430 Clouds 8 1002 93 10000 5.7 270 10:55 23.10.2020
6431 Clouds 8 1002 93 10000 3.6 260 10:37 23.10.2020
6432 Clouds 8 1002 93 10000 3.6 260 10:19 23.10.2020
6433 Clouds 8 1001 93 8000 4.1 260 09:43 23.10.2020
6434 Clouds 8 1001 93 8000 4.1 260 09:23 23.10.2020
6435 Clouds 9 1001 87 8000 4.6 250 08:50 23.10.2020
6436 Clouds 9 1000 93 5000 4.6 220 08:26 23.10.2020
6437 Clouds 9 1000 87 10000 5.1 210 07:26 23.10.2020
6438 Rain 9 1001 81 10000 5.7 200 06:49 23.10.2020
6439 Rain 9 1001 81 10000 5.7 200 06:20 23.10.2020
6440 Rain 10 1003 66 10000 4.6 180 03:44 23.10.2020
6441 Clouds 9 1004 66 10000 3.6 180 02:27 23.10.2020
6442 Clouds 8 1005 65 10000 3.6 170 00:52 23.10.2020
6443 Rain 8 1005 65 10000 3.6 170 00:32 23.10.2020
6444 Clouds 8 1006 65 10000 3.6 180 23:37 22.10.2020
6445 Clouds 7 1006 65 10000 3.1 180 23:19 22.10.2020
6446 Clouds 8 1006 70 10000 2.6 190 22:45 22.10.2020
6447 Clouds 8 1006 70 10000 2.6 180 22:23 22.10.2020
6448 Clouds 8 1006 70 10000 2.6 180 21:54 22.10.2020
6449 Clouds 8 1007 70 10000 2.6 180 21:32 22.10.2020
6450 Clouds 8 1007 70 10000 2.6 180 20:59 22.10.2020
6451 Clouds 8 1007 75 10000 2.6 190 20:41 22.10.2020
6452 Clouds 7 1007 75 10000 2.6 190 20:23 22.10.2020
6453 Clouds 7 1006 66 10000 3.1 220 19:43 22.10.2020
6454 Clouds 8 1006 66 10000 2.6 230 19:20 22.10.2020
6455 Clouds 9 1007 61 10000 3.1 240 18:44 22.10.2020
6456 Clouds 10 1007 61 10000 3.1 250 18:22 22.10.2020
6457 Clouds 10 1007 61 10000 3.6 250 17:48 22.10.2020
6458 Clouds 10 1007 61 10000 3.6 250 17:26 22.10.2020
6459 Clouds 10 1007 61 10000 4.6 250 16:59 22.10.2020
6460 Clouds 10 1006 61 10000 6.2 260 16:41 22.10.2020
6461 Clouds 10 1006 61 10000 6.2 260 16:23 22.10.2020
6462 Clouds 10 1007 61 10000 4.6 260 15:48 22.10.2020
6463 Clouds 10 1007 66 10000 5.7 270 15:26 22.10.2020
6464 Clouds 10 1007 71 10000 6.2 270 14:50 22.10.2020
6465 Clouds 10 1007 71 10000 6.2 270 14:26 22.10.2020
6466 Clouds 10 1007 71 10000 6.2 270 14:26 22.10.2020
6467 Clouds 10 1006 71 10000 6.2 280 13:49 22.10.2020
6468 Clouds 10 1006 71 10000 6.2 280 13:24 22.10.2020
6469 Clouds 9 1006 76 10000 6.2 270 12:57 22.10.2020
6470 Clouds 9 1006 76 10000 5.7 270 12:27 22.10.2020
6471 Clouds 8 1006 81 10000 6.2 270 11:50 22.10.2020
6472 Clouds 7 1006 81 10000 6.2 270 11:20 22.10.2020
6473 Clouds 7 1005 87 10000 5.1 260 10:52 22.10.2020
6474 Clouds 7 1005 87 10000 5.1 260 10:30 22.10.2020
6475 Clouds 7 1005 81 10000 5.7 270 09:57 22.10.2020
6476 Clouds 7 1004 81 10000 5.7 260 09:38 22.10.2020
6477 Clouds 7 1004 81 10000 5.7 270 08:56 22.10.2020
6478 Clouds 7 1004 87 10000 5.1 260 08:37 22.10.2020
6479 Clouds 7 1003 87 10000 5.7 260 08:18 22.10.2020
6480 Clouds 7 1003 87 10000 4.6 260 07:42 22.10.2020
6481 Clouds 7 1003 87 10000 5.1 240 06:59 22.10.2020
6482 Clouds 7 1002 87 10000 5.1 250 06:36 22.10.2020
6483 Clouds 7 1002 87 10000 5.1 250 05:42 22.10.2020
6484 Clouds 7 1002 87 10000 6.2 260 05:19 22.10.2020
6485 Clouds 8 1001 87 10000 6.7 260 01:53 22.10.2020
6486 Clouds 8 1001 81 10000 6.2 270 00:27 22.10.2020
6487 Clouds 8 1000 81 10000 6.7 270 23:57 21.10.2020
6488 Clouds 8 1000 81 10000 5.1 270 23:35 21.10.2020
6489 Clouds 9 1000 81 10000 6.7 270 22:54 21.10.2020
6490 Clouds 9 999 87 10000 5.7 270 22:36 21.10.2020
6491 Clouds 9 999 81 10000 6.7 290 22:18 21.10.2020
6492 Clouds 9 999 87 10000 6.2 290 21:42 21.10.2020
6493 Clouds 10 998 87 10000 5.7 290 21:19 21.10.2020
6494 Clouds 10 997 87 10000 6.7 300 20:48 21.10.2020
6495 Clouds 10 997 93 10000 7.2 310 20:19 21.10.2020
6496 Clouds 10 997 93 10000 7.2 310 19:57 21.10.2020
6497 Clouds 11 997 81 7000 6.2 270 19:37 21.10.2020
6498 Clouds 11 996 81 10000 7.7 280 19:18 21.10.2020
6499 Clouds 11 995 81 10000 7.7 290 18:46 21.10.2020
6500 Clouds 12 995 76 10000 6.7 290 18:21 21.10.2020
6501 Clouds 12 994 76 10000 7.7 290 17:43 21.10.2020
6502 Clouds 12 994 76 10000 6.7 270 17:20 21.10.2020
6503 Clouds 13 994 76 10000 7.2 290 16:41 21.10.2020
6504 Clouds 13 994 76 10000 7.2 290 16:22 21.10.2020
6505 Clouds 12 993 81 10000 8.7 280 15:57 21.10.2020
6506 Clouds 13 993 82 10000 7.7 270 15:38 21.10.2020
6507 Clouds 13 993 82 10000 7.7 270 15:19 21.10.2020
6508 Clouds 13 993 82 10000 7.7 290 14:44 21.10.2020
6509 Clouds 13 993 82 10000 7.2 290 14:26 21.10.2020
6510 Clouds 13 993 82 10000 6.2 270 13:45 21.10.2020
6511 Clouds 12 993 93 10000 4.6 260 13:26 21.10.2020
6512 Clouds 12 992 87 10000 5.1 260 12:48 21.10.2020
6513 Clouds 12 992 93 10000 5.1 260 12:24 21.10.2020
6514 Clouds 12 992 93 10000 5.1 260 11:59 21.10.2020
6515 Clouds 11 992 93 10000 5.1 260 11:40 21.10.2020
6516 Clouds 11 992 93 10000 5.1 260 11:40 21.10.2020
6517 Clouds 12 992 87 10000 3.6 250 11:19 21.10.2020
6518 Clouds 11 992 87 10000 3.6 250 10:43 21.10.2020
6519 Clouds 10 992 87 10000 3.1 240 10:23 21.10.2020
6520 Clouds 10 991 87 10000 4.1 240 09:52 21.10.2020
6521 Clouds 10 991 87 10000 4.1 240 09:30 21.10.2020
6522 Clouds 10 991 87 10000 3.1 220 08:42 21.10.2020
6523 Clouds 10 991 87 10000 2.6 230 08:24 21.10.2020
6524 Clouds 10 991 87 10000 2.6 220 07:58 21.10.2020
6525 Clouds 10 991 87 10000 3.6 220 07:31 21.10.2020
6526 Clouds 10 991 87 10000 4.1 220 06:50 21.10.2020
6527 Clear 10 991 87 10000 4.6 230 06:26 21.10.2020
6528 Clear 11 991 81 10000 4.6 210 04:46 21.10.2020
6529 Clouds 12 991 76 10000 6.7 210 00:50 21.10.2020
6530 Clouds 12 990 76 10000 7.2 200 23:49 20.10.2020
6531 Clouds 12 990 71 10000 7.7 210 22:52 20.10.2020
6532 Clouds 13 990 76 10000 8.7 200 22:27 20.10.2020
6533 Clouds 13 989 76 10000 8.7 200 21:49 20.10.2020
6534 Clouds 13 989 76 10000 9.8 190 21:20 20.10.2020
6535 Clouds 13 988 76 10000 10.3 200 20:45 20.10.2020
6536 Clouds 13 988 76 10000 10.3 190 20:26 20.10.2020
6537 Clouds 13 988 76 10000 10.3 190 19:58 20.10.2020
6538 Clouds 13 988 76 10000 10.3 190 19:40 20.10.2020
6539 Clouds 13 987 76 10000 10.3 190 19:21 20.10.2020
6540 Clouds 14 987 76 10000 10.8 190 18:47 20.10.2020
6541 Clouds 14 986 76 10000 11.3 180 18:27 20.10.2020
6542 Clouds 14 986 82 10000 9.3 170 17:43 20.10.2020
6543 Clouds 13 986 82 10000 9.3 170 17:24 20.10.2020
6544 Clouds 13 986 71 10000 7.7 180 16:48 20.10.2020
6545 Clouds 14 986 76 10000 7.2 180 16:27 20.10.2020
6546 Clouds 14 986 76 10000 8.7 170 15:51 20.10.2020
6547 Clouds 14 986 71 10000 8.7 170 15:33 20.10.2020
6548 Clouds 14 986 76 10000 9.3 180 14:59 20.10.2020
6549 Clouds 14 987 76 10000 8.7 170 14:39 20.10.2020
6550 Clouds 14 987 76 10000 8.7 170 14:21 20.10.2020
6551 Clouds 15 987 72 10000 9.8 170 13:44 20.10.2020
6552 Clouds 14 987 76 10000 7.7 170 13:23 20.10.2020
6553 Clouds 14 987 82 10000 8.2 170 12:56 20.10.2020
6554 Rain 14 987 82 10000 8.2 160 12:38 20.10.2020
6555 Drizzle 14 987 82 10000 8.2 160 12:19 20.10.2020
6556 Rain 13 987 87 10000 8.7 160 11:37 20.10.2020
6557 Rain 13 987 87 10000 8.7 160 11:18 20.10.2020
6558 Rain 13 988 87 10000 7.2 150 10:29 20.10.2020
6559 Rain 13 989 82 10000 5.7 150 09:51 20.10.2020
6560 Clouds 13 989 82 10000 5.7 150 09:21 20.10.2020
6561 Clouds 13 989 87 10000 6.2 160 08:58 20.10.2020
6562 Clouds 13 989 82 10000 4.1 150 08:31 20.10.2020
6563 Clouds 13 990 82 10000 3.6 110 07:51 20.10.2020
6564 Clouds 12 990 82 10000 5.1 160 07:25 20.10.2020
6565 Clouds 13 990 93 10000 4.6 160 06:29 20.10.2020
6566 Clouds 12 990 100 10000 3.6 160 05:22 20.10.2020
6567 Clouds 12 992 93 6000 8.2 150 02:44 20.10.2020
6568 Rain 12 993 87 8000 7.7 140 02:18 20.10.2020
6569 Clouds 12 995 87 10000 5.1 140 00:57 20.10.2020
6570 Rain 12 996 87 10000 6.7 140 00:39 20.10.2020
6571 Rain 12 996 87 10000 6.7 140 00:19 20.10.2020
6572 Clouds 12 997 87 10000 4.1 140 23:40 19.10.2020
6573 Clouds 12 998 87 10000 5.7 150 23:19 19.10.2020
6574 Clouds 12 998 87 10000 5.7 150 22:42 19.10.2020
6575 Rain 12 998 87 10000 5.1 130 22:20 19.10.2020
6576 Clouds 11 999 93 8000 3.1 130 21:42 19.10.2020
6577 Rain 11 999 87 8000 5.1 160 21:20 19.10.2020
6578 Rain 11 1000 93 8000 4.6 140 20:45 19.10.2020
6579 Rain 11 1000 87 8000 4.6 140 20:27 19.10.2020
6580 Rain 11 1001 87 7000 4.1 160 19:47 19.10.2020
6581 Rain 12 1002 87 10000 4.6 160 19:22 19.10.2020
6582 Rain 12 1002 87 10000 4.6 160 19:22 19.10.2020
6583 Rain 12 1002 87 10000 5.7 160 18:53 19.10.2020
6584 Rain 12 1002 87 10000 6.2 150 18:33 19.10.2020
6585 Rain 12 1002 87 10000 7.2 160 17:57 19.10.2020
6586 Rain 12 1002 87 10000 7.2 160 17:39 19.10.2020
6587 Rain 12 1002 87 10000 6.2 170 17:20 19.10.2020
6588 Rain 12 1003 87 8000 6.7 170 16:42 19.10.2020
6589 Rain 12 1003 87 8000 6.7 170 16:21 19.10.2020
6590 Rain 12 1003 90 10000 4.47 171 15:40 19.10.2020
6591 Rain 13 1004 88 10000 2.68 178 15:22 19.10.2020
6592 Rain 13 1005 83 10000 3.13 252 14:50 19.10.2020
6593 Rain 12 1005 86 10000 2.68 262 14:24 19.10.2020
6594 Rain 12 1006 87 10000 0.89 223 13:49 19.10.2020
6595 Rain 12 1006 86 10000 0.45 76 13:31 19.10.2020
6596 Rain 12 1007 85 10000 1.34 314 12:49 19.10.2020
6597 Rain 12 1007 83 10000 1.34 306 12:31 19.10.2020
6598 Rain 12 1008 81 10000 0.45 45 11:51 19.10.2020
6599 Clouds 12 1009 76 10000 3.1 160 11:25 19.10.2020
6600 Clouds 12 1009 76 10000 3.1 160 10:56 19.10.2020
6601 Clouds 12 1009 76 10000 3.1 160 10:36 19.10.2020
6602 Clouds 12 1009 76 10000 3.1 160 10:36 19.10.2020
6603 Clouds 12 1009 76 10000 4.1 160 10:18 19.10.2020
6604 Rain 12 1009 76 10000 5.1 160 09:42 19.10.2020
6605 Rain 12 1010 76 10000 5.1 170 09:19 19.10.2020
6606 Clouds 12 1011 76 10000 5.1 160 08:47 19.10.2020
6607 Rain 12 1011 76 10000 5.1 160 08:21 19.10.2020
6608 Clouds 12 1011 76 10000 5.1 180 07:22 19.10.2020
6609 Clouds 12 1012 81 10000 2.6 170 06:51 19.10.2020
6610 Clouds 12 1012 81 10000 5.1 200 06:18 19.10.2020
6611 Clouds 12 1015 76 10000 5.1 190 03:47 19.10.2020
6612 Clouds 12 1016 81 10000 3.6 170 01:59 19.10.2020
6613 Clouds 11 1017 93 10000 1 0 00:44 19.10.2020
6614 Clouds 11 1017 87 10000 0.5 0 23:59 18.10.2020
6615 Clouds 11 1017 87 10000 1.5 0 23:41 18.10.2020
6616 Clouds 11 1018 81 10000 2.1 170 23:21 18.10.2020
6617 Clouds 10 1018 93 10000 1.5 0 22:45 18.10.2020
6618 Clouds 11 1018 93 10000 1.5 0 22:19 18.10.2020
6619 Clouds 10 1018 93 10000 1.5 0 21:48 18.10.2020
6620 Clouds 10 1019 93 10000 1.5 0 21:29 18.10.2020
6621 Clouds 10 1019 87 10000 1 0 20:47 18.10.2020
6622 Clouds 10 1019 87 10000 1 0 20:25 18.10.2020
6623 Clouds 11 1020 93 10000 1 120 19:57 18.10.2020
6624 Clouds 11 1020 87 10000 1.5 140 19:39 18.10.2020
6625 Clouds 12 1020 81 10000 1.5 0 19:19 18.10.2020
6626 Clouds 12 1020 81 10000 1.5 0 19:19 18.10.2020
6627 Clouds 12 1020 81 10000 2.1 150 18:46 18.10.2020
6628 Clouds 13 1020 76 10000 2.1 140 18:24 18.10.2020
6629 Clouds 13 1020 76 10000 1.5 0 17:41 18.10.2020
6630 Clouds 13 1020 76 10000 1.5 0 17:22 18.10.2020
6631 Clouds 13 1021 71 10000 1.5 0 16:44 18.10.2020
6632 Clouds 13 1021 71 10000 1.5 0 16:44 18.10.2020
6633 Clouds 13 1021 71 10000 1.5 0 16:25 18.10.2020
6634 Clouds 13 1022 76 10000 1.5 0 15:45 18.10.2020
6635 Clouds 12 1022 76 10000 1.5 0 15:27 18.10.2020
6636 Clouds 12 1022 76 10000 2.1 160 14:58 18.10.2020
6637 Clouds 12 1023 71 10000 2.6 160 14:39 18.10.2020
6638 Clouds 12 1023 71 10000 2.6 160 14:39 18.10.2020
6639 Clouds 12 1023 71 10000 2.6 160 14:39 18.10.2020
6640 Clouds 12 1023 71 10000 2.6 160 14:39 18.10.2020
6641 Clouds 12 1023 76 10000 2.1 170 14:21 18.10.2020
6642 Clouds 12 1023 66 10000 3.1 160 13:43 18.10.2020
6643 Clouds 11 1023 87 10000 1 0 13:25 18.10.2020
6644 Clouds 10 1023 81 10000 2.6 150 12:44 18.10.2020
6645 Clouds 10 1023 81 10000 2.6 150 12:24 18.10.2020
6646 Clouds 8 1023 93 10000 0.5 0 11:55 18.10.2020
6647 Clouds 7 1023 100 10000 1 0 11:37 18.10.2020
6648 Clouds 6 1023 100 10000 1 0 11:18 18.10.2020
6649 Clouds 4 1023 100 10000 0.5 0 10:39 18.10.2020
6650 Clouds 3 1023 100 10000 1 110 10:19 18.10.2020
6651 Clouds 3 1023 85 10000 1 90 09:47 18.10.2020
6652 Clouds 3 1023 86 10000 1 90 09:21 18.10.2020
6653 Clouds 3 1023 100 10000 1 0 08:52 18.10.2020
6654 Clouds 3 1023 100 10000 1 0 08:26 18.10.2020
6655 Clouds 3 1023 100 10000 1 0 07:51 18.10.2020
6656 Fog 4 1023 100 10000 1.94 186 05:58 18.10.2020
6657 Clouds 5 1024 100 10000 1 0 03:55 18.10.2020
6658 Clouds 5 1024 93 10000 1 0 02:53 18.10.2020
6659 Clouds 7 1024 93 10000 1.5 130 01:31 18.10.2020
6660 Clouds 9 1024 87 10000 2.6 100 00:43 18.10.2020
6661 Clouds 9 1024 93 10000 2.1 20 00:20 18.10.2020
6662 Drizzle 9 1024 93 10000 2.6 70 23:41 17.10.2020
6663 Drizzle 9 1024 93 10000 2.6 70 23:21 17.10.2020
6664 Clouds 10 1024 87 10000 2.1 100 22:57 17.10.2020
6665 Clouds 10 1024 81 10000 3.6 70 22:36 17.10.2020
6666 Clouds 10 1024 81 10000 3.6 70 22:18 17.10.2020
6667 Clouds 10 1023 81 10000 3.6 80 21:43 17.10.2020
6668 Clouds 10 1023 76 10000 4.1 70 21:20 17.10.2020
6669 Clouds 10 1023 87 10000 3.6 80 20:45 17.10.2020
6670 Clouds 10 1023 81 10000 2.6 70 20:20 17.10.2020
6671 Clouds 9 1023 81 10000 3.1 70 19:44 17.10.2020
6672 Clouds 9 1023 87 10000 4.1 80 19:22 17.10.2020
6673 Clouds 9 1023 87 10000 3.6 100 18:46 17.10.2020
6674 Clouds 9 1023